# Wetter Temperatur Luftdruck Luftfeuchtigkeit Sichtweite Windgeschwindigkeit Windrichtung Zeit
1 Clear 7 1023 53 10000 4.12 50 11:49 22.04.2021
2 Clear 7 1023 53 10000 4.12 50 11:25 22.04.2021
3 Clear 6 1023 60 10000 5.14 60 10:47 22.04.2021
4 Clear 6 1023 60 10000 5.14 60 10:29 22.04.2021
5 Clear 4 1023 70 10000 5.66 50 09:58 22.04.2021
6 Clear 4 1023 70 10000 5.66 50 09:33 22.04.2021
7 Clear 3 1022 80 10000 3.09 70 08:47 22.04.2021
8 Clear 3 1022 80 10000 3.09 70 08:23 22.04.2021
9 Clear 2 1022 80 10000 3.6 60 07:49 22.04.2021
10 Clear 2 1022 80 10000 3.6 60 07:30 22.04.2021
11 Haze 3 1021 80 5000 4.12 50 06:43 22.04.2021
12 Haze 3 1021 80 5000 4.12 50 06:18 22.04.2021
13 Haze 4 1021 75 8000 4.12 40 05:21 22.04.2021
14 Haze 7 1020 81 4000 2.57 40 02:24 22.04.2021
15 Clear 9 1018 76 10000 4.63 10 23:59 21.04.2021
16 Clear 9 1018 62 10000 6.69 20 23:39 21.04.2021
17 Clear 10 1018 76 10000 4.63 10 23:19 21.04.2021
18 Clear 10 1017 54 10000 5.14 360 22:40 21.04.2021
19 Clear 10 1018 58 10000 4.63 10 22:19 21.04.2021
20 Clear 12 1017 54 10000 4.63 360 21:41 21.04.2021
21 Clear 11 1017 58 10000 3.09 20 21:19 21.04.2021
22 Clear 13 1016 47 10000 3.09 360 20:32 21.04.2021
23 Clouds 13 1016 47 10000 2.06 360 19:50 21.04.2021
24 Clouds 14 1016 47 10000 2.06 360 19:28 21.04.2021
25 Clear 14 1016 51 10000 3.09 20 18:57 21.04.2021
26 Clouds 14 1016 44 10000 6.17 10 18:39 21.04.2021
27 Clear 16 1016 51 10000 3.09 20 18:19 21.04.2021
28 Clouds 15 1016 51 10000 4.63 50 17:43 21.04.2021
29 Clouds 16 1016 51 10000 4.63 50 17:22 21.04.2021
30 Clouds 15 1015 44 10000 5.14 360 16:40 21.04.2021
31 Clouds 16 1016 55 10000 6.17 50 15:52 21.04.2021
32 Drizzle 17 1016 51 10000 5.14 360 15:26 21.04.2021
33 Clouds 16 1016 42 10000 4.63 290 14:46 21.04.2021
34 Clouds 17 1016 42 10000 4.63 290 14:27 21.04.2021
35 Clouds 17 1016 42 10000 3.6 310 13:50 21.04.2021
36 Drizzle 17 1016 39 10000 1.54 310 13:23 21.04.2021
37 Clouds 15 1016 54 10000 1.69 330 12:52 21.04.2021
38 Clouds 15 1016 54 10000 1.48 1 12:25 21.04.2021
39 Drizzle 14 1016 54 10000 1.48 1 11:47 21.04.2021
40 Clear 14 1016 54 10000 1.42 2 11:25 21.04.2021
41 Clear 12 1016 71 10000 1.42 2 10:42 21.04.2021
42 Clear 9 1016 93 10000 1.38 11 09:58 21.04.2021
43 Clear 9 1016 66 10000 4.12 60 09:35 21.04.2021
44 Clear 7 1016 93 10000 1.21 14 08:54 21.04.2021
45 Clear 5 1016 93 10000 1.11 29 08:27 21.04.2021
46 Clear 6 1016 93 10000 1.26 30 07:59 21.04.2021
47 Clear 5 1016 93 10000 1.31 35 07:29 21.04.2021
48 Clear 3 1015 87 10000 1.06 44 06:25 21.04.2021
49 Clear 4 1016 81 10000 1 55 04:41 21.04.2021
50 Clear 6 1016 70 10000 1.2 49 00:51 21.04.2021
51 Clear 7 1016 66 10000 1.25 59 23:48 20.04.2021
52 Clear 9 1016 57 10000 1.54 70 22:59 20.04.2021
53 Clear 9 1016 57 10000 1.54 70 22:38 20.04.2021
54 Clear 9 1016 57 10000 1.54 70 22:18 20.04.2021
55 Clear 11 1016 54 10000 2.06 50 21:45 20.04.2021
56 Clear 11 1016 54 10000 2.06 50 21:24 20.04.2021
57 Clear 11 1015 54 10000 1.01 79 20:42 20.04.2021
58 Clear 13 1015 54 10000 1 66 20:23 20.04.2021
59 Clouds 14 1015 44 10000 1.54 300 19:54 20.04.2021
60 Clear 15 1015 50 10000 2.06 340 19:36 20.04.2021
61 Clouds 14 1015 44 10000 1.56 77 18:55 20.04.2021
62 Clear 15 1015 54 10000 2.57 30 18:35 20.04.2021
63 Clouds 15 1016 44 10000 2.15 77 17:45 20.04.2021
64 Clouds 14 1016 44 10000 1.83 79 17:25 20.04.2021
65 Clouds 14 1016 47 10000 2.06 50 16:44 20.04.2021
66 Clouds 15 1016 47 10000 2.57 20 15:51 20.04.2021
67 Clouds 14 1016 47 10000 2.57 20 15:28 20.04.2021
68 Clouds 14 1016 44 10000 1.14 112 14:57 20.04.2021
69 Clear 14 1016 44 10000 2.57 170 14:31 20.04.2021
70 Clear 13 1017 44 10000 2.06 120 13:44 20.04.2021
71 Clear 13 1017 44 10000 2.06 120 13:18 20.04.2021
72 Clear 13 1017 54 10000 3.09 120 12:41 20.04.2021
73 Clear 13 1017 54 10000 3.09 120 12:20 20.04.2021
74 Clouds 12 1017 66 10000 2.06 0 11:41 20.04.2021
75 Clear 11 1017 76 10000 2.06 80 11:21 20.04.2021
76 Clear 10 1017 76 10000 2.06 80 10:43 20.04.2021
77 Clear 10 1017 76 10000 2.06 80 10:23 20.04.2021
78 Clear 7 1017 93 10000 1.14 54 09:23 20.04.2021
79 Clear 5 1017 100 10000 1.14 54 08:55 20.04.2021
80 Clear 4 1017 100 10000 1.06 60 08:20 20.04.2021
81 Clouds 3 1017 100 6000 2.06 50 07:40 20.04.2021
82 Clouds 3 1017 100 6000 2.06 50 07:40 20.04.2021
83 Clear 2 1017 100 10000 1.18 65 06:37 20.04.2021
84 Clear 2 1017 100 10000 1 68 05:38 20.04.2021
85 Clear 3 1017 100 10000 1.09 66 04:41 20.04.2021
86 Clouds 5 1018 87 10000 0.72 82 01:26 20.04.2021
87 Clouds 5 1018 81 10000 2.06 20 00:34 20.04.2021
88 Clouds 7 1018 76 10000 1.54 50 23:36 19.04.2021
89 Clouds 7 1018 81 10000 1.54 40 22:57 19.04.2021
90 Clouds 7 1018 76 10000 1.54 40 22:33 19.04.2021
91 Clouds 9 1018 76 10000 2.06 350 21:51 19.04.2021
92 Clouds 8 1018 93 10000 3.09 70 21:33 19.04.2021
93 Clouds 9 1018 76 10000 1.54 320 20:55 19.04.2021
94 Clouds 8 1018 87 10000 2.06 80 20:37 19.04.2021
95 Clouds 9 1018 76 10000 1.54 320 20:19 19.04.2021
96 Clouds 9 1018 87 10000 3.6 50 19:40 19.04.2021
97 Clouds 11 1018 81 10000 2.06 300 19:22 19.04.2021
98 Clouds 11 1018 76 10000 2.57 290 18:46 19.04.2021
99 Drizzle 12 1018 66 10000 2.17 47 18:22 19.04.2021
100 Clouds 11 1018 62 10000 2.17 47 17:54 19.04.2021
101 Clouds 12 1018 62 10000 3.09 90 17:29 19.04.2021
102 Clouds 12 1018 66 10000 4.12 90 16:51 19.04.2021
103 Clouds 12 1018 66 10000 4.12 90 16:33 19.04.2021
104 Clouds 12 1018 66 10000 4.12 90 16:33 19.04.2021
105 Clouds 12 1018 71 10000 3.6 70 15:52 19.04.2021
106 Clouds 12 1018 71 10000 3.6 70 15:29 19.04.2021
107 Clouds 11 1019 81 10000 2.06 150 14:55 19.04.2021
108 Clouds 11 1018 62 10000 4.12 110 14:35 19.04.2021
109 Clouds 10 1019 81 10000 1.54 90 13:54 19.04.2021
110 Clouds 9 1019 93 10000 1.54 40 13:30 19.04.2021
111 Clouds 8 1019 100 10000 1.54 80 12:56 19.04.2021
112 Clouds 8 1019 100 10000 1.54 80 12:38 19.04.2021
113 Clouds 8 1019 100 10000 2.06 60 12:19 19.04.2021
114 Clouds 8 1019 100 10000 0.8 21 11:51 19.04.2021
115 Clouds 8 1019 100 10000 0.64 1 11:20 19.04.2021
116 Clouds 8 1019 100 10000 0.64 1 10:44 19.04.2021
117 Rain 8 1019 100 6000 1.54 270 10:20 19.04.2021
118 Rain 8 1019 100 6000 1.54 270 10:20 19.04.2021
119 Rain 7 1019 100 9000 1.54 250 09:48 19.04.2021
120 Clouds 7 1019 93 6000 1.1 345 09:27 19.04.2021
121 Rain 6 1019 100 10000 1.1 345 08:45 19.04.2021
122 Rain 6 1019 100 10000 0.54 320 08:24 19.04.2021
123 Rain 6 1018 100 10000 1.54 230 07:45 19.04.2021
124 Rain 6 1018 100 10000 1.54 230 07:18 19.04.2021
125 Clouds 6 1019 93 10000 2.06 270 05:43 19.04.2021
126 Clouds 6 1019 81 10000 2.06 280 02:34 19.04.2021
127 Clouds 7 1020 71 10000 0.96 239 00:45 19.04.2021
128 Clouds 8 1020 71 10000 0.75 221 23:38 18.04.2021
129 Clouds 8 1020 71 10000 0.38 203 23:18 18.04.2021
130 Rain 9 1020 66 10000 0.38 203 22:43 18.04.2021
131 Clouds 8 1020 66 10000 0.47 149 22:23 18.04.2021
132 Clouds 9 1020 61 10000 1.54 320 21:29 18.04.2021
133 Clouds 9 1020 66 10000 2.06 330 20:57 18.04.2021
134 Clouds 10 1020 62 10000 2.06 350 20:38 18.04.2021
135 Clouds 9 1020 62 10000 4.12 10 20:20 18.04.2021
136 Clouds 10 1020 58 10000 3.09 360 19:44 18.04.2021
137 Clouds 10 1020 58 10000 3.09 360 19:23 18.04.2021
138 Clouds 10 1020 62 10000 1.54 330 18:50 18.04.2021
139 Clouds 10 1020 62 10000 1.54 330 18:30 18.04.2021
140 Clouds 10 1020 57 10000 4.63 10 17:50 18.04.2021
141 Clouds 10 1020 57 10000 4.63 10 17:30 18.04.2021
142 Clouds 11 1020 57 10000 4.63 360 16:54 18.04.2021
143 Clouds 10 1019 54 10000 3.09 0 16:36 18.04.2021
144 Clouds 11 1020 50 10000 3.09 40 15:51 18.04.2021
145 Clouds 11 1020 50 10000 3.09 40 15:32 18.04.2021
146 Clouds 11 1020 50 10000 3.6 170 14:58 18.04.2021
147 Clouds 11 1020 62 10000 5.14 60 14:40 18.04.2021
148 Clouds 12 1020 50 10000 3.6 170 14:18 18.04.2021
149 Clouds 10 1020 57 10000 2.06 60 13:44 18.04.2021
150 Clouds 9 1021 57 10000 3.09 40 13:26 18.04.2021
151 Clouds 11 1020 54 10000 4.63 40 12:37 18.04.2021
152 Clouds 10 1021 57 10000 5.66 40 11:55 18.04.2021
153 Clouds 9 1021 57 10000 2.53 12 11:28 18.04.2021
154 Clouds 8 1021 61 10000 1.54 350 10:58 18.04.2021
155 Clouds 8 1021 61 10000 2.53 12 10:40 18.04.2021
156 Clouds 7 1021 61 10000 1.54 290 09:58 18.04.2021
157 Clouds 7 1021 61 10000 1.54 290 09:39 18.04.2021
158 Clouds 7 1021 61 10000 1.54 290 09:20 18.04.2021
159 Clouds 6 1021 65 10000 1.54 360 08:44 18.04.2021
160 Clouds 6 1021 65 10000 1.45 25 08:24 18.04.2021
161 Clouds 5 1021 65 10000 1.45 25 07:40 18.04.2021
162 Clouds 5 1020 65 10000 1.54 17 06:54 18.04.2021
163 Clouds 5 1020 65 10000 3.6 350 05:26 18.04.2021
164 Clouds 6 1020 61 10000 2.06 350 04:31 18.04.2021
165 Clouds 6 1021 56 10000 0.42 359 02:23 18.04.2021
166 Clouds 6 1021 53 10000 1.54 350 00:58 18.04.2021
167 Clouds 6 1022 56 10000 2.57 50 23:57 17.04.2021
168 Clouds 7 1022 56 10000 2.57 50 23:24 17.04.2021
169 Clouds 7 1022 53 10000 3.09 40 22:44 17.04.2021
170 Clouds 7 1022 53 10000 3.09 40 22:22 17.04.2021
171 Clouds 7 1021 53 10000 3.09 50 21:44 17.04.2021
172 Clouds 7 1021 53 10000 3.09 50 21:22 17.04.2021
173 Clouds 7 1021 53 10000 5.66 20 20:40 17.04.2021
174 Clouds 7 1021 53 10000 5.66 20 20:20 17.04.2021
175 Clouds 8 1021 53 10000 3.09 60 19:39 17.04.2021
176 Clouds 8 1021 53 10000 3.09 60 19:19 17.04.2021
177 Clouds 8 1021 53 10000 3.09 20 18:49 17.04.2021
178 Clouds 9 1021 53 10000 5.66 40 18:21 17.04.2021
179 Clouds 10 1021 40 10000 5.66 30 17:42 17.04.2021
180 Clouds 11 1021 35 10000 6.69 20 16:56 17.04.2021
181 Clouds 12 1021 35 10000 6.69 20 16:37 17.04.2021
182 Clouds 12 1021 35 10000 6.69 20 16:18 17.04.2021
183 Clouds 11 1021 35 10000 2.57 30 15:22 17.04.2021
184 Clear 11 1022 37 10000 3.09 350 14:43 17.04.2021
185 Clear 11 1022 37 10000 3.09 350 14:19 17.04.2021
186 Clear 10 1022 34 10000 4.12 50 13:42 17.04.2021
187 Clouds 9 1023 40 10000 6.17 40 12:48 17.04.2021
188 Clouds 9 1023 40 10000 6.17 40 12:23 17.04.2021
189 Clouds 9 1023 46 10000 5.66 50 11:51 17.04.2021
190 Clouds 8 1023 46 10000 5.66 50 11:32 17.04.2021
191 Clouds 8 1023 46 10000 5.66 50 11:32 17.04.2021
192 Clouds 8 1023 49 10000 2.06 70 10:51 17.04.2021
193 Clouds 8 1023 49 10000 2.06 70 10:33 17.04.2021
194 Clouds 7 1023 61 10000 2.57 80 09:46 17.04.2021
195 Clouds 5 1023 65 10000 2.6 30 08:54 17.04.2021
196 Clouds 4 1023 65 10000 2 28 08:28 17.04.2021
197 Clouds 4 1023 70 10000 2 28 07:45 17.04.2021
198 Clouds 2 1023 75 10000 1.87 32 05:42 17.04.2021
199 Clouds 2 1023 80 10000 1.53 34 03:43 17.04.2021
200 Clouds 5 1024 70 10000 1.54 350 00:56 17.04.2021
201 Clouds 5 1024 70 10000 1.54 350 00:30 17.04.2021
202 Clouds 5 1024 65 10000 1.68 25 23:58 16.04.2021
203 Clear 5 1024 65 10000 2.57 40 23:33 16.04.2021
204 Clouds 5 1024 65 10000 1.54 90 22:51 16.04.2021
205 Clouds 5 1024 65 10000 1.54 90 22:23 16.04.2021
206 Clouds 5 1024 65 10000 2.06 100 21:56 16.04.2021
207 Clouds 5 1024 65 10000 2.06 100 21:38 16.04.2021
208 Clouds 6 1024 61 10000 2.06 110 20:55 16.04.2021
209 Clear 5 1024 61 10000 3.6 50 20:36 16.04.2021
210 Clouds 6 1024 57 10000 2.57 80 19:58 16.04.2021
211 Clouds 7 1024 57 10000 2.57 80 19:40 16.04.2021
212 Clouds 7 1024 57 10000 2.57 80 19:18 16.04.2021
213 Clouds 7 1024 61 10000 3.09 70 18:25 16.04.2021
214 Rain 7 1024 65 10000 3.6 60 17:48 16.04.2021
215 Rain 7 1024 61 10000 3.6 30 17:19 16.04.2021
216 Drizzle 7 1024 57 10000 5.14 30 16:45 16.04.2021
217 Drizzle 7 1024 53 10000 5.66 30 16:26 16.04.2021
218 Clouds 7 1024 52 10000 5.14 60 15:55 16.04.2021
219 Clouds 7 1024 52 10000 5.66 60 15:29 16.04.2021
220 Clouds 7 1025 52 10000 5.66 60 14:46 16.04.2021
221 Clouds 7 1025 45 10000 6.17 70 14:28 16.04.2021
222 Clouds 7 1025 45 10000 6.17 70 13:56 16.04.2021
223 Clouds 7 1025 45 10000 6.17 70 13:23 16.04.2021
224 Clouds 6 1025 52 10000 6.69 60 12:54 16.04.2021
225 Clouds 5 1025 52 10000 6.69 60 12:36 16.04.2021
226 Clouds 5 1025 52 10000 7.2 80 11:59 16.04.2021
227 Clouds 5 1025 56 10000 7.2 40 11:41 16.04.2021
228 Clouds 5 1025 56 10000 7.2 40 11:20 16.04.2021
229 Clouds 4 1025 60 10000 5.66 30 10:41 16.04.2021
230 Clouds 4 1025 60 10000 5.14 30 10:21 16.04.2021
231 Clouds 3 1025 65 10000 4.63 40 09:44 16.04.2021
232 Clouds 2 1025 65 10000 3.6 10 09:22 16.04.2021
233 Clouds 2 1025 69 10000 3.09 360 08:45 16.04.2021
234 Clouds 1 1025 69 10000 2.57 20 08:19 16.04.2021
235 Clouds 1 1025 64 10000 4.12 30 07:43 16.04.2021
236 Clouds 1 1025 64 10000 4.12 20 07:25 16.04.2021
237 Clouds 0 1025 80 10000 2.05 28 06:39 16.04.2021
238 Clouds 0 1025 64 10000 2.1 35 05:32 16.04.2021
239 Clear 1 1026 75 10000 2.57 40 01:47 16.04.2021
240 Clear 1 1026 75 10000 2.09 38 00:45 16.04.2021
241 Clear 1 1026 75 10000 2.17 45 00:21 16.04.2021
242 Clouds 1 1026 69 10000 1.54 50 23:56 15.04.2021
243 Clouds 1 1026 69 10000 1.54 50 23:32 15.04.2021
244 Clouds 2 1027 65 10000 3.09 10 22:50 15.04.2021
245 Clouds 2 1027 65 10000 3.6 20 22:23 15.04.2021
246 Clouds 3 1026 65 10000 3.09 10 21:44 15.04.2021
247 Clouds 4 1026 65 10000 3.09 10 21:26 15.04.2021
248 Clouds 4 1026 70 10000 3.09 30 20:56 15.04.2021
249 Clear 5 1026 60 10000 5.14 40 20:36 15.04.2021
250 Clouds 5 1026 70 10000 3.09 30 20:18 15.04.2021
251 Clouds 5 1026 75 10000 4.12 30 19:41 15.04.2021
252 Clouds 6 1026 61 10000 1.54 360 19:21 15.04.2021
253 Clouds 6 1026 57 10000 9.77 20 18:41 15.04.2021
254 Clouds 7 1026 52 10000 3.6 40 18:19 15.04.2021
255 Rain 7 1026 52 10000 3.6 30 17:54 15.04.2021
256 Clouds 7 1026 49 10000 3.6 340 17:31 15.04.2021
257 Clouds 6 1027 60 10000 3.09 10 16:45 15.04.2021
258 Clouds 6 1027 65 10000 1.54 350 16:25 15.04.2021
259 Clouds 8 1027 49 10000 2.06 300 15:51 15.04.2021
260 Clouds 8 1027 49 10000 2.06 300 15:28 15.04.2021
261 Clouds 7 1027 52 10000 5.14 40 14:47 15.04.2021
262 Clouds 7 1027 49 10000 4.63 20 14:28 15.04.2021
263 Clouds 7 1028 49 10000 6.17 20 13:59 15.04.2021
264 Clouds 8 1028 49 10000 6.17 20 13:40 15.04.2021
265 Clouds 6 1028 56 10000 3.6 50 12:59 15.04.2021
266 Clouds 6 1028 56 10000 3.6 50 12:38 15.04.2021
267 Clouds 6 1028 56 10000 3.6 10 12:20 15.04.2021
268 Clouds 5 1028 60 10000 3.6 50 11:42 15.04.2021
269 Clouds 5 1028 60 10000 3.6 50 11:22 15.04.2021
270 Clouds 4 1028 70 10000 3.6 20 10:46 15.04.2021
271 Clouds 4 1028 65 10000 2.06 70 10:26 15.04.2021
272 Clouds 2 1028 80 10000 5.66 40 09:37 15.04.2021
273 Clouds 0 1028 93 10000 2.06 40 08:58 15.04.2021
274 Clouds 0 1028 86 7000 5.66 30 08:38 15.04.2021
275 Clear -2 1027 93 10000 2 30 07:48 15.04.2021
276 Clear -2 1027 93 10000 2.07 30 07:22 15.04.2021
277 Clear -2 1027 93 10000 2.06 20 06:38 15.04.2021
278 Clear -3 1027 93 10000 2.06 20 06:20 15.04.2021
279 Clear -2 1027 93 10000 1.92 34 04:49 15.04.2021
280 Clouds 1 1027 80 10000 2.06 350 00:24 15.04.2021
281 Clouds 1 1028 80 10000 1.8 28 23:37 14.04.2021
282 Clouds 1 1028 80 10000 1.94 37 23:19 14.04.2021
283 Clouds 1 1028 75 10000 1.54 120 22:43 14.04.2021
284 Clouds 1 1028 75 10000 1.54 120 22:23 14.04.2021
285 Clouds 2 1027 75 10000 3.09 350 21:44 14.04.2021
286 Clouds 3 1027 75 10000 3.09 350 21:26 14.04.2021
287 Clouds 4 1027 70 10000 3.09 350 20:56 14.04.2021
288 Clear 4 1027 60 10000 4.63 30 20:33 14.04.2021
289 Rain 5 1028 65 10000 3.09 20 19:51 14.04.2021
290 Clouds 6 1028 65 10000 3.09 20 19:20 14.04.2021
291 Clouds 6 1028 70 10000 4.12 20 18:57 14.04.2021
292 Clouds 7 1027 52 10000 3.73 15 18:22 14.04.2021
293 Clouds 7 1028 48 10000 2.57 100 17:58 14.04.2021
294 Clouds 7 1028 48 10000 2.57 100 17:58 14.04.2021
295 Clouds 7 1028 48 10000 2.57 100 17:25 14.04.2021
296 Clouds 7 1027 49 10000 4.63 50 16:54 14.04.2021
297 Clouds 7 1028 45 10000 6.17 20 16:27 14.04.2021
298 Clouds 6 1028 39 10000 2.57 40 15:44 14.04.2021
299 Clouds 6 1028 39 10000 2.57 40 15:26 14.04.2021
300 Clouds 7 1028 29 10000 3.41 27 14:51 14.04.2021
301 Clouds 7 1028 29 10000 3.46 27 14:27 14.04.2021
302 Clouds 6 1029 33 10000 3.6 60 13:59 14.04.2021
303 Clouds 7 1029 33 10000 3.6 60 13:37 14.04.2021
304 Clouds 7 1029 36 10000 4.12 60 12:40 14.04.2021
305 Clouds 6 1030 38 10000 3.09 30 11:57 14.04.2021
306 Clouds 6 1030 38 10000 3.09 30 11:39 14.04.2021
307 Clouds 5 1030 38 10000 3.09 30 11:19 14.04.2021
308 Clouds 4 1030 60 10000 2.06 30 10:33 14.04.2021
309 Clouds 1 1030 75 10000 3.18 34 09:43 14.04.2021
310 Clouds 1 1030 75 10000 2.29 30 09:23 14.04.2021
311 Clouds 0 1030 80 10000 2.29 30 08:48 14.04.2021
312 Clouds 0 1030 80 10000 1.88 29 08:23 14.04.2021
313 Clouds -2 1029 74 10000 1.94 33 07:28 14.04.2021
314 Clouds -2 1029 80 10000 1.54 10 06:28 14.04.2021
315 Clouds -2 1029 80 10000 1.03 0 05:24 14.04.2021
316 Clear -1 1030 64 10000 3.09 340 02:24 14.04.2021
317 Clear 0 1030 60 10000 2.06 340 00:50 14.04.2021
318 Clear 0 1030 60 10000 2.06 340 00:50 14.04.2021
319 Clear 0 1030 60 10000 2.06 340 00:27 14.04.2021
320 Clear 1 1030 60 10000 2.06 350 23:32 13.04.2021
321 Clear 1 1030 55 10000 2.06 10 22:44 13.04.2021
322 Clear 2 1030 55 10000 2.06 10 22:21 13.04.2021
323 Clouds 2 1030 56 10000 2.06 360 21:48 13.04.2021
324 Clouds 3 1030 56 10000 2.06 360 21:30 13.04.2021
325 Clouds 5 1030 45 10000 2.57 360 20:50 13.04.2021
326 Clouds 6 1030 45 10000 2.57 360 20:25 13.04.2021
327 Clouds 6 1029 39 10000 3.09 10 19:58 13.04.2021
328 Clouds 7 1029 39 10000 3.09 10 19:26 13.04.2021
329 Clouds 7 1029 39 10000 1.54 50 18:51 13.04.2021
330 Clouds 7 1030 39 10000 3.6 330 18:30 13.04.2021
331 Clouds 8 1030 42 10000 3.94 355 17:40 13.04.2021
332 Clouds 8 1030 42 10000 3.18 9 17:21 13.04.2021
333 Clouds 8 1030 42 10000 3.18 9 17:21 13.04.2021
334 Clouds 6 1030 45 10000 2.57 20 16:49 13.04.2021
335 Clouds 6 1030 45 10000 2.57 20 16:31 13.04.2021
336 Clouds 7 1030 49 10000 2.06 20 15:56 13.04.2021
337 Clouds 6 1030 49 10000 2.06 20 15:37 13.04.2021
338 Clouds 6 1030 52 10000 3.09 40 14:58 13.04.2021
339 Clouds 6 1031 60 10000 3.6 40 14:25 13.04.2021
340 Clouds 6 1031 60 10000 3.6 40 14:25 13.04.2021
341 Clouds 5 1031 60 10000 3.6 40 13:57 13.04.2021
342 Clouds 5 1031 56 10000 3.09 320 13:38 13.04.2021
343 Clouds 5 1031 56 10000 3.09 320 13:20 13.04.2021
344 Clouds 5 1031 60 10000 2.57 360 12:46 13.04.2021
345 Clouds 4 1031 60 10000 2.57 360 12:22 13.04.2021
346 Clouds 4 1031 65 10000 2.57 10 11:38 13.04.2021
347 Clouds 2 1031 70 10000 3.09 10 10:58 13.04.2021
348 Clouds 3 1031 65 10000 2.57 0 10:40 13.04.2021
349 Clouds 2 1031 81 10000 2.71 29 10:19 13.04.2021
350 Clear 1 1031 93 10000 2.71 29 09:51 13.04.2021
351 Clear 0 1031 93 10000 2.06 26 09:26 13.04.2021
352 Clear -1 1030 100 10000 2.09 24 08:47 13.04.2021
353 Clear -1 1030 100 10000 1.56 26 08:24 13.04.2021
354 Clear -3 1030 100 10000 1.56 26 07:48 13.04.2021
355 Clear -3 1030 100 10000 1.62 26 07:26 13.04.2021
356 Clear -2 1029 93 10000 1.71 19 06:27 13.04.2021
357 Clear -1 1029 86 10000 1.34 2 03:44 13.04.2021
358 Clouds 1 1029 75 10000 1.81 7 01:34 13.04.2021
359 Clouds 2 1028 70 10000 1.62 2 23:55 12.04.2021
360 Clouds 2 1028 70 10000 1.62 2 23:33 12.04.2021
361 Rain 2 1028 65 10000 1.09 11 22:55 12.04.2021
362 Rain 2 1028 81 10000 2.57 350 22:36 12.04.2021
363 Clouds 3 1028 70 10000 0.87 13 21:55 12.04.2021
364 Drizzle 3 1028 65 10000 3.09 320 21:36 12.04.2021
365 Clouds 3 1028 70 10000 3.6 320 21:18 12.04.2021
366 Clouds 4 1028 65 10000 4.63 270 20:36 12.04.2021
367 Clouds 4 1027 65 10000 3.09 270 20:18 12.04.2021
368 Clouds 5 1027 56 10000 4.12 320 19:41 12.04.2021
369 Clouds 6 1027 56 10000 4.12 320 19:21 12.04.2021
370 Clouds 6 1027 61 10000 4.63 300 18:52 12.04.2021
371 Clouds 6 1027 52 10000 4.12 270 18:34 12.04.2021
372 Clouds 7 1027 49 10000 6.17 300 17:59 12.04.2021
373 Clouds 7 1026 45 10000 4.63 270 17:41 12.04.2021
374 Clouds 7 1026 45 10000 4.63 270 17:19 12.04.2021
375 Clouds 7 1026 57 10000 4.63 280 16:41 12.04.2021
376 Clouds 7 1026 57 10000 4.63 280 16:23 12.04.2021
377 Clouds 6 1026 61 10000 5.14 260 15:45 12.04.2021
378 Clouds 5 1026 61 10000 5.14 260 15:20 12.04.2021
379 Rain 4 1027 87 10000 3.6 230 14:48 12.04.2021
380 Clouds 4 1026 81 10000 2.57 250 14:28 12.04.2021
381 Clouds 5 1026 61 10000 4.12 260 13:42 12.04.2021
382 Clouds 5 1026 60 10000 4.63 250 13:21 12.04.2021
383 Clouds 4 1026 75 10000 3.6 220 12:44 12.04.2021
384 Clouds 4 1026 75 10000 3.09 230 12:23 12.04.2021
385 Clouds 5 1026 81 10000 2.87 293 11:43 12.04.2021
386 Clouds 3 1026 87 10000 4.12 230 10:53 12.04.2021
387 Clouds 2 1025 87 10000 2.06 210 10:28 12.04.2021
388 Clouds 2 1025 87 10000 2.22 312 09:54 12.04.2021
389 Clouds 2 1025 87 10000 2.22 312 09:33 12.04.2021
390 Clear 1 1024 100 10000 2.06 260 08:59 12.04.2021
391 Clear 0 1024 100 10000 2.06 260 08:27 12.04.2021
392 Clouds 0 1024 100 10000 2.06 260 07:31 12.04.2021
393 Clear 0 1023 100 10000 1.54 260 06:47 12.04.2021
394 Clear 0 1022 100 10000 1.54 260 05:50 12.04.2021
395 Clear 1 1021 100 10000 1.54 230 03:58 12.04.2021
396 Clouds 2 1019 100 10000 2.06 260 00:50 12.04.2021
397 Clouds 2 1019 100 10000 2.06 260 00:23 12.04.2021
398 Clouds 2 1018 100 10000 2.06 300 23:45 11.04.2021
399 Clouds 2 1018 100 10000 2.06 300 23:23 11.04.2021
400 Clouds 2 1017 100 10000 1.8 323 22:41 11.04.2021
401 Clouds 2 1017 100 10000 2.11 349 22:22 11.04.2021
402 Rain 2 1017 100 10000 2.57 330 21:45 11.04.2021
403 Clouds 2 1017 100 10000 2.57 320 21:27 11.04.2021
404 Rain 2 1015 100 10000 2.06 330 20:52 11.04.2021
405 Rain 2 1015 100 10000 2.06 330 20:28 11.04.2021
406 Rain 2 1015 100 10000 2.57 330 19:54 11.04.2021
407 Rain 2 1015 100 10000 2.57 330 19:36 11.04.2021
408 Rain 2 1015 100 10000 2.06 330 19:18 11.04.2021
409 Rain 2 1015 100 10000 2.06 330 19:18 11.04.2021
410 Rain 2 1014 100 10000 3.09 330 18:42 11.04.2021
411 Rain 3 1014 100 10000 3.09 330 18:23 11.04.2021
412 Rain 3 1013 100 10000 2.06 330 17:45 11.04.2021
413 Rain 3 1013 100 10000 3.09 320 17:26 11.04.2021
414 Rain 3 1013 100 10000 3.09 320 16:47 11.04.2021
415 Rain 3 1012 100 10000 3.6 320 16:23 11.04.2021
416 Rain 4 1012 100 10000 3.6 10 15:51 11.04.2021
417 Rain 4 1012 100 10000 3.6 10 15:27 11.04.2021
418 Rain 5 1010 100 10000 3.6 330 14:54 11.04.2021
419 Rain 6 1010 100 10000 3.6 330 14:31 11.04.2021
420 Rain 7 1009 100 10000 3.09 310 13:51 11.04.2021
421 Rain 7 1009 100 10000 3.09 310 13:31 11.04.2021
422 Rain 8 1009 100 10000 3.6 360 12:54 11.04.2021
423 Rain 8 1008 100 10000 4.63 290 12:21 11.04.2021
424 Rain 9 1008 100 10000 3.6 240 11:52 11.04.2021
425 Rain 9 1008 100 10000 1.54 270 11:24 11.04.2021
426 Rain 9 1008 100 10000 3.09 190 10:49 11.04.2021
427 Rain 9 1008 100 10000 3.09 190 10:31 11.04.2021
428 Rain 9 1007 100 10000 3.09 190 09:57 11.04.2021
429 Rain 9 1007 100 8000 3.09 190 09:33 11.04.2021
430 Rain 9 1007 100 10000 3.09 230 08:54 11.04.2021
431 Drizzle 9 1007 100 10000 3.09 230 08:25 11.04.2021
432 Clouds 8 1007 100 10000 3.09 230 07:22 11.04.2021
433 Clouds 8 1006 100 10000 4.63 200 06:54 11.04.2021
434 Rain 8 1006 100 10000 4.63 180 05:43 11.04.2021
435 Rain 8 1006 100 10000 4.12 190 05:21 11.04.2021
436 Rain 8 1006 100 10000 5.66 180 04:34 11.04.2021
437 Mist 8 1008 100 5000 1.54 110 01:56 11.04.2021
438 Rain 8 1009 100 10000 1.54 140 00:39 11.04.2021
439 Rain 8 1009 100 10000 1.54 110 23:49 10.04.2021
440 Rain 8 1009 100 10000 1.54 110 23:26 10.04.2021
441 Rain 8 1009 100 10000 3.99 196 22:45 10.04.2021
442 Rain 8 1009 100 10000 3.62 177 22:21 10.04.2021
443 Rain 8 1009 100 10000 3.62 177 21:50 10.04.2021
444 Rain 8 1009 100 10000 1.54 120 21:23 10.04.2021
445 Clouds 8 1009 100 10000 1.54 150 20:47 10.04.2021
446 Clouds 8 1009 100 10000 1.54 150 20:24 10.04.2021
447 Clouds 8 1009 100 10000 2.57 170 19:45 10.04.2021
448 Clouds 8 1009 100 10000 2.57 160 19:26 10.04.2021
449 Clouds 8 1010 100 10000 4.12 170 18:53 10.04.2021
450 Clouds 8 1010 100 10000 3.09 120 18:33 10.04.2021
451 Rain 8 1011 100 10000 3.6 170 17:41 10.04.2021
452 Rain 8 1011 100 10000 3.6 170 17:21 10.04.2021
453 Rain 8 1011 100 10000 4.12 180 16:31 10.04.2021
454 Rain 8 1012 100 10000 4.63 180 15:55 10.04.2021
455 Rain 8 1012 100 10000 3.6 170 15:32 10.04.2021
456 Rain 8 1012 100 10000 3.09 170 14:47 10.04.2021
457 Rain 8 1012 100 10000 4.12 180 14:22 10.04.2021
458 Clouds 8 1012 100 10000 3.09 170 13:43 10.04.2021
459 Clouds 8 1012 100 10000 3.09 170 13:25 10.04.2021
460 Rain 8 1013 100 10000 3.09 190 12:35 10.04.2021
461 Rain 7 1013 100 4400 1.54 120 11:52 10.04.2021
462 Rain 7 1013 100 10000 1.21 139 11:26 10.04.2021
463 Rain 7 1013 100 10000 1.21 139 10:54 10.04.2021
464 Rain 7 1013 100 10000 1.21 139 10:32 10.04.2021
465 Rain 7 1013 100 10000 2.06 230 09:59 10.04.2021
466 Rain 7 1013 100 10000 2.06 230 09:29 10.04.2021
467 Rain 7 1012 100 10000 1.63 180 08:54 10.04.2021
468 Rain 7 1012 100 10000 2.57 196 08:30 10.04.2021
469 Rain 7 1012 100 9000 2.57 230 07:52 10.04.2021
470 Rain 7 1012 100 9000 2.57 230 07:25 10.04.2021
471 Rain 7 1012 100 2600 1.63 284 06:27 10.04.2021
472 Rain 7 1011 100 8000 4.46 274 04:49 10.04.2021
473 Rain 8 1011 100 9000 5.56 213 02:57 10.04.2021
474 Rain 8 1011 100 9000 5.56 213 02:35 10.04.2021
475 Rain 8 1011 100 8000 1.54 60 00:55 10.04.2021
476 Rain 8 1011 100 10000 2.06 90 00:30 10.04.2021
477 Rain 8 1012 93 10000 2.06 310 23:45 09.04.2021
478 Rain 8 1012 93 10000 2.06 310 23:27 09.04.2021
479 Rain 9 1013 66 10000 2.31 180 22:44 09.04.2021
480 Rain 10 1013 66 10000 2.14 173 22:25 09.04.2021
481 Rain 10 1012 76 10000 3.6 220 21:39 09.04.2021
482 Rain 12 1012 50 10000 1.54 290 21:19 09.04.2021
483 Clouds 12 1012 50 10000 2.06 250 20:46 09.04.2021
484 Clouds 11 1012 50 10000 2.57 280 20:23 09.04.2021
485 Clouds 12 1013 43 10000 7.2 260 19:58 09.04.2021
486 Clouds 12 1013 33 10000 3.6 230 19:39 09.04.2021
487 Clouds 12 1012 30 10000 3.09 240 19:20 09.04.2021
488 Clouds 13 1013 26 10000 3.6 240 18:41 09.04.2021
489 Clouds 14 1013 26 10000 3.6 240 18:22 09.04.2021
490 Clouds 14 1013 24 10000 5.66 220 17:44 09.04.2021
491 Clouds 15 1013 24 10000 5.66 220 17:22 09.04.2021
492 Clear 14 1013 26 10000 7.72 230 16:41 09.04.2021
493 Clouds 14 1013 26 10000 5.66 230 16:20 09.04.2021
494 Clouds 13 1014 33 10000 6.69 200 15:42 09.04.2021
495 Clouds 13 1014 33 10000 6.69 200 15:23 09.04.2021
496 Clear 13 1014 35 10000 4.63 220 14:46 09.04.2021
497 Clear 13 1014 35 10000 4.63 220 14:21 09.04.2021
498 Clear 13 1015 37 10000 5.66 200 13:43 09.04.2021
499 Clear 12 1015 37 10000 5.66 200 13:22 09.04.2021
500 Clear 11 1015 43 10000 2.57 220 12:47 09.04.2021
501 Clear 9 1016 46 10000 4.12 230 11:59 09.04.2021
502 Clear 8 1016 46 10000 4.12 230 11:28 09.04.2021
503 Clear 7 1016 52 10000 2.57 230 10:56 09.04.2021
504 Clear 6 1016 52 10000 2.57 230 10:37 09.04.2021
505 Clouds 4 1016 65 10000 3.5 202 09:56 09.04.2021
506 Clouds 3 1016 65 10000 2.04 192 09:27 09.04.2021
507 Clear 1 1016 74 10000 2.04 192 08:55 09.04.2021
508 Clear 0 1016 74 10000 1.77 183 08:28 09.04.2021
509 Clear 0 1016 69 10000 2.06 190 07:22 09.04.2021
510 Clear 0 1016 74 10000 1.03 0 06:28 09.04.2021
511 Clouds 0 1017 69 10000 2.06 180 04:38 09.04.2021
512 Clear 1 1018 60 10000 1.54 180 03:42 09.04.2021
513 Clear 2 1019 60 10000 1.54 180 00:39 09.04.2021
514 Clear 2 1019 60 10000 1.54 180 00:21 09.04.2021
515 Clear 2 1020 60 10000 1.54 240 23:38 08.04.2021
516 Clear 2 1020 56 10000 1.96 178 22:56 08.04.2021
517 Clear 3 1020 56 10000 1.96 178 22:31 08.04.2021
518 Clear 3 1020 56 10000 1.54 170 21:59 08.04.2021
519 Clear 4 1020 52 10000 2.06 230 21:41 08.04.2021
520 Clear 4 1020 56 10000 1.54 170 21:22 08.04.2021
521 Clear 5 1021 49 10000 3.6 200 20:59 08.04.2021
522 Clear 5 1020 49 10000 3.6 220 20:40 08.04.2021
523 Clear 7 1021 49 10000 3.6 200 20:19 08.04.2021
524 Clear 6 1021 42 10000 4.63 210 19:40 08.04.2021
525 Clear 8 1021 42 10000 5.14 210 19:19 08.04.2021
526 Clear 9 1021 39 10000 3.6 200 18:42 08.04.2021
527 Clear 9 1021 39 10000 3.6 200 18:19 08.04.2021
528 Clear 8 1022 39 10000 3.6 210 17:42 08.04.2021
529 Clear 8 1022 39 10000 3.6 210 17:21 08.04.2021
530 Clouds 8 1023 36 10000 4.63 200 16:45 08.04.2021
531 Clouds 8 1023 36 10000 4.63 200 16:23 08.04.2021
532 Clouds 7 1023 39 10000 2.06 210 15:46 08.04.2021
533 Clouds 7 1023 39 10000 2.06 210 15:28 08.04.2021
534 Clouds 6 1024 39 10000 4.63 190 14:44 08.04.2021
535 Clouds 6 1024 39 10000 4.63 190 14:22 08.04.2021
536 Clouds 5 1024 42 10000 4.12 190 13:49 08.04.2021
537 Clouds 6 1024 42 10000 4.12 190 13:25 08.04.2021
538 Clouds 6 1024 42 10000 4.12 190 13:25 08.04.2021
539 Clouds 5 1024 45 10000 5.14 220 12:59 08.04.2021
540 Clouds 5 1024 45 10000 5.14 220 12:37 08.04.2021
541 Clouds 4 1025 48 10000 5.14 220 11:58 08.04.2021
542 Clear 3 1025 60 10000 2.06 230 11:29 08.04.2021
543 Clear 2 1025 69 10000 1.54 240 10:56 08.04.2021
544 Clear 2 1025 69 10000 1.54 240 10:26 08.04.2021
545 Clear 2 1025 69 10000 1.54 240 10:26 08.04.2021
546 Clear 2 1025 69 10000 1.54 240 10:26 08.04.2021
547 Clear 2 1025 69 10000 1.54 240 10:26 08.04.2021
548 Clear 2 1025 69 10000 1.54 240 10:26 08.04.2021
549 Clouds 1 1024 74 10000 2.06 230 09:51 08.04.2021
550 Clouds 0 1024 74 10000 2.06 230 09:33 08.04.2021
551 Clouds -2 1024 86 10000 2.06 240 08:45 08.04.2021
552 Clouds -2 1024 86 10000 2.06 240 08:45 08.04.2021
553 Clouds -2 1024 86 10000 2.06 240 08:24 08.04.2021
554 Clouds -2 1024 80 10000 2.06 240 07:53 08.04.2021
555 Clouds -3 1023 80 10000 2.06 230 06:48 08.04.2021
556 Clouds -1 1023 74 10000 2.57 300 02:34 08.04.2021
557 Clear 0 1022 69 10000 3.09 310 00:34 08.04.2021
558 Clouds 1 1022 74 10000 3.6 240 23:56 07.04.2021
559 Clouds 1 1022 74 10000 3.6 240 23:37 07.04.2021
560 Clouds 1 1022 74 10000 3.6 240 23:18 07.04.2021
561 Clouds 2 1021 75 10000 2.57 250 22:43 07.04.2021
562 Clouds 1 1021 69 10000 3.09 290 22:25 07.04.2021
563 Snow 2 1021 64 10000 5.14 270 21:44 07.04.2021
564 Clouds 2 1021 64 10000 4.12 270 21:22 07.04.2021
565 Rain 2 1020 60 10000 7.2 270 20:43 07.04.2021
566 Clouds 3 1020 60 10000 6.69 260 20:21 07.04.2021
567 Clouds 3 1020 65 10000 3.6 250 19:43 07.04.2021
568 Clouds 3 1020 65 10000 3.6 250 19:24 07.04.2021
569 Clouds 3 1020 65 10000 5.14 260 18:47 07.04.2021
570 Clouds 3 1020 65 10000 5.14 260 18:19 07.04.2021
571 Clouds 3 1020 70 10000 6.17 260 17:54 07.04.2021
572 Clouds 3 1019 70 10000 7.72 260 17:36 07.04.2021
573 Clouds 2 1019 75 10000 6.17 250 16:49 07.04.2021
574 Clouds 2 1019 75 10000 6.17 250 16:23 07.04.2021
575 Clouds 1 1019 93 10000 6.17 250 15:57 07.04.2021
576 Clouds 1 1019 93 10000 6.17 250 15:38 07.04.2021
577 Clouds 1 1019 93 10000 6.17 250 15:38 07.04.2021
578 Rain 1 1018 93 10000 5.66 250 14:57 07.04.2021
579 Rain 1 1018 93 10000 6.69 240 14:31 07.04.2021
580 Snow 0 1017 93 6000 6.69 230 13:52 07.04.2021
581 Mist -1 1017 93 6000 6.69 230 13:24 07.04.2021
582 Snow -1 1017 100 9000 5.66 230 12:51 07.04.2021
583 Snow -1 1017 100 6000 7.2 230 12:25 07.04.2021
584 Mist -1 1017 100 1600 7.2 240 11:55 07.04.2021
585 Snow 0 1017 93 1800 7.2 240 11:26 07.04.2021
586 Snow 0 1017 93 2000 5.66 250 10:52 07.04.2021
587 Clouds 0 1017 74 10000 5.66 260 10:20 07.04.2021
588 Drizzle 1 1016 69 10000 6.69 250 09:42 07.04.2021
589 Clouds -1 1016 86 10000 6.17 240 09:23 07.04.2021
590 Snow -1 1016 86 10000 6.17 240 08:42 07.04.2021
591 Snow -1 1016 86 10000 6.17 240 08:21 07.04.2021
592 Clouds -1 1016 86 10000 5.14 240 07:43 07.04.2021
593 Snow -2 1015 80 6000 5.14 240 07:24 07.04.2021
594 Clouds -2 1015 80 10000 4.63 240 06:27 07.04.2021
595 Clouds -2 1014 80 10000 4.12 260 04:23 07.04.2021
596 Clouds -1 1012 80 10000 4.63 260 00:22 07.04.2021
597 Clouds -1 1012 74 10000 5.66 290 23:47 06.04.2021
598 Clouds 0 1012 74 10000 5.66 290 23:21 06.04.2021
599 Clouds -1 1012 74 10000 5.66 280 22:40 06.04.2021
600 Clouds -1 1012 74 10000 5.66 280 22:19 06.04.2021
601 Clouds 0 1012 86 10000 5.14 260 21:42 06.04.2021
602 Clouds 0 1012 86 10000 5.14 260 21:22 06.04.2021
603 Clouds 0 1012 93 10000 5.14 260 20:54 06.04.2021
604 Snow 0 1012 93 10000 4.12 270 20:25 06.04.2021
605 Snow 1 1012 74 10000 5.66 280 19:58 06.04.2021
606 Snow 1 1012 74 10000 5.66 280 19:58 06.04.2021
607 Snow 1 1012 80 10000 4.63 270 19:35 06.04.2021
608 Clouds 1 1011 80 10000 4.63 280 18:58 06.04.2021
609 Snow 1 1011 80 10000 5.66 270 18:40 06.04.2021
610 Clouds 3 1012 56 3200 11.32 280 18:19 06.04.2021
611 Clouds 3 1011 52 10000 7.2 260 17:43 06.04.2021
612 Clouds 3 1011 56 10000 8.23 270 17:19 06.04.2021
613 Clouds 3 1012 65 10000 6.69 290 16:46 06.04.2021
614 Clouds 2 1012 75 10000 6.17 280 16:26 06.04.2021
615 Clouds 3 1012 60 10000 7.2 240 15:26 06.04.2021
616 Snow 2 1012 70 10000 6.17 260 14:45 06.04.2021
617 Snow 2 1012 70 10000 6.17 260 14:45 06.04.2021
618 Snow 1 1013 86 10000 4.63 290 14:26 06.04.2021
619 Snow 2 1013 69 9000 8.75 260 13:47 06.04.2021
620 Clouds 2 1013 69 10000 6.69 270 13:27 06.04.2021
621 Clouds 2 1013 69 10000 6.69 270 13:27 06.04.2021
622 Clouds 3 1013 65 10000 8.75 260 12:58 06.04.2021
623 Clouds 3 1013 56 10000 7.2 260 12:37 06.04.2021
624 Clouds 2 1013 56 10000 7.2 270 12:18 06.04.2021
625 Clouds 2 1014 60 10000 5.66 260 11:43 06.04.2021
626 Snow 1 1013 75 10000 5.66 280 11:20 06.04.2021
627 Clouds 1 1013 80 10000 6.69 280 10:44 06.04.2021
628 Snow 1 1013 80 10000 4.63 280 10:22 06.04.2021
629 Clouds 0 1013 80 10000 4.12 270 09:45 06.04.2021
630 Clouds 0 1013 80 10000 4.12 270 09:25 06.04.2021
631 Clouds -1 1013 100 10000 3.09 240 08:34 06.04.2021
632 Snow -1 1013 93 10000 4.12 250 07:33 06.04.2021
633 Snow -2 1013 100 10000 2.57 230 06:55 06.04.2021
634 Clouds -1 1014 100 10000 3.09 230 04:53 06.04.2021
635 Snow -2 1014 93 10000 3.6 220 01:34 06.04.2021
636 Clear -1 1014 80 10000 5.14 260 00:42 06.04.2021
637 Clear -1 1014 80 10000 5.14 260 00:20 06.04.2021
638 Clouds -1 1015 74 10000 4.63 270 23:42 05.04.2021
639 Clouds -1 1015 74 10000 4.63 270 23:18 05.04.2021
640 Clouds -1 1014 74 10000 5.14 280 22:43 05.04.2021
641 Clouds -1 1014 74 10000 5.14 280 22:24 05.04.2021
642 Clouds -1 1014 74 10000 5.14 300 21:39 05.04.2021
643 Clouds 0 1014 74 10000 5.14 300 21:20 05.04.2021
644 Clear 1 1013 51 10000 7.2 300 20:42 05.04.2021
645 Clear 1 1013 51 10000 7.2 300 20:23 05.04.2021
646 Clouds 2 1013 44 10000 8.23 330 19:39 05.04.2021
647 Clouds 3 1012 55 10000 5.66 290 19:19 05.04.2021
648 Clouds 3 1012 55 10000 5.66 290 19:19 05.04.2021
649 Clear 3 1011 44 10000 8.23 310 18:43 05.04.2021
650 Clear 3 1011 44 10000 8.23 310 18:25 05.04.2021
651 Clouds 2 1011 60 10000 8.23 300 17:55 05.04.2021
652 Clouds 2 1011 60 10000 7.72 320 17:36 05.04.2021
653 Clouds 2 1010 64 10000 6.69 280 17:18 05.04.2021
654 Clouds 2 1010 69 10000 6.69 290 16:39 05.04.2021
655 Snow 1 1010 75 10000 6.69 290 16:19 05.04.2021
656 Clouds 2 1010 80 10000 6.17 310 15:48 05.04.2021
657 Snow 2 1010 87 10000 5.66 310 15:27 05.04.2021
658 Clouds 3 1009 93 10000 5.66 280 14:46 05.04.2021
659 Drizzle 3 1009 93 10000 5.66 290 14:25 05.04.2021
660 Rain 3 1008 100 9000 7.2 230 13:31 05.04.2021
661 Rain 4 1007 100 10000 6.69 230 12:48 05.04.2021
662 Drizzle 4 1007 100 10000 7.72 220 12:26 05.04.2021
663 Mist 3 1007 100 8000 7.2 220 11:54 05.04.2021
664 Mist 4 1008 100 4000 4.63 230 11:33 05.04.2021
665 Clouds 4 1008 100 10000 7.2 230 10:59 05.04.2021
666 Clouds 4 1008 100 10000 7.2 230 10:40 05.04.2021
667 Clouds 4 1008 100 10000 7.2 230 10:19 05.04.2021
668 Clouds 4 1008 93 10000 5.66 230 09:45 05.04.2021
669 Clouds 4 1008 93 10000 7.2 230 09:22 05.04.2021
670 Clouds 3 1009 93 10000 5.14 230 08:40 05.04.2021
671 Clouds 3 1009 93 10000 5.14 230 08:20 05.04.2021
672 Clouds 3 1009 100 10000 6.17 230 07:35 05.04.2021
673 Clear 2 1013 87 10000 3.6 240 04:23 05.04.2021
674 Clear 2 1016 81 10000 2.57 250 01:35 05.04.2021
675 Clear 3 1016 75 10000 2.57 260 00:29 05.04.2021
676 Clear 4 1017 75 10000 1.54 230 23:43 04.04.2021
677 Clear 4 1017 75 10000 1.54 230 23:23 04.04.2021
678 Clear 5 1018 65 10000 1.54 270 22:50 04.04.2021
679 Clear 6 1018 65 10000 1.54 270 22:28 04.04.2021
680 Clear 7 1018 61 10000 2.06 290 21:26 04.04.2021
681 Clear 9 1018 53 10000 2.57 230 20:56 04.04.2021
682 Clear 10 1018 53 10000 2.57 230 20:29 04.04.2021
683 Clear 9 1019 46 10000 3.09 250 19:54 04.04.2021
684 Clear 10 1018 46 10000 2.57 320 19:36 04.04.2021
685 Clear 11 1019 46 10000 3.09 250 19:18 04.04.2021
686 Clear 12 1019 46 10000 1.54 220 18:41 04.04.2021
687 Clear 12 1019 46 10000 1.54 220 18:20 04.04.2021
688 Clear 12 1020 46 10000 2.57 250 17:44 04.04.2021
689 Clear 12 1020 46 10000 2.57 250 17:23 04.04.2021
690 Clear 12 1021 50 10000 2.57 250 16:43 04.04.2021
691 Clear 11 1021 50 10000 2.57 250 16:18 04.04.2021
692 Clear 11 1022 50 10000 3.6 250 15:34 04.04.2021
693 Clouds 10 1023 50 10000 3.6 310 14:46 04.04.2021
694 Clouds 10 1023 50 10000 3.6 310 14:27 04.04.2021
695 Clear 9 1023 53 10000 2.06 250 13:50 04.04.2021
696 Clear 9 1023 53 10000 2.06 250 13:24 04.04.2021
697 Clouds 8 1024 61 10000 3.09 250 12:43 04.04.2021
698 Clouds 8 1024 61 10000 3.09 250 12:24 04.04.2021
699 Clear 6 1024 75 10000 2.36 2 11:42 04.04.2021
700 Clear 6 1024 75 10000 2.32 13 11:23 04.04.2021
701 Clear 5 1024 81 10000 1.54 200 10:44 04.04.2021
702 Clear 3 1024 93 10000 2.36 16 09:55 04.04.2021
703 Clear 2 1024 93 10000 2.08 22 09:26 04.04.2021
704 Clear 1 1024 100 10000 2.08 22 08:53 04.04.2021
705 Clear 1 1024 87 10000 4.63 20 08:35 04.04.2021
706 Clear 0 1024 93 10000 1.94 18 07:55 04.04.2021
707 Clear 0 1024 86 10000 2.05 20 06:38 04.04.2021
708 Clear 0 1024 87 10000 2.04 18 05:33 04.04.2021
709 Clear 2 1025 65 10000 3.6 360 01:30 04.04.2021
710 Clear 3 1025 65 10000 3.09 350 00:22 04.04.2021
711 Clear 3 1025 65 10000 3.09 360 23:50 03.04.2021
712 Clear 4 1025 65 10000 3.09 360 23:31 03.04.2021
713 Clear 5 1025 61 10000 4.12 360 22:52 03.04.2021
714 Clear 6 1025 61 10000 4.12 360 22:22 03.04.2021
715 Clear 6 1025 61 10000 3.09 350 21:54 03.04.2021
716 Clear 7 1025 61 10000 3.09 350 21:25 03.04.2021
717 Clear 8 1024 53 10000 4.12 360 20:59 03.04.2021
718 Clear 8 1024 53 10000 4.12 360 20:29 03.04.2021
719 Clouds 8 1024 49 10000 4.63 360 19:51 03.04.2021
720 Clouds 10 1024 49 10000 4.12 360 19:29 03.04.2021
721 Clouds 11 1024 40 10000 3.6 20 18:54 03.04.2021
722 Clouds 11 1024 40 10000 3.6 20 18:36 03.04.2021
723 Clouds 11 1024 35 10000 3.6 350 17:56 03.04.2021
724 Clouds 11 1024 35 10000 3.6 350 17:27 03.04.2021
725 Clear 11 1024 35 10000 5.14 20 16:55 03.04.2021
726 Clear 11 1024 35 10000 5.14 20 16:31 03.04.2021
727 Clear 11 1025 35 10000 3.6 20 15:53 03.04.2021
728 Clear 11 1025 35 10000 3.6 20 15:53 03.04.2021
729 Clear 11 1025 35 10000 3.6 20 15:32 03.04.2021
730 Clouds 10 1025 40 10000 5.66 40 14:54 03.04.2021
731 Clouds 9 1025 40 10000 5.66 40 14:27 03.04.2021
732 Clouds 10 1025 40 10000 5.66 50 13:59 03.04.2021
733 Clouds 9 1025 43 10000 4.63 20 13:36 03.04.2021
734 Clouds 9 1025 46 10000 2.57 60 13:18 03.04.2021
735 Clouds 7 1025 53 10000 4.12 50 12:40 03.04.2021
736 Clouds 7 1025 53 10000 4.12 50 12:19 03.04.2021
737 Clouds 6 1025 56 10000 4.63 350 11:32 03.04.2021
738 Clouds 4 1025 60 10000 3.6 10 10:49 03.04.2021
739 Clouds 4 1025 65 10000 3.09 10 10:29 03.04.2021
740 Clouds 4 1025 65 10000 3.6 10 09:50 03.04.2021
741 Clouds 4 1024 65 10000 4.12 350 09:27 03.04.2021
742 Clouds 3 1024 70 10000 3.6 360 08:40 03.04.2021
743 Clouds 3 1024 70 10000 3.6 360 08:21 03.04.2021
744 Clouds 4 1024 65 10000 2.57 350 07:27 03.04.2021
745 Clouds 3 1023 65 10000 4.63 350 05:33 03.04.2021
746 Clouds 4 1023 60 10000 4.12 10 03:18 03.04.2021
747 Clouds 4 1023 60 10000 5.14 360 02:35 03.04.2021
748 Clouds 4 1023 65 10000 3.6 350 01:56 03.04.2021
749 Clouds 4 1023 70 10000 4.12 360 00:20 03.04.2021
750 Clouds 4 1023 70 10000 2.57 20 23:47 02.04.2021
751 Clouds 4 1023 70 10000 2.57 20 23:24 02.04.2021
752 Clouds 5 1023 65 10000 4.63 340 22:50 02.04.2021
753 Clouds 5 1023 65 10000 4.63 340 22:32 02.04.2021
754 Clouds 5 1023 65 10000 7.2 10 21:42 02.04.2021
755 Clouds 5 1023 65 10000 7.2 10 21:23 02.04.2021
756 Clouds 5 1023 70 10000 3.09 360 20:48 02.04.2021
757 Clear 5 1022 65 10000 3.09 350 20:27 02.04.2021
758 Clear 6 1022 61 10000 3.6 360 19:57 02.04.2021
759 Clear 7 1022 61 10000 3.6 360 19:38 02.04.2021
760 Clear 7 1022 61 10000 3.6 360 19:20 02.04.2021
761 Clear 9 1022 57 10000 5.66 10 18:38 02.04.2021
762 Clear 9 1022 57 10000 5.66 10 18:20 02.04.2021
763 Clear 11 1022 53 10000 6.69 360 17:37 02.04.2021
764 Clear 12 1021 43 10000 3.6 350 16:48 02.04.2021
765 Haze 11 1021 46 6000 3.6 360 16:22 02.04.2021
766 Clear 10 1022 50 10000 4.12 20 15:33 02.04.2021
767 Clouds 9 1022 57 10000 2.57 60 14:55 02.04.2021
768 Clouds 9 1022 57 10000 2.57 60 14:31 02.04.2021
769 Clouds 8 1023 65 10000 3.09 330 13:44 02.04.2021
770 Clouds 8 1023 65 10000 3.09 330 13:23 02.04.2021
771 Clouds 7 1023 65 10000 5.66 40 12:41 02.04.2021
772 Clouds 7 1023 65 10000 5.66 40 12:20 02.04.2021
773 Clouds 6 1023 70 10000 5.66 40 11:56 02.04.2021
774 Clouds 6 1023 70 10000 5.66 40 11:21 02.04.2021
775 Clouds 6 1023 70 10000 5.66 40 11:21 02.04.2021
776 Clouds 6 1023 70 10000 5.66 40 11:21 02.04.2021
777 Clouds 5 1023 70 10000 4.63 40 10:51 02.04.2021
778 Clouds 5 1023 70 10000 4.63 40 10:30 02.04.2021
779 Clouds 5 1022 75 10000 5.14 10 09:53 02.04.2021
780 Clouds 5 1022 75 10000 5.14 10 09:27 02.04.2021
781 Clouds 4 1022 75 10000 3.09 30 08:58 02.04.2021
782 Clouds 4 1022 75 10000 3.09 30 08:33 02.04.2021
783 Clear 2 1022 87 10000 2.57 10 07:31 02.04.2021
784 Clear 3 1021 87 10000 3.09 10 06:53 02.04.2021
785 Clear 3 1022 87 10000 3.6 360 05:57 02.04.2021
786 Clear 7 1021 65 10000 2.57 20 02:45 02.04.2021
787 Clear 10 1021 61 10000 3.6 30 00:53 02.04.2021
788 Clear 10 1021 61 10000 3.6 30 00:23 02.04.2021
789 Clear 11 1021 71 10000 1.54 30 23:40 01.04.2021
790 Clear 11 1021 71 10000 1.54 30 23:18 01.04.2021
791 Clear 14 1021 66 10000 3.09 20 22:21 01.04.2021
792 Clear 13 1020 51 10000 5.14 360 21:51 01.04.2021
793 Clear 14 1019 48 10000 5.14 360 21:29 01.04.2021
794 Clear 16 1019 45 10000 4.12 360 20:54 01.04.2021
795 Clear 16 1019 39 10000 4.63 350 20:28 01.04.2021
796 Clear 19 1019 34 10000 5.66 360 19:57 01.04.2021
797 Clear 19 1019 34 10000 5.66 360 19:37 01.04.2021
798 Clear 20 1018 35 10000 6.17 350 18:47 01.04.2021
799 Clear 21 1018 33 10000 6.17 360 18:19 01.04.2021
800 Clear 20 1018 33 10000 5.14 10 17:57 01.04.2021
801 Clear 21 1018 33 10000 5.14 10 17:38 01.04.2021
802 Clear 23 1019 33 10000 5.14 360 17:19 01.04.2021
803 Clear 23 1019 30 10000 3.6 360 16:41 01.04.2021
804 Clear 23 1019 27 10000 3.09 300 15:49 01.04.2021
805 Clear 22 1019 27 10000 3.09 300 15:21 01.04.2021
806 Clear 22 1020 28 10000 1.54 360 14:48 01.04.2021
807 Clear 22 1020 28 10000 1.54 360 14:28 01.04.2021
808 Clear 21 1020 35 10000 2.27 340 13:58 01.04.2021
809 Clear 20 1020 35 10000 2.27 340 13:32 01.04.2021
810 Clear 18 1020 48 10000 1.54 180 12:56 01.04.2021
811 Clear 18 1020 42 10000 3.6 50 12:37 01.04.2021
812 Clear 18 1020 48 10000 1.54 180 12:18 01.04.2021
813 Clouds 16 1020 62 10000 1.18 325 11:42 01.04.2021
814 Clouds 16 1020 62 10000 1.07 326 11:18 01.04.2021
815 Clouds 15 1020 71 10000 1.07 326 10:45 01.04.2021
816 Clouds 14 1020 71 10000 0.94 324 10:25 01.04.2021
817 Clouds 12 1020 71 10000 0.94 324 09:32 01.04.2021
818 Clear 10 1020 71 10000 0.37 327 08:54 01.04.2021
819 Clear 11 1020 54 10000 1.03 20 08:32 01.04.2021
820 Clear 9 1020 71 10000 0.24 176 07:22 01.04.2021
821 Clear 8 1020 76 10000 0.24 176 06:56 01.04.2021
822 Clear 9 1020 76 10000 0.21 241 06:20 01.04.2021
823 Clear 11 1020 58 10000 0.47 180 03:20 01.04.2021
824 Clear 11 1020 50 10000 0.73 222 00:23 01.04.2021
825 Clear 12 1020 44 10000 0.73 222 23:44 31.03.2021
826 Clear 14 1021 44 10000 1.13 204 22:56 31.03.2021
827 Clear 14 1021 44 10000 1.13 204 22:38 31.03.2021
828 Clear 14 1021 44 10000 1.33 197 22:19 31.03.2021
829 Clear 15 1020 42 10000 1.03 0 21:43 31.03.2021
830 Clear 16 1020 42 10000 1.03 0 21:20 31.03.2021
831 Clear 16 1020 39 10000 1.54 300 20:42 31.03.2021
832 Clear 17 1020 35 10000 3.6 260 20:22 31.03.2021
833 Clear 22 1020 35 10000 3.6 260 19:44 31.03.2021
834 Clear 20 1020 31 10000 2.57 170 19:25 31.03.2021
835 Clear 21 1020 31 10000 3.09 160 18:58 31.03.2021
836 Clear 21 1020 31 10000 3.09 160 18:40 31.03.2021
837 Clear 21 1020 31 10000 3.09 160 18:40 31.03.2021
838 Clear 21 1020 31 10000 3.09 160 18:40 31.03.2021
839 Clear 22 1021 31 10000 2.57 170 17:51 31.03.2021
840 Clear 22 1021 28 10000 2.57 200 17:31 31.03.2021
841 Clear 23 1021 28 10000 3.6 210 16:56 31.03.2021
842 Clear 23 1021 33 10000 3.6 190 16:37 31.03.2021
843 Clear 23 1021 28 10000 3.6 210 16:18 31.03.2021
844 Clear 24 1022 28 10000 4.12 200 15:43 31.03.2021
845 Clear 23 1022 28 10000 4.12 200 15:19 31.03.2021
846 Clear 23 1023 30 10000 4.12 220 14:42 31.03.2021
847 Clear 22 1023 30 10000 4.12 220 14:20 31.03.2021
848 Clear 21 1023 34 10000 1.54 220 13:40 31.03.2021
849 Clear 19 1024 34 10000 2.06 220 12:42 31.03.2021
850 Clear 18 1024 34 10000 2.06 220 12:20 31.03.2021
851 Clear 17 1024 36 10000 2.18 210 11:51 31.03.2021
852 Clear 16 1024 36 10000 1.58 208 11:20 31.03.2021
853 Clear 15 1024 47 10000 1.54 70 10:47 31.03.2021
854 Clear 14 1024 47 10000 1.54 70 10:25 31.03.2021
855 Clear 12 1024 66 10000 1.1 193 09:42 31.03.2021
856 Clear 9 1024 75 10000 0.7 167 08:55 31.03.2021
857 Clear 9 1024 50 10000 1.54 80 08:37 31.03.2021
858 Clear 7 1024 70 10000 0.67 154 07:52 31.03.2021
859 Clear 8 1025 57 10000 0.64 144 06:46 31.03.2021
860 Clear 10 1026 53 10000 0.89 106 03:51 31.03.2021
861 Clear 10 1027 50 10000 0.93 107 01:43 31.03.2021
862 Clear 11 1027 40 10000 0.93 103 00:49 31.03.2021
863 Clear 11 1027 40 10000 0.97 104 00:21 31.03.2021
864 Clear 12 1027 41 10000 0.97 104 23:41 30.03.2021
865 Clear 13 1027 41 10000 1.19 109 23:19 30.03.2021
866 Clear 14 1027 36 10000 2.06 70 22:41 30.03.2021
867 Clear 14 1027 36 10000 2.06 70 22:23 30.03.2021
868 Clear 15 1027 33 10000 2.57 60 21:51 30.03.2021
869 Clear 16 1027 27 10000 1.54 60 21:21 30.03.2021
870 Clear 17 1028 30 10000 1.38 123 20:55 30.03.2021
871 Clear 17 1028 30 10000 1.3 130 20:28 30.03.2021
872 Clear 21 1028 28 10000 1.3 130 19:51 30.03.2021
873 Clear 20 1028 28 10000 0.98 128 19:28 30.03.2021
874 Clear 20 1028 28 10000 0.98 128 19:28 30.03.2021
875 Clear 22 1028 23 10000 0.98 128 18:47 30.03.2021
876 Clear 21 1028 23 10000 0.68 137 18:24 30.03.2021
877 Clear 21 1029 23 10000 2.57 120 17:42 30.03.2021
878 Clear 21 1029 23 10000 2.57 120 17:24 30.03.2021
879 Clear 22 1029 18 10000 2.57 90 16:46 30.03.2021
880 Clear 22 1029 18 10000 2.57 90 16:46 30.03.2021
881 Clear 22 1029 18 10000 2.57 90 16:25 30.03.2021
882 Clear 21 1030 23 10000 2.06 100 15:22 30.03.2021
883 Clear 22 1031 21 10000 3.09 80 14:59 30.03.2021
884 Clear 22 1031 21 10000 3.09 80 14:40 30.03.2021
885 Clear 21 1031 21 10000 3.09 80 14:19 30.03.2021
886 Clear 19 1031 27 10000 2.06 120 13:42 30.03.2021
887 Clear 18 1032 34 10000 2.06 90 12:58 30.03.2021
888 Clear 18 1032 36 10000 3.6 120 12:39 30.03.2021
889 Clear 18 1032 34 10000 2.06 90 12:20 30.03.2021
890 Clear 15 1032 41 10000 2.57 120 11:40 30.03.2021
891 Clear 15 1032 44 10000 1.54 80 11:18 30.03.2021
892 Clear 13 1032 50 10000 2.57 60 10:40 30.03.2021
893 Clear 12 1032 58 10000 0.94 49 10:18 30.03.2021
894 Clear 10 1032 57 10000 3.09 50 09:38 30.03.2021
895 Clear 8 1032 76 10000 0.85 58 09:20 30.03.2021
896 Clear 8 1031 61 10000 3.6 40 08:41 30.03.2021
897 Clear 6 1031 70 10000 1.54 50 07:53 30.03.2021
898 Clear 5 1031 70 10000 1.54 50 07:28 30.03.2021
899 Clear 5 1031 81 10000 1.09 67 06:23 30.03.2021
900 Clear 6 1031 65 10000 1.06 66 05:24 30.03.2021
901 Clear 8 1032 49 10000 0.68 103 01:44 30.03.2021
902 Clear 9 1031 46 10000 0.8 169 23:53 29.03.2021
903 Clear 9 1031 46 10000 1.07 172 23:21 29.03.2021
904 Clear 10 1031 40 10000 0.97 166 22:43 29.03.2021
905 Clear 11 1031 35 10000 1.13 186 21:55 29.03.2021
906 Clear 12 1031 35 10000 1.13 186 21:34 29.03.2021
907 Clear 14 1031 38 10000 1.54 180 20:51 29.03.2021
908 Clear 15 1031 38 10000 1.54 180 20:30 29.03.2021
909 Clear 16 1030 29 10000 3.09 200 19:55 29.03.2021
910 Clear 17 1030 29 10000 3.09 200 19:28 29.03.2021
911 Clear 17 1030 26 10000 3.09 210 18:56 29.03.2021
912 Clear 18 1031 26 10000 3.6 270 18:37 29.03.2021
913 Clear 18 1030 26 10000 3.09 210 18:18 29.03.2021
914 Clear 19 1031 26 10000 3.6 240 17:35 29.03.2021
915 Clear 20 1031 32 10000 4.12 190 16:53 29.03.2021
916 Clear 20 1031 32 10000 4.12 190 16:30 29.03.2021
917 Clear 19 1031 27 10000 3.6 200 15:43 29.03.2021
918 Clear 19 1031 27 10000 3.6 200 15:24 29.03.2021
919 Clear 18 1031 34 10000 4.63 230 14:48 29.03.2021
920 Clear 18 1031 34 10000 4.63 230 14:23 29.03.2021
921 Clear 16 1032 41 10000 4.63 210 13:45 29.03.2021
922 Clear 16 1032 41 10000 4.63 210 13:22 29.03.2021
923 Clear 15 1031 47 10000 3.6 210 12:49 29.03.2021
924 Clear 13 1031 54 10000 2.06 230 11:49 29.03.2021
925 Clear 12 1031 54 10000 2.06 230 11:30 29.03.2021
926 Clear 10 1031 57 10000 2.57 240 10:52 29.03.2021
927 Clear 9 1031 57 10000 2.57 240 10:32 29.03.2021
928 Clear 7 1031 66 10000 2.57 200 09:37 29.03.2021
929 Clouds 6 1030 75 10000 2.34 196 08:51 29.03.2021
930 Clouds 5 1030 75 10000 2.37 187 08:28 29.03.2021
931 Clear 5 1030 70 10000 2.57 240 07:28 29.03.2021
932 Clouds 4 1029 70 10000 2.06 220 06:27 29.03.2021
933 Clear 5 1030 70 10000 1.54 240 03:51 29.03.2021
934 Clear 6 1029 61 10000 1.54 240 01:43 29.03.2021
935 Clear 7 1029 61 10000 2.06 240 00:22 29.03.2021
936 Clouds 8 1029 57 10000 3.6 230 23:44 28.03.2021
937 Clouds 8 1029 57 10000 3.6 230 23:19 28.03.2021
938 Clouds 8 1029 53 10000 3.09 230 22:41 28.03.2021
939 Clouds 8 1029 53 10000 3.09 230 22:21 28.03.2021
940 Clear 9 1028 57 10000 3.09 220 21:41 28.03.2021
941 Clear 9 1028 57 10000 3.09 220 21:22 28.03.2021
942 Clear 10 1028 46 10000 4.63 230 20:49 28.03.2021
943 Clear 11 1028 46 10000 4.63 230 20:31 28.03.2021
944 Clear 12 1028 47 10000 6.69 220 19:45 28.03.2021
945 Clear 12 1028 47 10000 6.69 220 19:23 28.03.2021
946 Clear 12 1027 41 10000 7.2 210 18:58 28.03.2021
947 Clear 13 1027 41 10000 7.2 210 18:27 28.03.2021
948 Clouds 14 1028 38 10000 4.63 220 17:50 28.03.2021
949 Clouds 14 1028 38 10000 4.63 220 17:27 28.03.2021
950 Clear 13 1028 44 10000 7.2 230 16:46 28.03.2021
951 Clear 13 1028 44 10000 7.2 230 16:46 28.03.2021
952 Clear 14 1028 44 10000 7.2 230 16:23 28.03.2021
953 Clouds 13 1028 41 10000 6.69 230 15:43 28.03.2021
954 Clouds 13 1028 41 10000 6.69 230 15:22 28.03.2021
955 Clouds 12 1029 50 10000 7.72 210 14:37 28.03.2021
956 Clouds 11 1029 50 10000 8.23 230 13:52 28.03.2021
957 Clouds 11 1029 50 10000 7.72 220 13:33 28.03.2021
958 Clouds 10 1029 57 10000 6.69 210 12:53 28.03.2021
959 Clouds 10 1029 57 10000 5.66 220 12:33 28.03.2021
960 Clouds 9 1029 76 10000 3.6 230 11:49 28.03.2021
961 Clouds 9 1029 76 10000 3.6 230 11:26 28.03.2021
962 Clouds 7 1029 75 10000 2.57 170 10:45 28.03.2021
963 Clouds 6 1029 75 10000 2.57 200 10:27 28.03.2021
964 Clouds 5 1029 81 10000 3.09 200 09:49 28.03.2021
965 Clear 4 1029 81 10000 3.09 200 09:25 28.03.2021
966 Clear 3 1029 93 10000 2.06 210 08:48 28.03.2021
967 Clear 2 1029 87 10000 2.57 210 07:53 28.03.2021
968 Clear 2 1029 87 10000 2.57 210 07:34 28.03.2021
969 Clear 3 1028 87 10000 3.6 230 05:19 28.03.2021
970 Clouds 4 1028 93 10000 3.09 220 01:50 28.03.2021
971 Clear 5 1029 75 10000 3.6 230 00:25 28.03.2021
972 Clear 5 1028 75 10000 3.6 230 23:48 27.03.2021
973 Clear 4 1028 81 10000 3.6 230 23:29 27.03.2021
974 Clear 5 1028 75 10000 3.09 230 22:38 27.03.2021
975 Clear 5 1028 75 10000 3.09 230 22:20 27.03.2021
976 Clear 4 1028 81 10000 3.6 220 21:41 27.03.2021
977 Clear 4 1028 81 10000 3.6 220 21:41 27.03.2021
978 Clear 5 1027 75 10000 4.12 230 21:20 27.03.2021
979 Clouds 4 1027 81 10000 3.09 230 20:55 27.03.2021
980 Clouds 5 1027 81 10000 3.09 230 20:37 27.03.2021
981 Clouds 5 1027 87 10000 2.06 260 19:46 27.03.2021
982 Clouds 6 1026 75 10000 4.12 240 19:24 27.03.2021
983 Clouds 6 1026 75 10000 4.12 240 18:57 27.03.2021
984 Clouds 6 1026 75 10000 4.12 240 18:38 27.03.2021
985 Clouds 6 1026 75 10000 4.12 240 18:19 27.03.2021
986 Clouds 6 1025 70 10000 4.63 240 17:29 27.03.2021
987 Clouds 6 1025 75 10000 5.66 240 16:57 27.03.2021
988 Clouds 6 1025 75 10000 5.66 240 16:38 27.03.2021
989 Clouds 6 1025 81 10000 4.12 230 16:19 27.03.2021
990 Rain 6 1025 81 10000 7.2 260 15:39 27.03.2021
991 Clouds 6 1024 65 10000 5.66 240 14:55 27.03.2021
992 Clouds 6 1024 65 10000 5.66 240 14:24 27.03.2021
993 Clouds 7 1024 61 10000 9.77 240 13:37 27.03.2021
994 Clouds 6 1023 65 10000 8.75 230 13:19 27.03.2021
995 Clouds 6 1023 70 10000 9.26 220 12:41 27.03.2021
996 Rain 5 1023 75 10000 9.26 230 11:49 27.03.2021
997 Clouds 5 1023 75 10000 9.26 230 11:31 27.03.2021
998 Clouds 5 1022 75 10000 12.35 220 10:49 27.03.2021
999 Clouds 5 1022 75 10000 12.35 220 10:30 27.03.2021
1000 Clouds 5 1021 87 10000 7.72 230 09:44 27.03.2021
1001 Clouds 4 1021 93 10000 8.23 220 09:18 27.03.2021
1002 Clouds 4 1020 93 10000 7.72 220 08:39 27.03.2021
1003 Clouds 4 1019 87 10000 6.17 220 07:49 27.03.2021
1004 Clouds 3 1019 93 10000 5.14 220 06:59 27.03.2021
1005 Clouds 3 1019 93 10000 5.14 220 06:59 27.03.2021
1006 Clouds 3 1019 93 10000 5.14 230 06:39 27.03.2021
1007 Clouds 4 1017 93 10000 6.69 240 04:42 27.03.2021
1008 Clouds 7 1015 87 10000 7.2 260 02:26 27.03.2021
1009 Clouds 10 1013 62 10000 7.72 200 00:33 27.03.2021
1010 Clouds 8 1014 70 10000 1.54 180 23:59 26.03.2021
1011 Clouds 7 1014 70 10000 1.54 180 23:27 26.03.2021
1012 Clear 7 1015 70 10000 2.57 180 22:40 26.03.2021
1013 Clouds 8 1015 65 10000 3.09 220 21:45 26.03.2021
1014 Clouds 8 1015 65 10000 3.09 220 21:23 26.03.2021
1015 Clouds 9 1015 57 10000 3.6 220 20:57 26.03.2021
1016 Clouds 9 1015 57 10000 3.6 220 20:31 26.03.2021
1017 Clouds 10 1015 57 10000 4.63 210 19:52 26.03.2021
1018 Clouds 11 1015 57 10000 4.63 210 19:33 26.03.2021
1019 Clouds 11 1015 50 10000 7.2 200 18:51 26.03.2021
1020 Clouds 12 1015 50 10000 7.2 200 18:31 26.03.2021
1021 Clouds 13 1015 50 10000 7.72 200 17:58 26.03.2021
1022 Clouds 13 1015 50 10000 6.17 200 17:35 26.03.2021
1023 Clouds 13 1016 50 10000 5.66 200 16:50 26.03.2021
1024 Clouds 13 1016 50 10000 5.66 200 16:23 26.03.2021
1025 Clouds 13 1016 50 10000 7.2 210 15:42 26.03.2021
1026 Clouds 13 1017 54 10000 5.66 180 14:50 26.03.2021
1027 Clouds 13 1017 54 10000 7.2 200 14:20 26.03.2021
1028 Clouds 14 1017 47 10000 6.17 200 13:33 26.03.2021
1029 Clouds 13 1019 58 10000 5.66 180 12:46 26.03.2021
1030 Clouds 12 1019 58 10000 7.2 180 11:50 26.03.2021
1031 Clouds 11 1019 62 10000 6.69 180 11:31 26.03.2021
1032 Clouds 10 1019 66 10000 7.72 200 10:45 26.03.2021
1033 Clear 10 1019 76 10000 4.63 210 10:24 26.03.2021
1034 Clear 8 1019 93 10000 2.06 160 09:41 26.03.2021
1035 Clear 7 1019 100 10000 1.54 180 08:51 26.03.2021
1036 Mist 6 1019 100 3200 1.54 200 08:31 26.03.2021
1037 Mist 4 1020 100 6000 2.13 177 07:58 26.03.2021
1038 Mist 3 1019 100 8000 2.01 173 07:22 26.03.2021
1039 Mist 3 1019 100 3200 2.01 173 06:57 26.03.2021
1040 Mist 3 1019 100 6000 2.14 177 06:26 26.03.2021
1041 Clouds 4 1020 100 10000 2.1 181 05:21 26.03.2021
1042 Clouds 6 1021 87 10000 1.54 230 01:50 26.03.2021
1043 Clouds 6 1021 81 10000 2.06 230 00:23 26.03.2021
1044 Clouds 7 1021 87 10000 2.06 230 23:44 25.03.2021
1045 Clouds 7 1021 81 10000 2.06 240 22:51 25.03.2021
1046 Clouds 7 1021 81 10000 2.06 240 22:27 25.03.2021
1047 Clouds 7 1021 81 10000 2.57 230 21:49 25.03.2021
1048 Clouds 7 1021 81 10000 2.57 230 21:31 25.03.2021
1049 Clouds 8 1021 81 10000 3.09 240 20:43 25.03.2021
1050 Clouds 8 1021 81 10000 3.09 240 20:25 25.03.2021
1051 Clouds 9 1021 76 10000 4.12 230 19:45 25.03.2021
1052 Clouds 9 1021 76 10000 3.09 230 19:26 25.03.2021
1053 Clouds 9 1021 76 10000 4.12 230 18:47 25.03.2021
1054 Clouds 9 1021 76 10000 3.6 230 18:26 25.03.2021
1055 Clouds 9 1021 76 10000 3.6 230 18:26 25.03.2021
1056 Clouds 9 1021 76 10000 3.6 230 18:26 25.03.2021
1057 Clouds 9 1020 71 10000 4.12 230 17:45 25.03.2021
1058 Clouds 10 1020 71 10000 4.12 230 17:27 25.03.2021
1059 Clouds 10 1020 66 10000 4.12 220 16:51 25.03.2021
1060 Clouds 11 1020 66 10000 4.12 220 16:30 25.03.2021
1061 Clouds 12 1020 62 10000 7.2 210 15:45 25.03.2021
1062 Clouds 12 1020 62 10000 7.2 210 15:21 25.03.2021
1063 Clouds 13 1020 58 10000 5.14 200 14:46 25.03.2021
1064 Clouds 13 1020 54 10000 3.09 250 13:52 25.03.2021
1065 Clouds 13 1020 54 10000 3.09 250 13:24 25.03.2021
1066 Clear 12 1020 58 10000 4.12 250 12:45 25.03.2021
1067 Clear 12 1020 58 10000 4.12 250 12:21 25.03.2021
1068 Clouds 11 1021 71 10000 2.06 240 11:52 25.03.2021
1069 Clouds 10 1021 71 10000 2.06 240 11:30 25.03.2021
1070 Clear 8 1021 81 10000 2.06 220 10:57 25.03.2021
1071 Clear 8 1021 81 10000 2.06 220 10:38 25.03.2021
1072 Clear 8 1021 81 10000 2.06 220 10:18 25.03.2021
1073 Clear 6 1020 87 10000 3.09 250 09:42 25.03.2021
1074 Clear 5 1020 93 10000 2.57 260 08:58 25.03.2021
1075 Clear 4 1020 93 10000 2.57 260 08:29 25.03.2021
1076 Clear 4 1019 93 10000 1.61 185 07:26 25.03.2021
1077 Clear 2 1019 87 10000 1.42 179 06:27 25.03.2021
1078 Clear 3 1019 87 10000 1.42 179 05:49 25.03.2021
1079 Clear 4 1019 75 10000 1.54 200 04:33 25.03.2021
1080 Clear 4 1020 75 10000 1.62 177 00:46 25.03.2021
1081 Clear 4 1021 75 10000 1.69 176 00:18 25.03.2021
1082 Clear 5 1021 70 10000 1.69 176 23:36 24.03.2021
1083 Clear 6 1021 66 10000 1.54 200 22:58 24.03.2021
1084 Clear 6 1021 66 10000 1.76 182 22:38 24.03.2021
1085 Clear 7 1021 61 10000 1.54 240 21:50 24.03.2021
1086 Clear 8 1021 61 10000 1.82 188 21:31 24.03.2021
1087 Clear 8 1021 61 10000 1.93 190 20:56 24.03.2021
1088 Clear 8 1021 57 10000 2.06 180 20:38 24.03.2021
1089 Clear 9 1021 61 10000 2.06 180 20:18 24.03.2021
1090 Clear 11 1021 57 10000 2.57 180 19:33 24.03.2021
1091 Clear 11 1021 57 10000 2.57 180 19:33 24.03.2021
1092 Clear 11 1021 58 10000 3.09 180 18:53 24.03.2021
1093 Clear 12 1021 50 10000 3.6 190 18:24 24.03.2021
1094 Clear 12 1021 50 10000 3.6 190 18:24 24.03.2021
1095 Clear 13 1021 47 10000 4.12 180 17:53 24.03.2021
1096 Clear 14 1021 41 10000 4.63 210 17:32 24.03.2021
1097 Clear 14 1021 41 10000 3.09 170 16:56 24.03.2021
1098 Clear 14 1021 41 10000 3.6 210 16:38 24.03.2021
1099 Clear 16 1022 41 10000 3.09 200 16:18 24.03.2021
1100 Clear 15 1022 41 10000 3.09 220 15:37 24.03.2021
1101 Clear 16 1022 41 10000 4.12 190 15:18 24.03.2021
1102 Clear 15 1022 44 10000 3.6 220 14:29 24.03.2021
1103 Clear 14 1023 47 10000 2.57 190 13:58 24.03.2021
1104 Clear 13 1023 47 10000 2.57 190 13:28 24.03.2021
1105 Clear 12 1024 50 10000 4.12 230 12:52 24.03.2021
1106 Clear 12 1024 50 10000 4.12 220 12:32 24.03.2021
1107 Clear 11 1024 54 10000 4.12 230 11:57 24.03.2021
1108 Clear 9 1024 57 10000 3.09 180 11:39 24.03.2021
1109 Clear 8 1024 70 10000 2.06 240 10:49 24.03.2021
1110 Clear 7 1024 70 10000 2.06 240 10:31 24.03.2021
1111 Clear 6 1024 70 10000 2.06 230 09:55 24.03.2021
1112 Clear 6 1024 70 10000 2.06 230 09:55 24.03.2021
1113 Clear 6 1024 70 10000 1.54 250 09:31 24.03.2021
1114 Clear 5 1024 75 10000 2.57 170 08:58 24.03.2021
1115 Clear 4 1024 93 10000 1.39 203 08:39 24.03.2021
1116 Clear 2 1024 93 10000 1.08 193 07:50 24.03.2021
1117 Clear 0 1024 100 10000 1.15 186 07:19 24.03.2021
1118 Mist 0 1024 100 8000 0.92 191 06:45 24.03.2021
1119 Clear 0 1024 86 10000 1.37 178 02:29 24.03.2021
1120 Clear 1 1024 80 10000 1.46 183 00:42 24.03.2021
1121 Clear 2 1025 81 10000 1.66 174 23:52 23.03.2021
1122 Clear 2 1025 75 10000 1.64 173 23:20 23.03.2021
1123 Clear 3 1025 75 10000 1.64 173 22:51 23.03.2021
1124 Clear 3 1025 75 10000 1.54 70 22:25 23.03.2021
1125 Clear 3 1025 70 10000 1.56 176 21:47 23.03.2021
1126 Clear 4 1025 75 10000 1.48 180 21:29 23.03.2021
1127 Clear 5 1024 65 10000 1.48 180 20:47 23.03.2021
1128 Clear 5 1024 65 10000 1.38 173 20:25 23.03.2021
1129 Clear 6 1024 61 10000 1.54 130 19:50 23.03.2021
1130 Clear 7 1024 61 10000 2.06 120 19:26 23.03.2021
1131 Clouds 9 1024 53 10000 1.54 120 18:47 23.03.2021
1132 Clouds 9 1024 53 10000 1.54 120 18:24 23.03.2021
1133 Clouds 9 1024 53 10000 1.86 166 17:50 23.03.2021
1134 Clear 10 1024 53 10000 1.06 174 17:23 23.03.2021
1135 Clear 10 1024 53 10000 1.06 174 16:59 23.03.2021
1136 Clear 10 1024 53 10000 3.09 210 16:25 23.03.2021
1137 Clear 10 1025 53 10000 3.6 250 15:47 23.03.2021
1138 Clear 9 1025 53 10000 2.06 230 15:22 23.03.2021
1139 Clouds 9 1025 53 10000 2.06 250 14:45 23.03.2021
1140 Clear 8 1025 57 10000 3.09 240 14:19 23.03.2021
1141 Clouds 7 1025 61 10000 2.06 230 13:45 23.03.2021
1142 Clouds 7 1026 61 10000 2.06 210 13:23 23.03.2021
1143 Clouds 6 1026 61 10000 2.06 220 12:44 23.03.2021
1144 Clouds 6 1026 61 10000 2.57 240 12:23 23.03.2021
1145 Clouds 6 1026 65 10000 2.57 280 11:48 23.03.2021
1146 Clouds 6 1026 65 10000 1.54 230 11:18 23.03.2021
1147 Clouds 6 1026 65 10000 1.54 230 10:42 23.03.2021
1148 Clouds 5 1026 65 10000 2.06 270 10:20 23.03.2021
1149 Clouds 4 1026 65 10000 1.54 250 09:49 23.03.2021
1150 Clouds 4 1026 65 10000 2.06 240 09:22 23.03.2021
1151 Clouds 4 1026 70 10000 1.54 260 08:55 23.03.2021
1152 Clouds 4 1026 70 10000 2.06 260 08:37 23.03.2021
1153 Clouds 4 1026 70 10000 2.06 260 08:18 23.03.2021
1154 Clouds 3 1025 75 10000 0.55 47 07:27 23.03.2021
1155 Clouds 3 1025 75 10000 0.75 42 06:52 23.03.2021
1156 Clouds 2 1025 75 10000 0.85 11 03:24 23.03.2021
1157 Clouds 3 1025 65 10000 0.85 11 02:46 23.03.2021
1158 Clouds 3 1025 65 10000 0.4 20 23:47 22.03.2021
1159 Clouds 4 1025 65 10000 0.6 35 23:20 22.03.2021
1160 Clouds 4 1025 65 10000 2.57 10 22:44 22.03.2021
1161 Clouds 4 1025 65 10000 1.54 340 22:21 22.03.2021
1162 Clouds 4 1025 65 10000 1.54 350 21:49 22.03.2021
1163 Clouds 5 1025 60 10000 2.06 350 21:27 22.03.2021
1164 Clouds 5 1025 65 10000 2.57 360 20:44 22.03.2021
1165 Clouds 5 1025 65 10000 1.54 330 20:26 22.03.2021
1166 Clouds 5 1025 70 10000 1.54 340 19:58 22.03.2021
1167 Clouds 5 1025 70 10000 1.54 320 19:39 22.03.2021
1168 Clouds 5 1025 70 10000 1.54 320 19:20 22.03.2021
1169 Clouds 5 1024 65 10000 2.06 330 18:41 22.03.2021
1170 Clouds 5 1024 70 10000 2.57 360 18:22 22.03.2021
1171 Clouds 5 1024 70 10000 2.57 330 17:50 22.03.2021
1172 Clouds 6 1023 65 10000 3.09 350 17:22 22.03.2021
1173 Clouds 6 1023 61 10000 2.57 330 16:58 22.03.2021
1174 Clouds 6 1023 65 10000 3.09 360 16:39 22.03.2021
1175 Clouds 6 1023 65 10000 4.63 360 15:55 22.03.2021
1176 Clouds 6 1023 61 10000 3.09 350 15:37 22.03.2021
1177 Clouds 6 1023 61 10000 4.12 340 15:18 22.03.2021
1178 Clouds 5 1023 61 10000 3.09 30 14:44 22.03.2021
1179 Clouds 6 1024 61 10000 4.12 30 14:24 22.03.2021
1180 Clouds 5 1024 70 10000 4.12 30 13:38 22.03.2021
1181 Clouds 5 1024 70 10000 4.12 30 13:18 22.03.2021
1182 Clouds 5 1024 70 10000 3.6 10 12:41 22.03.2021
1183 Clouds 5 1024 70 10000 3.6 10 12:19 22.03.2021
1184 Clouds 5 1023 70 10000 3.6 340 11:44 22.03.2021
1185 Clouds 5 1023 70 10000 3.6 340 11:21 22.03.2021
1186 Clouds 5 1023 65 10000 2.06 360 10:43 22.03.2021
1187 Clouds 5 1023 70 10000 3.6 10 10:24 22.03.2021
1188 Clouds 4 1023 75 10000 2.57 360 09:39 22.03.2021
1189 Clouds 3 1023 75 10000 2.57 320 09:21 22.03.2021
1190 Clouds 3 1023 75 10000 2.57 340 08:43 22.03.2021
1191 Clouds 3 1022 75 10000 2.39 357 08:24 22.03.2021
1192 Clouds 2 1022 80 10000 1.54 320 07:44 22.03.2021
1193 Clouds 2 1022 80 10000 1.58 338 06:52 22.03.2021
1194 Clouds 2 1022 80 10000 1.58 339 06:27 22.03.2021
1195 Clouds 2 1022 70 10000 2.57 330 02:32 22.03.2021
1196 Clouds 3 1022 70 10000 2.06 330 00:29 22.03.2021
1197 Clouds 2 1022 70 10000 2.57 340 23:54 21.03.2021
1198 Clouds 4 1022 70 10000 2.57 330 23:19 21.03.2021
1199 Clouds 4 1022 70 10000 2.57 330 23:19 21.03.2021
1200 Clouds 4 1022 70 10000 2.57 340 22:56 21.03.2021
1201 Clouds 4 1022 70 10000 2.71 337 22:18 21.03.2021
1202 Clouds 4 1022 70 10000 4.12 310 21:40 21.03.2021
1203 Clouds 4 1022 70 10000 2.57 330 21:22 21.03.2021
1204 Clouds 4 1022 70 10000 3.09 330 20:43 21.03.2021
1205 Clouds 4 1022 65 10000 2.57 330 20:25 21.03.2021
1206 Clouds 4 1021 65 10000 3.09 340 19:53 21.03.2021
1207 Clouds 5 1021 60 10000 3.6 350 19:23 21.03.2021
1208 Clouds 5 1021 60 10000 4.63 340 18:50 21.03.2021
1209 Clouds 6 1021 56 10000 5.14 340 18:27 21.03.2021
1210 Clouds 6 1021 57 10000 5.66 350 17:48 21.03.2021
1211 Clouds 7 1020 57 10000 5.14 350 17:21 21.03.2021
1212 Clouds 7 1020 57 10000 4.63 330 16:59 21.03.2021
1213 Clouds 7 1020 53 10000 4.63 350 16:41 21.03.2021
1214 Clouds 7 1020 57 10000 4.63 360 16:22 21.03.2021
1215 Clouds 8 1020 53 10000 5.66 360 15:41 21.03.2021
1216 Clouds 8 1020 53 10000 4.63 350 15:20 21.03.2021
1217 Clouds 8 1021 53 10000 6.17 340 14:46 21.03.2021
1218 Clouds 7 1021 57 10000 5.66 330 14:27 21.03.2021
1219 Clouds 7 1021 61 10000 6.69 350 13:54 21.03.2021
1220 Clouds 7 1021 57 10000 6.17 340 13:33 21.03.2021
1221 Clouds 6 1021 65 10000 5.14 360 12:42 21.03.2021
1222 Clouds 5 1021 70 10000 5.66 340 12:24 21.03.2021
1223 Clouds 5 1021 75 10000 5.14 340 11:41 21.03.2021
1224 Clouds 5 1021 81 10000 3.09 310 11:20 21.03.2021
1225 Clouds 5 1021 81 10000 3.09 310 11:20 21.03.2021
1226 Clouds 4 1021 93 10000 3.6 290 10:43 21.03.2021
1227 Clouds 4 1021 100 10000 3.09 270 10:25 21.03.2021
1228 Clouds 3 1021 100 10000 3.6 280 09:47 21.03.2021
1229 Clouds 3 1021 100 10000 2.57 260 09:29 21.03.2021
1230 Mist 3 1021 100 8000 3.09 270 08:47 21.03.2021
1231 Mist 2 1021 100 6000 2.57 260 08:26 21.03.2021
1232 Mist 2 1022 100 5000 2.57 260 07:41 21.03.2021
1233 Mist 2 1022 100 6000 2.57 270 07:21 21.03.2021
1234 Clouds 2 1021 93 10000 2.06 260 05:59 21.03.2021
1235 Clouds 2 1023 56 10000 2.06 260 02:46 21.03.2021
1236 Haze 3 1024 52 6000 0.59 293 00:56 21.03.2021
1237 Clouds 3 1024 52 10000 1.54 340 00:36 21.03.2021
1238 Haze 3 1024 52 6000 0.43 255 00:18 21.03.2021
1239 Clouds 3 1025 52 10000 2.06 360 23:40 20.03.2021
1240 Haze 3 1025 41 6000 0.24 10 23:18 20.03.2021
1241 Haze 3 1025 41 9000 1.54 10 22:24 20.03.2021
1242 Clouds 3 1025 44 10000 1.54 20 21:48 20.03.2021
1243 Clouds 3 1025 44 10000 1.54 20 21:26 20.03.2021
1244 Clouds 4 1025 38 10000 3.09 20 20:49 20.03.2021
1245 Clouds 4 1025 38 10000 3.09 20 20:25 20.03.2021
1246 Clouds 4 1025 38 10000 3.09 20 19:56 20.03.2021
1247 Clouds 4 1025 41 10000 2.57 60 19:38 20.03.2021
1248 Clouds 4 1025 33 10000 3.6 20 19:20 20.03.2021
1249 Clouds 5 1025 33 10000 3.09 360 18:44 20.03.2021
1250 Clouds 6 1025 31 10000 3.09 360 18:21 20.03.2021
1251 Haze 7 1025 31 9000 2.57 350 17:42 20.03.2021
1252 Haze 7 1025 31 9000 2.57 350 17:22 20.03.2021
1253 Clear 7 1025 31 10000 3.6 10 16:43 20.03.2021
1254 Clouds 7 1025 31 10000 3.09 60 16:19 20.03.2021
1255 Clouds 7 1025 31 10000 3.09 60 15:44 20.03.2021
1256 Clouds 6 1025 31 10000 3.09 60 15:25 20.03.2021
1257 Clear 6 1026 24 10000 3 49 14:41 20.03.2021
1258 Clear 6 1026 24 10000 2.94 49 14:20 20.03.2021
1259 Clear 5 1026 31 10000 2.06 110 13:32 20.03.2021
1260 Clear 4 1027 45 10000 3.6 130 12:44 20.03.2021
1261 Clear 4 1027 45 10000 3.6 130 12:25 20.03.2021
1262 Clouds 3 1027 56 10000 2.57 10 11:44 20.03.2021
1263 Clouds 3 1027 56 10000 2.57 10 11:24 20.03.2021
1264 Clouds 3 1027 60 10000 2.57 30 10:47 20.03.2021
1265 Clear 2 1027 64 10000 3.09 30 10:27 20.03.2021
1266 Clouds 1 1027 69 10000 3.6 20 09:55 20.03.2021
1267 Clouds 1 1027 69 10000 3.6 20 09:27 20.03.2021
1268 Clouds 0 1027 80 10000 4.63 30 08:56 20.03.2021
1269 Clouds -1 1026 93 10000 2.18 39 08:29 20.03.2021
1270 Clouds -1 1026 93 10000 1.54 350 07:51 20.03.2021
1271 Clouds -2 1026 93 10000 1.54 350 07:31 20.03.2021
1272 Clouds -3 1026 93 10000 2.06 46 06:47 20.03.2021
1273 Clouds -2 1026 93 10000 2.05 41 06:18 20.03.2021
1274 Clouds -1 1025 80 10000 2.06 40 03:59 20.03.2021
1275 Clouds -1 1025 80 10000 2.06 40 03:41 20.03.2021
1276 Clouds -1 1025 69 10000 2.57 360 23:58 19.03.2021
1277 Clouds -1 1025 69 10000 2.06 10 23:31 19.03.2021
1278 Clear 0 1024 60 10000 1.54 360 22:49 19.03.2021
1279 Clear 0 1024 60 10000 1.54 360 22:28 19.03.2021
1280 Clear 1 1024 60 10000 3.09 10 21:56 19.03.2021
1281 Clear 1 1024 60 10000 3.09 10 21:22 19.03.2021
1282 Clear 1 1024 60 10000 2.06 350 20:59 19.03.2021
1283 Clear 2 1024 55 10000 4.12 20 20:40 19.03.2021
1284 Clear 1 1024 60 10000 2.06 350 20:21 19.03.2021
1285 Clear 2 1023 52 10000 3.09 20 19:46 19.03.2021
1286 Clear 3 1023 48 10000 6.69 40 19:20 19.03.2021
1287 Clear 4 1022 56 10000 4.63 60 18:40 19.03.2021
1288 Clear 4 1023 48 10000 6.69 40 18:20 19.03.2021
1289 Clouds 4 1022 48 10000 6.69 30 17:55 19.03.2021
1290 Clouds 5 1022 48 10000 5.14 70 17:31 19.03.2021
1291 Clouds 5 1022 48 10000 5.66 80 16:55 19.03.2021
1292 Clouds 5 1022 45 10000 8.75 40 16:31 19.03.2021
1293 Clouds 5 1022 45 10000 8.23 50 15:56 19.03.2021
1294 Clouds 5 1021 45 10000 9.26 40 15:27 19.03.2021
1295 Clouds 5 1021 45 10000 8.23 60 14:47 19.03.2021
1296 Clouds 5 1021 48 10000 6.69 20 14:28 19.03.2021
1297 Clouds 4 1021 52 10000 10.29 20 13:42 19.03.2021
1298 Clouds 4 1021 52 10000 10.29 20 13:42 19.03.2021
1299 Clouds 4 1021 52 10000 8.75 60 13:18 19.03.2021
1300 Clouds 4 1021 60 10000 8.23 60 12:38 19.03.2021
1301 Clouds 3 1020 70 10000 8.23 50 11:49 19.03.2021
1302 Clouds 2 1020 70 10000 7.2 60 10:59 19.03.2021
1303 Clear 1 1020 75 10000 7.72 40 10:40 19.03.2021
1304 Clear 1 1020 75 10000 7.72 40 10:19 19.03.2021
1305 Clouds 1 1020 86 10000 5.14 40 09:43 19.03.2021
1306 Clouds 1 1019 86 10000 5.14 40 09:22 19.03.2021
1307 Clouds 1 1019 93 10000 6.17 40 08:47 19.03.2021
1308 Clouds 0 1019 93 10000 6.17 40 08:25 19.03.2021
1309 Clouds 1 1018 100 10000 3.6 70 07:43 19.03.2021
1310 Clouds 1 1018 100 10000 4.12 60 06:58 19.03.2021
1311 Clouds 1 1016 100 10000 2.57 30 05:19 19.03.2021
1312 Snow 1 1016 100 8000 2.06 260 00:58 19.03.2021
1313 Rain 1 1017 100 10000 1.54 270 23:51 18.03.2021
1314 Snow 2 1017 100 10000 2.06 250 23:26 18.03.2021
1315 Rain 2 1017 87 10000 2.57 310 22:44 18.03.2021
1316 Rain 3 1017 87 10000 2.57 310 22:25 18.03.2021
1317 Rain 3 1018 70 10000 1.07 317 21:40 18.03.2021
1318 Rain 3 1018 70 10000 1.32 342 21:21 18.03.2021
1319 Clouds 3 1018 70 10000 1.32 342 20:39 18.03.2021
1320 Clouds 3 1018 70 10000 1.58 334 20:20 18.03.2021
1321 Clouds 4 1019 65 10000 2.06 300 19:42 18.03.2021
1322 Clouds 4 1019 65 10000 2.06 300 19:22 18.03.2021
1323 Clouds 5 1019 60 10000 2.06 310 18:41 18.03.2021
1324 Clouds 5 1020 56 10000 2.57 320 17:55 18.03.2021
1325 Clouds 5 1020 56 10000 2.57 320 17:27 18.03.2021
1326 Clouds 5 1020 52 10000 3.09 310 16:54 18.03.2021
1327 Clouds 5 1020 56 10000 2.06 320 16:35 18.03.2021
1328 Clouds 6 1021 56 10000 2.06 280 15:59 18.03.2021
1329 Clouds 6 1021 56 10000 2.06 280 15:41 18.03.2021
1330 Clouds 6 1021 56 10000 2.06 280 15:19 18.03.2021
1331 Clouds 6 1021 56 10000 2.06 280 15:19 18.03.2021
1332 Clouds 6 1021 56 10000 1.54 300 14:45 18.03.2021
1333 Clouds 6 1021 56 10000 1.54 300 14:19 18.03.2021
1334 Clouds 5 1023 52 10000 1.54 260 13:40 18.03.2021
1335 Clouds 5 1023 52 10000 1.54 260 13:21 18.03.2021
1336 Clouds 5 1023 52 10000 1.54 260 12:38 18.03.2021
1337 Clouds 5 1023 60 10000 2.06 320 12:19 18.03.2021
1338 Clouds 4 1023 65 10000 1.54 0 11:45 18.03.2021
1339 Clouds 3 1024 75 10000 1.81 344 11:22 18.03.2021
1340 Clouds 3 1024 75 10000 1.81 344 10:42 18.03.2021
1341 Clouds 2 1024 75 10000 1.53 344 10:23 18.03.2021
1342 Clouds 1 1024 86 10000 1.54 280 09:53 18.03.2021
1343 Clouds 1 1024 86 10000 1.54 280 09:27 18.03.2021
1344 Clouds 0 1024 86 6000 3.09 360 08:46 18.03.2021
1345 Mist -1 1024 100 8000 0.6 342 08:26 18.03.2021
1346 Mist -1 1024 100 8000 0.6 342 07:48 18.03.2021
1347 Clear -2 1024 93 10000 0.7 346 06:50 18.03.2021
1348 Clear -2 1024 93 10000 0.88 353 06:26 18.03.2021
1349 Clear -2 1024 100 10000 0.88 353 05:40 18.03.2021
1350 Clear 2 1025 86 10000 1.26 12 00:51 18.03.2021
1351 Clouds 2 1025 86 10000 1.54 310 23:58 17.03.2021
1352 Clouds 2 1025 75 10000 2.06 340 22:44 17.03.2021
1353 Clouds 2 1025 75 10000 2.06 340 22:24 17.03.2021
1354 Clouds 2 1024 64 10000 1.69 355 21:53 17.03.2021
1355 Clouds 2 1024 65 10000 3.09 360 21:33 17.03.2021
1356 Clouds 2 1024 65 10000 3.09 360 21:33 17.03.2021
1357 Clouds 2 1024 64 10000 1.54 310 20:58 17.03.2021
1358 Clouds 2 1024 64 10000 1.54 310 20:40 17.03.2021
1359 Clouds 2 1024 64 10000 2.52 3 20:21 17.03.2021
1360 Clouds 3 1024 60 10000 3.6 20 19:43 17.03.2021
1361 Clouds 3 1024 60 10000 3.6 20 19:21 17.03.2021
1362 Clouds 3 1024 60 10000 4.63 10 18:52 17.03.2021
1363 Clouds 3 1024 65 10000 4.63 10 18:33 17.03.2021
1364 Clouds 4 1023 56 10000 5.66 360 17:48 17.03.2021
1365 Clouds 4 1023 65 10000 5.66 10 17:25 17.03.2021
1366 Clouds 5 1023 65 10000 3.6 10 16:46 17.03.2021
1367 Clouds 5 1023 56 10000 5.14 10 16:25 17.03.2021
1368 Clouds 5 1023 60 10000 5.14 10 15:53 17.03.2021
1369 Clouds 5 1023 60 10000 5.14 10 15:35 17.03.2021
1370 Clouds 5 1023 60 10000 6.69 20 14:45 17.03.2021
1371 Clouds 5 1023 70 10000 7.2 340 14:27 17.03.2021
1372 Clouds 5 1023 93 10000 4.63 360 13:55 17.03.2021
1373 Rain 5 1023 93 10000 4.63 360 13:30 17.03.2021
1374 Clouds 4 1023 93 10000 5.14 360 12:54 17.03.2021
1375 Clouds 4 1023 87 10000 3.09 10 12:34 17.03.2021
1376 Drizzle 5 1023 70 10000 4.12 310 11:51 17.03.2021
1377 Clouds 4 1023 81 10000 3.6 300 11:23 17.03.2021
1378 Clouds 4 1023 87 10000 2.06 310 10:55 17.03.2021
1379 Clouds 3 1023 87 10000 3.6 320 10:31 17.03.2021
1380 Clouds 3 1023 81 10000 3.09 320 09:49 17.03.2021
1381 Clouds 3 1023 87 10000 2.57 320 09:28 17.03.2021
1382 Clouds 3 1023 93 10000 2.06 310 08:59 17.03.2021
1383 Rain 3 1023 93 10000 2.06 330 08:39 17.03.2021
1384 Rain 3 1023 93 10000 1.54 290 07:55 17.03.2021
1385 Clouds 2 1023 100 10000 2.06 320 07:35 17.03.2021
1386 Clouds 2 1022 100 10000 2.06 330 06:47 17.03.2021
1387 Clouds 2 1022 100 10000 1.54 320 04:27 17.03.2021
1388 Clouds 3 1021 100 10000 1.54 360 03:25 17.03.2021
1389 Rain 3 1021 100 10000 1.69 12 00:41 17.03.2021
1390 Rain 3 1022 100 10000 0.93 17 23:40 16.03.2021
1391 Rain 3 1022 100 10000 1.04 350 23:18 16.03.2021
1392 Rain 3 1022 100 10000 1.04 350 22:43 16.03.2021
1393 Rain 3 1022 100 10000 1.54 190 22:25 16.03.2021
1394 Rain 3 1022 100 10000 2.06 240 21:42 16.03.2021
1395 Rain 3 1022 100 10000 2.06 240 21:24 16.03.2021
1396 Rain 3 1022 100 10000 2.57 230 20:47 16.03.2021
1397 Rain 3 1022 100 10000 3.09 230 20:19 16.03.2021
1398 Rain 4 1022 100 10000 3.09 230 19:48 16.03.2021
1399 Rain 4 1022 100 10000 3.09 230 19:27 16.03.2021
1400 Rain 4 1022 100 10000 3.6 220 18:53 16.03.2021
1401 Rain 4 1022 100 10000 3.6 230 18:35 16.03.2021
1402 Clouds 4 1022 93 10000 4.12 250 17:52 16.03.2021
1403 Rain 4 1022 87 10000 3.09 260 17:33 16.03.2021
1404 Rain 4 1022 87 10000 2.06 260 16:58 16.03.2021
1405 Rain 5 1023 81 10000 3.09 260 16:38 16.03.2021
1406 Rain 5 1023 81 10000 3.09 260 16:19 16.03.2021
1407 Drizzle 5 1023 81 10000 5.14 280 15:40 16.03.2021
1408 Rain 5 1023 87 10000 4.63 260 15:19 16.03.2021
1409 Rain 5 1023 87 10000 2.57 280 14:56 16.03.2021
1410 Rain 5 1023 87 10000 2.57 280 14:37 16.03.2021
1411 Rain 5 1023 93 10000 2.57 280 14:18 16.03.2021
1412 Rain 6 1023 75 10000 4.12 260 13:41 16.03.2021
1413 Rain 6 1023 70 10000 5.66 290 13:19 16.03.2021
1414 Clouds 5 1023 87 10000 3.09 270 12:40 16.03.2021
1415 Clouds 5 1023 81 10000 5.66 280 12:19 16.03.2021
1416 Clouds 5 1023 70 10000 5.14 270 11:36 16.03.2021
1417 Clouds 5 1023 87 10000 4.63 250 10:53 16.03.2021
1418 Clouds 5 1023 87 10000 4.63 250 10:53 16.03.2021
1419 Clouds 5 1023 75 10000 5.14 250 10:22 16.03.2021
1420 Clouds 5 1023 70 10000 3.09 270 09:47 16.03.2021
1421 Clouds 4 1023 75 10000 3.09 280 09:24 16.03.2021
1422 Clouds 4 1023 81 10000 3.6 280 08:57 16.03.2021
1423 Clouds 3 1023 87 10000 2.57 250 08:39 16.03.2021
1424 Clouds 3 1023 87 10000 2.57 250 08:18 16.03.2021
1425 Clouds 3 1022 93 10000 2.57 260 07:33 16.03.2021
1426 Clouds 3 1022 93 10000 2.57 260 06:39 16.03.2021
1427 Clouds 2 1021 93 10000 2.06 240 05:40 16.03.2021
1428 Clouds 2 1021 93 10000 2.06 240 05:21 16.03.2021
1429 Clouds 4 1020 70 10000 3.09 270 02:45 16.03.2021
1430 Clouds 4 1020 70 10000 3.09 270 02:23 16.03.2021
1431 Clouds 3 1019 81 10000 3.6 290 23:57 15.03.2021
1432 Clouds 3 1019 81 10000 3.6 290 23:28 15.03.2021
1433 Clouds 3 1019 81 10000 3.6 290 23:28 15.03.2021
1434 Clouds 3 1019 81 10000 4.12 270 22:51 15.03.2021
1435 Clouds 3 1019 81 10000 4.12 270 22:33 15.03.2021
1436 Clouds 3 1019 81 10000 4.12 270 22:33 15.03.2021
1437 Clouds 4 1018 87 10000 5.66 300 21:55 15.03.2021
1438 Drizzle 4 1018 81 10000 6.17 290 21:34 15.03.2021
1439 Clouds 4 1018 81 10000 5.14 280 20:59 15.03.2021
1440 Clouds 4 1018 75 10000 4.12 280 20:40 15.03.2021
1441 Clouds 4 1017 75 10000 6.17 280 20:21 15.03.2021
1442 Clouds 4 1017 75 10000 3.6 270 19:51 15.03.2021
1443 Clouds 4 1017 75 10000 3.6 270 19:32 15.03.2021
1444 Clouds 4 1016 75 10000 3.6 270 18:57 15.03.2021
1445 Clouds 5 1016 75 10000 3.6 280 18:32 15.03.2021
1446 Clouds 6 1015 75 10000 3.6 320 17:56 15.03.2021
1447 Clouds 6 1015 75 10000 3.6 320 17:32 15.03.2021
1448 Clouds 6 1015 70 10000 5.14 300 16:56 15.03.2021
1449 Clouds 6 1015 70 10000 6.17 300 16:35 15.03.2021
1450 Clouds 6 1014 75 10000 6.69 280 15:47 15.03.2021
1451 Clouds 6 1014 87 10000 5.14 320 15:27 15.03.2021
1452 Clouds 8 1013 61 10000 6.69 280 14:45 15.03.2021
1453 Clouds 8 1013 61 10000 6.69 280 14:27 15.03.2021
1454 Clouds 7 1013 65 10000 6.17 280 13:55 15.03.2021
1455 Drizzle 6 1013 61 10000 7.2 280 13:34 15.03.2021
1456 Clouds 7 1013 61 10000 6.69 290 12:51 15.03.2021
1457 Clouds 7 1013 57 10000 5.14 310 12:20 15.03.2021
1458 Clouds 6 1013 70 10000 5.66 300 11:58 15.03.2021
1459 Clouds 6 1013 70 10000 5.66 300 11:40 15.03.2021
1460 Clouds 6 1013 70 10000 5.66 300 11:21 15.03.2021
1461 Clouds 5 1012 87 10000 5.66 310 10:39 15.03.2021
1462 Clouds 5 1012 87 10000 5.66 310 10:21 15.03.2021
1463 Clouds 5 1011 93 10000 4.63 300 09:40 15.03.2021
1464 Clouds 4 1011 93 10000 4.63 300 09:20 15.03.2021
1465 Clouds 4 1010 100 10000 2.06 260 08:42 15.03.2021
1466 Clouds 4 1010 100 10000 2.06 260 08:22 15.03.2021
1467 Drizzle 3 1009 100 10000 3.09 240 07:34 15.03.2021
1468 Clouds 3 1009 100 10000 4.12 250 06:52 15.03.2021
1469 Clouds 2 1010 100 6000 5.14 240 05:36 15.03.2021
1470 Rain 3 1010 100 10000 6.17 200 03:20 15.03.2021
1471 Clouds 3 1013 100 10000 4.63 220 00:42 15.03.2021
1472 Clouds 2 1014 100 10000 3.09 220 23:24 14.03.2021
1473 Clouds 3 1014 100 10000 2.57 240 22:50 14.03.2021
1474 Clouds 3 1014 100 10000 2.57 240 22:28 14.03.2021
1475 Clouds 3 1014 93 10000 2.57 250 21:56 14.03.2021
1476 Clouds 3 1014 93 10000 2.57 270 21:38 14.03.2021
1477 Clouds 3 1014 93 10000 2.57 270 21:18 14.03.2021
1478 Clear 3 1014 87 10000 2.57 230 20:41 14.03.2021
1479 Clear 3 1014 87 10000 2.57 230 20:23 14.03.2021
1480 Clouds 3 1014 87 10000 3.09 250 19:42 14.03.2021
1481 Clouds 3 1014 93 10000 3.6 240 19:19 14.03.2021
1482 Clouds 4 1013 87 10000 4.12 230 18:37 14.03.2021
1483 Rain 4 1013 93 10000 3.6 270 17:56 14.03.2021
1484 Clouds 4 1013 93 10000 3.6 270 17:37 14.03.2021
1485 Clouds 4 1013 93 10000 5.66 280 17:19 14.03.2021
1486 Clouds 5 1012 81 10000 4.63 270 16:42 14.03.2021
1487 Clouds 5 1012 81 10000 4.12 270 16:23 14.03.2021
1488 Clouds 6 1012 75 10000 3.09 280 15:49 14.03.2021
1489 Clouds 6 1012 75 10000 3.09 270 15:24 14.03.2021
1490 Clouds 5 1012 87 10000 3.09 260 14:40 14.03.2021
1491 Clouds 4 1012 93 10000 4.63 270 14:20 14.03.2021
1492 Clouds 4 1012 100 10000 5.14 270 13:45 14.03.2021
1493 Clouds 4 1012 100 10000 3.6 260 13:27 14.03.2021
1494 Clouds 3 1011 100 10000 5.66 230 12:44 14.03.2021
1495 Drizzle 3 1011 100 10000 5.14 230 12:26 14.03.2021
1496 Clouds 3 1011 100 10000 4.12 230 11:42 14.03.2021
1497 Clouds 2 1011 100 10000 5.14 210 11:23 14.03.2021
1498 Snow 2 1010 100 9000 4.12 220 10:38 14.03.2021
1499 Snow 2 1010 100 9000 4.12 220 10:20 14.03.2021
1500 Rain 3 1009 100 10000 6.69 220 09:59 14.03.2021
1501 Rain 3 1009 100 10000 6.69 220 09:41 14.03.2021
1502 Rain 2 1009 100 10000 6.17 210 09:21 14.03.2021
1503 Clouds 2 1009 100 10000 5.14 220 08:40 14.03.2021
1504 Clouds 2 1009 100 10000 5.14 220 08:40 14.03.2021
1505 Clouds 2 1009 100 10000 5.14 220 08:18 14.03.2021
1506 Clouds 2 1009 100 10000 5.14 220 08:18 14.03.2021
1507 Clouds 2 1008 100 10000 4.63 220 07:35 14.03.2021
1508 Clouds 2 1008 100 10000 4.63 220 07:35 14.03.2021
1509 Clouds 2 1007 100 10000 5.66 220 06:27 14.03.2021
1510 Clouds 2 1004 100 10000 3.6 240 02:21 14.03.2021
1511 Clouds 2 1003 100 10000 5.14 220 00:50 14.03.2021
1512 Clouds 2 1003 100 10000 5.14 220 00:19 14.03.2021
1513 Clouds 2 1002 100 10000 5.14 220 23:42 13.03.2021
1514 Clouds 2 1002 100 10000 5.66 230 23:24 13.03.2021
1515 Clouds 3 1002 100 10000 4.63 240 22:52 13.03.2021
1516 Rain 3 1002 100 10000 4.63 240 22:25 13.03.2021
1517 Rain 3 1002 100 10000 3.6 240 21:43 13.03.2021
1518 Clouds 3 1002 100 10000 5.14 230 21:25 13.03.2021
1519 Clouds 3 1002 100 10000 9.26 260 20:49 13.03.2021
1520 Clouds 3 1002 100 10000 3.6 250 20:30 13.03.2021
1521 Clouds 3 1002 100 10000 3.6 250 20:30 13.03.2021
1522 Clouds 3 1001 100 10000 4.63 240 19:53 13.03.2021
1523 Clouds 4 1001 93 10000 3.6 240 19:29 13.03.2021
1524 Clouds 5 1001 87 10000 7.2 270 18:44 13.03.2021
1525 Clouds 5 1000 93 10000 5.14 240 18:23 13.03.2021
1526 Clouds 5 1000 93 10000 10.29 250 17:59 13.03.2021
1527 Clouds 6 1000 65 10000 12.35 270 17:40 13.03.2021
1528 Clear 7 999 65 10000 6.69 230 17:21 13.03.2021
1529 Clouds 7 999 76 10000 5.66 250 16:43 13.03.2021
1530 Clouds 7 999 57 10000 10.8 240 16:19 13.03.2021
1531 Clouds 7 998 53 10000 12.35 230 15:39 13.03.2021
1532 Clouds 7 998 66 10000 12.86 230 14:51 13.03.2021
1533 Clouds 7 998 66 10000 10.29 220 14:29 13.03.2021
1534 Clouds 6 998 76 10000 9.77 220 13:47 13.03.2021
1535 Rain 6 998 87 10000 11.32 220 13:24 13.03.2021
1536 Clouds 4 999 93 10000 9.26 220 12:45 13.03.2021
1537 Clouds 4 999 100 10000 7.72 230 12:27 13.03.2021
1538 Clouds 3 998 100 10000 8.75 220 11:50 13.03.2021
1539 Clouds 4 999 100 10000 6.69 240 11:29 13.03.2021
1540 Rain 4 999 93 10000 12.35 240 10:50 13.03.2021
1541 Rain 5 998 100 6000 9.26 250 10:30 13.03.2021
1542 Rain 6 997 100 10000 12.35 200 09:47 13.03.2021
1543 Rain 6 997 100 10000 12.35 200 09:19 13.03.2021
1544 Rain 6 998 100 10000 11.83 200 08:43 13.03.2021
1545 Rain 6 998 100 10000 11.83 200 08:19 13.03.2021
1546 Rain 6 998 100 10000 10.29 200 07:54 13.03.2021
1547 Rain 6 999 100 10000 13.38 200 06:53 13.03.2021
1548 Clouds 5 1004 100 10000 10.8 210 02:56 13.03.2021
1549 Clouds 5 1005 100 10000 6.69 210 01:20 13.03.2021
1550 Clouds 5 1006 100 10000 6.17 220 23:59 12.03.2021
1551 Clouds 4 1006 100 10000 6.17 220 23:32 12.03.2021
1552 Clouds 4 1006 100 10000 6.69 220 22:50 12.03.2021
1553 Clouds 4 1007 100 10000 6.69 210 22:29 12.03.2021
1554 Clouds 4 1006 100 10000 6.69 220 21:54 12.03.2021
1555 Clouds 4 1006 100 10000 6.69 220 21:36 12.03.2021
1556 Clouds 4 1006 100 10000 6.69 220 21:18 12.03.2021
1557 Clouds 4 1006 93 10000 6.69 220 20:41 12.03.2021
1558 Clouds 3 1006 100 10000 6.69 220 20:19 12.03.2021
1559 Rain 4 1006 93 10000 7.2 210 19:43 12.03.2021
1560 Rain 4 1006 93 10000 7.2 210 19:24 12.03.2021
1561 Rain 6 1006 93 10000 7.72 220 18:39 12.03.2021
1562 Rain 6 1006 87 10000 9.77 220 18:19 12.03.2021
1563 Clouds 7 1006 66 10000 9.77 200 17:41 12.03.2021
1564 Clouds 7 1006 66 10000 9.77 200 17:23 12.03.2021
1565 Clouds 8 1006 61 10000 11.32 200 16:43 12.03.2021
1566 Clouds 8 1007 57 10000 8.75 210 16:23 12.03.2021
1567 Clouds 8 1007 57 10000 8.75 210 15:38 12.03.2021
1568 Clouds 8 1009 61 10000 10.29 210 14:52 12.03.2021
1569 Clouds 7 1009 61 10000 10.29 210 14:22 12.03.2021
1570 Clouds 7 1009 61 10000 8.23 220 13:58 12.03.2021
1571 Clouds 7 1009 61 10000 8.23 220 13:58 12.03.2021
1572 Clouds 7 1009 61 10000 8.75 220 13:37 12.03.2021
1573 Clouds 8 1009 61 10000 11.83 220 13:18 12.03.2021
1574 Clouds 7 1010 66 10000 9.26 220 12:48 12.03.2021
1575 Clouds 7 1010 70 10000 7.72 220 12:27 12.03.2021
1576 Clouds 6 1010 81 10000 7.2 220 11:53 12.03.2021
1577 Drizzle 6 1011 87 10000 8.23 220 11:24 12.03.2021
1578 Clouds 6 1011 93 10000 6.69 210 10:57 12.03.2021
1579 Clouds 5 1011 100 10000 5.66 220 10:28 12.03.2021
1580 Clouds 5 1011 100 10000 5.66 220 10:28 12.03.2021
1581 Clouds 5 1011 100 10000 6.17 220 09:57 12.03.2021
1582 Clouds 5 1011 87 9000 7.2 210 09:27 12.03.2021
1583 Clouds 4 1011 93 10000 7.2 220 08:50 12.03.2021
1584 Clouds 4 1010 100 9000 6.69 210 08:30 12.03.2021
1585 Clouds 4 1010 81 10000 8.75 230 07:41 12.03.2021
1586 Clouds 4 1009 87 10000 6.69 230 06:59 12.03.2021
1587 Clouds 4 1009 87 10000 6.69 230 06:29 12.03.2021
1588 Clouds 4 1009 81 10000 7.2 240 03:28 12.03.2021
1589 Clouds 5 1006 87 10000 5.66 230 00:52 12.03.2021
1590 Clouds 5 1005 87 10000 7.72 220 23:40 11.03.2021
1591 Clouds 6 1005 81 10000 8.23 230 22:58 11.03.2021
1592 Rain 6 1005 81 10000 6.69 220 22:36 11.03.2021
1593 Clouds 6 1004 81 10000 6.69 240 21:59 11.03.2021
1594 Clouds 6 1004 81 10000 6.69 240 21:41 11.03.2021
1595 Clouds 6 1004 87 10000 6.17 230 21:20 11.03.2021
1596 Clouds 6 1003 93 10000 4.63 230 20:48 11.03.2021
1597 Clouds 6 1003 93 10000 4.63 230 20:21 11.03.2021
1598 Clouds 7 1003 87 10000 7.2 230 19:48 11.03.2021
1599 Clouds 7 1003 87 10000 7.2 230 19:30 11.03.2021
1600 Clouds 7 1002 81 10000 5.14 240 18:51 11.03.2021
1601 Clouds 7 1002 81 10000 5.14 240 18:33 11.03.2021
1602 Clouds 9 1001 71 10000 3.6 260 17:50 11.03.2021
1603 Rain 10 1001 71 10000 3.6 260 17:30 11.03.2021
1604 Clouds 10 1001 58 10000 10.8 240 16:31 11.03.2021
1605 Clouds 12 1001 58 10000 9.26 270 15:55 11.03.2021
1606 Rain 12 1001 58 10000 9.26 270 15:37 11.03.2021
1607 Rain 12 1001 58 10000 9.26 270 15:19 11.03.2021
1608 Clouds 12 1001 54 10000 12.86 240 14:38 11.03.2021
1609 Clouds 11 1001 62 10000 8.75 240 14:18 11.03.2021
1610 Clouds 12 1001 66 10000 11.32 220 13:43 11.03.2021
1611 Clouds 11 1001 82 10000 10.29 230 13:21 11.03.2021
1612 Clouds 10 1001 100 10000 10.29 220 12:49 11.03.2021
1613 Clouds 10 1001 100 10000 10.29 220 12:27 11.03.2021
1614 Rain 9 1001 100 10000 12.86 210 11:46 11.03.2021
1615 Clouds 9 1001 100 10000 10.8 210 11:27 11.03.2021
1616 Rain 9 1001 100 3200 10.29 210 10:50 11.03.2021
1617 Rain 8 1002 100 3200 10.29 200 10:25 11.03.2021
1618 Rain 8 1002 100 10000 9.77 210 09:50 11.03.2021
1619 Clouds 8 1002 100 10000 9.26 200 09:32 11.03.2021
1620 Rain 8 1003 100 3200 9.26 200 08:50 11.03.2021
1621 Rain 7 1003 100 3200 9.77 210 08:31 11.03.2021
1622 Drizzle 7 1003 100 10000 9.26 210 07:47 11.03.2021
1623 Mist 7 1003 100 9000 10.29 210 07:20 11.03.2021
1624 Clouds 6 1004 100 10000 8.23 210 06:40 11.03.2021
1625 Drizzle 6 1004 100 10000 8.75 210 06:21 11.03.2021
1626 Clouds 6 1008 75 10000 7.72 210 02:26 11.03.2021
1627 Clouds 6 1010 93 10000 7.72 190 00:26 11.03.2021
1628 Clouds 6 1011 81 10000 7.72 210 23:23 10.03.2021
1629 Rain 7 1012 75 10000 6.17 210 22:42 10.03.2021
1630 Rain 7 1012 75 10000 6.17 210 22:41 10.03.2021
1631 Rain 7 1012 75 10000 6.17 210 22:41 10.03.2021
1632 Rain 7 1012 75 10000 6.17 210 22:41 10.03.2021
1633 Rain 7 1012 75 10000 6.17 210 22:41 10.03.2021
1634 Rain 7 1012 75 10000 6.17 210 22:41 10.03.2021
1635 Rain 7 1012 75 10000 6.17 210 22:41 10.03.2021
1636 Rain 7 1012 75 10000 6.17 210 22:41 10.03.2021
1637 Clouds 7 1012 75 10000 5.66 200 22:19 10.03.2021
1638 Rain 7 1012 57 10000 7.2 210 21:41 10.03.2021
1639 Rain 6 1013 61 10000 8.23 200 21:21 10.03.2021
1640 Rain 6 1013 61 10000 8.23 200 21:21 10.03.2021
1641 Rain 7 1013 61 10000 3.09 170 20:44 10.03.2021
1642 Clear 7 1013 61 10000 3.09 170 20:26 10.03.2021
1643 Clouds 7 1014 61 10000 2.57 170 19:41 10.03.2021
1644 Clouds 7 1014 61 10000 2.57 170 19:21 10.03.2021
1645 Clouds 8 1014 57 10000 4.63 190 18:44 10.03.2021
1646 Clouds 8 1014 57 10000 4.63 190 18:24 10.03.2021
1647 Clouds 8 1014 57 10000 4.63 190 18:24 10.03.2021
1648 Clouds 8 1015 57 10000 4.63 200 17:54 10.03.2021
1649 Clouds 8 1015 57 10000 4.63 200 17:36 10.03.2021
1650 Clouds 8 1015 57 10000 4.63 190 17:18 10.03.2021
1651 Clouds 9 1016 53 10000 7.2 200 16:41 10.03.2021
1652 Clouds 9 1016 53 10000 7.2 200 16:21 10.03.2021
1653 Clouds 9 1016 57 10000 5.14 200 15:41 10.03.2021
1654 Clouds 9 1016 57 10000 5.14 200 15:22 10.03.2021
1655 Drizzle 9 1016 57 10000 5.66 180 14:43 10.03.2021
1656 Clouds 9 1017 61 10000 5.66 200 14:19 10.03.2021
1657 Clouds 8 1018 76 10000 4.12 220 13:50 10.03.2021
1658 Clouds 8 1018 76 10000 4.12 220 13:27 10.03.2021
1659 Clouds 7 1018 100 10000 4.12 200 12:45 10.03.2021
1660 Clouds 7 1018 100 10000 4.12 200 12:19 10.03.2021
1661 Mist 5 1019 100 6000 2.57 200 11:32 10.03.2021
1662 Mist 5 1019 100 3600 1.54 230 10:59 10.03.2021
1663 Mist 4 1019 100 3200 2.06 210 10:41 10.03.2021
1664 Mist 4 1019 100 3200 2.06 210 10:23 10.03.2021
1665 Mist 4 1019 100 2400 1.54 230 09:45 10.03.2021
1666 Mist 3 1019 100 2400 1.54 230 09:24 10.03.2021
1667 Mist 3 1019 100 2400 1.54 230 09:24 10.03.2021
1668 Mist 3 1019 100 2400 1.54 230 09:24 10.03.2021
1669 Mist 3 1019 100 2400 1.54 230 09:24 10.03.2021
1670 Mist 3 1019 100 3600 2.06 220 08:57 10.03.2021
1671 Mist 3 1019 100 4000 2.06 240 08:39 10.03.2021
1672 Mist 2 1019 100 3600 1.54 250 08:20 10.03.2021
1673 Mist 2 1018 100 8000 1.54 280 07:31 10.03.2021
1674 Mist 2 1018 100 8000 1.54 250 06:57 10.03.2021
1675 Mist 2 1018 100 5000 0.59 252 06:32 10.03.2021
1676 Clouds 3 1018 100 10000 1.54 260 02:42 10.03.2021
1677 Clouds 3 1018 100 10000 2.57 230 23:52 09.03.2021
1678 Clouds 3 1018 100 10000 2.06 250 23:26 09.03.2021
1679 Clouds 3 1018 100 10000 2.06 240 22:47 09.03.2021
1680 Clouds 3 1018 100 10000 2.06 240 22:28 09.03.2021
1681 Clouds 3 1018 100 10000 2.06 230 21:56 09.03.2021
1682 Clouds 3 1018 100 10000 2.06 230 21:37 09.03.2021
1683 Clouds 3 1018 100 10000 2.57 230 21:18 09.03.2021
1684 Clouds 4 1018 100 10000 1.54 250 20:43 09.03.2021
1685 Clouds 4 1018 100 10000 3.6 260 20:21 09.03.2021
1686 Clouds 4 1018 100 10000 2.57 240 19:53 09.03.2021
1687 Clouds 4 1017 100 10000 3.6 230 19:28 09.03.2021
1688 Mist 4 1017 100 6000 3.09 220 18:51 09.03.2021
1689 Mist 4 1017 100 6000 2.57 230 18:29 09.03.2021
1690 Mist 4 1017 100 6000 2.57 220 17:57 09.03.2021
1691 Drizzle 4 1017 100 9000 2.06 230 17:35 09.03.2021
1692 Mist 4 1017 100 8000 2.57 230 16:57 09.03.2021
1693 Mist 4 1017 100 9000 3.09 220 16:39 09.03.2021
1694 Mist 3 1017 100 9000 2.57 230 16:19 09.03.2021
1695 Mist 3 1017 100 8000 2.57 220 15:44 09.03.2021
1696 Mist 3 1017 100 8000 3.09 230 15:23 09.03.2021
1697 Mist 3 1017 100 8000 3.09 220 14:40 09.03.2021
1698 Mist 3 1017 100 8000 2.57 220 14:22 09.03.2021
1699 Mist 3 1018 81 4000 3.6 240 13:39 09.03.2021
1700 Rain 3 1018 100 10000 4.63 220 13:20 09.03.2021
1701 Clouds 3 1018 93 10000 3.6 230 12:44 09.03.2021
1702 Clouds 3 1018 93 10000 3.6 230 12:25 09.03.2021
1703 Drizzle 3 1018 87 10000 3.6 220 11:42 09.03.2021
1704 Drizzle 3 1018 87 10000 3.6 220 11:21 09.03.2021
1705 Clouds 3 1018 87 10000 3.09 210 10:57 09.03.2021
1706 Clouds 3 1018 87 10000 2.57 240 10:38 09.03.2021
1707 Clouds 2 1018 93 10000 2.57 210 10:20 09.03.2021
1708 Clouds 2 1018 93 10000 2.57 210 10:20 09.03.2021
1709 Clouds 2 1018 93 10000 2.57 210 10:20 09.03.2021
1710 Clouds 1 1018 100 10000 2.06 230 09:44 09.03.2021
1711 Clouds 1 1018 100 10000 2.06 230 09:26 09.03.2021
1712 Mist 0 1018 100 8000 1.54 220 08:48 09.03.2021
1713 Mist 0 1018 100 8000 1.54 220 08:29 09.03.2021
1714 Snow 0 1018 93 2500 4.12 350 07:41 09.03.2021
1715 Snow 0 1018 100 9000 1.54 240 07:22 09.03.2021
1716 Snow 0 1018 93 10000 1.54 270 06:44 09.03.2021
1717 Snow 0 1018 86 10000 0.45 311 05:48 09.03.2021
1718 Clear 0 1020 93 10000 1.29 41 00:59 09.03.2021
1719 Clear 0 1020 86 10000 1.54 60 23:45 08.03.2021
1720 Clear 0 1020 86 10000 1.54 60 23:27 08.03.2021
1721 Clear 0 1020 86 10000 1.54 30 22:58 08.03.2021
1722 Clear 0 1020 86 10000 1.54 30 22:40 08.03.2021
1723 Clear 0 1020 86 10000 1.54 30 22:21 08.03.2021
1724 Clear 0 1020 86 10000 2.06 60 21:45 08.03.2021
1725 Clear 1 1020 86 10000 2.06 60 21:26 08.03.2021
1726 Clear 1 1020 80 10000 2.06 80 20:40 08.03.2021
1727 Clear 2 1020 80 10000 2.06 80 20:20 08.03.2021
1728 Clouds 3 1020 75 10000 3.09 40 19:40 08.03.2021
1729 Clouds 3 1020 75 10000 3.09 40 19:20 08.03.2021
1730 Clouds 4 1020 65 10000 2.57 30 18:37 08.03.2021
1731 Clouds 5 1020 60 10000 2.06 20 18:19 08.03.2021
1732 Clouds 5 1020 56 10000 2.57 60 17:43 08.03.2021
1733 Clouds 6 1020 52 10000 3.6 30 17:22 08.03.2021
1734 Clouds 6 1020 56 10000 4.12 30 16:42 08.03.2021
1735 Clouds 6 1020 56 10000 4.12 30 16:22 08.03.2021
1736 Clouds 6 1020 56 10000 3.6 40 15:42 08.03.2021
1737 Clouds 6 1020 56 10000 3.6 10 15:23 08.03.2021
1738 Clouds 7 1021 49 10000 3.09 50 14:22 08.03.2021
1739 Clouds 7 1021 49 10000 3.6 10 13:58 08.03.2021
1740 Clouds 6 1021 56 10000 4.12 20 13:24 08.03.2021
1741 Clouds 5 1022 65 10000 2.57 100 12:59 08.03.2021
1742 Clouds 5 1022 65 10000 2.57 100 12:40 08.03.2021
1743 Clouds 4 1022 65 10000 2.57 100 12:20 08.03.2021
1744 Clouds 2 1021 75 10000 5.14 50 11:35 08.03.2021
1745 Clouds 1 1022 75 10000 2.06 100 10:58 08.03.2021
1746 Clouds 1 1022 75 10000 2.06 100 10:40 08.03.2021
1747 Clouds 1 1022 75 10000 2.06 100 10:19 08.03.2021
1748 Clear -1 1022 80 10000 2.85 54 09:30 08.03.2021
1749 Clear -2 1021 86 10000 2.15 49 08:54 08.03.2021
1750 Clear -2 1021 86 10000 1.86 44 08:25 08.03.2021
1751 Clear -3 1021 86 10000 1.54 70 07:23 08.03.2021
1752 Clear -4 1021 86 10000 1.82 40 06:38 08.03.2021
1753 Clear -2 1021 74 10000 2.06 30 02:59 08.03.2021
1754 Clear -1 1021 69 10000 4.63 20 00:43 08.03.2021
1755 Clear -1 1021 64 10000 3.6 360 23:54 07.03.2021
1756 Clear -1 1021 64 10000 3.6 360 23:28 07.03.2021
1757 Clear 0 1021 64 10000 1.54 50 22:59 07.03.2021
1758 Clear 0 1021 64 10000 1.54 50 22:41 07.03.2021
1759 Clear 0 1021 64 10000 1.54 50 22:20 07.03.2021
1760 Clear 1 1021 64 10000 4.63 10 21:42 07.03.2021
1761 Clear 1 1021 64 10000 4.63 10 21:24 07.03.2021
1762 Clear 2 1021 60 10000 3.09 10 20:46 07.03.2021
1763 Clear 3 1021 60 10000 3.09 10 20:28 07.03.2021
1764 Clear 3 1020 52 10000 4.63 10 19:57 07.03.2021
1765 Clear 3 1020 35 10000 1.03 60 19:38 07.03.2021
1766 Clear 3 1020 52 10000 4.63 10 19:20 07.03.2021
1767 Clear 5 1019 39 10000 4.12 10 18:42 07.03.2021
1768 Clear 7 1019 39 10000 4.12 10 18:19 07.03.2021
1769 Clear 6 1019 26 10000 3.09 30 17:40 07.03.2021
1770 Clear 8 1019 27 10000 1.44 1 17:20 07.03.2021
1771 Clear 8 1020 27 10000 2.57 70 16:58 07.03.2021
1772 Clear 8 1020 31 10000 3.09 50 16:38 07.03.2021
1773 Clear 9 1020 27 10000 2.57 70 16:19 07.03.2021
1774 Clear 8 1020 27 10000 2.57 80 15:43 07.03.2021
1775 Clear 8 1020 27 10000 2.57 80 15:22 07.03.2021
1776 Clear 8 1021 29 10000 2.06 100 14:37 07.03.2021
1777 Clear 8 1021 29 10000 2.06 100 14:19 07.03.2021
1778 Clear 7 1022 29 10000 1.74 7 13:41 07.03.2021
1779 Clear 7 1022 29 10000 1.48 37 13:21 07.03.2021
1780 Clear 6 1022 42 10000 2.06 100 12:46 07.03.2021
1781 Clear 6 1022 42 10000 2.06 100 12:28 07.03.2021
1782 Clear 4 1023 41 10000 2.06 120 11:45 07.03.2021
1783 Clear 4 1023 41 10000 2.06 120 11:22 07.03.2021
1784 Clear 2 1023 51 10000 2.06 70 10:44 07.03.2021
1785 Clear 2 1023 51 10000 2.06 70 10:26 07.03.2021
1786 Clear 0 1024 64 10000 1.54 50 09:44 07.03.2021
1787 Clear -1 1024 64 10000 1.54 50 09:25 07.03.2021
1788 Clear -3 1024 74 10000 3.09 60 08:46 07.03.2021
1789 Clear -3 1024 74 10000 3.09 60 08:24 07.03.2021
1790 Clear -4 1024 80 10000 2.06 60 07:51 07.03.2021
1791 Clear -1 1026 59 10000 2.06 30 02:43 07.03.2021
1792 Clear -1 1026 51 10000 1.54 70 01:19 07.03.2021
1793 Clear -1 1027 51 10000 3.09 50 23:54 06.03.2021
1794 Clear 0 1027 51 10000 3.09 50 23:35 06.03.2021
1795 Clear 0 1027 51 10000 3.09 60 22:48 06.03.2021
1796 Clear 0 1027 51 10000 3.09 60 22:29 06.03.2021
1797 Clear 0 1028 51 10000 3.09 50 21:59 06.03.2021
1798 Clear 0 1028 51 10000 3.09 50 21:25 06.03.2021
1799 Clear 1 1028 51 10000 4.12 20 20:55 06.03.2021
1800 Clear 1 1028 51 10000 4.12 20 20:36 06.03.2021
1801 Clear 2 1028 51 10000 3.09 20 19:50 06.03.2021
1802 Clear 2 1028 51 10000 3.09 20 19:23 06.03.2021
1803 Clear 4 1028 28 10000 2.06 70 18:57 06.03.2021
1804 Clear 4 1027 35 10000 5.14 60 18:38 06.03.2021
1805 Clear 4 1028 28 10000 2.06 70 18:19 06.03.2021
1806 Clear 6 1028 26 10000 3.6 60 17:47 06.03.2021
1807 Clear 6 1028 26 10000 3.6 60 17:26 06.03.2021
1808 Clear 6 1028 28 10000 4.12 70 16:53 06.03.2021
1809 Clear 6 1028 28 10000 4.12 70 16:30 06.03.2021
1810 Clear 7 1029 31 10000 6.17 80 15:55 06.03.2021
1811 Clear 6 1029 31 10000 6.17 80 15:34 06.03.2021
1812 Clear 6 1030 33 10000 4.63 70 14:55 06.03.2021
1813 Clear 6 1030 33 10000 4.63 70 14:31 06.03.2021
1814 Clear 5 1031 38 10000 4.12 70 13:50 06.03.2021
1815 Clear 5 1031 38 10000 4.12 70 13:32 06.03.2021
1816 Clear 5 1031 41 10000 5.66 70 12:58 06.03.2021
1817 Clear 4 1031 41 10000 5.66 70 12:38 06.03.2021
1818 Clear 4 1031 41 10000 5.66 70 12:18 06.03.2021
1819 Clear 3 1031 41 10000 5.66 90 11:38 06.03.2021
1820 Clear 3 1031 41 10000 5.66 90 11:18 06.03.2021
1821 Clear 2 1031 51 10000 5.14 60 10:42 06.03.2021
1822 Clear 1 1031 59 10000 3.09 50 09:57 06.03.2021
1823 Clear -1 1031 59 10000 3.09 50 09:24 06.03.2021
1824 Clear -2 1031 69 10000 3.6 40 08:54 06.03.2021
1825 Clear -2 1031 69 10000 3.6 40 08:31 06.03.2021
1826 Clear -3 1030 68 10000 2.57 50 07:55 06.03.2021
1827 Clear -3 1030 68 10000 2.57 50 07:22 06.03.2021
1828 Clear -3 1031 68 10000 2.57 40 06:42 06.03.2021
1829 Clear -3 1030 69 10000 3.09 50 03:49 06.03.2021
1830 Clear -2 1030 69 10000 2.57 40 01:42 06.03.2021
1831 Clear -2 1030 69 10000 2.57 50 00:47 06.03.2021
1832 Clear -1 1030 69 10000 3.6 30 23:51 05.03.2021
1833 Clear -1 1030 69 10000 3.6 30 23:22 05.03.2021
1834 Clear -1 1030 69 10000 4.63 20 22:45 05.03.2021
1835 Clear -1 1030 69 10000 4.63 20 22:22 05.03.2021
1836 Clouds 0 1029 64 10000 4.12 20 21:52 05.03.2021
1837 Clouds 0 1029 64 10000 4.12 20 21:32 05.03.2021
1838 Clouds 1 1028 60 10000 3.09 10 20:53 05.03.2021
1839 Clouds 1 1028 60 10000 3.09 10 20:26 05.03.2021
1840 Clouds 1 1028 60 10000 3.09 20 19:55 05.03.2021
1841 Clouds 2 1028 60 10000 3.09 20 19:26 05.03.2021
1842 Clouds 3 1027 56 10000 3.09 20 18:57 05.03.2021
1843 Clouds 3 1027 56 10000 3.09 20 18:39 05.03.2021
1844 Clouds 3 1027 56 10000 3.09 20 18:18 05.03.2021
1845 Clouds 4 1026 56 10000 4.12 10 17:35 05.03.2021
1846 Clouds 4 1026 52 10000 4.63 20 16:49 05.03.2021
1847 Clouds 4 1026 52 10000 4.63 20 16:25 05.03.2021
1848 Clouds 4 1026 52 10000 6.17 360 15:59 05.03.2021
1849 Clouds 4 1026 52 10000 3.6 10 15:40 05.03.2021
1850 Clouds 4 1025 52 10000 2.57 20 15:21 05.03.2021
1851 Clouds 4 1025 48 10000 4.63 360 14:38 05.03.2021
1852 Clouds 4 1025 56 10000 5.14 20 13:59 05.03.2021
1853 Clouds 3 1025 60 10000 4.63 360 13:22 05.03.2021
1854 Clouds 3 1025 65 10000 4.12 20 12:55 05.03.2021
1855 Clouds 3 1025 70 10000 3.6 20 11:58 05.03.2021
1856 Clouds 3 1024 75 10000 5.14 20 11:37 05.03.2021
1857 Clouds 3 1024 75 10000 5.14 20 11:18 05.03.2021
1858 Snow 3 1024 80 10000 4.12 360 10:41 05.03.2021
1859 Clouds 2 1024 80 10000 4.12 360 10:23 05.03.2021
1860 Clouds 2 1023 86 10000 1.54 40 09:49 05.03.2021
1861 Clouds 1 1023 86 10000 1.54 40 09:27 05.03.2021
1862 Clouds 1 1022 86 10000 1.54 340 08:45 05.03.2021
1863 Clouds 1 1022 86 10000 1.54 340 08:26 05.03.2021
1864 Clouds 1 1022 80 10000 1.54 340 07:44 05.03.2021
1865 Clouds 1 1022 80 10000 1.54 340 07:24 05.03.2021
1866 Clouds 1 1022 80 10000 2.57 30 06:32 05.03.2021
1867 Clouds 3 1020 87 10000 2.06 320 02:51 05.03.2021
1868 Clouds 3 1020 87 10000 2.06 340 00:49 05.03.2021
1869 Clouds 3 1019 87 10000 1.54 320 23:37 04.03.2021
1870 Clouds 3 1019 93 10000 3.09 360 22:55 04.03.2021
1871 Clouds 3 1019 93 10000 2.06 330 22:26 04.03.2021
1872 Clouds 4 1018 87 10000 3.6 320 21:51 04.03.2021
1873 Clouds 4 1018 87 10000 3.6 320 21:29 04.03.2021
1874 Clouds 5 1018 93 10000 3.09 270 20:42 04.03.2021
1875 Clouds 5 1018 93 10000 3.09 280 20:23 04.03.2021
1876 Clouds 5 1018 87 10000 4.63 300 19:58 04.03.2021
1877 Clouds 6 1018 87 10000 4.63 300 19:39 04.03.2021
1878 Clouds 6 1017 93 10000 3.6 290 19:21 04.03.2021
1879 Clouds 6 1017 87 10000 4.12 290 18:45 04.03.2021
1880 Clouds 6 1017 87 10000 5.66 280 18:24 04.03.2021
1881 Clouds 7 1017 87 10000 4.12 280 17:46 04.03.2021
1882 Rain 7 1017 87 10000 3.09 270 17:28 04.03.2021
1883 Clouds 7 1017 100 10000 2.57 230 16:48 04.03.2021
1884 Clouds 7 1017 100 10000 3.09 230 16:29 04.03.2021
1885 Clouds 9 1017 93 10000 2.57 230 15:50 04.03.2021
1886 Clouds 9 1017 93 10000 2.57 230 15:32 04.03.2021
1887 Clouds 9 1018 100 10000 2.57 300 14:50 04.03.2021
1888 Clouds 9 1018 93 10000 3.6 290 14:26 04.03.2021
1889 Clouds 9 1018 81 10000 3.6 220 13:50 04.03.2021
1890 Clouds 9 1019 87 10000 2.57 240 13:32 04.03.2021
1891 Clouds 9 1019 93 10000 3.6 220 12:58 04.03.2021
1892 Clouds 9 1019 93 10000 3.6 220 12:39 04.03.2021
1893 Clouds 9 1019 100 10000 3.6 240 11:47 04.03.2021
1894 Clouds 9 1019 100 10000 2.06 230 11:26 04.03.2021
1895 Clouds 8 1019 100 10000 2.06 270 10:55 04.03.2021
1896 Clouds 7 1019 100 10000 2.06 270 10:31 04.03.2021
1897 Clouds 6 1020 100 10000 2.72 224 09:47 04.03.2021
1898 Clouds 5 1020 93 10000 4.12 240 09:24 04.03.2021
1899 Clouds 4 1020 87 10000 2.06 270 08:37 04.03.2021
1900 Clouds 3 1021 100 10000 2.06 230 07:54 04.03.2021
1901 Clouds 3 1021 100 10000 2.06 230 07:54 04.03.2021
1902 Clouds 3 1020 93 8000 1.03 0 07:33 04.03.2021
1903 Clouds 4 1021 87 10000 2 197 06:25 04.03.2021
1904 Clouds 4 1021 93 10000 2.57 290 05:40 04.03.2021
1905 Clear 5 1023 70 10000 1.54 240 01:49 04.03.2021
1906 Clear 8 1024 61 10000 1.54 260 23:19 03.03.2021
1907 Clouds 8 1025 61 10000 1.54 240 22:29 03.03.2021
1908 Clouds 9 1025 57 10000 2.06 260 21:57 03.03.2021
1909 Clouds 9 1025 57 10000 2.06 260 21:39 03.03.2021
1910 Clouds 9 1025 57 10000 2.06 260 21:21 03.03.2021
1911 Clouds 9 1025 57 10000 2.57 240 20:43 03.03.2021
1912 Clouds 9 1025 57 10000 2.57 240 20:24 03.03.2021
1913 Clouds 10 1026 57 10000 3.09 220 19:47 03.03.2021
1914 Clouds 10 1026 57 10000 3.09 220 19:28 03.03.2021
1915 Clear 11 1026 50 10000 2.57 210 18:53 03.03.2021
1916 Clear 12 1026 58 10000 1.54 180 18:34 03.03.2021
1917 Clear 13 1026 44 10000 3.09 230 17:57 03.03.2021
1918 Clear 14 1026 38 10000 2.57 210 17:21 03.03.2021
1919 Clear 14 1026 38 10000 2.57 210 16:52 03.03.2021
1920 Clear 15 1026 38 10000 2.57 210 16:27 03.03.2021
1921 Clear 15 1027 41 10000 2.51 235 15:53 03.03.2021
1922 Clear 15 1027 41 10000 2.51 235 15:32 03.03.2021
1923 Clear 15 1027 44 10000 1.54 270 14:45 03.03.2021
1924 Clear 15 1027 44 10000 1.54 270 14:26 03.03.2021
1925 Clear 14 1028 50 10000 2.06 270 13:42 03.03.2021
1926 Clear 13 1028 50 10000 2.06 270 13:21 03.03.2021
1927 Clear 12 1029 57 10000 3.09 220 12:43 03.03.2021
1928 Clear 11 1029 57 10000 3.09 220 12:23 03.03.2021
1929 Clear 10 1029 53 10000 3.09 260 11:45 03.03.2021
1930 Clear 10 1029 53 10000 3.09 260 11:27 03.03.2021
1931 Clear 8 1029 71 10000 1.54 220 10:45 03.03.2021
1932 Clear 8 1029 71 10000 1.54 220 10:22 03.03.2021
1933 Clear 6 1029 81 10000 1.52 202 09:42 03.03.2021
1934 Clear 4 1029 81 10000 1.14 199 08:53 03.03.2021
1935 Clear 4 1029 81 10000 1.01 187 08:24 03.03.2021
1936 Clouds 4 1029 87 10000 1.01 187 07:58 03.03.2021
1937 Clear 3 1029 75 10000 1.03 0 07:33 03.03.2021
1938 Clear 4 1029 81 10000 0.89 174 06:29 03.03.2021
1939 Clear 4 1029 87 10000 0.89 174 05:44 03.03.2021
1940 Clear 4 1029 87 10000 0.89 186 04:48 03.03.2021
1941 Clear 4 1029 87 10000 0.7 164 04:24 03.03.2021
1942 Clear 6 1030 61 10000 2.57 140 00:37 03.03.2021
1943 Clear 5 1030 75 10000 2.06 60 23:35 02.03.2021
1944 Clear 7 1030 66 10000 3.09 70 22:53 02.03.2021
1945 Clear 7 1030 66 10000 3.09 70 22:23 02.03.2021
1946 Clear 8 1030 57 10000 2.57 70 21:55 02.03.2021
1947 Clear 8 1030 57 10000 2.57 70 21:36 02.03.2021
1948 Clear 8 1030 57 10000 2.57 70 21:18 02.03.2021
1949 Clear 8 1030 57 10000 2.57 60 20:41 02.03.2021
1950 Clear 9 1030 57 10000 2.57 60 20:21 02.03.2021
1951 Clear 10 1030 50 10000 1.54 90 19:47 02.03.2021
1952 Clear 10 1030 50 10000 1.54 90 19:28 02.03.2021
1953 Clear 11 1029 41 10000 1.54 80 18:55 02.03.2021
1954 Clear 11 1029 47 10000 1.54 120 18:36 02.03.2021
1955 Clear 12 1029 41 10000 1.54 80 18:18 02.03.2021
1956 Clear 13 1029 44 10000 3.09 140 17:40 02.03.2021
1957 Clear 15 1029 33 10000 1.46 160 17:20 02.03.2021
1958 Clear 14 1029 36 10000 1.46 160 16:47 02.03.2021
1959 Clear 16 1030 36 10000 2.06 100 15:55 02.03.2021
1960 Clear 15 1030 36 10000 2.06 100 15:29 02.03.2021
1961 Clear 15 1030 41 10000 1.54 80 14:56 02.03.2021
1962 Clear 15 1030 41 10000 1.54 80 14:21 02.03.2021
1963 Haze 14 1030 44 2800 1.78 182 13:48 02.03.2021
1964 Clear 14 1030 44 10000 1.54 192 13:28 02.03.2021
1965 Clear 13 1031 50 10000 1.54 192 12:51 02.03.2021
1966 Clear 12 1031 50 10000 1.03 173 12:26 02.03.2021
1967 Clear 10 1031 53 10000 2.57 90 11:53 02.03.2021
1968 Clear 10 1031 53 10000 2.57 90 11:29 02.03.2021
1969 Clear 8 1031 65 10000 3.09 90 10:57 02.03.2021
1970 Clear 7 1031 65 10000 3.09 90 10:31 02.03.2021
1971 Clear 7 1031 65 10000 3.09 90 10:31 02.03.2021
1972 Clear 6 1030 70 10000 2.57 50 09:44 02.03.2021
1973 Clear 6 1030 70 10000 2.57 50 09:24 02.03.2021
1974 Clear 4 1030 81 10000 2.57 50 08:56 02.03.2021
1975 Clear 4 1030 75 10000 2.06 70 08:35 02.03.2021
1976 Clear 2 1029 86 10000 2.06 40 07:52 02.03.2021
1977 Clear 3 1029 81 10000 3.6 60 06:50 02.03.2021
1978 Clear 2 1029 80 10000 3.6 50 05:54 02.03.2021
1979 Clear 2 1029 75 10000 3.09 50 05:33 02.03.2021
1980 Clear 3 1029 75 10000 3.09 40 04:39 02.03.2021
1981 Clear 4 1030 70 10000 3.6 50 01:43 02.03.2021
1982 Clear 4 1030 70 10000 3.6 50 01:22 02.03.2021
1983 Clear 5 1030 81 10000 4.12 30 23:45 01.03.2021
1984 Clear 5 1030 81 10000 4.12 30 23:20 01.03.2021
1985 Clear 5 1030 70 10000 2.57 40 22:39 01.03.2021
1986 Clear 5 1030 70 10000 2.57 40 22:21 01.03.2021
1987 Clear 7 1030 49 10000 3.09 70 21:43 01.03.2021
1988 Clear 7 1030 49 10000 3.09 70 21:23 01.03.2021
1989 Clear 7 1030 49 10000 3.09 70 21:23 01.03.2021
1990 Clear 8 1029 57 10000 4.63 60 20:46 01.03.2021
1991 Clear 7 1029 57 10000 4.63 60 20:27 01.03.2021
1992 Clear 8 1029 49 10000 4.63 70 19:45 01.03.2021
1993 Clear 8 1029 49 10000 4.63 70 19:27 01.03.2021
1994 Clear 11 1029 40 10000 3.6 70 18:44 01.03.2021
1995 Clear 10 1029 40 10000 3.6 70 18:23 01.03.2021
1996 Clear 13 1029 35 10000 4.63 70 17:49 01.03.2021
1997 Clear 11 1029 35 10000 4.63 70 17:24 01.03.2021
1998 Clear 12 1029 30 10000 5.14 70 16:48 01.03.2021
1999 Clear 14 1029 30 10000 5.14 70 16:30 01.03.2021
2000 Clear 14 1029 33 10000 5.66 60 15:58 01.03.2021
2001 Clear 14 1028 30 10000 4.12 100 15:38 01.03.2021
2002 Clear 13 1029 33 10000 5.66 60 15:18 01.03.2021
2003 Clear 12 1030 37 10000 6.17 80 14:41 01.03.2021
2004 Clear 12 1030 37 10000 6.17 80 14:22 01.03.2021
2005 Clear 11 1031 40 10000 4.12 70 13:39 01.03.2021
2006 Clear 11 1031 40 10000 4.12 70 13:20 01.03.2021
2007 Clear 11 1031 46 10000 5.66 50 12:44 01.03.2021
2008 Clear 10 1031 46 10000 5.66 50 12:25 01.03.2021
2009 Clear 9 1031 53 10000 5.14 60 11:57 01.03.2021
2010 Clear 8 1031 53 10000 5.14 60 11:30 01.03.2021
2011 Clear 6 1031 61 10000 6.17 60 10:44 01.03.2021
2012 Clear 6 1031 61 10000 6.17 60 10:22 01.03.2021
2013 Clear 4 1031 70 10000 6.17 50 09:56 01.03.2021
2014 Clear 4 1031 81 10000 6.69 50 09:36 01.03.2021
2015 Clear 2 1031 75 10000 5.66 50 08:58 01.03.2021
2016 Clear 2 1031 80 10000 6.69 50 08:36 01.03.2021
2017 Clear 2 1030 86 10000 6.17 50 07:34 01.03.2021
2018 Clear 2 1031 75 10000 4.12 50 06:51 01.03.2021
2019 Clear 2 1032 70 10000 5.14 40 02:47 01.03.2021
2020 Clear 3 1032 65 10000 4.12 40 23:58 28.02.2021
2021 Clear 3 1032 65 10000 4.12 40 23:26 28.02.2021
2022 Clear 3 1032 60 10000 2.57 40 22:45 28.02.2021
2023 Clear 4 1032 60 10000 2.57 40 22:21 28.02.2021
2024 Clear 4 1032 56 10000 3.6 50 21:48 28.02.2021
2025 Clear 5 1032 56 10000 3.6 50 21:25 28.02.2021
2026 Clear 5 1032 52 10000 3.6 50 20:52 28.02.2021
2027 Clear 5 1032 52 10000 3.6 50 20:34 28.02.2021
2028 Clear 6 1032 49 10000 4.63 50 19:47 28.02.2021
2029 Clear 6 1032 49 10000 4.63 50 19:28 28.02.2021
2030 Clear 6 1032 49 10000 4.12 30 18:49 28.02.2021
2031 Clear 9 1032 49 10000 4.12 30 18:28 28.02.2021
2032 Clear 7 1032 46 10000 5.14 40 17:59 28.02.2021
2033 Clear 7 1032 46 10000 5.14 40 17:41 28.02.2021
2034 Clear 9 1032 46 10000 5.14 40 17:21 28.02.2021
2035 Clear 9 1032 43 10000 6.17 50 16:50 28.02.2021
2036 Clear 11 1032 43 10000 6.17 50 16:30 28.02.2021
2037 Clear 10 1033 43 10000 3.09 60 15:53 28.02.2021
2038 Clear 10 1033 43 10000 3.09 60 15:53 28.02.2021
2039 Clear 10 1033 43 10000 3.09 60 15:31 28.02.2021
2040 Clear 10 1033 46 10000 5.14 60 14:59 28.02.2021
2041 Clear 9 1033 46 10000 5.14 60 14:39 28.02.2021
2042 Clear 9 1033 46 10000 5.14 60 14:20 28.02.2021
2043 Clear 9 1033 46 10000 5.14 60 14:20 28.02.2021
2044 Clear 8 1034 53 10000 4.63 40 13:42 28.02.2021
2045 Clear 8 1034 53 10000 4.63 40 13:19 28.02.2021
2046 Clear 8 1035 57 10000 4.12 40 12:55 28.02.2021
2047 Clear 8 1035 57 10000 4.12 40 12:37 28.02.2021
2048 Clear 7 1035 57 10000 4.12 40 12:19 28.02.2021
2049 Clear 6 1035 65 10000 5.14 50 11:42 28.02.2021
2050 Clear 5 1035 65 10000 5.14 50 11:24 28.02.2021
2051 Clear 5 1035 65 10000 8.75 60 10:52 28.02.2021
2052 Clear 4 1035 65 10000 8.75 60 10:27 28.02.2021
2053 Clear 3 1035 70 10000 7.2 50 09:51 28.02.2021
2054 Clear 3 1035 70 10000 7.2 50 09:32 28.02.2021
2055 Clear 1 1035 80 10000 5.14 40 08:50 28.02.2021
2056 Clear 1 1035 80 10000 5.14 40 08:31 28.02.2021
2057 Clouds 1 1035 80 10000 5.14 50 07:54 28.02.2021
2058 Clouds 1 1035 80 10000 5.14 50 07:36 28.02.2021
2059 Clouds 2 1035 75 10000 7.72 50 06:43 28.02.2021
2060 Clouds 2 1035 75 10000 4.63 60 05:24 28.02.2021
2061 Clouds 2 1035 87 10000 7.2 50 03:40 28.02.2021
2062 Clouds 3 1037 87 10000 3.6 60 01:55 28.02.2021
2063 Clouds 3 1037 81 10000 6.69 60 00:52 28.02.2021
2064 Clouds 3 1037 81 10000 6.69 60 00:34 28.02.2021
2065 Clouds 3 1037 93 10000 3.6 60 23:45 27.02.2021
2066 Clouds 3 1037 93 10000 5.14 50 23:19 27.02.2021
2067 Clouds 3 1037 93 10000 6.17 40 22:49 27.02.2021
2068 Clear 3 1037 87 10000 5.14 30 22:21 27.02.2021
2069 Clear 3 1036 87 10000 3.6 40 21:48 27.02.2021
2070 Clear 3 1036 87 10000 3.6 40 21:29 27.02.2021
2071 Clear 4 1036 75 10000 3.6 10 20:49 27.02.2021
2072 Clear 4 1036 75 10000 3.6 10 20:31 27.02.2021
2073 Clear 4 1037 70 10000 2.57 10 19:47 27.02.2021
2074 Clear 5 1037 70 10000 2.57 10 19:28 27.02.2021
2075 Clear 6 1037 65 10000 3.09 60 18:56 27.02.2021
2076 Clear 6 1037 65 10000 3.09 60 18:36 27.02.2021
2077 Clear 6 1037 65 10000 3.09 60 18:18 27.02.2021
2078 Clear 7 1036 61 10000 5.14 60 17:42 27.02.2021
2079 Clear 8 1036 61 10000 5.14 60 17:19 27.02.2021
2080 Clouds 8 1037 57 10000 6.17 40 16:50 27.02.2021
2081 Clouds 9 1037 57 10000 6.17 40 16:30 27.02.2021
2082 -273 0 0 0 0 0 16:30 27.02.2021
2083 Clear 9 1037 53 10000 7.72 30 15:47 27.02.2021
2084 Clear 8 1037 53 10000 7.72 30 15:20 27.02.2021
2085 Clouds 8 1037 53 10000 5.66 50 14:41 27.02.2021
2086 Clouds 8 1037 53 10000 5.66 50 14:22 27.02.2021
2087 Clouds 7 1037 57 10000 5.14 30 13:47 27.02.2021
2088 Clouds 7 1038 57 10000 5.14 50 13:25 27.02.2021
2089 Clouds 6 1038 65 10000 2.06 80 12:51 27.02.2021
2090 Clouds 6 1038 65 10000 2.06 80 12:27 27.02.2021
2091 Clouds 5 1038 75 10000 5.66 40 11:55 27.02.2021
2092 Clouds 5 1038 75 10000 5.66 40 11:36 27.02.2021
2093 Clouds 4 1038 75 10000 5.66 40 11:18 27.02.2021
2094 Clouds 4 1038 75 10000 4.12 30 10:41 27.02.2021
2095 Clouds 3 1038 87 10000 2.57 30 10:18 27.02.2021
2096 Clouds 2 1038 87 10000 2.57 30 09:43 27.02.2021
2097 Clouds 2 1038 87 10000 2.57 30 09:21 27.02.2021
2098 Clouds 1 1038 87 10000 1.54 40 08:39 27.02.2021
2099 Clouds 1 1037 87 10000 3.09 10 08:19 27.02.2021
2100 Clouds 1 1037 93 10000 4.12 10 07:34 27.02.2021
2101 Clear 1 1036 87 10000 3.09 330 03:28 27.02.2021
2102 Clear 1 1036 80 10000 2.57 340 00:37 27.02.2021
2103 Clear 2 1035 75 10000 3.09 340 23:51 26.02.2021
2104 Clear 2 1035 75 10000 3.09 340 23:26 26.02.2021
2105 Clear 2 1035 70 10000 2.06 330 22:44 26.02.2021
2106 Clear 3 1035 70 10000 2.06 330 22:23 26.02.2021
2107 Clouds 3 1035 65 10000 2.06 340 21:42 26.02.2021
2108 Clouds 3 1035 65 10000 2.06 340 21:22 26.02.2021
2109 Clear 3 1034 65 10000 1.54 320 20:44 26.02.2021
2110 Clear 3 1034 65 10000 1.54 320 20:21 26.02.2021
2111 Clouds 4 1034 60 10000 1.54 340 19:48 26.02.2021
2112 Clouds 5 1034 60 10000 1.54 340 19:25 26.02.2021
2113 Clouds 6 1034 61 10000 2.57 350 18:42 26.02.2021
2114 Clouds 6 1033 57 10000 2.06 340 18:22 26.02.2021
2115 Clouds 6 1033 61 10000 3.09 310 17:42 26.02.2021
2116 Clouds 6 1033 65 10000 2.06 350 17:24 26.02.2021
2117 Clouds 7 1032 66 10000 2.06 340 16:52 26.02.2021
2118 Clouds 7 1032 71 10000 2.06 350 16:32 26.02.2021
2119 Clouds 6 1033 93 10000 1.54 20 15:57 26.02.2021
2120 Clouds 6 1033 93 10000 1.54 20 15:38 26.02.2021
2121 Clouds 6 1033 93 10000 1.54 20 15:20 26.02.2021
2122 Rain 6 1033 87 10000 1.54 50 14:45 26.02.2021
2123 Rain 5 1033 87 10000 1.54 50 14:25 26.02.2021
2124 Drizzle 5 1033 93 10000 4.22 22 13:46 26.02.2021
2125 Rain 5 1033 93 10000 3.61 23 13:25 26.02.2021
2126 Rain 5 1033 93 10000 2.06 10 12:40 26.02.2021
2127 Drizzle 5 1033 87 10000 4.63 20 11:58 26.02.2021
2128 Clouds 5 1033 87 10000 4.63 30 11:38 26.02.2021
2129 Clouds 5 1031 100 10000 1.54 30 10:54 26.02.2021
2130 Clouds 5 1031 100 10000 1.54 30 10:20 26.02.2021
2131 Clouds 5 1031 87 10000 3.09 360 09:46 26.02.2021
2132 Clouds 5 1031 87 10000 3.09 360 09:26 26.02.2021
2133 Clouds 7 1030 87 10000 1.42 318 08:29 26.02.2021
2134 Clouds 6 1030 87 10000 3.09 20 07:54 26.02.2021
2135 Clouds 7 1029 100 10000 3.09 350 07:20 26.02.2021
2136 Clouds 7 1029 100 10000 0.99 230 05:40 26.02.2021
2137 Clouds 6 1028 81 10000 1.54 360 04:49 26.02.2021
2138 Clear 6 1029 71 10000 2.57 260 02:36 26.02.2021
2139 Clear 7 1028 66 10000 2.06 250 00:24 26.02.2021
2140 Clear 8 1028 61 10000 1.54 260 23:31 25.02.2021
2141 Clear 8 1028 57 10000 1.54 230 22:51 25.02.2021
2142 Clear 8 1028 57 10000 1.54 230 22:33 25.02.2021
2143 Clear 9 1028 44 10000 1.54 280 21:50 25.02.2021
2144 Clear 9 1028 44 10000 1.54 280 21:31 25.02.2021
2145 Clear 9 1028 57 10000 1.54 230 20:54 25.02.2021
2146 Clear 9 1028 57 10000 1.54 230 20:36 25.02.2021
2147 Clear 9 1028 57 10000 1.54 230 20:18 25.02.2021
2148 Clear 9 1028 57 10000 1.54 230 20:18 25.02.2021
2149 Clear 11 1027 47 10000 1.94 206 19:46 25.02.2021
2150 Clear 11 1027 47 10000 1.89 197 19:19 25.02.2021
2151 Clear 11 1027 47 10000 1.89 197 19:19 25.02.2021
2152 Clear 13 1027 47 10000 2.57 230 18:40 25.02.2021
2153 Clear 13 1027 44 10000 2.06 230 18:18 25.02.2021
2154 Clear 15 1027 44 10000 2.57 180 17:33 25.02.2021
2155 Clear 16 1027 36 10000 4.12 230 16:59 25.02.2021
2156 Clear 15 1026 41 10000 3.09 170 16:33 25.02.2021
2157 Clear 18 1027 34 10000 3.09 220 15:49 25.02.2021
2158 Clear 17 1027 34 10000 3.09 220 15:28 25.02.2021
2159 Clear 17 1027 34 10000 3.09 220 15:28 25.02.2021
2160 Clear 17 1027 34 10000 3.6 200 14:40 25.02.2021
2161 Clear 17 1027 34 10000 3.6 200 14:20 25.02.2021
2162 Clear 16 1028 39 10000 2.57 220 13:44 25.02.2021
2163 Clear 16 1028 39 10000 2.57 220 13:23 25.02.2021
2164 Clear 14 1028 44 10000 2.06 210 12:40 25.02.2021
2165 Clear 14 1028 44 10000 2.06 210 12:20 25.02.2021
2166 Clear 12 1028 44 10000 2.06 230 11:43 25.02.2021
2167 Clear 11 1028 54 10000 2.17 192 10:58 25.02.2021
2168 Clear 11 1028 50 10000 3.09 180 10:37 25.02.2021
2169 Clear 9 1028 66 10000 2.05 176 09:56 25.02.2021
2170 Clear 9 1028 57 10000 2.06 180 09:38 25.02.2021
2171 Clear 7 1028 75 10000 1.53 178 08:46 25.02.2021
2172 Clear 6 1028 75 10000 1.49 173 08:22 25.02.2021
2173 Clear 6 1027 81 10000 1.49 173 07:43 25.02.2021
2174 Clear 6 1027 81 10000 1.76 190 07:19 25.02.2021
2175 Clear 7 1028 70 10000 2.57 190 06:34 25.02.2021
2176 Clear 8 1028 76 10000 1.88 182 01:52 25.02.2021
2177 Clear 9 1028 76 10000 2.57 170 01:34 25.02.2021
2178 Clear 9 1028 76 10000 2.06 180 00:38 25.02.2021
2179 Clear 10 1028 76 10000 2.3 175 23:46 24.02.2021
2180 Clear 10 1028 76 10000 2.54 176 23:22 24.02.2021
2181 Clear 10 1028 76 10000 2.57 60 22:44 24.02.2021
2182 Clear 10 1028 76 10000 2.57 60 22:24 24.02.2021
2183 Clear 10 1029 71 10000 2.06 90 21:44 24.02.2021
2184 Clear 10 1029 71 10000 1.54 90 20:53 24.02.2021
2185 Clear 11 1029 71 10000 1.54 90 20:29 24.02.2021
2186 Clear 11 1029 71 10000 2.49 161 19:54 24.02.2021
2187 Clear 12 1029 71 10000 2.21 162 19:26 24.02.2021
2188 Clear 13 1029 58 10000 2.21 162 18:55 24.02.2021
2189 Clear 14 1029 58 10000 2.21 162 18:34 24.02.2021
2190 Clear 16 1030 51 10000 3.09 200 17:50 24.02.2021
2191 Clear 16 1030 51 10000 3.09 200 17:29 24.02.2021
2192 Clear 17 1030 51 10000 4.63 180 16:57 24.02.2021
2193 Clear 17 1030 51 10000 4.63 180 16:36 24.02.2021
2194 Clear 17 1030 51 10000 4.63 180 16:18 24.02.2021
2195 Clear 18 1030 51 10000 3.6 210 15:37 24.02.2021
2196 Clear 17 1031 55 10000 3.6 200 14:53 24.02.2021
2197 Clear 17 1031 55 10000 3.6 200 14:32 24.02.2021
2198 Clear 16 1031 59 10000 2.57 190 13:58 24.02.2021
2199 Clear 16 1031 59 10000 2.57 190 13:38 24.02.2021
2200 Clear 16 1031 59 10000 2.57 190 13:19 24.02.2021
2201 Clear 14 1033 67 10000 3.09 230 12:43 24.02.2021
2202 Clear 14 1033 67 10000 3.09 230 12:23 24.02.2021
2203 Clear 12 1033 71 10000 2.57 230 11:46 24.02.2021
2204 Clear 11 1033 82 10000 1.54 270 10:51 24.02.2021
2205 Clear 10 1033 82 10000 1.54 270 10:29 24.02.2021
2206 Clear 9 1033 100 10000 2.09 182 09:44 24.02.2021
2207 Clear 9 1033 100 10000 1.65 176 09:20 24.02.2021
2208 Clear 7 1032 93 10000 1.54 160 08:34 24.02.2021
2209 Clear 7 1033 100 10000 1.69 169 07:57 24.02.2021
2210 Clear 7 1033 100 10000 1.85 167 07:20 24.02.2021
2211 Clear 7 1033 100 10000 1.99 175 06:23 24.02.2021
2212 Clear 8 1033 93 10000 2.2 180 03:28 24.02.2021
2213 Clear 10 1033 76 10000 1.54 210 00:26 24.02.2021
2214 Clear 10 1033 76 10000 1.54 190 23:24 23.02.2021
2215 Clouds 11 1033 71 10000 1.54 200 22:40 23.02.2021
2216 Clouds 12 1033 71 10000 1.54 200 22:19 23.02.2021
2217 Clouds 11 1033 71 10000 2.57 200 21:44 23.02.2021
2218 Clouds 11 1033 71 10000 2.57 200 21:22 23.02.2021
2219 Clouds 12 1033 71 10000 2.57 180 20:48 23.02.2021
2220 Clear 12 1033 66 10000 2.06 210 20:29 23.02.2021
2221 Clear 13 1032 62 10000 1.54 190 19:48 23.02.2021
2222 Clear 14 1032 62 10000 1.54 190 19:27 23.02.2021
2223 Clear 14 1031 62 10000 2.57 190 18:58 23.02.2021
2224 Clear 14 1032 63 10000 4.63 170 18:39 23.02.2021
2225 Clear 14 1031 62 10000 2.57 190 18:18 23.02.2021
2226 Clouds 15 1031 55 10000 4.12 170 17:39 23.02.2021
2227 Clear 16 1031 51 10000 6.69 200 16:58 23.02.2021
2228 Clouds 16 1031 55 10000 5.14 200 16:39 23.02.2021
2229 Clear 18 1031 51 10000 6.69 200 16:20 23.02.2021
2230 Clear 17 1031 51 10000 8.23 190 15:41 23.02.2021
2231 Clear 18 1031 51 10000 8.23 190 15:21 23.02.2021
2232 Clear 18 1032 51 10000 6.17 200 14:45 23.02.2021
2233 Clear 17 1032 51 10000 6.17 200 14:26 23.02.2021
2234 Clear 16 1032 51 10000 6.17 190 13:55 23.02.2021
2235 Clear 16 1032 51 10000 6.17 190 13:31 23.02.2021
2236 Clear 15 1033 55 10000 7.2 210 12:54 23.02.2021
2237 Clear 15 1033 55 10000 7.2 210 12:22 23.02.2021
2238 Clear 13 1033 62 10000 2.06 240 11:51 23.02.2021
2239 Clear 13 1033 62 10000 2.06 240 11:23 23.02.2021
2240 Clouds 12 1032 71 10000 3.6 240 10:53 23.02.2021
2241 Clear 12 1032 66 10000 5.14 180 10:35 23.02.2021
2242 Clear 11 1031 66 10000 2.06 280 09:45 23.02.2021
2243 Clear 11 1031 66 10000 2.06 280 09:25 23.02.2021
2244 Clear 9 1030 76 10000 2.57 200 08:57 23.02.2021
2245 Clear 9 1031 76 10000 4.12 190 08:39 23.02.2021
2246 Clear 9 1030 76 10000 2.57 200 08:20 23.02.2021
2247 Clear 7 1030 81 10000 3.6 180 06:41 23.02.2021
2248 Clouds 8 1029 71 10000 2.06 100 05:22 23.02.2021
2249 Clouds 8 1028 71 10000 3.09 170 02:36 23.02.2021
2250 Clouds 8 1028 71 10000 1.04 166 01:42 23.02.2021
2251 Clouds 8 1027 61 10000 1.86 163 00:18 23.02.2021
2252 Clouds 7 1027 70 10000 1.54 50 23:24 22.02.2021
2253 Clear 7 1026 70 10000 1.74 163 22:42 22.02.2021
2254 Clear 8 1026 70 10000 2.4 180 22:21 22.02.2021
2255 Clouds 8 1025 66 10000 2.4 180 21:54 22.02.2021
2256 Clear 8 1026 76 10000 2.57 170 21:36 22.02.2021
2257 Clouds 9 1025 66 10000 1.92 177 21:18 22.02.2021
2258 Clear 8 1025 71 10000 1.92 177 20:42 22.02.2021
2259 Clear 8 1025 71 10000 2.36 168 20:22 22.02.2021
2260 Clear 9 1024 71 10000 2.57 170 19:38 22.02.2021
2261 Clouds 10 1024 66 10000 2.04 155 19:19 22.02.2021
2262 Clouds 10 1023 71 10000 2.04 155 18:46 22.02.2021
2263 Clouds 11 1023 71 10000 1.63 167 18:22 22.02.2021
2264 Clear 11 1022 62 10000 1.63 167 17:43 22.02.2021
2265 Clear 12 1022 62 10000 2.22 174 17:18 22.02.2021
2266 Clouds 12 1022 62 10000 2.22 174 16:46 22.02.2021
2267 Clouds 13 1022 62 10000 2.33 181 16:25 22.02.2021
2268 Clouds 13 1021 58 10000 2.33 181 15:31 22.02.2021
2269 Clouds 13 1021 62 10000 2.59 187 14:49 22.02.2021
2270 Rain 13 1021 62 10000 2.59 187 14:30 22.02.2021
2271 Clouds 12 1021 58 10000 2.25 163 13:51 22.02.2021
2272 Clear 12 1021 62 10000 2.57 160 13:25 22.02.2021
2273 Clouds 11 1021 71 10000 2.06 90 12:45 22.02.2021
2274 Clouds 11 1021 71 10000 2.06 90 12:22 22.02.2021
2275 Clear 10 1020 70 10000 0.06 122 11:48 22.02.2021
2276 Clear 10 1020 70 10000 0.71 81 11:28 22.02.2021
2277 Clear 9 1020 76 10000 2.06 50 10:50 22.02.2021
2278 Clear 9 1020 66 10000 2.06 150 10:32 22.02.2021
2279 Clear 8 1020 81 10000 1.54 50 09:57 22.02.2021
2280 Clear 7 1019 71 10000 2.57 120 09:36 22.02.2021
2281 Clear 7 1020 81 10000 1.54 50 09:18 22.02.2021
2282 Clear 6 1019 75 10000 2.57 150 08:40 22.02.2021
2283 Clear 5 1019 87 10000 3.09 70 08:19 22.02.2021
2284 Clear 5 1018 75 10000 3.6 150 07:39 22.02.2021
2285 Clear 6 1018 87 10000 1.54 260 07:18 22.02.2021
2286 Clear 6 1018 81 10000 1.16 140 06:25 22.02.2021
2287 Clear 7 1017 65 10000 2.57 60 03:49 22.02.2021
2288 Clear 7 1017 65 10000 2.06 200 03:22 22.02.2021
2289 Clear 8 1016 50 10000 2.57 130 00:54 22.02.2021
2290 Clear 7 1016 50 10000 3.09 130 00:28 22.02.2021
2291 Clear 7 1016 50 10000 3.09 130 23:52 21.02.2021
2292 Clear 7 1015 46 10000 3.09 120 22:59 21.02.2021
2293 Clear 8 1015 50 10000 3.09 110 22:28 21.02.2021
2294 Clear 9 1015 47 10000 3.6 130 21:52 21.02.2021
2295 Clear 9 1015 47 10000 3.6 130 21:33 21.02.2021
2296 Clear 10 1015 43 10000 3.09 130 20:57 21.02.2021
2297 Clear 10 1015 43 10000 3.09 130 20:36 21.02.2021
2298 Clear 10 1015 47 10000 3.09 130 20:18 21.02.2021
2299 Clear 10 1015 47 10000 2.57 140 19:43 21.02.2021
2300 Clear 10 1015 47 10000 2.57 120 19:23 21.02.2021
2301 Clear 12 1015 44 10000 3.09 150 18:29 21.02.2021
2302 Clear 15 1015 41 10000 4.12 160 17:59 21.02.2021
2303 Clear 15 1015 39 10000 4.63 160 17:27 21.02.2021
2304 Clear 15 1015 34 10000 5.66 160 16:53 21.02.2021
2305 Clear 16 1015 36 10000 4.63 160 16:32 21.02.2021
2306 Clear 16 1015 39 10000 5.14 150 15:47 21.02.2021
2307 Clear 16 1015 36 10000 4.63 170 15:20 21.02.2021
2308 Clear 16 1015 41 10000 3.6 160 14:42 21.02.2021
2309 Clear 16 1015 44 10000 4.12 160 14:21 21.02.2021
2310 Clear 15 1015 47 10000 5.66 170 13:46 21.02.2021
2311 Clear 15 1016 51 10000 5.14 180 13:23 21.02.2021
2312 Clear 13 1016 58 10000 4.63 170 12:31 21.02.2021
2313 Clear 11 1016 58 10000 4.63 180 11:45 21.02.2021
2314 Clear 10 1016 62 10000 4.12 170 11:20 21.02.2021
2315 Clear 8 1016 71 10000 4.12 160 10:25 21.02.2021
2316 Clear 8 1016 71 10000 3.09 160 09:57 21.02.2021
2317 Clear 8 1016 71 10000 3.09 160 09:35 21.02.2021
2318 Clear 6 1016 81 10000 2.06 130 08:59 21.02.2021
2319 Clear 6 1016 81 10000 2.06 140 08:30 21.02.2021
2320 Clear 6 1015 81 10000 2.06 150 07:40 21.02.2021
2321 Clear 6 1015 81 10000 2.06 150 07:19 21.02.2021
2322 Clear 7 1015 76 10000 3.6 150 04:54 21.02.2021
2323 Clear 6 1015 66 10000 3.6 150 02:31 21.02.2021
2324 Clear 6 1015 71 10000 2.57 160 00:47 21.02.2021
2325 Clear 7 1015 76 10000 3.09 170 00:20 21.02.2021
2326 Clear 6 1014 66 10000 3.6 150 23:28 20.02.2021
2327 Clear 7 1015 66 10000 2.57 160 22:49 20.02.2021
2328 Clear 8 1014 66 10000 3.09 130 22:29 20.02.2021
2329 Clear 8 1014 62 10000 3.09 130 21:47 20.02.2021
2330 Clear 10 1014 62 10000 3.6 150 21:27 20.02.2021
2331 Clear 10 1014 62 10000 3.09 150 20:54 20.02.2021
2332 Clear 10 1014 62 10000 3.09 150 20:35 20.02.2021
2333 Clear 10 1014 58 10000 4.63 150 19:59 20.02.2021
2334 Clear 11 1014 58 10000 4.63 150 19:36 20.02.2021
2335 Clear 11 1014 62 10000 4.12 150 18:48 20.02.2021
2336 Clear 12 1014 58 10000 3.6 150 18:29 20.02.2021
2337 Clear 12 1014 58 10000 3.09 140 17:45 20.02.2021
2338 Clear 13 1014 54 10000 4.12 120 17:26 20.02.2021
2339 Clear 13 1014 54 10000 4.12 120 16:48 20.02.2021
2340 Clear 14 1014 54 10000 4.12 120 16:23 20.02.2021
2341 Clear 13 1014 58 10000 5.66 160 15:41 20.02.2021
2342 Clear 13 1014 58 10000 6.17 180 14:52 20.02.2021
2343 Clear 13 1015 58 10000 6.17 170 14:25 20.02.2021
2344 Clear 12 1015 62 10000 6.17 170 13:58 20.02.2021
2345 Clear 14 1015 62 10000 6.17 170 13:38 20.02.2021
2346 Clear 13 1015 66 10000 5.14 160 13:19 20.02.2021
2347 Clear 12 1015 66 10000 5.66 160 12:36 20.02.2021
2348 Clear 10 1016 76 10000 5.66 170 11:51 20.02.2021
2349 Clear 10 1016 76 10000 5.66 160 11:31 20.02.2021
2350 Clear 9 1016 76 10000 5.14 170 10:52 20.02.2021
2351 Clear 7 1016 76 10000 4.63 160 10:27 20.02.2021
2352 Clear 7 1016 81 10000 3.6 150 09:47 20.02.2021
2353 Clear 6 1016 93 10000 3.6 150 08:56 20.02.2021
2354 Clear 5 1016 93 10000 2.57 160 08:25 20.02.2021
2355 Clear 5 1016 87 10000 3.6 140 07:50 20.02.2021
2356 Clouds 6 1016 93 10000 2.57 150 02:32 20.02.2021
2357 Clouds 6 1016 93 10000 2.57 150 02:32 20.02.2021
2358 Clouds 6 1016 87 10000 3.09 150 01:59 20.02.2021
2359 Clouds 6 1016 87 10000 3.09 150 01:18 20.02.2021
2360 Clear 6 1016 87 10000 3.09 160 00:39 20.02.2021
2361 Clear 6 1016 87 10000 2.57 160 23:41 19.02.2021
2362 Clear 6 1016 87 10000 2.06 140 22:48 19.02.2021
2363 Clear 7 1016 87 10000 2.06 150 22:26 19.02.2021
2364 Clear 7 1016 87 10000 2.57 140 21:47 19.02.2021
2365 Clear 7 1016 87 10000 2.57 140 21:26 19.02.2021
2366 Clouds 7 1016 87 10000 2.57 140 20:45 19.02.2021
2367 Clouds 7 1016 87 10000 2.57 140 20:45 19.02.2021
2368 Clouds 7 1016 81 10000 2.57 140 20:27 19.02.2021
2369 Clouds 8 1016 81 10000 3.09 150 19:50 19.02.2021
2370 Clouds 8 1016 76 10000 3.09 150 19:20 19.02.2021
2371 Clouds 8 1016 76 10000 2.57 150 18:54 19.02.2021
2372 Clouds 8 1016 76 10000 3.09 160 18:31 19.02.2021
2373 Clouds 9 1016 71 10000 3.09 170 17:48 19.02.2021
2374 Clear 10 1016 66 10000 3.09 190 16:51 19.02.2021
2375 Clouds 11 1016 66 10000 4.12 190 16:23 19.02.2021
2376 Clouds 10 1017 71 10000 3.6 190 15:57 19.02.2021
2377 Clouds 10 1017 71 10000 4.63 190 15:31 19.02.2021
2378 Clouds 10 1017 71 10000 5.14 200 14:56 19.02.2021
2379 Clouds 10 1017 71 10000 5.14 200 14:36 19.02.2021
2380 Clouds 9 1018 100 10000 4.12 200 13:58 19.02.2021
2381 Clouds 8 1018 100 10000 4.12 200 13:39 19.02.2021
2382 Clouds 8 1018 100 10000 4.12 200 13:19 19.02.2021
2383 Clouds 7 1018 100 10000 1.54 80 12:41 19.02.2021
2384 Clouds 7 1018 100 10000 1.54 80 12:22 19.02.2021
2385 Clouds 6 1019 100 8000 2.06 90 11:48 19.02.2021
2386 Clouds 6 1019 100 8000 2.06 90 11:22 19.02.2021
2387 Mist 5 1018 100 1800 2.06 80 10:47 19.02.2021
2388 Mist 5 1018 100 1000 2.42 176 10:21 19.02.2021
2389 Fog 4 1018 100 400 1.54 120 09:40 19.02.2021
2390 Fog 4 1018 100 200 1.76 160 09:22 19.02.2021
2391 Fog 3 1018 100 400 1.54 110 08:50 19.02.2021
2392 Fog 3 1018 100 400 1.54 110 08:22 19.02.2021
2393 Drizzle 3 1018 100 800 2.06 110 07:48 19.02.2021
2394 Mist 3 1018 100 1400 1.54 120 07:27 19.02.2021
2395 Mist 3 1017 100 8000 1.54 200 06:49 19.02.2021
2396 Clouds 3 1017 100 10000 1.54 220 05:27 19.02.2021
2397 Clouds 3 1017 100 10000 2.06 230 04:41 19.02.2021
2398 Clear 3 1015 93 10000 1.54 230 01:47 19.02.2021
2399 Clear 4 1014 87 10000 3.09 230 00:37 19.02.2021
2400 Clouds 4 1013 87 10000 3.6 230 23:55 18.02.2021
2401 Clouds 4 1013 87 10000 3.6 230 23:35 18.02.2021
2402 Clouds 6 1013 81 10000 3.6 240 22:50 18.02.2021
2403 Clouds 6 1012 87 10000 3.6 270 22:29 18.02.2021
2404 Rain 8 1011 87 10000 8.23 260 21:48 18.02.2021
2405 Clouds 8 1010 93 10000 5.66 200 21:25 18.02.2021
2406 Rain 9 1010 93 10000 6.69 220 20:44 18.02.2021
2407 Rain 8 1009 81 10000 7.2 230 20:23 18.02.2021
2408 Rain 9 1008 71 10000 4.63 180 19:47 18.02.2021
2409 Clouds 9 1008 71 10000 4.63 180 19:28 18.02.2021
2410 Clouds 10 1008 66 10000 3.6 160 18:54 18.02.2021
2411 Clouds 10 1008 66 10000 2.06 130 18:31 18.02.2021
2412 Clouds 9 1008 62 10000 2.57 170 17:53 18.02.2021
2413 Clouds 9 1008 66 10000 2.57 170 17:28 18.02.2021
2414 Clear 9 1009 76 10000 1.54 100 16:59 18.02.2021
2415 Clear 9 1009 71 10000 6.69 170 16:40 18.02.2021
2416 Clear 10 1009 76 10000 1.54 100 16:21 18.02.2021
2417 Clouds 10 1009 76 10000 2.06 70 15:39 18.02.2021
2418 Clouds 8 1010 76 10000 2.06 140 15:21 18.02.2021
2419 Clouds 8 1010 71 10000 3.6 140 14:49 18.02.2021
2420 Clouds 9 1010 62 10000 2.57 140 14:29 18.02.2021
2421 Rain 8 1011 71 10000 2.06 70 13:46 18.02.2021
2422 Clouds 8 1011 71 10000 2.06 70 13:20 18.02.2021
2423 Clouds 8 1012 71 10000 5.89 169 12:47 18.02.2021
2424 Clouds 7 1012 71 10000 4.45 165 12:23 18.02.2021
2425 Clear 7 1013 75 10000 1.54 80 11:46 18.02.2021
2426 Clear 6 1013 75 10000 1.54 80 11:27 18.02.2021
2427 Clear 5 1013 87 10000 3.09 70 10:52 18.02.2021
2428 Clear 5 1013 87 10000 3.09 70 10:31 18.02.2021
2429 Clear 4 1014 93 10000 3.09 80 09:51 18.02.2021
2430 Clear 4 1014 93 10000 3.09 80 09:26 18.02.2021
2431 Clear 3 1014 100 10000 3.09 70 08:48 18.02.2021
2432 Clear 3 1014 100 10000 3.09 70 08:29 18.02.2021
2433 Clear 3 1014 87 10000 2.57 120 07:37 18.02.2021
2434 Clouds 3 1015 93 10000 2.57 70 07:18 18.02.2021
2435 Clear 3 1016 100 10000 2.06 70 05:29 18.02.2021
2436 Clear 3 1018 93 10000 2.06 200 23:57 17.02.2021
2437 Clear 4 1018 93 10000 2.06 200 23:38 17.02.2021
2438 Clouds 4 1019 87 10000 2.06 180 22:57 17.02.2021
2439 Clouds 4 1019 87 10000 2.06 180 22:39 17.02.2021
2440 Clouds 5 1019 87 10000 2.06 180 22:19 17.02.2021
2441 Clouds 5 1019 87 10000 3.09 210 21:42 17.02.2021
2442 Clouds 6 1019 87 10000 3.09 210 21:19 17.02.2021
2443 Clouds 6 1019 87 10000 2.57 200 20:40 17.02.2021
2444 Clouds 6 1019 87 10000 3.6 210 19:59 17.02.2021
2445 Clouds 6 1019 87 10000 3.6 210 19:37 17.02.2021
2446 Clouds 7 1019 87 10000 4.63 200 18:58 17.02.2021
2447 Clouds 7 1019 87 10000 4.63 200 18:37 17.02.2021
2448 Clouds 8 1019 81 10000 6.17 200 17:47 17.02.2021
2449 Clouds 8 1019 81 10000 6.17 200 17:23 17.02.2021
2450 Clouds 8 1019 87 10000 6.17 210 16:54 17.02.2021
2451 Clouds 8 1019 87 10000 6.17 210 16:36 17.02.2021
2452 Clouds 9 1019 81 10000 5.66 220 16:18 17.02.2021
2453 Clouds 9 1019 81 10000 4.63 230 15:42 17.02.2021
2454 Clouds 8 1019 87 10000 6.17 230 15:22 17.02.2021
2455 Clouds 8 1019 93 10000 5.66 220 14:45 17.02.2021
2456 Clouds 8 1019 87 10000 5.14 230 14:26 17.02.2021
2457 Clouds 8 1019 93 10000 5.66 220 13:45 17.02.2021
2458 Clouds 8 1019 100 10000 5.66 210 13:24 17.02.2021
2459 Drizzle 8 1019 100 10000 5.14 210 12:44 17.02.2021
2460 Drizzle 8 1019 93 10000 7.2 210 12:22 17.02.2021
2461 Clouds 8 1019 93 10000 4.63 210 11:38 17.02.2021
2462 Clouds 7 1019 93 10000 4.63 210 11:18 17.02.2021
2463 Clouds 7 1019 100 10000 4.12 210 10:44 17.02.2021
2464 Clouds 7 1019 100 10000 4.12 210 10:24 17.02.2021
2465 Clouds 6 1019 100 10000 4.63 220 09:44 17.02.2021
2466 Clouds 6 1019 100 10000 4.63 210 09:25 17.02.2021
2467 Clouds 6 1019 100 10000 5.14 220 08:43 17.02.2021
2468 Clouds 6 1018 100 10000 4.63 210 08:22 17.02.2021
2469 Clouds 6 1018 100 10000 3.6 220 07:34 17.02.2021
2470 Clouds 6 1018 100 10000 3.6 220 06:19 17.02.2021
2471 Clouds 6 1016 100 10000 3.6 230 02:42 17.02.2021
2472 Clouds 6 1016 100 10000 4.12 220 02:21 17.02.2021
2473 Clouds 7 1015 100 10000 4.63 230 00:33 17.02.2021
2474 Clouds 7 1014 100 10000 6.17 230 23:57 16.02.2021
2475 Clouds 7 1014 100 10000 6.17 230 23:38 16.02.2021
2476 Clouds 6 1014 100 10000 4.63 220 22:45 16.02.2021
2477 Clouds 6 1014 93 10000 2.57 230 22:25 16.02.2021
2478 Clouds 6 1014 93 10000 2.57 230 22:25 16.02.2021
2479 Rain 6 1014 87 10000 3.09 220 21:58 16.02.2021
2480 Rain 6 1013 76 10000 3.09 230 21:39 16.02.2021
2481 Rain 6 1013 76 10000 3.09 230 21:20 16.02.2021
2482 Clear 7 1013 76 10000 4.63 200 20:45 16.02.2021
2483 Clear 6 1013 76 10000 4.63 200 20:20 16.02.2021
2484 Clear 6 1013 81 10000 3.6 210 19:47 16.02.2021
2485 Drizzle 6 1014 75 10000 4.12 210 19:27 16.02.2021
2486 Clouds 8 1014 66 10000 4.12 180 18:42 16.02.2021
2487 Clouds 7 1014 66 10000 4.12 180 18:23 16.02.2021
2488 Clouds 8 1014 66 10000 4.63 200 17:53 16.02.2021
2489 Clouds 8 1014 66 10000 4.63 200 17:27 16.02.2021
2490 Clouds 8 1015 66 10000 2.95 184 16:52 16.02.2021
2491 Clear 9 1015 66 10000 5.14 170 16:30 16.02.2021
2492 Clear 9 1015 66 10000 5.14 170 16:30 16.02.2021
2493 Clear 9 1015 66 10000 5.14 170 16:30 16.02.2021
2494 Clouds 9 1015 62 10000 6.17 200 15:56 16.02.2021
2495 Clear 9 1015 66 10000 5.66 190 15:36 16.02.2021
2496 Clouds 10 1015 62 10000 6.17 200 15:18 16.02.2021
2497 Clear 9 1016 66 10000 2.57 220 14:39 16.02.2021
2498 Clear 10 1016 66 10000 2.57 220 14:21 16.02.2021
2499 Clear 9 1017 66 10000 3.09 220 13:44 16.02.2021
2500 Clouds 8 1018 71 10000 2.57 230 12:59 16.02.2021
2501 Clouds 7 1018 71 10000 2.57 230 12:41 16.02.2021
2502 Clouds 7 1018 71 10000 2.57 230 12:19 16.02.2021
2503 Clouds 6 1019 81 10000 1.54 230 11:40 16.02.2021
2504 Clouds 5 1019 81 10000 1.54 230 11:20 16.02.2021
2505 Clear 4 1020 87 10000 3.6 230 10:46 16.02.2021
2506 Clear 4 1020 87 10000 3.6 230 10:27 16.02.2021
2507 Clouds 3 1020 93 10000 2.06 240 09:53 16.02.2021
2508 Clouds 3 1020 93 10000 2.06 240 09:28 16.02.2021
2509 Clouds 3 1020 93 10000 2.06 240 09:28 16.02.2021
2510 Clouds 3 1020 93 10000 3.09 220 08:52 16.02.2021
2511 Clouds 2 1020 93 10000 3.09 220 08:31 16.02.2021
2512 Clouds 2 1021 100 10000 3.09 250 07:58 16.02.2021
2513 Clouds 3 1021 100 10000 2.57 220 06:58 16.02.2021
2514 Mist 3 1022 100 8000 2.57 190 03:20 16.02.2021
2515 Drizzle 3 1024 100 1400 2.06 200 00:43 16.02.2021
2516 Mist 3 1024 100 2000 1.54 190 23:31 15.02.2021
2517 Mist 3 1024 100 3600 1.54 190 22:52 15.02.2021
2518 Mist 3 1024 100 3600 1.54 190 22:33 15.02.2021
2519 Mist 3 1024 100 8000 2.57 210 21:56 15.02.2021
2520 Clouds 3 1024 93 10000 2.57 200 21:37 15.02.2021
2521 Clouds 3 1024 93 10000 2.57 210 21:19 15.02.2021
2522 Clouds 3 1024 81 10000 3.09 220 20:44 15.02.2021
2523 Drizzle 4 1024 75 10000 3.6 220 20:24 15.02.2021
2524 Clouds 3 1024 65 10000 3.6 220 19:43 15.02.2021
2525 Clouds 3 1024 65 10000 3.6 220 19:21 15.02.2021
2526 Clouds 3 1024 70 10000 4.63 200 18:44 15.02.2021
2527 Clouds 3 1024 70 10000 4.63 200 18:25 15.02.2021
2528 Clouds 3 1024 70 10000 6.17 200 17:41 15.02.2021
2529 Clouds 3 1024 70 10000 6.17 200 17:22 15.02.2021
2530 Clouds 4 1024 70 10000 6.17 200 16:55 15.02.2021
2531 Clouds 4 1024 70 10000 4.63 200 16:27 15.02.2021
2532 Clouds 4 1025 75 10000 5.66 210 15:50 15.02.2021
2533 Clouds 3 1025 75 10000 5.66 210 15:22 15.02.2021
2534 Clouds 3 1024 75 10000 4.12 180 14:54 15.02.2021
2535 Clouds 3 1025 69 10000 3.6 190 14:36 15.02.2021
2536 Clouds 2 1025 69 10000 3.6 190 14:18 15.02.2021
2537 Rain 2 1026 64 10000 5.14 200 13:44 15.02.2021
2538 Rain 2 1027 64 10000 5.14 210 13:18 15.02.2021
2539 Clouds 1 1027 75 10000 3.09 200 12:43 15.02.2021
2540 Rain 1 1027 75 10000 3.09 200 12:19 15.02.2021
2541 Rain 1 1028 69 10000 4.12 200 11:42 15.02.2021
2542 Clouds 1 1027 69 10000 2.57 200 11:19 15.02.2021
2543 Rain 1 1027 55 10000 2.57 190 10:46 15.02.2021
2544 Snow 0 1028 55 10000 4.15 175 10:23 15.02.2021
2545 Snow 0 1028 55 10000 1.54 210 09:54 15.02.2021
2546 Snow 0 1028 55 10000 1.54 210 09:33 15.02.2021
2547 Clouds -1 1028 55 10000 3.29 162 08:44 15.02.2021
2548 Clear -1 1028 64 10000 4.12 160 07:39 15.02.2021
2549 Clouds -1 1028 43 10000 1.54 100 06:58 15.02.2021
2550 Clouds -1 1028 43 10000 1.54 100 06:37 15.02.2021
2551 Clouds -1 1031 40 10000 2.06 70 02:29 15.02.2021
2552 Clear -1 1031 43 10000 2.57 90 00:45 15.02.2021
2553 Clear -2 1031 43 10000 2.57 70 23:34 14.02.2021
2554 Clear -2 1032 40 10000 2.57 60 22:55 14.02.2021
2555 Clear -2 1032 40 10000 2.57 60 22:37 14.02.2021
2556 Clear -1 1032 40 10000 2.57 60 22:18 14.02.2021
2557 Clear -1 1033 43 10000 2.57 70 21:47 14.02.2021
2558 Clear -1 1033 43 10000 2.57 70 21:28 14.02.2021
2559 Clear -1 1033 43 10000 3.09 60 20:44 14.02.2021
2560 Clear -1 1033 43 10000 3.09 60 20:26 14.02.2021
2561 Clouds -1 1033 40 10000 3.09 60 19:46 14.02.2021
2562 Clear 0 1033 40 10000 3.6 70 18:51 14.02.2021
2563 Clear 0 1033 40 10000 3.6 70 18:51 14.02.2021
2564 Clear 0 1033 40 10000 3.6 70 18:29 14.02.2021
2565 Clear 1 1034 34 10000 3.6 80 17:56 14.02.2021
2566 Clear 1 1034 34 10000 3.6 80 17:35 14.02.2021
2567 Clouds 2 1034 32 10000 5.14 70 16:52 14.02.2021
2568 Clouds 2 1034 32 10000 5.14 70 16:27 14.02.2021
2569 Clear 2 1035 30 10000 4.63 50 15:49 14.02.2021
2570 Clear 2 1035 30 10000 4.63 50 15:30 14.02.2021
2571 Clear 3 1035 30 10000 3.6 70 14:48 14.02.2021
2572 Clear 2 1035 30 10000 3.6 70 14:27 14.02.2021
2573 Clear 2 1036 34 10000 4.63 80 13:49 14.02.2021
2574 Clear 1 1036 34 10000 4.63 80 13:27 14.02.2021
2575 Clear 0 1036 40 10000 4.63 60 12:38 14.02.2021
2576 Clear 0 1036 40 10000 4.63 60 12:19 14.02.2021
2577 Clear -1 1036 46 10000 5.66 60 11:49 14.02.2021
2578 Clear -2 1036 46 10000 5.66 60 11:21 14.02.2021
2579 Clear -4 1036 54 10000 6.17 70 10:37 14.02.2021
2580 Clear -5 1036 58 10000 6.17 60 09:55 14.02.2021
2581 Clear -6 1036 58 10000 6.17 60 09:37 14.02.2021
2582 Clear -6 1036 58 10000 6.17 60 09:19 14.02.2021
2583 Clear -7 1035 67 10000 5.14 60 08:35 14.02.2021
2584 Clear -7 1035 68 10000 4.63 60 07:55 14.02.2021
2585 Clear -7 1035 68 10000 5.14 60 06:49 14.02.2021
2586 Clear -7 1036 68 10000 4.63 70 05:37 14.02.2021
2587 Clear -6 1036 63 10000 5.14 60 03:30 14.02.2021
2588 Clear -6 1036 63 10000 5.14 60 01:54 14.02.2021
2589 Clear -6 1037 63 10000 3.6 70 00:47 14.02.2021
2590 Clear -6 1037 63 10000 3.6 70 00:22 14.02.2021
2591 Clear -6 1037 58 10000 4.63 60 23:40 13.02.2021
2592 Clear -6 1037 58 10000 4.63 60 23:20 13.02.2021
2593 Clear -6 1037 58 10000 3.6 60 22:41 13.02.2021
2594 Clear -6 1037 58 10000 3.6 60 22:18 13.02.2021
2595 Clear -5 1036 54 10000 4.63 70 21:42 13.02.2021
2596 Clear -5 1036 54 10000 5.14 60 20:54 13.02.2021
2597 Clear -5 1036 54 10000 5.14 60 20:30 13.02.2021
2598 Clear -5 1036 54 10000 5.14 60 20:30 13.02.2021
2599 Clear -5 1036 46 10000 4.63 70 19:55 13.02.2021
2600 Clear -5 1036 46 10000 4.63 70 19:37 13.02.2021
2601 Clear -5 1036 46 10000 4.63 70 19:18 13.02.2021
2602 Clear -4 1035 39 10000 3.6 70 18:38 13.02.2021
2603 Clear -3 1034 40 10000 5.66 70 17:57 13.02.2021
2604 Clear -3 1034 40 10000 5.66 70 17:38 13.02.2021
2605 Clear -3 1034 40 10000 5.66 70 17:19 13.02.2021
2606 Clear -2 1035 40 10000 5.14 70 16:42 13.02.2021
2607 Clear -2 1035 40 10000 5.14 70 16:20 13.02.2021
2608 Clear -2 1035 40 10000 6.17 90 15:34 13.02.2021
2609 Clear -3 1035 40 10000 6.69 70 14:51 13.02.2021
2610 Clear -3 1035 40 10000 6.69 70 14:31 13.02.2021
2611 Clear -3 1035 46 10000 6.69 70 13:48 13.02.2021
2612 Clear -3 1035 46 10000 6.69 70 13:24 13.02.2021
2613 Clear -4 1035 54 10000 6.69 70 12:46 13.02.2021
2614 Clear -4 1035 54 10000 6.69 70 12:18 13.02.2021
2615 Clear -5 1035 58 10000 5.14 70 11:45 13.02.2021
2616 Clear -5 1035 58 10000 5.14 70 11:19 13.02.2021
2617 Clear -6 1034 58 10000 6.17 70 10:46 13.02.2021
2618 Clear -6 1034 58 10000 6.17 70 10:25 13.02.2021
2619 Clear -8 1034 67 10000 5.66 50 09:56 13.02.2021
2620 Clear -8 1034 67 10000 5.66 50 09:30 13.02.2021
2621 Clear -9 1034 73 10000 4.63 50 08:56 13.02.2021
2622 Clear -9 1034 73 10000 4.63 50 08:35 13.02.2021
2623 Clear -9 1034 67 10000 5.66 60 07:52 13.02.2021
2624 Clear -9 1033 67 10000 7.2 70 06:41 13.02.2021
2625 Clear -9 1033 67 10000 6.69 60 05:27 13.02.2021
2626 Clear -9 1032 73 10000 6.17 50 03:58 13.02.2021
2627 Clear -8 1031 67 10000 6.69 50 01:49 13.02.2021
2628 Clear -8 1031 73 10000 6.69 50 00:51 13.02.2021
2629 Clear -7 1030 68 10000 5.66 50 23:54 12.02.2021
2630 Clear -7 1030 68 10000 5.66 50 23:28 12.02.2021
2631 Clear -7 1030 73 10000 6.17 50 22:58 12.02.2021
2632 Clear -7 1030 73 10000 6.17 50 22:29 12.02.2021
2633 Clear -6 1029 68 10000 6.17 50 21:50 12.02.2021
2634 Clear -6 1029 68 10000 6.17 50 21:29 12.02.2021
2635 Clear -6 1029 63 10000 5.14 50 20:55 12.02.2021
2636 Clear -6 1029 63 10000 5.14 50 20:37 12.02.2021
2637 Clear -6 1029 63 10000 5.14 50 20:18 12.02.2021
2638 Clear -6 1029 58 10000 5.66 50 19:43 12.02.2021
2639 Clear -6 1029 58 10000 5.66 50 19:25 12.02.2021
2640 Clear -5 1028 54 10000 6.17 60 18:30 12.02.2021
2641 Clear -5 1028 54 10000 7.2 50 17:48 12.02.2021
2642 Clear -4 1028 54 10000 7.2 50 17:25 12.02.2021
2643 Clouds -4 1027 50 10000 7.2 80 16:36 12.02.2021
2644 Clouds -3 1027 46 10000 6.69 60 15:47 12.02.2021
2645 Clouds -3 1027 46 10000 6.69 60 15:21 12.02.2021
2646 Clouds -3 1027 46 10000 6.69 60 15:21 12.02.2021
2647 Clouds -3 1027 50 10000 7.72 60 14:53 12.02.2021
2648 Clouds -3 1027 50 10000 7.72 60 14:30 12.02.2021
2649 Clouds -3 1027 50 10000 7.72 60 14:30 12.02.2021
2650 Clouds -4 1027 50 10000 7.2 60 13:41 12.02.2021
2651 Clouds -4 1027 50 10000 7.2 60 13:23 12.02.2021
2652 Clouds -5 1027 58 10000 6.69 70 12:50 12.02.2021
2653 Clouds -5 1027 58 10000 6.69 70 12:31 12.02.2021
2654 Clouds -5 1027 63 10000 5.14 70 11:46 12.02.2021
2655 Clouds -6 1027 63 10000 5.14 70 11:20 12.02.2021
2656 Clear -6 1027 63 10000 6.69 60 10:47 12.02.2021
2657 Clear -7 1027 73 10000 6.17 60 09:56 12.02.2021
2658 Clear -7 1027 73 10000 6.17 60 09:38 12.02.2021
2659 Clear -8 1027 73 10000 6.17 60 09:19 12.02.2021
2660 Clear -9 1027 79 10000 5.66 50 08:40 12.02.2021
2661 Clear -9 1027 79 10000 5.66 50 08:18 12.02.2021
2662 Clear -9 1027 79 10000 5.14 50 07:51 12.02.2021
2663 Clear -9 1027 79 10000 4.63 40 06:57 12.02.2021
2664 Clear -8 1027 79 10000 4.63 40 05:51 12.02.2021
2665 Clear -8 1027 79 10000 4.63 40 05:26 12.02.2021
2666 Clear -7 1027 79 10000 3.6 50 01:59 12.02.2021
2667 Clear -7 1027 73 10000 5.14 60 23:58 11.02.2021
2668 Clear -6 1028 73 10000 1.03 160 23:23 11.02.2021
2669 Clear -6 1028 73 10000 1.03 160 22:59 11.02.2021
2670 Clear -6 1028 73 10000 1.03 160 22:41 11.02.2021
2671 Clear -6 1028 73 10000 1.03 160 22:22 11.02.2021
2672 Clear -6 1028 73 10000 1.03 180 21:43 11.02.2021
2673 Clear -6 1028 73 10000 1.03 180 21:24 11.02.2021
2674 Clear -4 1028 54 10000 1.03 150 20:54 11.02.2021
2675 Clear -5 1027 58 10000 4.63 90 20:36 11.02.2021
2676 Clear -6 1027 63 10000 2.06 30 20:18 11.02.2021
2677 Clear -6 1027 63 10000 2.06 30 19:45 11.02.2021
2678 Clear -5 1027 63 10000 2.06 30 19:23 11.02.2021
2679 Clear -5 1027 58 10000 2.84 82 18:37 11.02.2021
2680 Clear -4 1027 58 10000 2.71 78 18:18 11.02.2021
2681 Clear -3 1026 50 10000 2.57 80 17:39 11.02.2021
2682 Clear -3 1026 50 10000 2.57 80 17:20 11.02.2021
2683 Clouds -2 1026 46 10000 2.57 100 16:42 11.02.2021
2684 Clouds -2 1026 46 10000 2.57 100 16:24 11.02.2021
2685 Clear -3 1026 50 10000 3.09 60 15:45 11.02.2021
2686 Clear -3 1026 50 10000 3.09 60 15:26 11.02.2021
2687 Clear -3 1026 50 10000 3.09 60 15:26 11.02.2021
2688 Clouds -3 1026 54 10000 3.09 90 14:53 11.02.2021
2689 Clouds -3 1026 54 10000 3.09 90 14:31 11.02.2021
2690 Clouds -3 1026 59 10000 4.63 70 13:42 11.02.2021
2691 Clouds -3 1026 59 10000 4.63 70 13:20 11.02.2021
2692 Clouds -3 1026 59 10000 4.63 70 12:56 11.02.2021
2693 Clouds -3 1026 59 10000 4.63 90 12:32 11.02.2021
2694 Clouds -4 1026 68 10000 4.63 50 11:48 11.02.2021
2695 Clouds -4 1026 68 10000 4.63 50 11:27 11.02.2021
2696 Clouds -5 1025 68 10000 5.14 50 10:46 11.02.2021
2697 Clouds -5 1025 68 10000 5.14 50 10:27 11.02.2021
2698 Clouds -5 1025 68 10000 4.63 40 09:59 11.02.2021
2699 Clouds -6 1025 73 10000 4.12 40 09:38 11.02.2021
2700 Clouds -6 1025 73 10000 3.6 50 09:18 11.02.2021
2701 Clouds -6 1025 73 10000 3.09 40 08:43 11.02.2021
2702 Clouds -6 1023 73 10000 2.57 30 07:43 11.02.2021
2703 Clouds -6 1023 73 10000 2.06 30 06:44 11.02.2021
2704 Clouds -6 1023 79 10000 4.63 10 05:55 11.02.2021
2705 Clouds -6 1021 73 10000 2.57 10 03:43 11.02.2021
2706 Clouds -6 1020 73 10000 2.06 340 02:21 11.02.2021
2707 Clouds -7 1019 73 10000 3.6 10 00:23 11.02.2021
2708 Clouds -6 1018 73 10000 3.09 20 23:52 10.02.2021
2709 Clouds -7 1018 79 10000 3.6 30 23:20 10.02.2021
2710 Snow -6 1017 73 10000 2.06 30 22:44 10.02.2021
2711 Snow -6 1017 73 10000 2.06 30 22:24 10.02.2021
2712 Clouds -6 1016 68 10000 2.57 20 21:40 10.02.2021
2713 Clouds -7 1016 73 10000 3.09 20 21:21 10.02.2021
2714 Clouds -6 1015 68 10000 2.57 30 20:52 10.02.2021
2715 Clouds -6 1014 63 10000 3.6 360 20:29 10.02.2021
2716 Clouds -6 1014 63 10000 3.6 360 19:57 10.02.2021
2717 Clouds -6 1014 63 10000 3.6 360 19:39 10.02.2021
2718 Clouds -5 1014 63 10000 3.6 360 19:18 10.02.2021
2719 Clouds -6 1013 58 10000 4.63 20 18:36 10.02.2021
2720 Clouds -6 1013 58 10000 4.63 20 18:18 10.02.2021
2721 Clouds -5 1012 63 10000 4.63 20 17:44 10.02.2021
2722 Clouds -5 1011 58 10000 4.63 40 17:20 10.02.2021
2723 Clouds -4 1010 58 10000 6.69 20 16:48 10.02.2021
2724 Clouds -4 1010 58 10000 6.69 20 16:28 10.02.2021
2725 Clouds -5 1009 58 10000 7.72 20 15:39 10.02.2021
2726 Clouds -5 1009 58 10000 7.72 20 15:21 10.02.2021
2727 Clear -5 1008 58 10000 6.17 50 14:39 10.02.2021
2728 Clear -5 1008 54 10000 6.69 40 13:55 10.02.2021
2729 Clear -5 1007 63 10000 7.72 40 13:37 10.02.2021
2730 Clear -6 1007 68 10000 8.75 40 13:18 10.02.2021
2731 Clear -7 1006 67 10000 8.23 40 12:40 10.02.2021
2732 Clear -7 1006 62 10000 7.72 50 12:21 10.02.2021
2733 Clear -8 1006 62 10000 7.72 50 11:41 10.02.2021
2734 Clear -8 1006 62 10000 7.72 50 11:23 10.02.2021
2735 Clear -9 1005 67 10000 6.17 50 10:40 10.02.2021
2736 Clear -9 1005 67 10000 6.17 50 10:19 10.02.2021
2737 Clear -10 1004 67 10000 4.63 50 09:40 10.02.2021
2738 Clear -10 1004 67 10000 4.63 50 09:21 10.02.2021
2739 Clear -10 1004 73 10000 5.66 60 08:43 10.02.2021
2740 Clear -10 1003 73 10000 3.6 50 07:53 10.02.2021
2741 Clear -10 1003 73 10000 4.63 50 06:59 10.02.2021
2742 Clouds -9 1002 73 10000 2.57 50 03:43 10.02.2021
2743 Clouds -8 1003 73 10000 1.54 60 00:51 10.02.2021
2744 Clouds -7 1003 73 10000 2.57 40 23:36 09.02.2021
2745 Clouds -7 1004 68 10000 2.57 40 22:56 09.02.2021
2746 Clouds -7 1004 68 10000 2.57 40 22:25 09.02.2021
2747 Clouds -6 1004 68 10000 2.57 40 21:53 09.02.2021
2748 Clouds -6 1004 68 10000 2.57 40 21:34 09.02.2021
2749 Clouds -6 1004 73 10000 2.06 40 20:59 09.02.2021
2750 Clouds -6 1004 73 10000 2.06 40 20:40 09.02.2021
2751 Clouds -6 1004 73 10000 3.5 52 20:20 09.02.2021
2752 Clouds -6 1004 73 10000 3.5 52 19:39 09.02.2021
2753 Clouds -6 1004 73 10000 3.68 56 19:18 09.02.2021
2754 Clouds -6 1003 73 10000 3.68 56 18:41 09.02.2021
2755 Clouds -6 1003 73 10000 2.06 50 18:20 09.02.2021
2756 Clouds -5 1003 79 10000 3.2 53 17:42 09.02.2021
2757 Clouds -5 1003 79 10000 2.75 47 17:23 09.02.2021
2758 Clouds -5 1004 74 10000 3.09 80 16:49 09.02.2021
2759 Clouds -5 1004 74 10000 3.09 80 16:19 09.02.2021
2760 Clouds -5 1004 79 10000 2.45 42 15:50 09.02.2021
2761 Clouds -5 1004 79 10000 2.22 36 15:27 09.02.2021
2762 Clouds -5 1004 73 10000 2.22 36 14:56 09.02.2021
2763 Clouds -5 1003 79 10000 2.48 28 14:28 09.02.2021
2764 Snow -5 1003 79 9000 2.57 70 13:54 09.02.2021
2765 Clouds -5 1003 79 10000 2.57 70 13:29 09.02.2021
2766 Clouds -5 1003 79 10000 2.06 60 12:59 09.02.2021
2767 Clouds -5 1003 79 10000 2.06 60 12:40 09.02.2021
2768 Clouds -5 1003 79 10000 2.06 60 12:21 09.02.2021
2769 Clouds -5 1003 79 10000 2.06 70 11:43 09.02.2021
2770 Clouds -5 1003 79 10000 2.06 70 11:21 09.02.2021
2771 Clouds -5 1003 79 10000 2.57 60 10:56 09.02.2021
2772 Clouds -5 1002 79 10000 2.06 80 10:20 09.02.2021
2773 Snow -5 1002 86 9000 2.06 70 09:46 09.02.2021
2774 Snow -5 1002 86 9000 1.54 120 09:26 09.02.2021
2775 Clouds -5 1002 79 10000 2.15 40 08:53 09.02.2021
2776 Snow -5 1001 79 9000 3.09 90 08:28 09.02.2021
2777 Clouds -5 1001 79 10000 2.17 34 07:39 09.02.2021
2778 Clouds -5 1000 86 10000 2.27 26 05:33 09.02.2021
2779 Clouds -5 999 93 10000 2.2 23 03:47 09.02.2021
2780 Clouds -4 999 86 10000 1.54 60 01:50 09.02.2021
2781 Clouds -4 998 86 10000 2.17 33 00:18 09.02.2021
2782 Clouds -4 998 86 10000 2.06 50 23:23 08.02.2021
2783 Clouds -4 998 86 10000 2.23 33 22:59 08.02.2021
2784 Clouds -4 998 86 10000 2.23 33 22:41 08.02.2021
2785 Clouds -4 997 86 10000 1.89 30 22:21 08.02.2021
2786 Clouds -4 997 86 10000 1.89 30 21:44 08.02.2021
2787 Clouds -4 997 86 10000 1.95 46 21:21 08.02.2021
2788 Clouds -4 997 86 10000 1.95 46 20:44 08.02.2021
2789 Clouds -4 997 86 10000 2.09 43 20:24 08.02.2021
2790 Snow -4 997 86 9000 2.09 43 19:58 08.02.2021
2791 Snow -4 997 86 6000 2.09 43 19:39 08.02.2021
2792 Snow -3 997 93 3000 1.57 38 19:19 08.02.2021
2793 Snow -3 996 86 10000 1.54 60 18:41 08.02.2021
2794 Snow -3 996 86 10000 1.54 60 18:18 08.02.2021
2795 Snow -3 995 93 10000 3.6 60 17:43 08.02.2021
2796 Clouds -3 995 93 10000 3.6 60 17:22 08.02.2021
2797 Snow -3 995 93 10000 3.6 60 16:41 08.02.2021
2798 Snow -3 995 86 10000 4.12 80 16:21 08.02.2021
2799 Snow -2 995 86 8000 3.6 70 15:41 08.02.2021
2800 Mist -2 995 86 8000 2.57 70 15:19 08.02.2021
2801 Snow -2 995 86 3200 4.12 70 14:51 08.02.2021
2802 Snow -2 995 86 3200 3.6 70 14:31 08.02.2021
2803 Snow -2 995 86 3200 3.6 70 13:56 08.02.2021
2804 Snow -2 995 93 3200 3.6 70 13:32 08.02.2021
2805 Snow -2 995 93 1600 3.6 70 12:53 08.02.2021
2806 Snow -2 995 93 3200 2.57 80 12:34 08.02.2021
2807 Snow -2 995 93 3200 5.14 70 11:47 08.02.2021
2808 Snow -2 995 93 3200 5.66 70 11:21 08.02.2021
2809 Mist -2 995 93 3200 5.14 80 10:44 08.02.2021
2810 Snow -2 995 93 3200 5.14 80 10:24 08.02.2021
2811 Snow -2 995 93 3200 5.14 80 10:24 08.02.2021
2812 Snow -2 995 93 3200 1.54 50 09:51 08.02.2021
2813 Snow -2 995 93 10000 2.57 50 09:30 08.02.2021
2814 Snow -2 995 93 9000 1.54 50 08:41 08.02.2021
2815 Snow -2 995 93 9000 1.54 50 08:18 08.02.2021
2816 Snow -2 995 100 9000 1.01 42 07:22 08.02.2021
2817 Snow -1 995 100 10000 0.81 93 05:59 08.02.2021
2818 Clouds 1 996 86 10000 2.97 208 02:29 08.02.2021
2819 Snow 1 996 100 8000 2.97 208 01:47 08.02.2021
2820 Mist 2 995 100 8000 3.62 182 00:21 08.02.2021
2821 Mist 2 995 100 8000 3.62 182 23:49 07.02.2021
2822 Mist 2 995 100 1600 3.21 142 23:20 07.02.2021
2823 Mist 2 995 100 9000 3.21 142 22:45 07.02.2021
2824 Clouds 2 995 100 10000 2.62 134 22:26 07.02.2021
2825 Mist 2 995 100 8000 2.62 134 21:53 07.02.2021
2826 Mist 2 995 100 8000 1.78 136 21:28 07.02.2021
2827 Mist 2 995 100 1600 1.78 136 20:59 07.02.2021
2828 Mist 2 995 100 6000 1.78 136 20:40 07.02.2021
2829 Mist 2 995 100 2000 1.49 148 20:22 07.02.2021
2830 Clouds 3 995 100 10000 1.49 148 19:39 07.02.2021
2831 Clouds 3 995 93 10000 2.22 185 19:20 07.02.2021
2832 Clouds 3 995 93 10000 2.22 185 18:40 07.02.2021
2833 Clouds 3 995 93 10000 3.15 210 18:22 07.02.2021
2834 Clouds 3 995 93 10000 3.15 210 17:44 07.02.2021
2835 Clouds 3 995 93 10000 2.61 217 17:21 07.02.2021
2836 Clouds 3 995 93 10000 2.61 217 16:57 07.02.2021
2837 Clouds 3 995 93 10000 2.61 217 16:36 07.02.2021
2838 Clouds 3 995 93 10000 1.54 210 16:18 07.02.2021
2839 Clouds 4 995 100 10000 3.09 220 15:41 07.02.2021
2840 Clouds 4 995 100 10000 3.09 220 15:21 07.02.2021
2841 Clouds 4 995 100 10000 4.12 240 14:42 07.02.2021
2842 Clouds 4 995 100 10000 4.12 240 14:24 07.02.2021
2843 Clouds 4 995 100 10000 3.6 230 13:43 07.02.2021
2844 Clouds 4 995 100 10000 3.6 230 13:25 07.02.2021
2845 Clouds 4 995 100 10000 2.9 253 12:39 07.02.2021
2846 Clouds 4 995 100 10000 3.45 247 12:20 07.02.2021
2847 Clouds 4 995 100 10000 3.45 247 11:42 07.02.2021
2848 Clouds 4 995 100 10000 3.11 222 11:24 07.02.2021
2849 Mist 4 994 100 4400 3.11 222 10:30 07.02.2021
2850 Mist 4 994 100 6000 2.34 195 09:57 07.02.2021
2851 Rain 4 994 100 6000 2.34 195 09:39 07.02.2021
2852 Mist 3 994 100 8000 1.6 183 09:20 07.02.2021
2853 Rain 4 993 100 6000 1.61 162 08:19 07.02.2021
2854 Clouds 4 993 100 10000 2.37 168 06:33 07.02.2021
2855 Mist 3 994 100 5000 4.36 152 05:56 07.02.2021
2856 Rain 3 995 100 10000 5.5 117 03:39 07.02.2021
2857 Mist 3 997 100 9000 6.18 104 01:24 07.02.2021
2858 Rain 3 998 100 10000 4.61 122 00:29 07.02.2021
2859 Rain 3 997 100 10000 2.57 60 23:42 06.02.2021
2860 Clouds 3 999 100 10000 2.06 60 22:40 06.02.2021
2861 Rain 4 999 100 10000 1.54 70 21:39 06.02.2021
2862 Rain 4 999 100 10000 1.54 70 21:21 06.02.2021
2863 Mist 4 1000 100 8000 2.72 70 20:50 06.02.2021
2864 Rain 4 1000 100 8000 3.12 79 20:25 06.02.2021
2865 Rain 4 1001 100 10000 7.2 90 19:56 06.02.2021
2866 Rain 4 1000 100 1800 9.26 80 19:30 06.02.2021
2867 Rain 4 1000 100 2800 9.26 80 18:47 06.02.2021
2868 Rain 4 1001 100 3000 9.77 80 18:28 06.02.2021
2869 Mist 4 1001 100 3600 5.02 65 17:46 06.02.2021
2870 Mist 5 1002 100 2400 7.72 80 17:22 06.02.2021
2871 Mist 5 1002 100 1600 3.8 69 16:59 06.02.2021
2872 Mist 4 1002 100 3200 7.2 80 16:40 06.02.2021
2873 Mist 5 1002 100 5000 7.2 80 16:22 06.02.2021
2874 Clouds 5 1003 100 10000 6.69 80 15:45 06.02.2021
2875 Clouds 5 1003 100 10000 6.69 80 15:21 06.02.2021
2876 Clouds 5 1004 100 10000 3.13 71 14:45 06.02.2021
2877 Clouds 5 1004 100 10000 3.45 55 14:26 06.02.2021
2878 Clouds 5 1005 100 10000 3.45 55 13:49 06.02.2021
2879 Clouds 5 1005 100 10000 1.99 65 13:29 06.02.2021
2880 Clouds 5 1006 100 10000 7.2 80 12:22 06.02.2021
2881 Rain 6 1006 100 10000 6.17 70 11:57 06.02.2021
2882 Clouds 6 1006 100 10000 6.17 70 11:38 06.02.2021
2883 Clouds 5 1006 100 10000 6.69 70 11:19 06.02.2021
2884 Mist 5 1006 100 8000 2.61 76 10:42 06.02.2021
2885 Mist 5 1006 100 6000 1.54 50 10:23 06.02.2021
2886 Clouds 5 1007 100 10000 2.79 68 09:37 06.02.2021
2887 Clouds 5 1007 100 10000 2.44 59 09:18 06.02.2021
2888 Clouds 5 1007 100 10000 2.44 59 08:49 06.02.2021
2889 Clouds 5 1007 100 10000 2.43 65 08:24 06.02.2021
2890 Rain 5 1007 100 10000 2.57 62 06:40 06.02.2021
2891 Rain 6 1009 100 10000 1.94 46 04:45 06.02.2021
2892 Rain 6 1009 100 10000 0.99 17 02:39 06.02.2021
2893 Rain 6 1011 100 10000 1.7 56 00:49 06.02.2021
2894 Rain 6 1010 100 1800 1.02 51 00:21 06.02.2021
2895 Mist 6 1010 100 1000 1.02 51 23:59 05.02.2021
2896 Fog 6 1010 100 400 1.35 90 23:29 05.02.2021
2897 Fog 6 1011 100 400 1.35 90 22:49 05.02.2021
2898 Fog 6 1011 100 600 0.89 118 22:24 05.02.2021
2899 Fog 6 1011 100 400 0.89 118 21:54 05.02.2021
2900 Fog 6 1011 100 600 0.89 118 21:35 05.02.2021
2901 Mist 6 1012 100 1000 0.7 85 20:52 05.02.2021
2902 Mist 7 1012 100 1400 0.68 122 19:57 05.02.2021
2903 Clouds 7 1012 100 10000 0.77 125 19:39 05.02.2021
2904 Clouds 7 1012 100 10000 1.06 147 19:18 05.02.2021
2905 Clouds 7 1012 100 10000 1.06 147 18:38 05.02.2021
2906 Clouds 7 1012 100 10000 1.09 174 18:19 05.02.2021
2907 Clouds 7 1011 100 10000 1.09 174 17:35 05.02.2021
2908 Clouds 8 1011 93 10000 1.35 201 16:58 05.02.2021
2909 Clouds 8 1012 93 10000 1.35 201 16:39 05.02.2021
2910 Clouds 8 1012 93 10000 1.27 198 16:20 05.02.2021
2911 Clouds 8 1012 93 10000 1.27 198 15:50 05.02.2021
2912 Clouds 8 1011 93 10000 1.85 221 15:23 05.02.2021
2913 Clouds 7 1012 100 10000 1.85 221 14:39 05.02.2021
2914 Clouds 7 1012 100 10000 2.46 246 14:21 05.02.2021
2915 Drizzle 7 1012 93 10000 2.46 246 13:52 05.02.2021
2916 Rain 7 1012 93 10000 2.46 246 13:32 05.02.2021
2917 Rain 7 1012 100 10000 2.02 226 12:45 05.02.2021
2918 Rain 7 1012 100 10000 1.83 185 12:24 05.02.2021
2919 Rain 7 1012 100 10000 1.83 185 11:39 05.02.2021
2920 Rain 6 1012 100 10000 2.06 190 11:21 05.02.2021
2921 Rain 6 1012 100 10000 1.52 179 10:49 05.02.2021
2922 Rain 6 1012 100 10000 1.27 168 10:26 05.02.2021
2923 Rain 6 1011 93 10000 1.27 168 09:43 05.02.2021
2924 Clouds 6 1011 93 10000 1.43 206 09:25 05.02.2021
2925 Clouds 6 1011 93 10000 1.43 206 08:47 05.02.2021
2926 Clouds 6 1011 87 10000 1.28 168 07:52 05.02.2021
2927 Clouds 6 1011 87 10000 1.28 168 07:34 05.02.2021
2928 Clouds 5 1011 87 10000 0.53 121 06:48 05.02.2021
2929 Clouds 5 1011 93 10000 0.59 131 05:36 05.02.2021
2930 Clouds 5 1011 93 10000 0.98 123 02:52 05.02.2021
2931 Clear 5 1011 87 10000 1.24 124 02:24 05.02.2021
2932 Clouds 5 1012 87 10000 1.54 70 00:40 05.02.2021
2933 Clouds 5 1012 87 10000 1.54 70 00:20 05.02.2021
2934 Clouds 5 1012 93 10000 1.88 136 23:55 04.02.2021
2935 Clouds 5 1012 93 10000 1.88 136 23:37 04.02.2021
2936 Clouds 5 1012 93 10000 2.23 124 23:19 04.02.2021
2937 Clouds 5 1013 87 10000 2.23 124 22:49 04.02.2021
2938 Clouds 5 1013 87 10000 2.06 103 22:25 04.02.2021
2939 Clouds 5 1013 87 10000 2.06 103 21:42 04.02.2021
2940 Clouds 5 1013 87 10000 2.05 112 21:19 04.02.2021
2941 Clouds 5 1013 87 10000 2.05 112 20:48 04.02.2021
2942 Clouds 6 1013 87 10000 1.94 123 20:29 04.02.2021
2943 Clouds 6 1013 81 10000 3.09 80 19:43 04.02.2021
2944 Clouds 6 1013 81 10000 1.76 165 18:57 04.02.2021
2945 Clouds 6 1013 81 10000 1.56 148 18:26 04.02.2021
2946 Clouds 6 1013 87 10000 1.56 148 17:53 04.02.2021
2947 Clouds 6 1013 87 10000 1.56 148 17:53 04.02.2021
2948 Clouds 7 1013 81 10000 1.67 70 17:28 04.02.2021
2949 Clouds 7 1013 76 10000 1.67 70 16:57 04.02.2021
2950 Clouds 7 1014 76 10000 1.67 70 16:39 04.02.2021
2951 Clouds 8 1014 76 10000 2.43 193 16:18 04.02.2021
2952 Clear 8 1014 76 10000 2.43 193 15:40 04.02.2021
2953 Clear 8 1014 76 10000 0.87 159 15:20 04.02.2021
2954 Clear 8 1014 76 10000 0.87 159 14:48 04.02.2021
2955 Clear 8 1014 76 10000 1.28 194 14:21 04.02.2021
2956 Clouds 8 1015 71 10000 1.28 194 13:48 04.02.2021
2957 Clouds 7 1015 81 10000 1.63 194 13:28 04.02.2021
2958 Clouds 7 1015 81 10000 1.63 194 12:54 04.02.2021
2959 Clouds 7 1015 81 10000 1.87 191 11:58 04.02.2021
2960 Clouds 6 1015 87 10000 1.87 191 11:37 04.02.2021
2961 Clouds 6 1015 87 10000 2.19 195 11:18 04.02.2021
2962 Clouds 5 1015 93 10000 2.19 195 10:43 04.02.2021
2963 Clouds 4 1014 93 10000 2.09 201 09:48 04.02.2021
2964 Clouds 4 1014 93 10000 2.21 201 09:23 04.02.2021
2965 Clouds 3 1014 93 10000 2.21 201 08:59 04.02.2021
2966 Clouds 4 1014 87 10000 2.21 201 08:37 04.02.2021
2967 Clouds 4 1013 87 10000 2.18 206 08:18 04.02.2021
2968 Clouds 5 1013 87 10000 2.18 206 07:38 04.02.2021
2969 Clouds 5 1012 87 10000 2.86 217 06:54 04.02.2021
2970 Clouds 5 1012 87 10000 2.86 217 06:35 04.02.2021
2971 Clouds 5 1010 87 10000 5.66 230 03:53 04.02.2021
2972 Clouds 6 1009 81 10000 5.14 240 02:25 04.02.2021
2973 Clouds 6 1007 93 10000 6.17 240 00:35 04.02.2021
2974 Clouds 7 1005 87 10000 5.66 240 23:40 03.02.2021
2975 Rain 7 1003 87 10000 8.23 230 22:44 03.02.2021
2976 Rain 7 1002 93 10000 6.69 230 22:22 03.02.2021
2977 Rain 7 1002 93 10000 8.23 230 21:58 03.02.2021
2978 Clouds 7 1001 93 10000 10.29 220 21:37 03.02.2021
2979 Clouds 8 1000 87 10000 8.75 230 21:18 03.02.2021
2980 Clouds 8 999 87 10000 8.75 230 20:45 03.02.2021
2981 Clouds 8 999 93 10000 7.72 220 20:24 03.02.2021
2982 Clouds 9 998 87 10000 9.26 220 19:45 03.02.2021
2983 Clouds 9 998 87 10000 6.69 220 19:21 03.02.2021
2984 Rain 9 997 93 10000 7.72 220 18:48 03.02.2021
2985 Rain 8 997 93 5000 4.63 220 18:20 03.02.2021
2986 Rain 8 997 93 9000 2.57 210 17:53 03.02.2021
2987 Rain 9 997 81 3200 5.14 230 17:33 03.02.2021
2988 Clouds 9 997 87 10000 8.75 210 16:57 03.02.2021
2989 Rain 9 997 76 10000 5.66 210 16:35 03.02.2021
2990 Rain 11 997 71 10000 10.29 220 15:50 03.02.2021
2991 Clouds 10 997 76 10000 10.29 220 15:30 03.02.2021
2992 Clouds 10 996 76 10000 9.77 220 14:54 03.02.2021
2993 Clouds 10 996 76 10000 9.77 220 14:54 03.02.2021
2994 Clouds 11 996 82 10000 8.75 220 14:30 03.02.2021
2995 Clouds 10 996 93 10000 8.75 210 13:56 03.02.2021
2996 Clouds 10 996 93 9000 7.2 250 13:29 03.02.2021
2997 Clouds 10 996 93 9000 7.2 220 12:56 03.02.2021
2998 Clouds 10 996 93 10000 8.75 210 12:37 03.02.2021
2999 Clouds 10 996 100 10000 8.23 200 12:18 03.02.2021
3000 Rain 10 997 100 10000 5.14 190 11:38 03.02.2021
3001 Rain 9 997 100 5000 2.57 190 11:19 03.02.2021
3002 Clouds 9 997 100 10000 6.17 180 10:27 03.02.2021
3003 Rain 8 998 100 10000 3.09 170 09:54 03.02.2021
3004 Rain 8 998 100 9000 3.09 160 09:35 03.02.2021
3005 Rain 8 999 100 9000 3.6 200 08:55 03.02.2021
3006 Rain 8 1000 100 9000 5.14 210 08:37 03.02.2021
3007 Rain 9 1000 100 9000 4.12 200 07:54 03.02.2021
3008 Rain 9 1000 93 10000 1.54 210 06:42 03.02.2021
3009 Clouds 9 1002 87 10000 4.12 220 04:55 03.02.2021
3010 Clouds 9 1002 87 10000 4.12 220 04:37 03.02.2021
3011 Clouds 9 1002 93 10000 3.6 230 03:49 03.02.2021
3012 Clouds 9 1002 93 10000 2.06 220 02:39 03.02.2021
3013 Clouds 9 1002 93 10000 5.66 220 01:47 03.02.2021
3014 Clouds 9 1002 93 10000 7.2 220 00:24 03.02.2021
3015 Clouds 10 1002 93 10000 5.14 230 23:43 02.02.2021
3016 Clouds 9 1002 93 10000 5.14 230 23:25 02.02.2021
3017 Clouds 9 1002 100 10000 5.47 225 22:46 02.02.2021
3018 Clouds 9 1002 100 10000 5.19 229 22:20 02.02.2021
3019 Clouds 9 1002 100 5000 5.19 229 21:46 02.02.2021
3020 Clouds 9 1002 100 5000 5.19 229 21:46 02.02.2021
3021 Clouds 9 1002 100 5000 5.39 232 21:24 02.02.2021
3022 Clouds 9 1002 100 5000 5.39 232 21:24 02.02.2021
3023 Clouds 9 1002 100 5000 5.39 232 20:49 02.02.2021
3024 Clouds 9 1002 100 10000 5.86 232 20:21 02.02.2021
3025 Rain 9 1002 100 10000 5.86 232 19:55 02.02.2021
3026 Clouds 9 1002 100 10000 5.67 232 19:37 02.02.2021
3027 Clouds 9 1001 100 10000 4.8 224 19:18 02.02.2021
3028 Clouds 9 1001 100 10000 5.51 228 18:41 02.02.2021
3029 Clouds 9 1001 100 10000 4.68 220 18:22 02.02.2021
3030 Mist 10 1000 100 5000 4.68 220 17:39 02.02.2021
3031 Mist 9 1000 100 5000 4.24 231 17:21 02.02.2021
3032 Clouds 10 1000 93 3200 4.63 220 16:50 02.02.2021
3033 Clouds 10 1000 87 10000 3.09 230 16:30 02.02.2021
3034 Clouds 10 1000 93 10000 5.66 220 15:57 02.02.2021
3035 Clouds 10 1000 93 10000 5.66 220 15:57 02.02.2021
3036 Clouds 10 1000 93 10000 5.66 220 15:32 02.02.2021
3037 Clouds 10 999 100 10000 5.66 230 14:55 02.02.2021
3038 Clouds 10 999 100 10000 5.66 240 14:37 02.02.2021
3039 Clouds 9 999 100 9000 5.66 230 14:18 02.02.2021
3040 Clouds 9 999 100 10000 5.66 240 13:42 02.02.2021
3041 Clouds 9 999 100 10000 5.66 240 13:22 02.02.2021
3042 Mist 8 999 100 8000 6.35 237 12:51 02.02.2021
3043 Mist 6 999 100 3000 5.66 230 11:56 02.02.2021
3044 Mist 6 999 100 3000 3.09 230 11:38 02.02.2021
3045 Clouds 6 999 100 3200 4.63 220 11:18 02.02.2021
3046 Mist 5 1000 100 3000 3.6 200 10:43 02.02.2021
3047 Mist 5 1000 100 3000 3.6 200 10:25 02.02.2021
3048 Mist 4 1000 100 1800 2.06 200 09:45 02.02.2021
3049 Mist 4 1000 93 1600 1.54 130 09:21 02.02.2021
3050 Rain 4 1001 93 3200 3.09 190 08:38 02.02.2021
3051 Rain 4 1002 93 9000 2.06 170 07:47 02.02.2021
3052 Clouds 4 1002 100 10000 2.57 190 07:23 02.02.2021
3053 Clouds 4 1002 100 10000 3.22 196 06:40 02.02.2021
3054 Mist 3 1003 100 9000 3.66 200 05:51 02.02.2021
3055 Clouds 3 1003 93 10000 2.92 233 04:18 02.02.2021
3056 Clouds 3 1003 93 10000 2.71 242 02:25 02.02.2021
3057 Clouds 4 1002 93 10000 2.29 251 00:41 02.02.2021
3058 Clouds 4 1001 93 10000 1.92 281 23:58 01.02.2021
3059 Clouds 5 1001 100 10000 5.14 290 22:59 01.02.2021
3060 Clouds 5 1001 100 10000 5.14 290 22:39 01.02.2021
3061 Clouds 5 1001 100 10000 5.14 290 22:20 01.02.2021
3062 Clouds 5 999 100 10000 2.57 270 21:46 01.02.2021
3063 Clouds 5 999 100 10000 2.57 270 21:22 01.02.2021
3064 Clouds 5 998 100 10000 3.09 300 20:43 01.02.2021
3065 Clouds 5 998 100 10000 3.09 300 20:24 01.02.2021
3066 Mist 5 998 100 2200 2.77 284 19:49 01.02.2021
3067 Fog 5 998 100 800 1.32 273 19:21 01.02.2021
3068 Fog 5 997 100 800 2.2 282 18:58 01.02.2021
3069 Fog 5 997 100 800 1.32 273 18:39 01.02.2021
3070 Rain 5 997 100 800 1.38 224 18:21 01.02.2021
3071 Drizzle 6 996 93 2500 5.66 250 17:42 01.02.2021
3072 Clouds 5 994 100 10000 1.05 209 17:19 01.02.2021
3073 Clouds 5 994 100 10000 1.05 209 16:41 01.02.2021
3074 Clouds 5 994 100 10000 0.71 238 16:22 01.02.2021
3075 Clouds 6 994 100 3200 0.71 238 15:40 01.02.2021
3076 Clouds 5 994 100 3200 0.92 264 15:19 01.02.2021
3077 Mist 5 993 100 1800 0.92 264 14:51 01.02.2021
3078 Fog 5 993 100 800 0.48 261 14:23 01.02.2021
3079 Mist 5 993 100 400 0.48 261 13:42 01.02.2021
3080 Mist 5 993 100 4000 0.56 350 13:24 01.02.2021
3081 Mist 4 992 100 3000 0.56 350 12:44 01.02.2021
3082 Mist 4 992 100 1800 0.63 25 12:25 01.02.2021
3083 Mist 4 992 100 3200 0.63 25 11:43 01.02.2021
3084 Mist 4 992 100 3200 0.61 39 11:21 01.02.2021
3085 Drizzle 3 991 100 3200 0.61 39 10:47 01.02.2021
3086 Drizzle 3 991 100 2600 0.8 68 10:21 01.02.2021
3087 Mist 2 991 100 3200 0.8 68 09:51 01.02.2021
3088 Mist 2 990 100 6000 1.08 74 09:25 01.02.2021
3089 Clouds 2 990 100 10000 1.08 74 08:56 01.02.2021
3090 Clouds 2 990 100 10000 1.08 62 08:24 01.02.2021
3091 Clouds 2 989 100 10000 1.17 100 06:59 01.02.2021
3092 Rain 2 990 93 10000 1.68 99 04:33 01.02.2021
3093 Rain 2 991 100 10000 1.63 96 02:39 01.02.2021
3094 Rain 1 992 100 8000 1.74 94 23:57 31.01.2021
3095 Mist 1 993 100 9000 1.56 99 22:57 31.01.2021
3096 Drizzle 1 993 100 8000 1.56 99 22:37 31.01.2021
3097 Rain 1 993 100 8000 1.76 87 22:19 31.01.2021
3098 Drizzle 1 994 100 9000 1.76 87 21:46 31.01.2021
3099 Drizzle 1 994 100 9000 1.42 96 21:19 31.01.2021
3100 Drizzle 1 995 100 5000 1.42 96 20:43 31.01.2021
3101 Rain 1 995 100 5000 1.4 107 20:21 31.01.2021
3102 Drizzle 1 996 93 6000 1.4 107 19:39 31.01.2021
3103 Drizzle 1 996 93 6000 1.43 95 19:21 31.01.2021
3104 Mist 1 997 93 8000 1.43 95 18:56 31.01.2021
3105 Mist 1 997 93 6000 1.54 60 18:38 31.01.2021
3106 Drizzle 1 997 93 10000 1.48 90 18:18 31.01.2021
3107 Mist 1 997 93 6000 1.48 90 17:41 31.01.2021
3108 Drizzle 1 998 93 10000 1.23 103 17:22 31.01.2021
3109 Drizzle 1 998 93 10000 1.23 103 16:42 31.01.2021
3110 Drizzle 1 998 93 10000 1.28 99 16:22 31.01.2021
3111 Clouds 1 999 93 10000 1.28 99 15:50 31.01.2021
3112 Clouds 1 999 93 10000 2.57 60 15:28 31.01.2021
3113 Clouds 1 1000 86 10000 2.06 60 14:42 31.01.2021
3114 Clouds 1 1000 86 10000 2.06 60 14:21 31.01.2021
3115 Clouds 0 1000 93 10000 3.09 60 13:49 31.01.2021
3116 Clouds 0 1000 93 10000 3.09 60 13:26 31.01.2021
3117 Clouds 0 1001 93 10000 2.57 70 12:48 31.01.2021
3118 Clouds 0 1001 93 10000 2.57 70 12:22 31.01.2021
3119 Clouds 0 1001 93 10000 2.06 60 11:44 31.01.2021
3120 Clouds 0 1001 93 10000 2.06 60 11:24 31.01.2021
3121 Clouds -1 1001 93 10000 1.54 70 10:54 31.01.2021
3122 Clouds -1 1001 93 10000 1.54 70 10:34 31.01.2021
3123 Clouds -1 1001 93 10000 2.57 60 09:51 31.01.2021
3124 Snow -1 1001 93 10000 2.57 60 09:25 31.01.2021
3125 Snow -1 1001 93 10000 3.6 50 08:33 31.01.2021
3126 Clouds -1 1000 93 10000 2.57 50 06:57 31.01.2021
3127 Clouds -1 1000 93 10000 3.09 50 05:40 31.01.2021
3128 Clouds 0 998 93 10000 3.42 58 00:47 31.01.2021
3129 Clouds 0 999 93 10000 3.58 66 00:22 31.01.2021
3130 Clouds 0 999 93 10000 1.54 50 23:34 30.01.2021
3131 Clouds 0 998 93 10000 4.29 68 22:57 30.01.2021
3132 Snow 0 998 93 9000 4.29 68 22:30 30.01.2021
3133 Snow 0 998 93 9000 4.29 68 22:30 30.01.2021
3134 Snow 0 998 93 4400 1.54 50 21:42 30.01.2021
3135 Mist 0 998 93 6000 3.64 45 21:23 30.01.2021
3136 Snow 0 998 93 8000 3.64 45 20:50 30.01.2021
3137 Snow 0 998 93 3200 3.64 45 20:31 30.01.2021
3138 Snow 1 997 93 6000 7.2 80 19:55 30.01.2021
3139 Snow 1 997 93 6000 5.14 80 19:36 30.01.2021
3140 Snow 1 997 93 6000 5.14 80 19:18 30.01.2021
3141 Snow 1 997 100 5000 2.28 54 18:39 30.01.2021
3142 Snow 1 997 100 8000 2.5 69 18:19 30.01.2021
3143 Snow 1 996 100 6000 2.5 69 17:37 30.01.2021
3144 Rain 2 996 100 9000 2.56 71 17:18 30.01.2021
3145 Rain 2 996 100 10000 2.56 71 16:37 30.01.2021
3146 Rain 2 996 93 10000 3 79 16:19 30.01.2021
3147 Rain 4 996 100 10000 3 79 15:44 30.01.2021
3148 Rain 4 996 100 10000 3.16 79 15:22 30.01.2021
3149 Rain 4 996 100 10000 3.16 79 14:52 30.01.2021
3150 Rain 5 997 93 10000 2.85 79 14:24 30.01.2021
3151 Rain 5 997 93 10000 2.85 79 13:48 30.01.2021
3152 Rain 5 997 87 10000 2.84 85 13:20 30.01.2021
3153 Rain 5 998 87 10000 2.84 85 12:43 30.01.2021
3154 Rain 5 998 87 10000 1.56 101 12:22 30.01.2021
3155 Rain 6 999 87 10000 1.56 101 11:41 30.01.2021
3156 Rain 6 999 100 10000 0.91 192 10:56 30.01.2021
3157 Rain 6 999 93 10000 1.93 228 10:26 30.01.2021
3158 Clouds 5 999 93 10000 1.93 228 09:41 30.01.2021
3159 Clouds 5 999 93 10000 2.93 237 09:22 30.01.2021
3160 Clouds 5 999 93 10000 3.09 230 08:43 30.01.2021
3161 Clouds 5 1000 100 10000 6.69 220 07:41 30.01.2021
3162 Clouds 5 1000 100 10000 4.63 220 06:25 30.01.2021
3163 Rain 5 1001 100 10000 4.12 230 03:46 30.01.2021
3164 Rain 5 1001 100 10000 1.54 220 02:52 30.01.2021
3165 Rain 6 1001 93 10000 5.76 252 02:21 30.01.2021
3166 Clouds 6 1002 87 10000 2.06 240 00:56 30.01.2021
3167 Clouds 6 1002 81 10000 4.63 230 00:26 30.01.2021
3168 Clouds 6 1001 87 10000 5.66 240 23:54 29.01.2021
3169 Clouds 6 1001 87 10000 3.09 230 23:27 29.01.2021
3170 Clouds 6 1001 87 10000 5.09 261 22:47 29.01.2021
3171 Clouds 6 1001 87 10000 5.3 275 22:28 29.01.2021
3172 Clouds 6 1001 87 10000 4.12 240 21:59 29.01.2021
3173 Clouds 6 1000 93 10000 4.93 280 21:27 29.01.2021
3174 Clouds 6 999 100 10000 4.93 280 20:43 29.01.2021
3175 Clouds 6 999 100 10000 4.63 230 20:23 29.01.2021
3176 Clouds 6 998 100 10000 2.06 220 19:40 29.01.2021
3177 Clouds 6 998 100 10000 2.06 220 19:40 29.01.2021
3178 Clouds 6 998 100 10000 2.06 220 19:21 29.01.2021
3179 Clouds 6 998 100 10000 5.04 260 18:55 29.01.2021
3180 Rain 6 998 87 10000 5.62 255 17:50 29.01.2021
3181 Rain 6 998 87 10000 3.09 230 17:23 29.01.2021
3182 Rain 6 998 87 10000 4.63 220 16:58 29.01.2021
3183 Clouds 6 998 81 10000 6.69 230 16:38 29.01.2021
3184 Clouds 6 998 87 10000 7.2 230 16:19 29.01.2021
3185 Rain 7 998 76 10000 8.23 230 15:41 29.01.2021
3186 Rain 7 998 76 10000 8.23 230 15:41 29.01.2021
3187 Rain 8 998 76 10000 7.72 230 15:21 29.01.2021
3188 Clouds 8 998 76 10000 7.72 230 14:23 29.01.2021
3189 Clouds 8 998 81 10000 7.72 230 13:57 29.01.2021
3190 Rain 8 998 76 10000 8.23 230 13:33 29.01.2021
3191 Clouds 8 998 87 10000 7.72 230 12:48 29.01.2021
3192 Rain 8 998 87 10000 6.69 240 12:20 29.01.2021
3193 Clouds 8 998 87 10000 9.26 230 11:46 29.01.2021
3194 Rain 8 998 81 10000 7.72 240 11:18 29.01.2021
3195 Rain 8 998 81 10000 6.69 240 10:47 29.01.2021
3196 Rain 8 998 76 10000 7.2 240 10:26 29.01.2021
3197 Clouds 8 997 76 10000 8.23 240 09:44 29.01.2021
3198 Clouds 8 996 100 10000 7.72 240 08:52 29.01.2021
3199 Clouds 7 996 100 10000 7.72 240 08:28 29.01.2021
3200 Clouds 7 995 93 10000 8.75 250 07:54 29.01.2021
3201 Rain 7 995 93 10000 8.75 250 07:35 29.01.2021
3202 Rain 8 995 93 10000 8.75 230 06:58 29.01.2021
3203 Rain 9 995 100 10000 6.69 200 05:19 29.01.2021
3204 Clouds 8 1000 100 10000 5.85 218 02:48 29.01.2021
3205 Clouds 8 1003 100 10000 2.06 220 00:38 29.01.2021
3206 Clouds 8 1003 100 10000 4.5 230 00:19 29.01.2021
3207 Drizzle 8 1003 100 10000 4.5 230 23:41 28.01.2021
3208 Clouds 8 1003 100 10000 3.09 220 23:23 28.01.2021
3209 Clouds 8 1004 87 10000 3.67 227 22:45 28.01.2021
3210 Clouds 8 1004 87 10000 4.12 240 22:26 28.01.2021
3211 Clouds 8 1004 100 10000 5.14 240 21:56 28.01.2021
3212 Drizzle 8 1004 100 10000 5.14 230 21:34 28.01.2021
3213 Mist 8 1004 100 6000 1.54 240 20:57 28.01.2021
3214 Clouds 9 1004 93 10000 7.2 230 20:39 28.01.2021
3215 Clouds 9 1004 87 10000 4.63 230 20:18 28.01.2021
3216 Clouds 9 1003 87 10000 5.14 250 19:41 28.01.2021
3217 Clouds 9 1003 87 10000 5.14 250 19:23 28.01.2021
3218 Clouds 10 1003 87 10000 5.66 250 18:43 28.01.2021
3219 Clouds 10 1003 87 10000 5.66 250 18:20 28.01.2021
3220 Clouds 10 1002 93 10000 5.14 260 17:46 28.01.2021
3221 Clouds 10 1002 93 10000 5.14 260 17:27 28.01.2021
3222 Clouds 10 1002 100 10000 6.69 260 16:45 28.01.2021
3223 Clouds 10 1001 100 10000 8.23 250 16:24 28.01.2021
3224 Clouds 10 1001 100 10000 6.69 240 15:44 28.01.2021
3225 Clouds 10 1000 100 10000 7.2 240 15:20 28.01.2021
3226 Clouds 10 1000 100 10000 8.23 240 14:42 28.01.2021
3227 Rain 10 1000 100 10000 8.75 230 14:23 28.01.2021
3228 Clouds 9 1000 100 10000 2.06 240 13:49 28.01.2021
3229 Clouds 8 1000 100 10000 2.57 240 13:19 28.01.2021
3230 Clouds 8 1000 100 10000 2.57 240 12:45 28.01.2021
3231 Rain 6 1000 100 5000 6.97 246 12:21 28.01.2021
3232 Mist 6 1001 100 1600 6.97 246 11:44 28.01.2021
3233 Mist 6 1001 100 1600 6.97 246 11:44 28.01.2021
3234 Mist 5 1001 100 3600 5.02 235 11:21 28.01.2021
3235 Clouds 4 1002 100 10000 5.02 235 10:55 28.01.2021
3236 Rain 4 1002 100 350 3.6 200 10:35 28.01.2021
3237 Rain 2 1002 100 10000 3.9 209 09:59 28.01.2021
3238 Rain 2 1002 100 10000 3.9 209 09:31 28.01.2021
3239 Rain 2 1002 100 2200 3.66 189 08:57 28.01.2021
3240 Rain 2 1004 100 10000 3.66 189 08:39 28.01.2021
3241 Rain 2 1005 100 3000 3.8 185 07:48 28.01.2021
3242 Rain 2 1005 100 3000 3.14 185 07:18 28.01.2021
3243 Rain 2 1006 100 1800 3.14 185 06:44 28.01.2021
3244 Mist 2 1008 100 2200 2.29 182 04:30 28.01.2021
3245 Fog 2 1011 100 600 1.97 175 02:26 28.01.2021
3246 Fog 2 1013 100 600 2.33 190 00:29 28.01.2021
3247 Fog 2 1013 100 600 2.45 199 23:25 27.01.2021
3248 Fog 2 1013 100 600 2.45 199 22:44 27.01.2021
3249 Fog 2 1013 100 600 2.41 209 22:26 27.01.2021
3250 Fog 2 1013 100 600 2.41 209 22:26 27.01.2021
3251 Fog 1 1013 100 600 2.41 209 21:59 27.01.2021
3252 Fog 1 1013 100 600 2.41 209 21:40 27.01.2021
3253 Fog 1 1013 100 600 2.33 214 21:22 27.01.2021
3254 Fog 1 1013 100 100 2.57 220 20:41 27.01.2021
3255 Fog 1 1013 100 600 2.56 226 19:58 27.01.2021
3256 Fog 1 1013 100 100 2.06 210 19:39 27.01.2021
3257 Fog 1 1013 100 600 2.45 224 19:20 27.01.2021
3258 Fog 1 1013 100 600 2.45 224 19:20 27.01.2021
3259 Fog 1 1013 93 800 2.45 224 18:42 27.01.2021
3260 Fog 1 1013 93 800 2.34 222 18:23 27.01.2021
3261 Fog 1 1012 93 800 2.34 222 17:46 27.01.2021
3262 Fog 1 1012 93 800 2.65 229 17:26 27.01.2021
3263 Fog 1 1013 100 300 4.12 240 16:48 27.01.2021
3264 Fog 1 1012 100 300 4.12 250 16:28 27.01.2021
3265 Fog 1 1012 100 300 5.14 250 15:51 27.01.2021
3266 Fog 1 1012 100 800 4.63 240 15:32 27.01.2021
3267 Mist 0 1012 100 2200 4.63 230 14:45 27.01.2021
3268 Mist 0 1012 100 1800 5.14 240 14:22 27.01.2021
3269 Mist 0 1012 100 1200 5.14 230 13:48 27.01.2021
3270 Drizzle 0 1012 100 1500 4.63 220 13:26 27.01.2021
3271 Clouds 0 1013 100 1800 4.12 220 12:41 27.01.2021
3272 Mist 0 1013 100 1800 4.12 220 12:22 27.01.2021
3273 Drizzle 0 1013 93 3000 4.12 220 11:46 27.01.2021
3274 Clouds 0 1013 93 10000 3.6 200 11:22 27.01.2021
3275 Clouds 0 1013 93 8000 4.63 210 10:41 27.01.2021
3276 Snow -1 1012 100 2800 4.63 200 10:21 27.01.2021
3277 Snow -1 1012 100 2800 6.17 200 09:49 27.01.2021
3278 Snow -1 1013 100 1800 4.63 200 08:59 27.01.2021
3279 Snow -1 1013 100 2500 5.14 190 08:32 27.01.2021
3280 Snow -1 1013 100 2500 6.17 190 07:45 27.01.2021
3281 Snow -1 1014 100 2000 6.17 190 07:19 27.01.2021
3282 Snow -1 1014 100 1500 5.66 180 06:21 27.01.2021
3283 Snow -1 1015 100 2500 4.12 190 05:46 27.01.2021
3284 Snow -1 1017 93 1500 3.6 220 03:37 27.01.2021
3285 Clouds -1 1018 93 10000 2.06 240 02:23 27.01.2021
3286 Clouds -1 1018 93 10000 3.6 200 01:52 27.01.2021
3287 Clear -1 1018 93 10000 2.06 180 00:48 27.01.2021
3288 Clear -2 1018 93 10000 4.12 200 23:51 26.01.2021
3289 Clear -1 1018 93 10000 4.12 200 23:32 26.01.2021
3290 Clear -1 1019 93 10000 3.09 220 22:52 26.01.2021
3291 Clear -1 1019 93 10000 3.09 220 22:33 26.01.2021
3292 Clouds -1 1019 86 10000 1.54 220 21:57 26.01.2021
3293 Clear -1 1020 93 10000 4.12 230 21:39 26.01.2021
3294 Clouds -1 1019 86 10000 1.54 220 21:21 26.01.2021
3295 Clear -1 1020 93 10000 3.6 230 20:40 26.01.2021
3296 Clouds 0 1019 86 10000 2.06 220 20:21 26.01.2021
3297 Clouds 0 1019 86 10000 2.54 230 19:48 26.01.2021
3298 Clouds 0 1019 86 10000 3.16 235 19:29 26.01.2021
3299 Clouds 0 1019 80 10000 3.09 250 18:57 26.01.2021
3300 Clouds 0 1019 80 10000 3.09 250 18:37 26.01.2021
3301 Clouds 0 1019 80 10000 3.09 250 18:18 26.01.2021
3302 Clouds 1 1019 69 10000 3.09 250 17:46 26.01.2021
3303 Clouds 1 1019 69 10000 3.09 250 17:20 26.01.2021
3304 Clouds 1 1018 69 10000 3.09 240 16:41 26.01.2021
3305 Clouds 1 1018 69 10000 3.09 240 16:20 26.01.2021
3306 Clear 1 1018 65 10000 4.12 270 15:48 26.01.2021
3307 Clear 1 1018 65 10000 4.12 270 15:27 26.01.2021
3308 Clear 1 1018 69 10000 3.6 250 14:49 26.01.2021
3309 Clear 1 1018 69 10000 3.6 250 14:29 26.01.2021
3310 Clouds 1 1019 80 10000 7.2 260 13:39 26.01.2021
3311 Clear 0 1018 69 10000 3.09 250 13:21 26.01.2021
3312 Clouds 0 1018 75 10000 5.14 250 12:44 26.01.2021
3313 Clouds 0 1018 75 10000 5.14 250 12:25 26.01.2021
3314 Clouds 0 1017 75 10000 4.12 250 11:58 26.01.2021
3315 Clouds 0 1018 86 10000 7.2 270 11:38 26.01.2021
3316 Clouds 0 1017 75 10000 5.14 240 10:50 26.01.2021
3317 Clouds 0 1017 75 10000 5.14 240 10:31 26.01.2021
3318 Clouds 0 1016 75 10000 4.63 240 09:48 26.01.2021
3319 Clouds -1 1016 75 10000 4.63 240 09:28 26.01.2021
3320 Clouds 0 1015 75 10000 5.14 240 08:53 26.01.2021
3321 Clouds 0 1017 93 10000 6.69 260 08:34 26.01.2021
3322 Clouds 0 1014 80 10000 4.12 250 07:50 26.01.2021
3323 Rain 0 1014 80 10000 3.6 240 06:24 26.01.2021
3324 Clouds 0 1013 86 10000 4.63 240 05:44 26.01.2021
3325 Clouds 0 1013 86 10000 4.63 240 05:24 26.01.2021
3326 Clouds -1 1013 93 10000 3.09 240 02:57 26.01.2021
3327 Clouds -2 1012 86 10000 3.09 210 00:58 26.01.2021
3328 Clouds -1 1012 86 10000 2.73 229 23:44 25.01.2021
3329 Clouds -1 1012 86 10000 2.43 241 23:25 25.01.2021
3330 Clouds -2 1012 86 10000 2.43 241 22:40 25.01.2021
3331 Clouds -2 1012 86 10000 2 239 22:18 25.01.2021
3332 Clear -2 1011 86 10000 2.06 260 21:39 25.01.2021
3333 Clear -2 1011 80 10000 2.06 260 20:59 25.01.2021
3334 Clear -2 1011 80 10000 2.06 260 20:39 25.01.2021
3335 Clear -1 1011 80 10000 2.06 260 20:19 25.01.2021
3336 Clear -1 1009 80 10000 2.57 280 19:46 25.01.2021
3337 Clear -1 1009 80 10000 2.57 280 19:22 25.01.2021
3338 Clear -1 1008 80 10000 2.67 328 18:43 25.01.2021
3339 Clear 0 1008 80 10000 2.69 317 18:24 25.01.2021
3340 Clouds 1 1007 74 10000 2.69 317 17:44 25.01.2021
3341 Clouds 1 1007 74 10000 2.96 322 17:24 25.01.2021
3342 Rain 1 1009 86 9000 1.54 310 16:44 25.01.2021
3343 Snow 1 1007 86 9000 1.54 310 16:25 25.01.2021
3344 Clouds 1 1005 80 10000 0.51 0 15:54 25.01.2021
3345 Clouds 1 1005 80 10000 0.51 0 15:54 25.01.2021
3346 Clouds 1 1005 80 10000 0.51 0 15:34 25.01.2021
3347 Clouds 2 1004 75 10000 1.54 0 14:57 25.01.2021
3348 Clouds 2 1004 75 10000 1.54 0 14:38 25.01.2021
3349 Clouds 2 1004 75 10000 1.54 0 14:18 25.01.2021
3350 Clouds 2 1004 75 10000 1.03 0 13:40 25.01.2021
3351 Clouds 2 1004 75 10000 1.03 0 13:19 25.01.2021
3352 Clouds 1 1003 80 10000 3.67 292 12:40 25.01.2021
3353 Mist 1 1002 100 4000 3.17 279 12:18 25.01.2021
3354 Mist 1 1002 100 4000 2.53 269 11:28 25.01.2021
3355 Rain 0 1001 100 6000 2.53 269 10:49 25.01.2021
3356 Mist 0 1001 100 6000 1.67 246 10:22 25.01.2021
3357 Snow 0 1000 100 6000 1.67 246 09:52 25.01.2021
3358 Mist 0 1000 100 6000 1.1 230 09:28 25.01.2021
3359 Snow 0 999 100 6000 1.1 230 08:38 25.01.2021
3360 Mist 0 998 100 2500 3.09 260 07:57 25.01.2021
3361 Snow 0 998 100 2500 3.09 250 07:28 25.01.2021
3362 Snow 0 997 100 2300 2.06 250 06:28 25.01.2021
3363 Snow -1 996 100 1500 2.57 170 02:32 25.01.2021
3364 Snow 0 997 100 6000 3.09 180 00:42 25.01.2021
3365 Snow -1 997 100 3000 4.63 180 23:39 24.01.2021
3366 Snow 0 997 100 2200 3.6 180 23:18 24.01.2021
3367 Snow 0 997 100 1500 4.12 180 22:40 24.01.2021
3368 Snow 0 997 100 2500 5.14 170 22:18 24.01.2021
3369 Snow -1 997 100 1500 4.63 170 21:37 24.01.2021
3370 Snow -1 998 100 1200 4.12 170 21:18 24.01.2021
3371 Snow 0 998 86 5000 4.12 150 20:41 24.01.2021
3372 Clouds 0 1000 80 10000 1.54 200 20:19 24.01.2021
3373 Clouds 0 1000 80 10000 1.54 200 20:19 24.01.2021
3374 Clouds 0 1000 80 10000 1.54 200 19:48 24.01.2021
3375 Clouds 0 1000 80 10000 1.54 200 19:25 24.01.2021
3376 Clouds -1 999 80 10000 3.09 180 18:56 24.01.2021
3377 Clouds -1 999 80 10000 3.09 180 18:37 24.01.2021
3378 Clouds -1 1002 80 10000 2.28 180 18:19 24.01.2021
3379 Clouds -1 1002 80 10000 2.28 180 17:47 24.01.2021
3380 Clouds 0 1001 74 10000 1.54 0 17:20 24.01.2021
3381 Clouds 0 1001 74 10000 1.54 0 16:42 24.01.2021
3382 Clouds 0 1001 74 10000 1.54 0 16:23 24.01.2021
3383 Clouds 0 1001 74 10000 2.06 280 15:58 24.01.2021
3384 Clouds 0 1001 74 10000 2.06 280 15:40 24.01.2021
3385 Clouds 0 1001 74 10000 2.06 280 15:18 24.01.2021
3386 Clouds 1 1001 75 10000 3.09 0 14:36 24.01.2021
3387 Mist 1 1001 100 9000 1.54 0 13:42 24.01.2021
3388 Mist 1 1001 100 9000 1.54 0 13:23 24.01.2021
3389 Mist 1 1001 86 9000 2.57 290 12:43 24.01.2021
3390 Mist 0 1001 86 9000 2.57 290 12:19 24.01.2021
3391 Snow 0 1000 86 6000 2.57 300 11:49 24.01.2021
3392 Snow 0 1000 86 6000 2.57 300 11:24 24.01.2021
3393 Clouds 0 1000 86 10000 7.2 260 10:43 24.01.2021
3394 Clouds 0 1000 93 6000 6.17 260 10:18 24.01.2021
3395 Clouds 0 999 93 10000 6.69 260 09:22 24.01.2021
3396 Clouds 0 998 93 10000 6.69 260 08:56 24.01.2021
3397 Snow -1 997 93 10000 7.72 260 07:50 24.01.2021
3398 Snow 0 993 93 10000 7.2 270 02:41 24.01.2021
3399 Snow 1 993 100 2800 6.69 270 01:49 24.01.2021
3400 Snow 1 991 93 10000 6.69 270 00:25 24.01.2021
3401 Snow 1 991 100 7000 6.17 270 23:53 23.01.2021
3402 Snow 1 990 100 800 3.6 230 23:26 23.01.2021
3403 Snow 1 990 100 1200 2.57 210 22:53 23.01.2021
3404 Snow 1 990 100 1200 2.57 210 22:33 23.01.2021
3405 Mist 1 990 93 3500 1.54 170 21:53 23.01.2021
3406 Rain 1 991 100 6000 2.57 130 21:22 23.01.2021
3407 Rain 2 991 100 6000 2.57 130 20:48 23.01.2021
3408 Rain 2 991 100 6000 2.57 130 20:48 23.01.2021
3409 Rain 2 992 100 6000 2.57 130 20:25 23.01.2021
3410 Clouds 2 994 93 8000 2.57 150 19:47 23.01.2021
3411 Clouds 2 994 93 8000 2.57 150 19:24 23.01.2021
3412 Clouds 2 994 93 8000 1.54 120 18:51 23.01.2021
3413 Clouds 2 994 93 8000 1.54 120 18:28 23.01.2021
3414 Rain 3 994 87 10000 2.06 120 17:56 23.01.2021
3415 Rain 3 994 87 10000 2.06 120 17:28 23.01.2021
3416 Snow 3 992 100 8000 4.63 150 16:51 23.01.2021
3417 Snow 3 992 93 9000 3.09 160 16:32 23.01.2021
3418 Clouds 4 994 81 10000 2.45 152 15:49 23.01.2021
3419 Clouds 4 994 81 10000 3.34 174 15:27 23.01.2021
3420 Clouds 4 994 81 10000 3.34 174 14:38 23.01.2021
3421 Clouds 4 994 81 10000 4.05 185 14:19 23.01.2021
3422 Clouds 4 995 87 10000 1.54 0 13:40 23.01.2021
3423 Clouds 4 995 87 10000 1.54 0 13:22 23.01.2021
3424 Mist 3 996 93 8000 0.51 0 12:43 23.01.2021
3425 Mist 3 996 93 8000 0.51 0 12:23 23.01.2021
3426 Clouds 3 996 93 9000 4.12 190 11:35 23.01.2021
3427 Drizzle 3 996 100 7000 4.63 200 10:58 23.01.2021
3428 Rain 3 997 93 9000 4.12 210 10:26 23.01.2021
3429 Rain 2 997 100 9000 4.63 210 09:53 23.01.2021
3430 Drizzle 2 997 100 9000 5.14 210 09:28 23.01.2021
3431 Clouds 2 997 100 10000 5.14 210 08:43 23.01.2021
3432 Clouds 2 997 93 6000 5.14 220 07:48 23.01.2021
3433 Mist 2 997 100 1400 4.12 200 06:50 23.01.2021
3434 Mist 2 998 93 4300 3.6 200 03:24 23.01.2021
3435 Clouds 1 998 100 10000 3.6 260 00:33 23.01.2021
3436 Clouds 2 997 93 10000 3.6 270 23:36 22.01.2021
3437 Clouds 2 997 93 10000 3.09 300 22:45 22.01.2021
3438 Clouds 2 997 93 10000 3.09 290 22:21 22.01.2021
3439 Clouds 2 997 93 10000 3.09 280 21:45 22.01.2021
3440 Clouds 2 997 87 10000 2.06 280 21:24 22.01.2021
3441 Clouds 2 997 93 10000 2.57 290 20:51 22.01.2021
3442 Clouds 2 996 87 10000 2.06 290 20:31 22.01.2021
3443 Clouds 2 996 87 10000 2.57 300 19:48 22.01.2021
3444 Clouds 2 995 81 10000 2.06 340 19:21 22.01.2021
3445 Clouds 2 995 87 10000 2.57 310 18:48 22.01.2021
3446 Clouds 2 995 87 10000 2.06 330 18:26 22.01.2021
3447 Clouds 2 995 93 10000 2.06 340 17:56 22.01.2021
3448 Clouds 3 997 81 10000 0.69 329 17:38 22.01.2021
3449 Clouds 3 997 81 10000 1.33 351 16:56 22.01.2021
3450 Clouds 4 997 81 10000 1.33 351 16:31 22.01.2021
3451 Clouds 4 997 87 10000 1.52 322 15:53 22.01.2021
3452 Clouds 4 997 87 10000 1.24 316 15:25 22.01.2021
3453 Clouds 3 994 87 10000 1.24 316 14:43 22.01.2021
3454 Clouds 3 994 87 10000 1.27 282 14:25 22.01.2021
3455 Clouds 3 994 93 10000 1.27 282 13:46 22.01.2021
3456 Clouds 3 994 93 10000 0.86 266 13:26 22.01.2021
3457 Clouds 3 994 100 10000 0.86 266 12:40 22.01.2021
3458 Clouds 2 994 100 10000 0.56 232 12:18 22.01.2021
3459 Rain 2 994 93 10000 0.56 232 11:39 22.01.2021
3460 Rain 2 993 100 10000 0.34 151 10:48 22.01.2021
3461 Rain 2 993 100 10000 1.02 290 10:29 22.01.2021
3462 Snow 1 993 93 6000 1.02 290 09:46 22.01.2021
3463 Snow 1 993 93 6000 2.18 309 09:20 22.01.2021
3464 Rain 2 992 87 10000 2.18 309 08:45 22.01.2021
3465 Rain 2 992 87 10000 2.91 295 08:22 22.01.2021
3466 Rain 3 991 93 10000 6.14 289 07:23 22.01.2021
3467 Rain 8 988 81 10000 9.77 200 02:38 22.01.2021
3468 Rain 8 989 87 10000 9.26 200 00:37 22.01.2021
3469 Clouds 8 990 87 10000 7.2 210 23:50 21.01.2021
3470 Clouds 8 990 87 10000 7.2 210 23:29 21.01.2021
3471 Rain 8 990 87 10000 9.77 190 22:49 21.01.2021
3472 Rain 8 990 87 10000 9.77 190 22:23 21.01.2021
3473 Rain 8 990 87 10000 9.26 180 21:43 21.01.2021
3474 Rain 8 990 87 10000 9.26 180 21:20 21.01.2021
3475 Rain 8 991 93 10000 6.69 180 20:48 21.01.2021
3476 Rain 8 991 93 10000 6.69 180 20:27 21.01.2021
3477 Rain 7 993 93 10000 2.06 170 19:52 21.01.2021
3478 Rain 7 993 93 10000 2.06 170 19:29 21.01.2021
3479 Rain 6 994 87 10000 4.12 180 18:57 21.01.2021
3480 Rain 6 994 87 10000 4.12 180 18:38 21.01.2021
3481 Rain 6 994 87 10000 4.12 180 18:19 21.01.2021
3482 Clouds 7 995 70 10000 6.69 200 17:42 21.01.2021
3483 Clouds 7 995 70 10000 6.69 200 17:19 21.01.2021
3484 Clouds 6 996 70 10000 6.69 200 16:46 21.01.2021
3485 Clouds 6 996 70 10000 6.69 200 16:24 21.01.2021
3486 Clouds 7 996 70 10000 5.66 210 15:59 21.01.2021
3487 Clouds 7 996 70 10000 5.66 210 15:33 21.01.2021
3488 Clouds 6 997 65 10000 6.17 210 14:53 21.01.2021
3489 Clouds 6 997 65 10000 6.17 210 14:35 21.01.2021
3490 Clouds 6 997 75 10000 6.69 210 13:48 21.01.2021
3491 Clouds 6 997 75 10000 6.69 210 13:28 21.01.2021
3492 Clouds 5 997 81 10000 6.17 210 12:56 21.01.2021
3493 Clouds 5 997 81 10000 6.17 210 12:38 21.01.2021
3494 Clouds 5 997 81 10000 6.17 210 12:20 21.01.2021
3495 Clouds 5 997 93 10000 4.63 220 11:45 21.01.2021
3496 Clouds 5 997 93 10000 4.63 220 11:24 21.01.2021
3497 Clouds 4 996 87 10000 4.63 210 10:51 21.01.2021
3498 Clouds 4 996 87 10000 4.63 210 10:28 21.01.2021
3499 Rain 5 996 87 10000 4.63 240 09:43 21.01.2021
3500 Rain 5 996 87 10000 4.63 240 09:24 21.01.2021
3501 Rain 7 994 93 10000 8.75 240 08:44 21.01.2021
3502 Rain 8 994 93 10000 8.75 240 08:23 21.01.2021
3503 Rain 9 993 66 10000 10.8 190 07:27 21.01.2021
3504 Rain 9 993 66 10000 10.8 190 06:53 21.01.2021
3505 Clouds 8 992 61 10000 12.35 190 05:21 21.01.2021
3506 Clouds 8 994 61 10000 8.75 180 02:31 21.01.2021
3507 Clouds 7 996 66 10000 8.23 180 00:51 21.01.2021
3508 Clear 7 997 66 10000 7.2 180 23:53 20.01.2021
3509 Clear 7 997 66 10000 8.23 190 23:32 20.01.2021
3510 Clear 7 997 66 10000 8.23 190 23:32 20.01.2021
3511 Clear 7 998 66 10000 7.2 190 22:58 20.01.2021
3512 Clear 7 997 71 10000 7.72 190 22:37 20.01.2021
3513 Clear 7 998 66 10000 5.66 180 21:59 20.01.2021
3514 Clear 7 998 71 10000 7.2 190 21:41 20.01.2021
3515 Clear 7 998 66 10000 5.66 180 21:21 20.01.2021
3516 Clear 7 999 66 10000 8.23 180 20:49 20.01.2021
3517 Clear 7 999 66 10000 8.23 180 20:19 20.01.2021
3518 Clear 7 999 71 10000 6.69 190 19:45 20.01.2021
3519 Clear 7 999 71 10000 6.69 190 19:26 20.01.2021
3520 Clear 7 999 71 10000 5.14 190 18:42 20.01.2021
3521 Clear 7 999 71 10000 5.14 190 18:42 20.01.2021
3522 Clear 7 999 71 10000 5.14 190 18:18 20.01.2021
3523 Clear 7 1000 71 10000 2.57 170 17:42 20.01.2021
3524 Clear 7 1000 71 10000 2.57 170 17:23 20.01.2021
3525 Clouds 7 1000 71 10000 4.12 190 16:44 20.01.2021
3526 Clouds 8 1000 66 10000 2.57 180 15:55 20.01.2021
3527 Clear 8 1000 71 10000 5.66 190 15:36 20.01.2021
3528 Clouds 7 1001 70 10000 4.63 210 14:51 20.01.2021
3529 Clouds 7 1001 70 10000 4.63 210 14:29 20.01.2021
3530 Clear 7 1002 70 10000 3.09 220 13:59 20.01.2021
3531 Clear 6 1002 70 10000 3.09 220 13:36 20.01.2021
3532 Clear 6 1003 70 10000 2.57 230 12:54 20.01.2021
3533 Clear 6 1003 70 10000 2.57 230 12:22 20.01.2021
3534 Clouds 5 1004 70 10000 4.12 200 11:39 20.01.2021
3535 Clouds 4 1004 70 10000 4.12 200 11:19 20.01.2021
3536 Clear 4 1005 65 10000 3.09 230 10:45 20.01.2021
3537 Clear 4 1005 65 10000 3.09 230 10:22 20.01.2021
3538 Clear 3 1005 69 10000 1.54 240 09:38 20.01.2021
3539 Clear 3 1005 69 10000 1.54 240 09:18 20.01.2021
3540 Clouds 3 1005 69 10000 4.05 181 08:41 20.01.2021
3541 Clouds 3 1005 69 10000 3.75 180 08:21 20.01.2021
3542 Clear 3 1006 69 10000 2.57 220 07:38 20.01.2021
3543 Clear 2 1006 69 10000 2.57 220 07:18 20.01.2021
3544 Clouds 1 1007 69 10000 4.12 220 04:29 20.01.2021
3545 Clouds 0 1008 80 10000 2.57 230 01:51 20.01.2021
3546 Clear 0 1009 80 10000 2.57 220 00:58 20.01.2021
3547 Clouds 0 1009 86 10000 5.14 210 23:54 19.01.2021
3548 Clouds 0 1009 86 10000 5.14 210 23:35 19.01.2021
3549 Clear 0 1010 93 10000 3.6 210 22:58 19.01.2021
3550 Clear 0 1010 93 10000 3.6 210 22:40 19.01.2021
3551 Clear 0 1010 93 10000 3.6 210 22:21 19.01.2021
3552 Clouds 1 1011 93 10000 4.12 210 21:55 19.01.2021
3553 Clouds 1 1011 93 10000 4.12 210 21:35 19.01.2021
3554 Clouds 1 1011 100 10000 2.57 200 20:50 19.01.2021
3555 Clouds 1 1011 93 10000 3.6 220 20:30 19.01.2021
3556 Clouds 2 1011 100 10000 4.63 210 19:56 19.01.2021
3557 Clouds 2 1011 100 10000 4.63 210 19:56 19.01.2021
3558 Clouds 2 1011 100 10000 6.17 220 19:37 19.01.2021
3559 Clouds 2 1011 100 10000 6.17 220 19:19 19.01.2021
3560 Clouds 2 1011 100 10000 5.66 200 18:39 19.01.2021
3561 Clouds 2 1011 100 10000 5.66 190 18:21 19.01.2021
3562 Clouds 3 1012 93 10000 5.14 210 17:45 19.01.2021
3563 Clouds 3 1012 93 10000 5.66 220 17:23 19.01.2021
3564 Clouds 3 1012 93 10000 4.63 230 16:44 19.01.2021
3565 Clouds 3 1012 93 10000 4.63 230 16:24 19.01.2021
3566 Clouds 2 1011 100 10000 5.14 220 15:55 19.01.2021
3567 Clouds 2 1011 100 10000 5.14 220 15:34 19.01.2021
3568 Clouds 2 1012 100 10000 6.17 220 14:51 19.01.2021
3569 Drizzle 2 1012 100 3000 7.72 230 14:30 19.01.2021
3570 Mist 2 1012 93 3000 7.72 230 13:53 19.01.2021
3571 Mist 2 1012 93 3000 7.72 230 13:34 19.01.2021
3572 Clouds 2 1013 93 3500 8.23 220 12:58 19.01.2021
3573 Clouds 2 1013 93 3500 8.23 220 12:36 19.01.2021
3574 Rain 2 1013 86 10000 5.66 210 12:18 19.01.2021
3575 Snow 2 1013 86 10000 5.66 210 11:43 19.01.2021
3576 Snow 1 1013 86 10000 5.66 210 11:22 19.01.2021
3577 Snow 1 1013 86 6000 5.66 210 10:50 19.01.2021
3578 Snow 2 1013 86 10000 6.69 210 10:29 19.01.2021
3579 Snow 2 1013 80 10000 6.69 200 09:51 19.01.2021
3580 Clouds 2 1014 80 10000 6.17 200 09:20 19.01.2021
3581 Clouds 2 1015 86 10000 7.2 210 08:45 19.01.2021
3582 Clouds 2 1015 80 10000 6.17 210 07:58 19.01.2021
3583 Clouds 2 1016 80 10000 5.14 210 07:22 19.01.2021
3584 Clouds 2 1017 75 10000 6.17 210 04:55 19.01.2021
3585 Clouds 2 1019 86 10000 5.14 210 02:24 19.01.2021
3586 Clouds 2 1021 87 10000 4.63 220 00:47 19.01.2021
3587 Clouds 3 1021 81 10000 5.14 220 23:57 18.01.2021
3588 Clouds 3 1021 81 10000 5.14 220 23:29 18.01.2021
3589 Clouds 2 1021 93 10000 4.63 220 22:50 18.01.2021
3590 Clouds 3 1021 93 10000 4.63 220 22:24 18.01.2021
3591 Clouds 2 1021 93 10000 4.63 220 21:49 18.01.2021
3592 Clouds 2 1022 93 10000 4.63 210 21:24 18.01.2021
3593 Clouds 2 1022 93 10000 5.14 220 20:59 18.01.2021
3594 Clouds 2 1022 93 10000 5.14 210 20:38 18.01.2021
3595 Clouds 2 1022 93 10000 5.66 210 20:20 18.01.2021
3596 Clouds 2 1022 87 10000 4.63 210 19:48 18.01.2021
3597 Clouds 2 1022 87 10000 4.63 210 19:27 18.01.2021
3598 Clouds 2 1022 87 10000 4.63 220 18:44 18.01.2021
3599 Clouds 2 1022 87 10000 4.63 220 18:21 18.01.2021
3600 Clouds 2 1022 87 10000 5.14 220 17:40 18.01.2021
3601 Clouds 2 1022 87 10000 4.63 210 17:19 18.01.2021
3602 Clouds 2 1022 87 10000 5.14 220 16:46 18.01.2021
3603 Clouds 2 1022 87 10000 5.14 220 16:20 18.01.2021
3604 Clouds 2 1023 87 10000 5.66 220 15:42 18.01.2021
3605 Clouds 2 1023 87 10000 5.66 220 15:20 18.01.2021
3606 Clouds 3 1023 81 10000 5.14 230 14:43 18.01.2021
3607 Clouds 3 1023 81 10000 5.14 230 14:25 18.01.2021
3608 Clouds 2 1024 87 10000 6.17 240 13:46 18.01.2021
3609 Clouds 3 1024 87 10000 6.17 240 13:26 18.01.2021
3610 Clouds 3 1024 87 10000 5.14 240 12:52 18.01.2021
3611 Clouds 2 1024 93 10000 5.14 240 12:20 18.01.2021
3612 Clouds 2 1024 93 10000 5.14 240 12:20 18.01.2021
3613 Clouds 2 1024 93 10000 3.6 250 11:56 18.01.2021
3614 Clouds 2 1024 93 10000 3.6 230 11:37 18.01.2021
3615 Clouds 2 1024 93 10000 3.6 230 11:19 18.01.2021
3616 Clouds 1 1024 93 10000 3.6 220 10:42 18.01.2021
3617 Clouds 1 1024 100 10000 3.6 230 09:47 18.01.2021
3618 Clouds 1 1024 100 10000 2.57 230 09:27 18.01.2021
3619 Clouds 1 1024 93 10000 3.6 220 08:52 18.01.2021
3620 Clouds 1 1024 93 10000 3.6 220 08:18 18.01.2021
3621 Clouds 1 1024 93 10000 3.09 230 07:36 18.01.2021
3622 Clouds 0 1023 93 10000 2.57 210 05:35 18.01.2021
3623 Clouds 1 1024 93 10000 1.88 241 04:39 18.01.2021
3624 Clouds 0 1024 93 10000 2.57 230 04:18 18.01.2021
3625 Clouds 1 1024 80 10000 1.54 240 03:42 18.01.2021
3626 Clouds 2 1024 80 10000 1.54 240 03:20 18.01.2021
3627 Clouds 1 1023 93 10000 2.06 240 02:38 18.01.2021
3628 Clouds 2 1023 93 10000 2.57 230 01:39 18.01.2021
3629 Clouds 2 1023 93 10000 2.57 250 00:35 18.01.2021
3630 Clouds 2 1023 93 10000 4.12 240 23:49 17.01.2021
3631 Clouds 2 1023 93 10000 3.09 240 23:22 17.01.2021
3632 Clouds 2 1023 93 10000 2.57 230 22:46 17.01.2021
3633 Mist 2 1023 100 9000 2.06 240 22:22 17.01.2021
3634 Clouds 2 1022 100 10000 3.09 240 21:42 17.01.2021
3635 Clouds 2 1022 100 10000 2.06 250 21:24 17.01.2021
3636 Clouds 2 1022 100 10000 3.09 230 20:49 17.01.2021
3637 Clouds 2 1022 100 10000 3.09 230 20:31 17.01.2021
3638 Clouds 1 1022 100 10000 2.57 240 19:44 17.01.2021
3639 Drizzle 1 1022 93 10000 2.57 240 19:26 17.01.2021
3640 Rain 2 1021 93 10000 3.09 230 18:53 17.01.2021
3641 Clouds 2 1021 87 10000 2.06 230 18:28 17.01.2021
3642 Clouds 1 1021 87 10000 2.06 240 17:50 17.01.2021
3643 Clouds 1 1020 87 10000 3.08 287 17:28 17.01.2021
3644 Clouds 2 1019 81 10000 1.54 280 16:45 17.01.2021
3645 Clouds 2 1019 81 10000 1.54 280 16:25 17.01.2021
3646 Clouds 2 1019 81 10000 1.54 260 15:45 17.01.2021
3647 Clouds 2 1019 81 10000 1.54 260 15:45 17.01.2021
3648 Clouds 2 1019 81 10000 1.54 260 15:45 17.01.2021
3649 Clouds 1 1018 87 10000 1.54 250 15:26 17.01.2021
3650 Clouds 1 1018 93 10000 2.57 230 14:59 17.01.2021
3651 Clouds 1 1018 93 10000 2.57 230 14:39 17.01.2021
3652 Clouds 1 1018 86 10000 2.06 240 14:21 17.01.2021
3653 Clouds 1 1018 86 10000 2.57 220 13:41 17.01.2021
3654 Mist 0 1017 93 8000 2.87 291 13:23 17.01.2021
3655 Mist 0 1017 93 6000 2.57 260 12:44 17.01.2021
3656 Mist 0 1017 93 6000 2.57 260 12:24 17.01.2021
3657 Mist -1 1017 100 5000 2.06 288 11:26 17.01.2021
3658 Mist -1 1017 100 1800 1.54 260 10:54 17.01.2021
3659 Mist -1 1017 93 1000 2.06 288 10:36 17.01.2021
3660 Rain -2 1016 93 1400 1.99 268 10:18 17.01.2021
3661 Rain -2 1015 93 1800 1.31 231 08:59 17.01.2021
3662 Mist -3 1015 93 1800 1.31 231 08:41 17.01.2021
3663 Snow -3 1015 86 9000 0.78 218 04:39 17.01.2021
3664 Snow -3 1015 86 10000 1.32 217 04:20 17.01.2021
3665 Mist -3 1015 86 6000 1.97 179 01:37 17.01.2021
3666 Snow -3 1016 86 10000 2.06 220 00:21 17.01.2021
3667 Snow -3 1016 86 10000 2.06 210 23:54 16.01.2021
3668 Snow -4 1017 93 9000 2.06 190 23:26 16.01.2021
3669 Snow -4 1017 93 6000 1.54 190 22:58 16.01.2021
3670 Mist -4 1017 93 8000 2.57 180 22:27 16.01.2021
3671 Snow -4 1018 86 8000 2.57 180 21:58 16.01.2021
3672 Snow -4 1018 86 6000 3.6 180 21:24 16.01.2021
3673 Snow -4 1019 93 6000 3.09 190 20:53 16.01.2021
3674 Snow -4 1019 93 6000 4.12 200 20:29 16.01.2021
3675 Snow -3 1019 86 6000 3.6 210 19:50 16.01.2021
3676 Snow -3 1019 86 10000 3.09 210 19:31 16.01.2021
3677 Snow -3 1019 80 10000 2.57 200 18:48 16.01.2021
3678 Clouds -3 1020 80 10000 4.12 200 18:28 16.01.2021
3679 Clouds -2 1020 80 10000 3.09 190 17:59 16.01.2021
3680 Clouds -2 1021 74 10000 4.12 200 17:40 16.01.2021
3681 Clouds -2 1021 74 10000 4.12 200 17:21 16.01.2021
3682 Clear -2 1022 69 10000 2.57 190 16:44 16.01.2021
3683 Clear -2 1022 69 10000 2.57 190 16:21 16.01.2021
3684 Clouds -1 1022 59 10000 4.12 190 15:43 16.01.2021
3685 Clouds -1 1023 59 10000 3.09 210 14:53 16.01.2021
3686 Clouds -1 1023 59 10000 3.09 210 14:18 16.01.2021
3687 Clouds -1 1024 64 10000 2.57 180 13:47 16.01.2021
3688 Clouds -1 1024 64 10000 2.57 180 13:19 16.01.2021
3689 Clear 0 1025 64 10000 3.09 200 12:39 16.01.2021
3690 Clouds 0 1025 64 10000 2.57 190 12:20 16.01.2021
3691 Clouds -1 1025 69 10000 2.1 216 11:46 16.01.2021
3692 Clouds -1 1026 69 10000 2.06 200 11:24 16.01.2021
3693 Clouds -2 1026 74 10000 1.43 217 10:45 16.01.2021
3694 Clouds -2 1026 74 10000 0.9 217 10:19 16.01.2021
3695 Clouds -2 1026 80 10000 0.9 217 09:32 16.01.2021
3696 Clouds -2 1026 86 10000 2.06 270 08:35 16.01.2021
3697 Clouds -3 1027 86 10000 1.03 0 07:32 16.01.2021
3698 Clouds -2 1027 74 10000 0.17 229 06:43 16.01.2021
3699 Clouds -2 1027 74 10000 2.06 50 04:39 16.01.2021
3700 Clouds -2 1027 64 10000 0.86 359 02:56 16.01.2021
3701 Clouds -2 1028 69 10000 1.02 334 00:50 16.01.2021
3702 Clouds -2 1028 69 10000 0.58 344 00:28 16.01.2021
3703 Clouds -2 1028 69 10000 0.58 344 23:58 15.01.2021
3704 Clouds -2 1028 69 10000 0.95 329 23:22 15.01.2021
3705 Clouds -3 1028 69 10000 1.02 344 22:25 15.01.2021
3706 Clouds -2 1027 74 10000 1.02 344 21:46 15.01.2021
3707 Clouds -2 1027 74 10000 1.02 356 21:22 15.01.2021
3708 Clouds -2 1027 69 10000 1.02 356 20:42 15.01.2021
3709 Clouds -2 1027 69 10000 1.02 356 20:42 15.01.2021
3710 Clouds -2 1027 69 10000 1.4 18 20:22 15.01.2021
3711 Clouds -1 1027 74 10000 1.4 18 19:42 15.01.2021
3712 Clouds -1 1027 74 10000 1.94 24 19:24 15.01.2021
3713 Clear -1 1026 74 10000 1.94 24 18:45 15.01.2021
3714 Clear -1 1026 74 10000 2.02 28 18:20 15.01.2021
3715 Clouds -1 1026 69 10000 2.06 10 17:53 15.01.2021
3716 Clouds -1 1026 69 10000 2.06 10 17:27 15.01.2021
3717 Clouds 0 1026 64 10000 2.06 20 16:59 15.01.2021
3718 Clouds 0 1025 64 10000 1.54 20 16:40 15.01.2021
3719 Clouds 0 1025 64 10000 1.54 20 16:20 15.01.2021
3720 Clouds 1 1025 60 10000 5.14 30 15:37 15.01.2021
3721 Clear 0 1025 60 10000 2.57 10 15:18 15.01.2021
3722 Clouds 1 1024 55 10000 2.57 360 14:38 15.01.2021
3723 Clouds 1 1024 55 10000 2.57 360 14:18 15.01.2021
3724 Clouds 0 1024 59 10000 3.09 360 13:40 15.01.2021
3725 Clouds 0 1025 59 10000 2.06 360 13:19 15.01.2021
3726 Clouds 0 1024 59 10000 3.6 10 12:46 15.01.2021
3727 Clouds 0 1024 59 10000 3.6 10 12:25 15.01.2021
3728 Clouds -1 1024 69 10000 1.54 30 11:42 15.01.2021
3729 Clouds -1 1024 69 10000 1.54 30 11:20 15.01.2021
3730 Clouds -2 1023 74 10000 3.09 20 10:51 15.01.2021
3731 Clouds -2 1023 74 10000 3.09 20 10:22 15.01.2021
3732 Clouds -2 1023 69 10000 3.6 20 09:49 15.01.2021
3733 Clouds -3 1022 74 10000 3.6 10 09:29 15.01.2021
3734 Clear -3 1020 80 10000 6.69 40 08:29 15.01.2021
3735 Clear -3 1020 86 10000 7.2 40 07:46 15.01.2021
3736 Clear -3 1019 86 10000 7.72 40 07:24 15.01.2021
3737 Clear -3 1019 86 10000 7.72 50 06:51 15.01.2021
3738 Clouds -2 1016 93 10000 7.72 50 03:29 15.01.2021
3739 Clouds -1 1016 80 10000 5.66 60 00:55 15.01.2021
3740 Clouds -1 1016 80 10000 4.12 60 23:42 14.01.2021
3741 Clouds -1 1016 80 10000 4.12 60 22:59 14.01.2021
3742 Clouds -1 1016 80 10000 2.57 70 22:40 14.01.2021
3743 Snow -1 1016 80 10000 3.6 60 22:22 14.01.2021
3744 Snow -1 1015 80 10000 3.09 70 21:42 14.01.2021
3745 Snow -1 1015 80 10000 3.09 70 21:21 14.01.2021
3746 Snow -1 1015 80 10000 3.09 70 20:49 14.01.2021
3747 Snow -1 1015 80 10000 3.09 70 20:25 14.01.2021
3748 Snow -1 1016 86 10000 3.6 60 19:44 14.01.2021
3749 Snow -1 1016 80 10000 3.09 70 19:26 14.01.2021
3750 Clouds 0 1016 86 10000 2.57 70 18:55 14.01.2021
3751 Snow 0 1016 86 10000 2.57 70 18:27 14.01.2021
3752 Snow 0 1016 86 10000 3 96 17:46 14.01.2021
3753 Snow 0 1016 86 10000 2.22 114 17:27 14.01.2021
3754 Snow 0 1016 86 10000 2.22 114 16:43 14.01.2021
3755 Snow 0 1016 86 10000 2.73 123 16:23 14.01.2021
3756 Snow 0 1017 86 10000 2.73 123 15:45 14.01.2021
3757 Snow 0 1017 86 10000 2.4 128 14:59 14.01.2021
3758 Snow 0 1017 86 10000 2.4 128 14:39 14.01.2021
3759 Snow 0 1017 86 10000 2.01 125 14:20 14.01.2021
3760 Snow 1 1017 93 9000 2.01 125 13:53 14.01.2021
3761 Clouds 0 1018 93 10000 1.64 113 13:22 14.01.2021
3762 Snow 0 1018 80 10000 1.61 117 12:54 14.01.2021
3763 Snow 0 1018 80 10000 1.29 105 12:21 14.01.2021
3764 Snow 0 1018 80 10000 1.29 105 11:53 14.01.2021
3765 Snow 0 1018 80 10000 0.83 77 11:21 14.01.2021
3766 Snow 0 1018 86 10000 0.83 77 10:57 14.01.2021
3767 Snow 0 1018 86 10000 0.83 77 10:38 14.01.2021
3768 Snow 0 1018 93 10000 0.51 26 10:18 14.01.2021
3769 Snow 0 1017 93 10000 0.51 26 09:41 14.01.2021
3770 Snow 0 1017 93 10000 0.44 354 09:19 14.01.2021
3771 Snow 0 1017 80 10000 1.03 57 08:28 14.01.2021
3772 Snow 0 1017 86 10000 1.03 57 07:51 14.01.2021
3773 Snow 1 1016 100 8000 1.03 57 07:30 14.01.2021
3774 Snow 1 1016 100 5000 1.98 41 06:30 14.01.2021
3775 Snow 1 1016 100 4000 1.63 315 04:56 14.01.2021
3776 Clouds 3 1014 80 10000 2.44 294 23:59 13.01.2021
3777 Clouds 3 1014 80 10000 2.26 312 23:28 13.01.2021
3778 Clouds 2 1014 100 10000 2.26 312 22:48 13.01.2021
3779 Mist 2 1014 100 9000 2.22 304 22:21 13.01.2021
3780 Mist 2 1014 100 1800 1.54 250 21:43 13.01.2021
3781 Mist 2 1013 93 4400 2.57 240 21:22 13.01.2021
3782 Mist 2 1013 93 8000 2.57 240 20:51 13.01.2021
3783 Rain 2 1014 93 8000 2.57 240 20:25 13.01.2021
3784 Mist 2 1014 93 6000 2.57 240 19:49 13.01.2021
3785 Mist 2 1014 93 6000 2.57 240 19:27 13.01.2021
3786 Mist 2 1014 93 6000 3.6 230 18:51 13.01.2021
3787 Mist 2 1014 93 6000 3.6 230 18:32 13.01.2021
3788 Clouds 2 1014 93 10000 3.09 240 17:47 13.01.2021
3789 Clouds 1 1014 86 10000 3.09 240 17:18 13.01.2021
3790 Clouds 2 1015 80 10000 3.6 220 16:46 13.01.2021
3791 Clouds 2 1015 75 10000 4.63 230 16:21 13.01.2021
3792 Clouds 2 1015 75 10000 5.66 240 15:49 13.01.2021
3793 Clouds 2 1015 75 10000 3.09 240 15:29 13.01.2021
3794 Clouds 2 1016 80 10000 5.66 230 14:33 13.01.2021
3795 Clouds 2 1017 75 10000 5.66 250 13:49 13.01.2021
3796 Clouds 2 1017 75 10000 5.66 250 13:25 13.01.2021
3797 Clouds 1 1017 86 10000 3.6 230 12:46 13.01.2021
3798 Clouds 1 1017 86 10000 3.6 230 12:27 13.01.2021
3799 Clouds 1 1018 86 10000 3.6 220 11:53 13.01.2021
3800 Clouds 1 1018 86 10000 3.6 220 11:34 13.01.2021
3801 Clouds 1 1018 93 10000 4.12 220 10:50 13.01.2021
3802 Clouds 1 1018 93 10000 3.6 220 10:32 13.01.2021
3803 Clouds 0 1018 93 10000 3.6 220 09:55 13.01.2021
3804 Clouds 0 1018 93 10000 2.06 220 09:30 13.01.2021
3805 Clouds -1 1017 93 10000 2.57 220 08:51 13.01.2021
3806 Clouds -1 1017 93 10000 2.57 220 08:31 13.01.2021
3807 Mist -1 1017 93 8000 3.09 210 07:35 13.01.2021
3808 Snow -1 1017 93 10000 2.06 220 06:56 13.01.2021
3809 Clouds -1 1017 93 10000 2.06 240 04:21 13.01.2021
3810 Clear -1 1017 93 10000 2.06 240 03:48 13.01.2021
3811 Clear -1 1017 93 10000 2.06 240 03:29 13.01.2021
3812 Clear -1 1017 93 10000 1.54 250 01:44 13.01.2021
3813 Clouds 0 1016 86 10000 1.37 279 00:29 13.01.2021
3814 Clouds 1 1016 86 10000 1.54 250 23:24 12.01.2021
3815 Clouds 0 1015 86 10000 2.57 240 22:47 12.01.2021
3816 Clouds 0 1015 86 10000 2.57 240 22:25 12.01.2021
3817 Clouds 1 1014 86 10000 2.06 240 21:53 12.01.2021
3818 Clear 1 1015 86 10000 3.6 290 21:34 12.01.2021
3819 Clouds 2 1014 80 10000 2.57 260 20:53 12.01.2021
3820 Clear 1 1013 86 10000 2.06 260 20:29 12.01.2021
3821 Clouds 2 1013 80 10000 2.26 313 19:56 12.01.2021
3822 Clouds 3 1013 80 10000 2.26 313 19:37 12.01.2021
3823 Clouds 2 1011 87 10000 2.78 313 18:52 12.01.2021
3824 Clouds 3 1011 87 10000 2.89 309 18:25 12.01.2021
3825 Rain 3 1010 87 10000 1.54 280 17:55 12.01.2021
3826 Clouds 4 1009 100 10000 2.57 290 17:32 12.01.2021
3827 Clouds 4 1009 100 10000 2.57 290 16:44 12.01.2021
3828 Clouds 4 1009 100 10000 2.57 270 16:25 12.01.2021
3829 Rain 4 1008 100 10000 3.6 260 15:45 12.01.2021
3830 Rain 4 1008 100 10000 3.6 260 15:24 12.01.2021
3831 Rain 3 1007 100 10000 4.63 240 14:49 12.01.2021
3832 Clouds 3 1007 100 10000 4.63 240 14:26 12.01.2021
3833 Rain 3 1007 93 10000 5.14 220 13:55 12.01.2021
3834 Clouds 3 1007 93 10000 5.14 220 13:36 12.01.2021
3835 Rain 2 1008 100 10000 5.14 220 12:33 12.01.2021
3836 Clouds 2 1008 93 10000 4.63 220 11:45 12.01.2021
3837 Clouds 2 1008 93 10000 4.63 220 11:27 12.01.2021
3838 Rain 2 1008 100 10000 4.63 220 10:44 12.01.2021
3839 Rain 1 1008 93 10000 4.63 220 10:20 12.01.2021
3840 Snow 1 1008 93 10000 5.14 220 09:52 12.01.2021
3841 Snow 1 1008 93 10000 5.14 220 09:23 12.01.2021
3842 Snow 1 1009 93 10000 4.63 220 08:27 12.01.2021
3843 Snow 1 1009 93 9000 4.12 230 07:56 12.01.2021
3844 Snow 1 1009 93 10000 5.66 220 07:33 12.01.2021
3845 Snow 1 1011 93 9000 5.14 220 05:46 12.01.2021
3846 Mist 1 1013 93 9000 6.17 220 03:46 12.01.2021
3847 Rain 1 1013 93 9000 6.17 220 03:22 12.01.2021
3848 Mist 1 1013 93 8000 6.17 220 02:18 12.01.2021
3849 Mist 1 1015 93 9000 4.63 220 00:55 12.01.2021
3850 Clouds 1 1016 86 10000 6.17 220 23:44 11.01.2021
3851 Clouds 1 1016 86 10000 6.17 220 23:20 11.01.2021
3852 Clouds 0 1016 86 10000 4.63 220 22:47 11.01.2021
3853 Clouds 0 1017 80 10000 4.63 230 22:28 11.01.2021
3854 Clouds 0 1017 80 10000 6.17 220 21:55 11.01.2021
3855 Clouds 0 1017 80 10000 6.17 220 21:37 11.01.2021
3856 Clouds 0 1017 80 10000 6.17 220 21:18 11.01.2021
3857 Clouds 0 1018 80 10000 5.14 220 20:40 11.01.2021
3858 Clouds 0 1018 80 10000 5.14 220 20:22 11.01.2021
3859 Clouds 0 1018 80 10000 4.12 220 19:53 11.01.2021
3860 Clouds 0 1019 86 10000 5.14 220 19:24 11.01.2021
3861 Clouds 0 1019 86 10000 5.14 210 18:45 11.01.2021
3862 Clouds 0 1018 74 10000 4.63 210 18:25 11.01.2021
3863 Clouds 0 1018 74 10000 4.63 210 17:44 11.01.2021
3864 Clouds 0 1018 74 10000 4.63 210 17:26 11.01.2021
3865 Clouds 0 1018 74 10000 5.66 210 16:55 11.01.2021
3866 Clouds 0 1019 74 10000 3.6 210 16:36 11.01.2021
3867 Clouds 0 1019 74 10000 3.6 210 16:18 11.01.2021
3868 Clouds 0 1019 74 10000 3.09 210 15:44 11.01.2021
3869 Clouds 0 1019 74 10000 3.09 210 15:25 11.01.2021
3870 Clouds 0 1020 74 10000 3.6 210 14:39 11.01.2021
3871 Clouds 0 1020 80 10000 4.12 230 13:50 11.01.2021
3872 Clouds -1 1021 74 10000 4.12 240 13:25 11.01.2021
3873 Clear -1 1022 80 10000 3.6 230 12:49 11.01.2021
3874 Clear -1 1022 80 10000 3.6 230 12:30 11.01.2021
3875 Clear -3 1022 93 10000 2.06 250 11:56 11.01.2021
3876 Clear -3 1022 93 10000 2.06 250 11:27 11.01.2021
3877 Clear -4 1021 93 10000 2.14 216 10:47 11.01.2021
3878 Clear -5 1021 93 10000 1.87 199 10:25 11.01.2021
3879 Clear -5 1022 93 10000 1.87 199 09:43 11.01.2021
3880 Clear -6 1022 93 10000 1.65 194 09:21 11.01.2021
3881 Clear -6 1021 86 10000 1.65 194 08:45 11.01.2021
3882 Clear -6 1021 86 10000 1.23 201 08:19 11.01.2021
3883 Clear -6 1021 93 10000 0.87 205 07:29 11.01.2021
3884 Clear -6 1022 93 10000 0.87 205 06:59 11.01.2021
3885 Clear -6 1022 93 10000 0.71 206 06:23 11.01.2021
3886 Clear -6 1022 86 10000 0.22 103 01:46 11.01.2021
3887 Clear -6 1023 93 10000 0.64 82 00:38 11.01.2021
3888 Clear -5 1023 86 10000 0.89 39 23:43 10.01.2021
3889 Clear -5 1023 86 10000 0.96 26 22:49 10.01.2021
3890 Clear -5 1023 86 10000 0.83 102 22:27 10.01.2021
3891 Clear -5 1023 86 10000 0.83 102 21:46 10.01.2021
3892 Clear -5 1023 86 10000 1.02 84 21:22 10.01.2021
3893 Clear -4 1023 80 10000 1.02 84 20:57 10.01.2021
3894 Clear -4 1023 80 10000 1.02 84 20:37 10.01.2021
3895 Clear -4 1023 80 10000 1.12 66 20:19 10.01.2021
3896 Clear -3 1023 69 10000 1.12 66 19:38 10.01.2021
3897 Clear -3 1023 69 10000 1.4 61 19:20 10.01.2021
3898 Clouds -3 1023 74 10000 1.4 61 18:43 10.01.2021
3899 Clouds -2 1023 74 10000 1.59 52 18:20 10.01.2021
3900 Clouds -1 1023 69 10000 1.89 40 17:23 10.01.2021
3901 Clouds 0 1023 64 10000 1.89 40 16:46 10.01.2021
3902 Clouds 0 1023 64 10000 2.18 32 16:27 10.01.2021
3903 Clouds 0 1023 69 10000 2.18 32 15:39 10.01.2021
3904 Clouds 0 1023 69 10000 2.72 40 15:20 10.01.2021
3905 Clouds 0 1024 75 10000 2.72 40 14:40 10.01.2021
3906 Clouds 0 1024 75 10000 2.83 36 14:22 10.01.2021
3907 Clouds 1 1023 75 10000 2.83 36 13:39 10.01.2021
3908 Clouds 0 1024 80 10000 2.38 29 13:20 10.01.2021
3909 Clouds 0 1024 80 10000 2.38 29 12:51 10.01.2021
3910 Clouds 0 1024 80 10000 2.85 35 12:33 10.01.2021
3911 Mist 0 1023 100 2800 2.31 46 11:55 10.01.2021
3912 Mist -1 1023 100 2800 1.79 36 11:20 10.01.2021
3913 Mist -1 1023 100 2800 1.79 36 10:51 10.01.2021
3914 Snow -1 1023 100 1600 1.54 50 10:24 10.01.2021
3915 Snow -1 1023 100 1600 1.54 50 09:45 10.01.2021
3916 Mist -2 1023 100 4800 1.19 43 08:38 10.01.2021
3917 Snow -1 1023 100 2400 1.27 52 07:46 10.01.2021
3918 Mist -2 1023 86 8000 1.03 67 06:22 10.01.2021
3919 Mist -2 1023 100 3200 1.54 60 05:46 10.01.2021
3920 Mist -2 1023 100 3200 1.54 60 05:27 10.01.2021
3921 Mist -2 1024 93 4000 1.13 49 01:42 10.01.2021
3922 Mist -2 1026 100 4800 1.24 46 00:21 10.01.2021
3923 Mist -2 1026 86 8000 1.24 46 23:41 09.01.2021
3924 Mist -2 1026 86 8000 1.34 24 23:20 09.01.2021
3925 Mist -1 1025 86 8000 0.99 64 22:22 09.01.2021
3926 Mist -1 1025 86 8000 0.99 64 21:59 09.01.2021
3927 Mist -1 1025 86 8000 0.99 64 21:59 09.01.2021
3928 Mist -1 1025 86 8000 0.99 64 21:39 09.01.2021
3929 Mist -1 1025 86 8000 1.51 63 21:21 09.01.2021
3930 Mist -1 1025 86 9000 1.51 63 20:56 09.01.2021
3931 Mist -1 1025 86 9000 1.51 63 20:36 09.01.2021
3932 Clouds -1 1025 86 10000 1.94 40 19:40 09.01.2021
3933 Clouds -1 1024 86 10000 2.2 39 19:21 09.01.2021
3934 Clouds -1 1022 80 10000 1.65 48 18:38 09.01.2021
3935 Clouds -1 1022 80 10000 2.3 49 18:19 09.01.2021
3936 Clouds -1 1022 80 10000 2.3 49 17:43 09.01.2021
3937 Clouds -1 1022 80 10000 2.92 52 17:23 09.01.2021
3938 Clouds 0 1022 74 10000 2.92 52 16:31 09.01.2021
3939 Clouds 1 1021 69 10000 1.54 60 15:47 09.01.2021
3940 Clouds 1 1021 69 10000 1.54 60 15:28 09.01.2021
3941 Clouds 1 1021 75 10000 3.88 43 14:40 09.01.2021
3942 Clouds 1 1021 75 10000 4.07 39 14:20 09.01.2021
3943 Clouds 1 1021 69 10000 2.06 50 13:47 09.01.2021
3944 Clear 0 1021 74 10000 3.72 46 13:29 09.01.2021
3945 Clouds 0 1021 74 10000 2.57 40 12:48 09.01.2021
3946 Clouds 0 1022 74 10000 2.57 30 12:22 09.01.2021
3947 Clouds 0 1022 80 10000 4 47 11:55 09.01.2021
3948 Clouds -1 1022 86 10000 4 47 11:30 09.01.2021
3949 Clouds -1 1021 80 10000 3.49 44 10:52 09.01.2021
3950 Clouds -1 1021 80 10000 3.49 44 10:30 09.01.2021
3951 Clouds -1 1021 80 10000 2.49 31 09:53 09.01.2021
3952 Clouds -1 1021 80 10000 1.48 32 09:29 09.01.2021
3953 Clouds -1 1020 80 10000 1.48 32 08:35 09.01.2021
3954 Snow -1 1020 86 10000 1.54 18 06:58 09.01.2021
3955 Snow -1 1020 86 10000 1.25 27 06:40 09.01.2021
3956 Clouds -1 1019 74 10000 1.54 25 04:50 09.01.2021
3957 Clouds -1 1019 80 10000 1.58 18 03:22 09.01.2021
3958 Clear -2 1019 80 10000 1.58 18 02:31 09.01.2021
3959 Clear -1 1019 74 10000 1.2 16 01:46 09.01.2021
3960 Clouds 0 1018 86 10000 1.47 35 00:37 09.01.2021
3961 Clouds 0 1018 93 10000 1.45 32 23:59 08.01.2021
3962 Clouds 0 1018 93 10000 1.07 27 23:19 08.01.2021
3963 Snow 0 1017 86 10000 0.73 359 22:19 08.01.2021
3964 Snow 0 1017 93 8000 3.09 270 21:46 08.01.2021
3965 Snow 0 1017 93 5000 3.09 270 20:57 08.01.2021
3966 Snow 0 1016 86 10000 1.26 275 20:26 08.01.2021
3967 Snow 0 1016 86 10000 1.26 275 19:56 08.01.2021
3968 Clouds 0 1016 86 10000 2.2 273 19:22 08.01.2021
3969 Snow 0 1016 86 10000 1.54 250 18:48 08.01.2021
3970 Clouds 0 1015 86 10000 2.06 250 18:20 08.01.2021
3971 Clouds 0 1015 86 10000 2.06 250 17:48 08.01.2021
3972 Snow 0 1015 86 10000 4.12 270 17:22 08.01.2021
3973 Snow 0 1014 80 9000 2.06 260 16:35 08.01.2021
3974 Snow 0 1014 80 9000 2.06 260 15:44 08.01.2021
3975 Snow 0 1014 86 10000 2.57 260 15:18 08.01.2021
3976 Snow 0 1014 86 10000 2.57 260 14:36 08.01.2021
3977 Snow 0 1014 86 8000 3.09 250 13:47 08.01.2021
3978 Snow 0 1014 86 10000 6.17 260 13:21 08.01.2021
3979 Snow 0 1014 86 8000 6.69 270 12:49 08.01.2021
3980 Snow 0 1014 80 8000 4.63 260 12:20 08.01.2021
3981 Snow 0 1014 80 8000 4.63 260 11:46 08.01.2021
3982 Snow 0 1014 80 8000 4.63 260 11:28 08.01.2021
3983 Snow 0 1013 80 8000 3.09 240 10:53 08.01.2021
3984 Snow 0 1013 80 8000 3.09 240 10:35 08.01.2021
3985 Snow 0 1013 80 10000 4.12 240 09:53 08.01.2021
3986 Snow -1 1013 80 10000 4.12 240 09:31 08.01.2021
3987 Snow -1 1012 86 8000 4.12 240 08:39 08.01.2021
3988 Snow -1 1012 86 9000 4.12 240 07:29 08.01.2021
3989 Snow 0 1012 80 8000 4.12 240 06:21 08.01.2021
3990 Snow 0 1012 93 9000 3.6 230 00:24 08.01.2021
3991 Snow 0 1012 86 10000 3.6 230 23:41 07.01.2021
3992 Rain 0 1012 86 10000 3.09 230 22:47 07.01.2021
3993 Snow 0 1012 93 10000 3.6 230 22:26 07.01.2021
3994 Snow 0 1012 86 10000 2.57 220 21:49 07.01.2021
3995 Clouds 0 1012 93 10000 3.09 220 21:27 07.01.2021
3996 Clouds 0 1012 86 10000 4.12 230 20:48 07.01.2021
3997 Clouds 0 1012 86 10000 4.12 230 20:29 07.01.2021
3998 Mist 0 1012 93 9000 3.6 230 19:47 07.01.2021
3999 Snow 0 1012 93 4400 3.6 230 19:23 07.01.2021
4000 Clouds 0 1012 93 10000 2.06 230 18:46 07.01.2021
4001 Snow 0 1012 93 10000 2.06 230 18:20 07.01.2021
4002 Snow 0 1012 93 10000 3.09 230 17:32 07.01.2021
4003 Snow 0 1012 93 10000 3.6 240 16:55 07.01.2021
4004 Rain 0 1012 93 9000 3.09 230 16:32 07.01.2021
4005 Snow 0 1012 93 3200 3.09 230 15:48 07.01.2021
4006 Snow 0 1012 93 3200 3.09 230 15:30 07.01.2021
4007 Snow 0 1012 86 3200 4.12 220 14:31 07.01.2021
4008 Snow 0 1012 86 3200 4.63 240 13:58 07.01.2021
4009 Rain 0 1012 80 10000 4.63 220 13:30 07.01.2021
4010 Snow 0 1012 80 8000 3.6 220 12:55 07.01.2021
4011 Clouds 0 1014 87 6000 5.7 260 12:23 07.01.2021
4012 Clouds 0 1014 87 7000 5.7 250 11:43 07.01.2021
4013 Clouds 0 1014 93 7000 5.7 250 11:25 07.01.2021
4014 Clouds 0 1013 100 6000 3.6 250 10:38 07.01.2021
4015 Clouds 0 1013 86 10000 2.6 230 10:19 07.01.2021
4016 Clouds -1 1013 86 10000 2.6 230 09:41 07.01.2021
4017 Clouds -1 1013 86 10000 2.1 230 08:53 07.01.2021
4018 Clouds 0 1013 86 10000 2.1 230 08:24 07.01.2021
4019 Clouds 0 1013 86 10000 2.1 240 07:43 07.01.2021
4020 Clouds 0 1013 86 10000 1.5 230 06:51 07.01.2021
4021 Snow 0 1013 98 10000 1.53 257 03:18 07.01.2021
4022 Clouds 0 1013 97 10000 1.5 260 00:25 07.01.2021
4023 Clouds 0 1013 97 10000 0.87 246 23:35 06.01.2021
4024 Clouds 0 1013 97 10000 0.63 251 22:37 06.01.2021
4025 Clouds 1 1014 74 10000 0.41 285 21:42 06.01.2021
4026 Clouds 1 1014 74 10000 0.47 308 21:22 06.01.2021
4027 Clouds 1 1014 74 10000 0.47 308 20:50 06.01.2021
4028 Clouds 1 1014 74 10000 0.74 327 20:23 06.01.2021
4029 Clouds 1 1013 74 10000 0.74 327 19:49 06.01.2021
4030 Clouds 1 1013 74 10000 0.87 338 19:29 06.01.2021
4031 Clouds 1 1013 74 10000 0.87 338 18:55 06.01.2021
4032 Clouds 1 1013 69 10000 0.93 339 18:36 06.01.2021
4033 Clouds 1 1013 74 10000 0.7 343 18:18 06.01.2021
4034 Clouds 1 1013 80 10000 0.7 343 17:41 06.01.2021
4035 Clouds 1 1013 86 10000 0.92 359 17:21 06.01.2021
4036 Clouds 1 1013 86 10000 0.92 359 16:40 06.01.2021
4037 Clouds 1 1013 86 10000 1 23 16:19 06.01.2021
4038 Rain 1 1013 86 10000 1 23 15:50 06.01.2021
4039 Rain 1 1013 86 10000 1 23 15:50 06.01.2021
4040 Rain 1 1013 86 10000 1.81 29 15:26 06.01.2021
4041 Clouds 1 1012 86 10000 1.81 29 14:42 06.01.2021
4042 Clouds 2 1012 80 10000 2.11 25 14:19 06.01.2021
4043 Clouds 2 1013 90 10000 2.6 20 13:42 06.01.2021
4044 Clouds 1 1013 86 10000 1.93 19 13:21 06.01.2021
4045 Clouds 1 1013 86 10000 2.56 21 12:47 06.01.2021
4046 Clouds 1 1013 86 10000 2.54 20 11:51 06.01.2021
4047 Clouds 1 1013 86 10000 2.24 18 11:25 06.01.2021
4048 Clouds 1 1013 86 10000 2.24 18 10:56 06.01.2021
4049 Clouds 1 1013 91 10000 2.11 29 10:18 06.01.2021
4050 Clouds 1 1013 86 10000 2.11 29 09:47 06.01.2021
4051 Clouds 1 1013 86 10000 2.4 37 08:57 06.01.2021
4052 Snow 1 1012 86 10000 2.6 40 08:30 06.01.2021
4053 Clouds 0 1012 91 10000 2.1 40 07:54 06.01.2021
4054 Snow 0 1012 91 8000 2.6 40 06:46 06.01.2021
4055 Snow 0 1012 91 10000 1.5 30 05:33 06.01.2021
4056 Snow 1 1012 86 10000 1.5 30 04:34 06.01.2021
4057 Clouds 1 1012 86 10000 3.05 23 02:47 06.01.2021
4058 Clouds 1 1012 86 10000 3.21 24 02:23 06.01.2021
4059 Clouds 1 1013 86 10000 2.1 50 00:34 06.01.2021
4060 Clouds 1 1013 86 10000 2.1 30 23:31 05.01.2021
4061 Clouds 1 1013 86 10000 2.1 30 22:44 05.01.2021
4062 Clouds 1 1013 86 10000 2.6 50 22:21 05.01.2021
4063 Clouds 1 1013 86 10000 2.6 50 21:56 05.01.2021
4064 Clouds 1 1013 86 10000 2.6 30 20:58 05.01.2021
4065 Clouds 1 1013 86 10000 1.5 50 20:27 05.01.2021
4066 Clouds 1 1013 86 10000 3.05 44 19:44 05.01.2021
4067 Clouds 1 1013 86 10000 3.1 50 19:21 05.01.2021
4068 Clouds 1 1013 86 10000 3.1 50 18:45 05.01.2021
4069 Clouds 1 1013 86 10000 3.1 50 18:26 05.01.2021
4070 Clouds 1 1013 86 10000 2.6 50 17:52 05.01.2021
4071 Clouds 1 1013 86 10000 2.6 50 17:31 05.01.2021
4072 Clouds 1 1012 86 10000 4.1 40 16:53 05.01.2021
4073 Clouds 1 1012 86 10000 3.1 40 16:23 05.01.2021
4074 Clouds 1 1012 86 10000 3.1 40 15:58 05.01.2021
4075 Clouds 1 1012 86 10000 3.1 40 15:34 05.01.2021
4076 Clouds 1 1012 86 10000 3.49 34 14:47 05.01.2021
4077 Clouds 1 1012 87 10000 3.36 40 13:55 05.01.2021
4078 Rain 1 1013 80 10000 1.5 40 13:36 05.01.2021
4079 Snow 1 1013 80 10000 2.1 40 13:18 05.01.2021
4080 Rain 1 1013 80 10000 2.6 30 12:46 05.01.2021
4081 Clouds 1 1013 80 10000 1.5 40 12:18 05.01.2021
4082 Clouds 1 1013 86 10000 1.5 50 11:30 05.01.2021
4083 Clouds 1 1013 86 10000 1.5 50 11:30 05.01.2021
4084 Clouds 1 1013 88 10000 2.1 60 10:45 05.01.2021
4085 Clouds 1 1013 89 10000 3.98 45 10:19 05.01.2021
4086 Clouds 1 1013 89 10000 1.5 50 09:45 05.01.2021
4087 Clouds 0 1013 91 10000 1.5 50 09:25 05.01.2021
4088 Clouds 0 1012 91 10000 2.6 50 08:19 05.01.2021
4089 Clouds 0 1012 91 10000 3.6 50 05:38 05.01.2021
4090 Clouds 0 1012 91 10000 3.6 40 03:40 05.01.2021
4091 Clouds 0 1011 93 10000 5.1 40 00:28 05.01.2021
4092 Clouds 0 1011 93 10000 4.6 40 23:43 04.01.2021
4093 Clouds 0 1011 93 10000 4.6 40 23:24 04.01.2021
4094 Clouds 0 1011 93 10000 4.6 50 22:46 04.01.2021
4095 Clouds 0 1011 93 10000 4.6 50 22:46 04.01.2021
4096 Clouds 0 1012 92 10000 2.6 40 22:21 04.01.2021
4097 Clouds 0 1012 92 10000 2.6 30 21:44 04.01.2021
4098 Clouds 0 1012 92 10000 2.6 30 21:24 04.01.2021
4099 Clouds 0 1012 92 10000 2.1 40 20:43 04.01.2021
4100 Clouds 0 1012 91 10000 2.6 50 20:22 04.01.2021
4101 Clouds 0 1012 91 10000 2.6 50 19:48 04.01.2021
4102 Clouds 0 1012 91 10000 3.6 40 19:24 04.01.2021
4103 Clouds 0 1012 91 10000 2.1 40 18:48 04.01.2021
4104 Clouds 0 1012 91 10000 2.6 50 18:23 04.01.2021
4105 Clouds 0 1012 91 10000 2.1 40 17:41 04.01.2021
4106 Clouds 0 1012 89 10000 2.6 40 17:22 04.01.2021
4107 Clouds 0 1012 89 10000 2.6 40 16:46 04.01.2021
4108 Clouds 1 1012 86 10000 2.6 40 16:26 04.01.2021
4109 Clouds 1 1012 86 10000 1.5 40 15:49 04.01.2021
4110 Clouds 0 1012 85 10000 2.1 30 15:27 04.01.2021
4111 Clouds 1 1012 85 10000 2.1 30 15:27 04.01.2021
4112 Clouds 1 1012 85 10000 2.1 30 14:34 04.01.2021
4113 Clouds 0 1012 86 10000 2.1 50 13:46 04.01.2021
4114 Clouds 0 1013 85 10000 2.1 50 13:23 04.01.2021
4115 Clouds 0 1013 85 10000 2.1 50 12:38 04.01.2021
4116 Clouds 0 1013 85 10000 2.6 40 11:58 04.01.2021
4117 Clouds 0 1013 89 10000 2.6 40 11:22 04.01.2021
4118 Clouds 0 1013 89 10000 3.1 50 10:49 04.01.2021
4119 Clouds 0 1013 93 10000 3.1 50 10:28 04.01.2021
4120 Clouds 0 1013 93 10000 2.1 50 09:53 04.01.2021
4121 Mist 0 1013 92 8000 2.1 50 09:20 04.01.2021
4122 Snow 0 1012 96 9000 2.1 50 08:46 04.01.2021
4123 Snow 0 1012 96 6000 2.1 50 08:18 04.01.2021
4124 Snow 0 1012 96 6000 2.1 50 07:42 04.01.2021
4125 Snow 0 1011 98 8000 1.5 40 05:33 04.01.2021
4126 Snow 0 1011 98 6000 3.1 50 04:30 04.01.2021
4127 Rain 0 1012 96 10000 1.93 22 00:48 04.01.2021
4128 Clouds 0 1012 96 10000 1.95 21 23:49 03.01.2021
4129 Clouds 0 1012 92 10000 2.26 22 23:25 03.01.2021
4130 Clouds 0 1012 92 10000 2.26 22 22:56 03.01.2021
4131 Clouds 0 1012 92 10000 2.26 22 22:33 03.01.2021
4132 Rain 0 1012 91 10000 2.45 21 21:57 03.01.2021
4133 Rain 0 1012 91 10000 2.46 26 21:29 03.01.2021
4134 Clouds 0 1012 91 10000 2.46 26 20:50 03.01.2021
4135 Clouds 0 1012 91 10000 2.46 26 20:32 03.01.2021
4136 Clouds 0 1011 91 10000 2.2 31 19:58 03.01.2021
4137 Clouds 0 1011 91 10000 2.2 31 19:35 03.01.2021
4138 Clouds 0 1011 92 10000 2.05 34 18:58 03.01.2021
4139 Rain 1 1011 80 10000 2.05 34 18:39 03.01.2021
4140 Rain 1 1011 80 10000 2.01 33 18:20 03.01.2021
4141 Clouds 1 1011 80 10000 2.01 33 17:48 03.01.2021
4142 Clouds 1 1011 80 10000 1.5 10 17:23 03.01.2021
4143 Snow 1 1011 80 10000 1.5 10 16:44 03.01.2021
4144 Clouds 1 1011 80 10000 1.5 350 16:20 03.01.2021
4145 Clouds 1 1011 80 10000 2.1 10 15:48 03.01.2021
4146 Clouds 1 1011 80 10000 2.1 10 15:29 03.01.2021
4147 Clouds 0 1011 80 10000 3.25 34 14:58 03.01.2021
4148 Clouds 0 1011 80 10000 3.25 34 14:31 03.01.2021
4149 Clouds 0 1011 79 10000 3.42 34 13:47 03.01.2021
4150 Clouds 0 1011 80 10000 3.45 36 13:23 03.01.2021
4151 Clouds 0 1011 80 10000 3.45 36 12:50 03.01.2021
4152 Clouds 0 1011 83 10000 3.77 34 11:43 03.01.2021
4153 Clouds 0 1011 85 10000 3.6 35 11:24 03.01.2021
4154 Clouds 0 1011 85 10000 3.6 35 10:55 03.01.2021
4155 Clouds 0 1011 88 10000 3.31 30 10:30 03.01.2021
4156 Clouds 0 1011 88 10000 3.31 30 09:42 03.01.2021
4157 Clouds 0 1011 90 10000 2.91 30 09:23 03.01.2021
4158 Clouds 0 1011 90 10000 3.39 42 07:58 03.01.2021
4159 Clouds 0 1011 91 10000 3.58 35 06:25 03.01.2021
4160 Clouds 0 1011 97 10000 2.15 20 02:45 03.01.2021
4161 Clouds 0 1011 97 10000 2.03 20 02:20 03.01.2021
4162 Clouds 0 1011 97 10000 2.08 21 00:25 03.01.2021
4163 Clouds 0 1012 97 10000 2.08 21 23:32 02.01.2021
4164 Clouds 0 1012 97 10000 1.97 22 22:59 02.01.2021
4165 Clouds 0 1012 97 10000 1.97 22 22:33 02.01.2021
4166 Clouds 0 1012 97 10000 1.89 30 21:59 02.01.2021
4167 Clouds 0 1012 97 10000 1.89 30 21:38 02.01.2021
4168 Clouds 0 1012 96 10000 1.76 40 21:20 02.01.2021
4169 Clouds 0 1012 96 10000 1.76 40 20:41 02.01.2021
4170 Mist -1 1012 100 6000 1.53 54 20:21 02.01.2021
4171 Mist 0 1012 100 6000 1.53 54 19:43 02.01.2021
4172 Mist 0 1012 100 8000 1.77 39 19:20 02.01.2021
4173 Fog 0 1012 100 600 1.77 39 18:43 02.01.2021
4174 Fog 0 1012 100 600 1.8 53 18:25 02.01.2021
4175 Mist -1 1012 100 1400 1.8 53 17:46 02.01.2021
4176 Mist -1 1012 100 1400 2.01 46 17:26 02.01.2021
4177 Clouds 0 1012 88 10000 2.01 46 16:42 02.01.2021
4178 Fog 0 1012 80 400 2.11 40 16:21 02.01.2021
4179 Mist 0 1012 80 1600 2.11 40 15:43 02.01.2021
4180 Mist 0 1012 75 1600 2.39 35 15:25 02.01.2021
4181 Clouds 0 1012 100 10000 2.39 35 14:39 02.01.2021
4182 Clouds 0 1012 100 10000 2.24 26 14:21 02.01.2021
4183 Clouds 0 1012 100 7000 3.1 40 13:40 02.01.2021
4184 Clouds 0 1012 100 7000 3.1 40 13:40 02.01.2021
4185 Clouds 0 1013 92 10000 2.1 17 12:54 02.01.2021
4186 Clouds 0 1013 92 10000 2.91 37 12:32 02.01.2021
4187 Clouds -1 1013 92 10000 2.59 20 11:59 02.01.2021
4188 Clouds -1 1013 92 10000 1.22 352 11:26 02.01.2021
4189 Clouds -1 1013 92 10000 1.22 352 10:58 02.01.2021
4190 Clouds -2 1013 92 10000 1.22 352 10:34 02.01.2021
4191 Clouds -2 1013 92 10000 0.38 338 09:59 02.01.2021
4192 Clouds -2 1013 92 10000 0.38 338 09:39 02.01.2021
4193 Clouds -3 1013 92 10000 0.75 9 09:19 02.01.2021
4194 Mist -3 1012 92 9000 0.75 9 08:41 02.01.2021
4195 Mist -3 1012 92 2600 1.13 355 08:19 02.01.2021
4196 Fog -3 1012 92 600 1.12 344 07:24 02.01.2021
4197 Fog -3 1012 92 600 1.12 344 06:57 02.01.2021
4198 Fog -3 1012 92 400 0.89 351 05:57 02.01.2021
4199 Fog -2 1012 92 400 0.8 2 02:52 02.01.2021
4200 Fog -1 1011 92 600 0.68 29 00:43 02.01.2021
4201 Fog -1 1011 92 600 0.72 29 00:23 02.01.2021
4202 Clouds -1 1011 92 10000 0.72 29 23:39 01.01.2021
4203 Clouds -1 1011 100 10000 0.82 28 23:19 01.01.2021
4204 Clouds 0 1011 92 10000 0.82 28 22:46 01.01.2021
4205 Clouds 0 1011 100 10000 0.88 19 22:21 01.01.2021
4206 Clouds 0 1011 100 10000 0.88 19 21:43 01.01.2021
4207 Clouds 0 1010 92 10000 0.9 359 21:20 01.01.2021
4208 Clouds 0 1010 93 10000 0.9 359 20:51 01.01.2021
4209 Clouds 0 1009 93 10000 0.33 333 20:19 01.01.2021
4210 Clouds 0 1009 93 10000 0.33 333 19:42 01.01.2021
4211 Clouds 0 1009 94 10000 0.32 198 19:23 01.01.2021
4212 Mist 0 1009 94 9000 0.32 198 18:49 01.01.2021
4213 Mist 0 1009 94 9000 0.32 198 18:31 01.01.2021
4214 Mist 1 1009 90 9000 0.8 174 17:59 01.01.2021
4215 Mist 1 1009 90 9000 0.8 174 17:41 01.01.2021
4216 Clouds 1 1008 92 10000 0.89 175 17:18 01.01.2021
4217 Mist 1 1008 92 9000 0.89 175 16:37 01.01.2021
4218 Snow 1 1008 86 10000 0.49 216 15:45 01.01.2021
4219 Clouds 1 1008 81 10000 0.64 273 14:56 01.01.2021
4220 Clouds 1 1008 81 10000 0.64 273 14:37 01.01.2021
4221 Clouds 1 1007 80 10000 0.9 286 13:52 01.01.2021
4222 Clouds 1 1007 86 10000 0.9 286 13:33 01.01.2021
4223 Clouds 1 1008 80 10000 0.99 290 12:47 01.01.2021
4224 Clouds 1 1008 82 10000 0.79 301 12:20 01.01.2021
4225 Snow 1 1007 82 10000 0.79 301 11:39 01.01.2021
4226 Clouds 1 1007 100 10000 0.93 311 11:18 01.01.2021
4227 Clouds 1 1007 86 10000 0.93 311 10:43 01.01.2021
4228 Clouds 1 1007 86 10000 0.93 311 10:43 01.01.2021
4229 Mist 1 1006 89 6000 0.98 315 09:50 01.01.2021
4230 Mist 0 1006 91 6000 1.11 313 09:22 01.01.2021
4231 Clouds 0 1006 91 10000 1.11 313 08:30 01.01.2021
4232 Snow 0 1004 93 8000 1.75 322 05:50 01.01.2021
4233 Snow 0 1004 93 6000 1.53 310 04:47 01.01.2021
4234 Mist 1 1003 91 6000 1.57 293 01:39 01.01.2021
4235 Mist 1 1002 90 1800 1.68 284 00:32 01.01.2021
4236 Mist 1 1002 89 6000 2.36 298 23:38 31.12.2020
4237 Snow 0 1002 91 5000 2.59 291 23:20 31.12.2020
4238 Snow 1 1002 91 4000 2.59 291 22:42 31.12.2020
4239 Snow 1 1002 93 4000 2.71 276 22:21 31.12.2020
4240 Snow 1 1001 93 6000 2.71 276 21:55 31.12.2020
4241 Snow 1 1001 93 6000 2.71 276 21:33 31.12.2020
4242 Snow 1 1001 92 6000 1.8 241 20:58 31.12.2020
4243 Snow 1 1001 93 2400 2.02 202 20:27 31.12.2020
4244 Clouds 1 1001 93 10000 2.02 202 19:50 31.12.2020
4245 Clouds 1 1001 93 10000 2.02 202 19:32 31.12.2020
4246 Mist 1 1000 91 6000 3.13 189 18:53 31.12.2020
4247 Mist 1 1000 90 6000 3.74 193 18:25 31.12.2020
4248 Mist 1 1000 90 1600 3.74 193 17:48 31.12.2020
4249 Rain 1 1000 91 1600 3.84 190 17:28 31.12.2020
4250 Rain 1 1000 91 1400 3.84 190 16:57 31.12.2020
4251 Fog 1 1000 91 600 3.84 190 16:37 31.12.2020
4252 Rain 1 1000 91 600 3.52 177 16:19 31.12.2020
4253 Fog 1 1000 91 800 3.52 177 15:42 31.12.2020
4254 Rain 1 1000 91 1800 3.82 180 15:19 31.12.2020
4255 Mist 1 1000 91 1600 3.82 180 14:41 31.12.2020
4256 Rain 1 1000 90 1600 4 177 14:23 31.12.2020
4257 Snow 0 1000 90 5000 4 177 13:58 31.12.2020
4258 Snow 0 1000 90 1200 4 177 13:37 31.12.2020
4259 Snow 0 1000 90 1800 4.59 177 13:19 31.12.2020
4260 Snow 0 1001 90 2400 4.59 177 12:46 31.12.2020
4261 Rain 0 1001 92 2400 3.86 170 12:28 31.12.2020
4262 Snow 1 1001 92 1400 3.86 170 11:47 31.12.2020
4263 Snow 1 1001 91 1400 4.44 177 11:29 31.12.2020
4264 Mist 0 1001 91 3200 4.44 177 10:45 31.12.2020
4265 Snow 0 1001 91 3200 4.78 178 10:27 31.12.2020
4266 Snow 0 1001 91 2600 4.78 178 09:49 31.12.2020
4267 Mist 0 1001 91 1800 5.19 181 09:24 31.12.2020
4268 Snow 0 1001 91 3600 2.6 170 08:49 31.12.2020
4269 Snow 0 1001 91 3600 2.6 170 08:31 31.12.2020
4270 Snow 1 1001 91 5000 5.62 173 07:56 31.12.2020
4271 Snow 1 1001 92 5000 4.97 176 07:25 31.12.2020
4272 Rain 1 1003 86 10000 3.1 180 05:30 31.12.2020
4273 Snow 1 1004 91 10000 3.1 180 03:37 31.12.2020
4274 Rain 1 1004 91 10000 4.1 180 02:38 31.12.2020
4275 Clouds 2 1004 80 10000 5.1 200 02:20 31.12.2020
4276 Clouds 2 1005 80 10000 3.6 200 01:42 31.12.2020
4277 Clouds 1 1005 87 10000 4.6 210 01:21 31.12.2020
4278 Clouds 1 1005 87 10000 4.6 200 00:41 31.12.2020
4279 Clouds 2 1005 86 10000 5.7 210 23:43 30.12.2020
4280 Clouds 2 1005 85 10000 3.1 220 23:19 30.12.2020
4281 Clouds 2 1005 85 10000 3.1 210 22:45 30.12.2020
4282 Clouds 2 1005 87 10000 3.1 210 22:27 30.12.2020
4283 Clouds 2 1005 87 10000 3.1 200 21:39 30.12.2020
4284 Clouds 2 1005 85 10000 3.6 220 21:20 30.12.2020
4285 Clouds 2 1005 85 10000 3.6 220 20:41 30.12.2020
4286 Clouds 2 1005 80 10000 3.1 220 20:20 30.12.2020
4287 Clouds 2 1005 80 10000 4.1 220 19:39 30.12.2020
4288 Clouds 2 1004 80 10000 2.6 220 19:20 30.12.2020
4289 Clouds 2 1004 80 10000 2.6 220 18:44 30.12.2020
4290 Clouds 2 1004 80 10000 3.1 220 18:24 30.12.2020
4291 Clouds 2 1004 80 10000 3.1 220 17:50 30.12.2020
4292 Clouds 2 1004 80 10000 3.1 230 17:32 30.12.2020
4293 Clouds 2 1003 74 10000 3.1 230 16:53 30.12.2020
4294 Clouds 2 1003 74 10000 3.1 230 16:29 30.12.2020
4295 Clouds 3 1003 80 10000 4.1 230 15:47 30.12.2020
4296 Clouds 3 1003 79 10000 4.6 230 15:24 30.12.2020
4297 Clouds 3 1002 79 10000 3.6 220 14:44 30.12.2020
4298 Clouds 3 1002 85 10000 3.6 230 14:22 30.12.2020
4299 Clouds 3 1002 85 10000 3.6 230 13:33 30.12.2020
4300 Clouds 2 1002 93 10000 2.6 240 12:43 30.12.2020
4301 Clouds 3 1002 93 10000 1.5 250 12:21 30.12.2020
4302 Clouds 2 1002 93 10000 2.1 260 11:36 30.12.2020
4303 Clouds 2 1001 93 10000 2.1 220 11:18 30.12.2020
4304 Clouds 2 1001 93 10000 2.1 220 10:49 30.12.2020
4305 Clouds 2 1001 93 10000 2.1 220 10:27 30.12.2020
4306 Clouds 2 1001 93 10000 2.1 210 09:50 30.12.2020
4307 Clouds 2 1001 93 10000 2.6 240 09:29 30.12.2020
4308 Clouds 2 1000 93 10000 2.34 245 08:34 30.12.2020
4309 Clouds 2 999 93 10000 2.1 240 07:30 30.12.2020
4310 Clouds 2 999 93 10000 2.1 240 07:30 30.12.2020
4311 Clouds 2 998 100 10000 4.6 230 06:53 30.12.2020
4312 Clouds 2 998 100 10000 4.6 230 06:32 30.12.2020
4313 Rain 2 997 100 10000 3.6 230 05:44 30.12.2020
4314 Snow 2 997 100 10000 3.6 230 05:25 30.12.2020
4315 Rain 2 997 93 10000 2.6 190 03:28 30.12.2020
4316 Rain 2 997 93 10000 2.6 190 02:43 30.12.2020
4317 Rain 2 997 93 10000 2.6 190 02:25 30.12.2020
4318 Rain 1 996 93 10000 2.6 190 01:33 30.12.2020
4319 Drizzle 1 996 93 10000 1.52 228 00:50 30.12.2020
4320 Snow 1 996 93 10000 1.84 194 00:31 30.12.2020
4321 Rain 1 996 93 10000 1.5 200 23:57 29.12.2020
4322 Clouds 1 996 100 10000 2.13 187 23:39 29.12.2020
4323 Clouds 1 996 93 10000 2.26 189 23:18 29.12.2020
4324 Clouds 1 996 93 10000 2.26 189 22:41 29.12.2020
4325 Clouds 1 995 100 10000 2.46 195 22:23 29.12.2020
4326 Clouds 1 995 91 10000 2.46 195 21:47 29.12.2020
4327 Clouds 1 995 91 10000 2.5 209 21:29 29.12.2020
4328 Snow 1 995 91 10000 2.5 209 20:48 29.12.2020
4329 Snow 1 995 92 10000 2.78 223 20:26 29.12.2020
4330 Clouds 1 994 92 10000 2.78 223 19:56 29.12.2020
4331 Clouds 1 994 92 10000 2.78 223 19:37 29.12.2020
4332 Rain 1 994 92 10000 3.38 225 19:18 29.12.2020
4333 Clouds 1 994 92 10000 2.1 200 18:39 29.12.2020
4334 Clouds 1 993 93 10000 1.5 240 18:19 29.12.2020
4335 Clouds 2 993 93 10000 2.1 220 17:44 29.12.2020
4336 Clouds 2 993 93 10000 2.1 220 17:20 29.12.2020
4337 Clouds 2 992 93 10000 2.6 230 16:37 29.12.2020
4338 Clouds 2 992 93 10000 5.1 220 15:59 29.12.2020
4339 Clouds 2 991 93 10000 4.1 230 15:37 29.12.2020
4340 Clouds 2 991 93 10000 4.6 210 14:59 29.12.2020
4341 Clouds 2 991 93 10000 3.6 220 14:36 29.12.2020
4342 Clouds 2 991 93 10000 2.6 220 14:18 29.12.2020
4343 Rain 2 990 93 10000 3.1 240 13:45 29.12.2020
4344 Clouds 2 990 91 10000 4.6 220 13:21 29.12.2020
4345 Clouds 2 990 93 10000 4.6 230 12:38 29.12.2020
4346 Clouds 2 989 93 10000 5.7 230 12:20 29.12.2020
4347 Clouds 2 989 93 10000 5.7 230 11:53 29.12.2020
4348 Clouds 2 988 91 10000 4.6 220 11:31 29.12.2020
4349 Clouds 1 987 100 10000 3.6 230 10:34 29.12.2020
4350 Clouds 1 986 100 10000 4.1 220 09:49 29.12.2020
4351 Clouds 1 986 100 10000 4.1 220 09:25 29.12.2020
4352 Clouds 1 985 88 10000 3.6 230 08:54 29.12.2020
4353 Clouds 1 984 100 10000 4.1 230 08:33 29.12.2020
4354 Clouds 1 983 100 10000 3.1 230 07:27 29.12.2020
4355 Mist 1 982 100 3000 3.6 230 06:46 29.12.2020
4356 Snow 1 980 93 10000 3 273 05:27 29.12.2020
4357 Snow 1 978 93 2800 1.5 70 00:56 29.12.2020
4358 Snow 1 978 92 4400 1.5 70 00:23 29.12.2020
4359 Snow 1 978 92 10000 3.75 183 23:36 28.12.2020
4360 Snow 1 978 92 10000 3.68 147 22:30 28.12.2020
4361 Snow 1 978 91 10000 3.95 152 21:47 28.12.2020
4362 Snow 1 978 89 10000 3.4 145 21:29 28.12.2020
4363 Clouds 1 978 89 10000 3.4 145 20:46 28.12.2020
4364 Clouds 1 978 92 10000 2.63 133 20:28 28.12.2020
4365 Clouds 2 978 92 10000 2.63 133 19:59 28.12.2020
4366 Clouds 2 978 92 10000 2.63 133 19:40 28.12.2020
4367 Clouds 2 978 91 10000 4.1 180 19:20 28.12.2020
4368 Clouds 2 978 93 10000 4.1 180 18:44 28.12.2020
4369 Clouds 2 978 93 10000 2.72 166 18:23 28.12.2020
4370 Drizzle 2 978 87 10000 3.1 200 17:41 28.12.2020
4371 Clouds 2 977 93 10000 3.6 190 17:18 28.12.2020
4372 Clouds 2 978 86 10000 5.1 200 16:32 28.12.2020
4373 Clouds 3 978 86 10000 4.1 210 15:58 28.12.2020
4374 Clouds 3 977 86 10000 5.1 210 15:38 28.12.2020
4375 Clouds 2 977 93 10000 2.6 170 14:47 28.12.2020
4376 Clouds 3 977 93 10000 1.5 110 13:51 28.12.2020
4377 Rain 3 977 93 10000 1.5 110 13:23 28.12.2020
4378 Rain 3 977 93 10000 3.42 165 12:40 28.12.2020
4379 Clouds 3 977 86 10000 3.32 165 12:20 28.12.2020
4380 Clouds 3 978 86 10000 1.5 90 11:45 28.12.2020
4381 Clouds 3 978 93 10000 2.94 155 11:22 28.12.2020
4382 Clouds 3 977 93 10000 2.94 155 10:43 28.12.2020
4383 Clouds 2 977 93 10000 2.76 161 10:25 28.12.2020
4384 Clouds 2 978 91 10000 2.76 161 09:45 28.12.2020
4385 Clouds 2 978 92 10000 1.5 170 09:18 28.12.2020
4386 Clouds 2 977 93 10000 2.6 190 07:30 28.12.2020
4387 Clouds 2 978 93 10000 1.5 170 06:48 28.12.2020
4388 Clouds 2 978 93 10000 5.7 220 04:26 28.12.2020
4389 Clouds 2 978 93 10000 5.7 200 02:22 28.12.2020
4390 Rain 2 978 93 10000 7.7 200 00:53 28.12.2020
4391 Clouds 2 978 93 10000 8.2 190 23:46 27.12.2020
4392 Clouds 2 978 93 10000 6.2 190 23:19 27.12.2020
4393 Clouds 2 978 93 10000 6.7 190 21:58 27.12.2020
4394 Rain 2 978 81 10000 7.2 190 21:26 27.12.2020
4395 Snow 2 979 81 10000 8.2 190 20:48 27.12.2020
4396 Rain 2 980 85 10000 8.2 180 19:48 27.12.2020
4397 Rain 2 980 88 10000 8.2 180 19:22 27.12.2020
4398 Snow 1 981 83 10000 8.2 180 18:47 27.12.2020
4399 Snow 2 981 83 10000 8.2 180 18:19 27.12.2020
4400 Snow 1 982 83 10000 7.7 180 17:49 27.12.2020
4401 Snow 1 982 83 10000 7.7 180 17:30 27.12.2020
4402 Snow 2 983 86 10000 7.2 180 16:54 27.12.2020
4403 Snow 1 984 88 1500 9.3 180 16:20 27.12.2020
4404 Snow 1 986 88 2000 9.3 180 15:21 27.12.2020
4405 Snow 1 987 88 1200 9.3 180 14:45 27.12.2020
4406 Snow 1 987 90 1200 9.3 180 14:27 27.12.2020
4407 Snow 2 991 86 4000 8.2 190 13:23 27.12.2020
4408 Snow 1 991 86 4000 8.2 190 12:52 27.12.2020
4409 Snow 1 991 86 3200 7.7 180 12:24 27.12.2020
4410 Rain 1 993 86 10000 9.3 190 11:41 27.12.2020
4411 Clouds 1 994 86 10000 9.3 190 10:58 27.12.2020
4412 Mist 1 995 86 9000 10.3 190 10:39 27.12.2020
4413 Snow 1 997 82 10000 8.2 190 10:19 27.12.2020
4414 Snow 1 998 85 10000 8.2 190 09:19 27.12.2020
4415 Snow 1 998 87 10000 7.7 190 08:28 27.12.2020
4416 Clouds 0 1000 87 10000 8.7 190 07:28 27.12.2020
4417 Snow 0 1003 93 10000 7.2 190 05:56 27.12.2020
4418 Snow 0 1003 93 10000 7.2 190 05:38 27.12.2020
4419 Clouds 0 1007 91 10000 5.7 190 03:24 27.12.2020
4420 Clouds 0 1010 90 10000 7.7 200 01:56 27.12.2020
4421 Clouds 1 1013 80 10000 6.7 200 00:38 27.12.2020
4422 Clouds 1 1015 80 10000 6.7 210 23:43 26.12.2020
4423 Clouds 1 1016 80 10000 6.2 210 23:23 26.12.2020
4424 Clouds 1 1016 80 10000 6.2 210 22:45 26.12.2020
4425 Clouds 1 1017 80 10000 5.7 200 22:19 26.12.2020
4426 Clouds 1 1017 80 10000 6.2 210 21:53 26.12.2020
4427 Clouds 1 1017 80 10000 6.2 210 21:53 26.12.2020
4428 Clouds 1 1017 80 10000 6.2 210 21:26 26.12.2020
4429 Clouds 1 1018 80 10000 7.2 220 20:45 26.12.2020
4430 Clouds 1 1018 80 10000 7.2 220 20:24 26.12.2020
4431 Clouds 1 1019 80 10000 7.7 200 19:42 26.12.2020
4432 Clouds 1 1019 80 10000 7.7 200 19:20 26.12.2020
4433 Clouds 1 1019 80 10000 5.1 210 18:35 26.12.2020
4434 Clouds 1 1021 80 10000 5.7 220 17:48 26.12.2020
4435 Clouds 1 1021 80 10000 5.7 220 17:29 26.12.2020
4436 Clouds 1 1021 80 10000 5.7 210 16:40 26.12.2020
4437 Clouds 2 1021 74 10000 5.1 220 16:21 26.12.2020
4438 Clouds 2 1021 74 10000 6.7 210 15:24 26.12.2020
4439 Clouds 2 1022 74 10000 5.7 200 14:44 26.12.2020
4440 Clouds 2 1023 74 10000 3.6 220 14:20 26.12.2020
4441 Clouds 1 1024 80 10000 4.1 220 13:42 26.12.2020
4442 Clouds 1 1024 80 10000 4.1 220 13:42 26.12.2020
4443 Clouds 1 1024 80 10000 4.1 220 13:23 26.12.2020
4444 Clouds 2 1024 80 10000 5.1 220 12:44 26.12.2020
4445 Clouds 1 1024 80 10000 5.7 220 12:21 26.12.2020
4446 Clouds 1 1024 86 10000 3.6 220 11:51 26.12.2020
4447 Clouds 1 1025 86 10000 3.6 220 11:21 26.12.2020
4448 Clouds 1 1025 86 10000 3.6 220 10:53 26.12.2020
4449 Clouds 1 1025 86 10000 2.1 230 10:27 26.12.2020
4450 Clouds 1 1024 90 10000 2.49 227 09:49 26.12.2020
4451 Clouds 1 1024 90 10000 2.49 227 09:49 26.12.2020
4452 Clouds 0 1024 94 10000 2.1 240 09:24 26.12.2020
4453 Clouds 0 1024 95 10000 2.1 240 08:21 26.12.2020
4454 Clouds 0 1024 95 10000 2.1 240 07:50 26.12.2020
4455 Clouds 0 1024 94 10000 2.1 250 06:29 26.12.2020
4456 Clouds 0 1024 96 10000 0.84 250 02:49 26.12.2020
4457 Clouds 0 1024 97 10000 0.92 263 01:32 26.12.2020
4458 Clouds 0 1024 97 10000 0.79 282 00:25 26.12.2020
4459 Clouds 0 1024 97 10000 0.79 282 23:39 25.12.2020
4460 Clouds 0 1024 86 10000 0.8 295 23:21 25.12.2020
4461 Clouds 1 1024 97 10000 0.8 295 22:42 25.12.2020
4462 Clouds 1 1024 80 10000 0.81 321 21:58 25.12.2020
4463 Clouds 1 1024 80 10000 0.81 321 21:34 25.12.2020
4464 Clouds 1 1024 80 10000 2.1 300 20:56 25.12.2020
4465 Clouds 2 1024 74 10000 1.13 323 20:37 25.12.2020
4466 Clouds 1 1023 80 10000 1.4 334 19:49 25.12.2020
4467 Clouds 1 1023 80 10000 1.53 340 19:26 25.12.2020
4468 Clouds 2 1023 74 10000 1.68 340 18:39 25.12.2020
4469 Snow 2 1023 74 10000 2.15 343 17:53 25.12.2020
4470 Clouds 2 1023 74 10000 2.15 343 17:34 25.12.2020
4471 Clouds 2 1022 80 10000 2.46 348 16:38 25.12.2020
4472 Clouds 2 1022 80 10000 3.09 351 16:19 25.12.2020
4473 Clouds 2 1022 80 10000 3.09 351 15:36 25.12.2020
4474 Drizzle 2 1022 74 10000 4.06 357 14:58 25.12.2020
4475 Clouds 2 1022 74 10000 4.06 357 14:30 25.12.2020
4476 Clouds 2 1022 69 10000 1.5 340 13:46 25.12.2020
4477 Clouds 2 1022 69 10000 1.5 340 13:26 25.12.2020
4478 Clouds 2 1022 80 10000 4.54 355 12:47 25.12.2020
4479 Clouds 2 1022 80 10000 4.22 3 12:25 25.12.2020
4480 Clear 1 1022 69 10000 1.5 340 11:46 25.12.2020
4481 Clear 1 1022 74 10000 1.5 340 11:21 25.12.2020
4482 Clear 1 1022 74 10000 1.5 340 10:35 25.12.2020
4483 Clear 1 1021 86 10000 3.1 350 09:49 25.12.2020
4484 Clouds 1 1020 74 10000 2.32 351 08:52 25.12.2020
4485 Clouds 1 1020 74 10000 2.32 351 08:32 25.12.2020
4486 Clouds 1 1019 80 10000 4.04 351 06:51 25.12.2020
4487 Clouds 1 1018 86 10000 4.08 350 05:38 25.12.2020
4488 Clouds 2 1016 86 10000 1.5 260 02:21 25.12.2020
4489 Clouds 1 1016 81 10000 3.03 319 00:25 25.12.2020
4490 Clouds 1 1015 86 10000 3.03 319 23:31 24.12.2020
4491 Clouds 2 1015 86 10000 3.19 329 22:55 24.12.2020
4492 Clouds 1 1015 81 10000 3.14 330 22:25 24.12.2020
4493 Clouds 2 1014 93 10000 2.1 270 21:52 24.12.2020
4494 Clouds 2 1014 93 10000 3.33 327 20:59 24.12.2020
4495 Clear 2 1013 85 10000 3.15 336 19:54 24.12.2020
4496 Snow 1 1012 83 10000 4.49 348 18:22 24.12.2020
4497 Snow 2 1012 83 9000 4.49 348 17:42 24.12.2020
4498 Rain 2 1011 84 10000 4.49 359 17:21 24.12.2020
4499 Rain 2 1011 81 10000 5.26 2 16:26 24.12.2020
4500 Rain 4 1009 86 10000 3.6 10 15:49 24.12.2020
4501 Rain 4 1009 86 10000 3.6 10 15:26 24.12.2020
4502 Rain 5 1009 86 10000 3.1 350 14:58 24.12.2020
4503 Clouds 6 1009 87 10000 3.1 240 14:40 24.12.2020
4504 Clouds 6 1009 93 10000 2.1 240 14:22 24.12.2020
4505 Clouds 6 1009 87 10000 4.1 230 13:39 24.12.2020
4506 Clouds 6 1009 87 10000 2.1 250 13:19 24.12.2020
4507 Clouds 6 1009 87 10000 2.1 250 12:41 24.12.2020
4508 Clouds 6 1009 87 10000 2.6 240 12:19 24.12.2020
4509 Clouds 6 1009 93 10000 2.6 250 11:39 24.12.2020
4510 Clouds 6 1008 93 10000 3.6 260 11:20 24.12.2020
4511 Clouds 6 1008 93 10000 3.1 240 10:49 24.12.2020
4512 Clouds 6 1008 93 10000 3.1 240 10:30 24.12.2020
4513 Clouds 5 1007 100 10000 3.6 240 09:52 24.12.2020
4514 Clouds 5 1006 93 10000 3.6 230 09:23 24.12.2020
4515 Rain 5 1007 93 8000 5.7 220 08:18 24.12.2020
4516 Rain 5 1007 93 10000 7.2 220 07:39 24.12.2020
4517 Rain 5 1007 93 8000 7.2 220 06:55 24.12.2020
4518 Rain 6 1008 81 10000 5.7 210 04:24 24.12.2020
4519 Clouds 7 1009 75 10000 7.2 230 01:54 24.12.2020
4520 Clouds 7 1009 70 10000 8.2 220 01:30 24.12.2020
4521 Clear 7 1009 75 10000 7.2 230 00:56 24.12.2020
4522 Clouds 8 1009 81 10000 8.2 230 00:21 24.12.2020
4523 Clouds 8 1009 81 10000 8.2 230 23:44 23.12.2020
4524 Clouds 9 1009 81 10000 6.2 230 23:23 23.12.2020
4525 Clouds 9 1009 81 10000 8.2 230 22:52 23.12.2020
4526 Clouds 10 1009 81 10000 8.2 230 22:29 23.12.2020
4527 Clouds 10 1009 93 10000 6.7 210 21:49 23.12.2020
4528 Rain 10 1009 93 10000 6.7 210 21:25 23.12.2020
4529 Clouds 11 1009 93 10000 6.2 220 20:54 23.12.2020
4530 Clouds 11 1009 93 10000 5.7 210 20:36 23.12.2020
4531 Clouds 10 1009 100 10000 6.2 210 20:18 23.12.2020
4532 Clouds 10 1009 100 10000 6.2 210 19:39 23.12.2020
4533 Clouds 10 1009 100 10000 8.7 210 19:20 23.12.2020
4534 Clouds 10 1009 100 10000 7.7 200 18:47 23.12.2020
4535 Clouds 11 1009 100 10000 7.7 210 18:22 23.12.2020
4536 Clouds 11 1009 100 10000 7.7 210 17:39 23.12.2020
4537 Clouds 11 1009 100 10000 7.7 210 17:39 23.12.2020
4538 Clouds 11 1009 100 10000 7.7 210 17:39 23.12.2020
4539 Rain 11 1009 100 10000 2.6 190 17:20 23.12.2020
4540 Rain 10 1009 100 10000 4.6 190 16:47 23.12.2020
4541 Rain 11 1009 100 10000 4.6 190 16:29 23.12.2020
4542 Rain 11 1010 100 10000 2.1 220 15:56 23.12.2020
4543 Rain 11 1010 100 10000 3.1 230 15:30 23.12.2020
4544 Rain 11 1010 100 9000 3.1 220 14:59 23.12.2020
4545 Rain 11 1010 100 5000 3.1 220 14:39 23.12.2020
4546 Rain 11 1011 100 5000 5.7 210 14:20 23.12.2020
4547 Rain 11 1011 100 5000 5.7 210 13:44 23.12.2020
4548 Rain 11 1011 100 8000 5.1 200 13:20 23.12.2020
4549 Rain 11 1011 100 8000 5.1 200 12:54 23.12.2020
4550 Rain 11 1011 100 8000 3.6 200 12:30 23.12.2020
4551 Rain 11 1012 100 8000 4.6 220 11:54 23.12.2020
4552 Rain 11 1012 100 8000 4.6 220 11:31 23.12.2020
4553 Rain 11 1013 100 6000 4.6 200 10:56 23.12.2020
4554 Rain 11 1013 100 6000 4.6 200 10:37 23.12.2020
4555 Clouds 11 1013 100 6000 2.6 200 09:38 23.12.2020
4556 Rain 11 1013 100 8000 2.1 200 08:57 23.12.2020
4557 Clouds 11 1013 100 8000 2.1 200 08:33 23.12.2020
4558 Rain 11 1014 100 10000 2.1 230 07:49 23.12.2020
4559 Rain 11 1014 100 10000 4.35 199 06:42 23.12.2020
4560 Rain 11 1014 100 10000 1.5 230 05:58 23.12.2020
4561 Rain 10 1015 100 10000 1.5 220 05:24 23.12.2020
4562 Rain 11 1015 100 10000 4.1 220 01:59 23.12.2020
4563 Rain 12 1015 100 10000 7.2 210 00:33 23.12.2020
4564 Clouds 12 1015 100 10000 6.2 230 23:45 22.12.2020
4565 Clouds 12 1015 100 10000 6.2 230 23:25 22.12.2020
4566 Clouds 12 1015 100 10000 5.1 210 22:43 22.12.2020
4567 Clouds 12 1015 100 10000 5.1 210 22:25 22.12.2020
4568 Clouds 12 1015 100 10000 5.1 210 22:25 22.12.2020
4569 Drizzle 12 1015 100 10000 4.1 220 21:54 22.12.2020
4570 Mist 12 1016 100 8000 2.1 230 21:22 22.12.2020
4571 Rain 12 1016 100 8000 2.1 230 20:57 22.12.2020
4572 Mist 12 1016 100 5000 1.5 240 20:38 22.12.2020
4573 Rain 12 1016 100 10000 3.1 230 20:20 22.12.2020
4574 Clouds 12 1016 100 10000 4.1 220 19:42 22.12.2020
4575 Clouds 12 1016 100 10000 3.1 220 19:20 22.12.2020
4576 Clouds 12 1016 100 10000 5.1 220 18:47 22.12.2020
4577 Rain 12 1016 100 10000 5.1 220 18:27 22.12.2020
4578 Clouds 12 1016 100 10000 4.6 220 17:45 22.12.2020
4579 Clouds 12 1016 100 10000 4.6 220 17:18 22.12.2020
4580 Clouds 12 1016 100 10000 5.1 220 16:54 22.12.2020
4581 Clouds 12 1016 100 10000 5.1 220 16:36 22.12.2020
4582 Clouds 12 1016 100 10000 5.7 220 16:18 22.12.2020
4583 Clouds 12 1016 100 10000 5.7 220 15:41 22.12.2020
4584 Clouds 12 1016 100 10000 5.7 230 15:18 22.12.2020
4585 Rain 12 1016 100 10000 5.1 230 14:43 22.12.2020
4586 Clouds 12 1016 100 10000 6.7 220 14:25 22.12.2020
4587 Clouds 12 1016 100 10000 6.7 220 13:47 22.12.2020
4588 Clouds 12 1016 100 10000 6.7 230 13:19 22.12.2020
4589 Clouds 12 1016 100 10000 6.7 230 12:56 22.12.2020
4590 Clouds 12 1016 100 10000 6.2 230 12:37 22.12.2020
4591 Clouds 12 1015 100 10000 7.2 220 12:19 22.12.2020
4592 Clouds 12 1015 100 10000 7.2 220 11:41 22.12.2020
4593 Clouds 12 1015 100 10000 6.2 220 11:22 22.12.2020
4594 Clouds 12 1015 100 10000 6.7 220 10:55 22.12.2020
4595 Clouds 12 1015 100 10000 6.7 220 10:27 22.12.2020
4596 Clouds 11 1015 100 10000 5.7 230 09:58 22.12.2020
4597 Clouds 11 1014 100 10000 6.7 220 09:30 22.12.2020
4598 Clouds 11 1014 100 10000 7.7 220 08:57 22.12.2020
4599 Clouds 11 1014 100 10000 6.2 230 08:38 22.12.2020
4600 Clouds 11 1014 100 10000 7.2 230 08:19 22.12.2020
4601 Clouds 11 1013 100 10000 6.7 220 07:27 22.12.2020
4602 Clouds 11 1013 100 10000 7.2 220 06:34 22.12.2020
4603 Clouds 11 1013 100 10000 7.7 220 05:33 22.12.2020
4604 Clouds 11 1013 87 10000 6.2 220 02:31 22.12.2020
4605 Clouds 9 1013 100 10000 6.2 210 00:30 22.12.2020
4606 Mist 9 1013 100 8000 7.2 210 23:51 21.12.2020
4607 Mist 8 1014 100 9000 7.2 220 23:22 21.12.2020
4608 Clouds 8 1014 100 10000 5.7 210 22:37 21.12.2020
4609 Clouds 8 1014 100 10000 6.2 210 22:19 21.12.2020
4610 Clouds 8 1014 100 10000 6.2 210 22:19 21.12.2020
4611 Clouds 7 1014 100 10000 5.7 220 21:48 21.12.2020
4612 Clouds 7 1014 100 10000 5.7 220 21:30 21.12.2020
4613 Rain 7 1014 100 10000 5.7 210 20:46 21.12.2020
4614 Rain 7 1014 93 10000 7.2 200 20:23 21.12.2020
4615 Clouds 7 1014 93 10000 7.2 200 19:55 21.12.2020
4616 Rain 7 1014 93 10000 7.2 200 19:36 21.12.2020
4617 Clouds 7 1014 93 10000 5.7 200 19:18 21.12.2020
4618 Clouds 7 1015 93 10000 6.2 210 18:49 21.12.2020
4619 Clouds 7 1015 93 10000 6.2 210 18:31 21.12.2020
4620 Clouds 7 1014 93 10000 5.1 190 17:43 21.12.2020
4621 Clouds 7 1014 93 10000 5.1 190 17:24 21.12.2020
4622 Rain 7 1015 87 10000 6.7 190 16:46 21.12.2020
4623 Rain 7 1016 81 10000 4.1 190 16:25 21.12.2020
4624 Rain 8 1016 75 10000 6.7 190 15:45 21.12.2020
4625 Clouds 8 1016 75 10000 6.7 190 15:27 21.12.2020
4626 Clouds 8 1017 75 10000 5.7 180 14:56 21.12.2020
4627 Clouds 8 1017 75 10000 3.1 170 14:21 21.12.2020
4628 Clouds 8 1018 75 10000 2.6 160 13:42 21.12.2020
4629 Clouds 8 1018 75 10000 2.6 160 13:24 21.12.2020
4630 Clouds 8 1019 93 10000 3.6 190 12:43 21.12.2020
4631 Clouds 8 1019 93 10000 3.6 190 12:24 21.12.2020
4632 Clouds 8 1019 93 10000 5.1 190 11:56 21.12.2020
4633 Clouds 7 1020 93 10000 4.6 180 11:37 21.12.2020
4634 Clouds 7 1020 100 10000 2.1 150 11:19 21.12.2020
4635 Rain 6 1020 93 10000 2.6 180 10:42 21.12.2020
4636 Clouds 6 1020 93 10000 2.6 180 10:24 21.12.2020
4637 Clouds 6 1021 87 10000 3.04 171 09:46 21.12.2020
4638 Clouds 6 1021 87 10000 2.4 168 09:25 21.12.2020
4639 Clouds 5 1020 93 10000 2.4 168 08:52 21.12.2020
4640 Clouds 6 1021 87 10000 2.23 171 07:52 21.12.2020
4641 Clouds 6 1021 93 10000 2.6 180 06:47 21.12.2020
4642 Clouds 6 1022 93 10000 2.6 180 04:58 21.12.2020
4643 Clouds 6 1022 93 10000 2.1 210 02:31 21.12.2020
4644 Clouds 7 1022 93 10000 4.1 200 00:34 21.12.2020
4645 Clouds 7 1021 93 10000 2.6 210 23:37 20.12.2020
4646 Clouds 7 1021 93 10000 2.6 220 23:18 20.12.2020
4647 Clouds 6 1021 100 10000 2.1 210 22:42 20.12.2020
4648 Clouds 7 1021 93 10000 3.6 210 22:22 20.12.2020
4649 Clouds 7 1021 93 10000 3.1 220 21:40 20.12.2020
4650 Clouds 7 1021 87 10000 4.1 210 21:22 20.12.2020
4651 Clouds 7 1021 87 10000 3.6 210 20:53 20.12.2020
4652 Clouds 7 1021 87 10000 3.6 210 20:26 20.12.2020
4653 Clouds 7 1020 87 10000 3.6 230 19:58 20.12.2020
4654 Clouds 7 1020 87 10000 4.6 220 19:38 20.12.2020
4655 Clouds 7 1020 93 10000 3.6 210 19:20 20.12.2020
4656 Clouds 8 1020 87 10000 3.1 220 18:45 20.12.2020
4657 Clouds 8 1020 87 10000 3.1 220 18:27 20.12.2020
4658 Clouds 8 1019 87 10000 5.1 210 17:47 20.12.2020
4659 Clouds 8 1019 87 10000 5.1 210 17:28 20.12.2020
4660 Clouds 8 1019 87 10000 5.1 210 17:28 20.12.2020
4661 Clouds 9 1019 87 10000 2.6 200 16:47 20.12.2020
4662 Clouds 9 1019 87 10000 2.6 200 16:28 20.12.2020
4663 Clouds 9 1018 93 10000 3.6 210 15:51 20.12.2020
4664 Clouds 9 1018 93 10000 3.6 210 15:51 20.12.2020
4665 Clouds 9 1018 93 10000 3.6 210 15:27 20.12.2020
4666 Clouds 9 1018 93 10000 3.1 210 14:56 20.12.2020
4667 Clouds 9 1018 93 10000 3.1 210 14:36 20.12.2020
4668 Clouds 10 1019 87 10000 4.1 200 13:56 20.12.2020
4669 Clouds 10 1019 87 10000 4.6 200 13:37 20.12.2020
4670 Clouds 9 1019 93 10000 4.6 200 13:18 20.12.2020
4671 Clouds 9 1019 93 10000 4.6 210 12:44 20.12.2020
4672 Clouds 9 1019 93 10000 4.6 210 12:22 20.12.2020
4673 Clouds 9 1019 100 10000 3.1 200 11:49 20.12.2020
4674 Clouds 9 1019 100 10000 3.1 200 11:26 20.12.2020
4675 Clouds 8 1018 100 10000 2.6 210 10:49 20.12.2020
4676 Clouds 8 1018 100 10000 2.1 200 10:21 20.12.2020
4677 Clouds 8 1018 100 10000 2.1 200 09:56 20.12.2020
4678 Clouds 7 1018 100 10000 2.6 200 09:37 20.12.2020
4679 Clouds 7 1018 100 10000 2.6 200 09:18 20.12.2020
4680 Clouds 7 1018 100 10000 2.1 210 08:47 20.12.2020
4681 Clouds 7 1018 100 10000 2.1 210 08:28 20.12.2020
4682 Clouds 8 1017 100 10000 1.5 210 07:21 20.12.2020
4683 Clouds 8 1017 100 10000 2.09 186 04:42 20.12.2020
4684 Rain 9 1017 93 10000 2.1 170 01:30 20.12.2020
4685 Rain 8 1017 100 10000 1.74 184 00:20 20.12.2020
4686 Clouds 9 1017 100 10000 3.6 200 23:18 19.12.2020
4687 Clouds 9 1017 93 10000 2.6 200 22:45 19.12.2020
4688 Clouds 9 1017 93 10000 2.6 200 22:25 19.12.2020
4689 Clouds 9 1017 93 10000 3.1 190 21:59 19.12.2020
4690 Clouds 9 1017 93 10000 4.1 200 21:40 19.12.2020
4691 Clouds 9 1017 87 10000 3.6 200 21:21 19.12.2020
4692 Clouds 10 1017 81 10000 4.1 190 20:41 19.12.2020
4693 Drizzle 9 1017 93 3000 3.1 200 20:18 19.12.2020
4694 Drizzle 9 1015 76 10000 4.6 190 19:50 19.12.2020
4695 Drizzle 9 1015 76 10000 4.6 190 19:29 19.12.2020
4696 Clouds 9 1016 81 10000 3.6 190 18:41 19.12.2020
4697 Clouds 10 1016 76 10000 4.1 190 18:20 19.12.2020
4698 Clouds 9 1015 76 10000 3.6 180 17:46 19.12.2020
4699 Clouds 9 1015 76 10000 3.6 180 17:24 19.12.2020
4700 Clouds 10 1015 76 10000 3.6 170 16:45 19.12.2020
4701 Clouds 10 1015 76 10000 3.6 170 16:26 19.12.2020
4702 Clear 10 1015 71 10000 4.1 180 15:58 19.12.2020
4703 Clear 10 1015 71 10000 4.1 180 15:39 19.12.2020
4704 Clouds 11 1015 66 10000 4.1 180 14:43 19.12.2020
4705 Clouds 11 1015 66 10000 4.6 200 14:22 19.12.2020
4706 Clouds 11 1015 71 10000 6.2 200 13:41 19.12.2020
4707 Clouds 11 1015 71 10000 7.2 190 13:20 19.12.2020
4708 Clouds 11 1016 66 10000 6.2 190 12:45 19.12.2020
4709 Clouds 11 1016 66 10000 6.2 190 12:26 19.12.2020
4710 Clear 10 1016 71 10000 6.2 190 11:58 19.12.2020
4711 Clear 10 1016 71 10000 6.2 190 11:40 19.12.2020
4712 Clear 8 1016 76 10000 3.6 180 10:47 19.12.2020
4713 Clear 8 1016 76 10000 3.6 180 10:27 19.12.2020
4714 Clouds 7 1016 87 10000 4.1 180 09:59 19.12.2020
4715 Clouds 7 1016 87 10000 3.1 180 09:39 19.12.2020
4716 Clouds 8 1016 87 10000 2.6 180 08:52 19.12.2020
4717 Clouds 8 1016 87 10000 3.54 167 07:56 19.12.2020
4718 Clouds 8 1016 93 10000 1.5 170 07:19 19.12.2020
4719 Clouds 8 1016 93 10000 2.73 158 06:39 19.12.2020
4720 Mist 8 1016 100 4000 2.6 140 05:20 19.12.2020
4721 Clouds 7 1017 93 10000 2.37 161 03:29 19.12.2020
4722 Clouds 7 1018 100 10000 1.97 157 00:41 19.12.2020
4723 Mist 7 1018 93 5000 4.1 160 00:21 19.12.2020
4724 Clouds 7 1019 100 10000 2.16 158 23:49 18.12.2020
4725 Clouds 7 1019 100 10000 2.16 158 23:49 18.12.2020
4726 Clouds 7 1019 100 10000 2.1 158 23:25 18.12.2020
4727 Clouds 7 1019 100 6000 3.6 170 22:57 18.12.2020
4728 Clouds 7 1019 100 10000 2.1 158 22:39 18.12.2020
4729 Clouds 7 1019 93 10000 1.93 153 22:19 18.12.2020
4730 Clouds 7 1019 93 10000 1.93 153 21:43 18.12.2020
4731 Clouds 6 1020 100 10000 1.9 155 21:22 18.12.2020
4732 Clouds 6 1020 93 10000 1.44 151 20:25 18.12.2020
4733 Clouds 6 1020 93 10000 1.44 151 19:51 18.12.2020
4734 Mist 6 1020 100 3000 1.5 110 19:24 18.12.2020
4735 Clouds 6 1020 100 10000 1.3 150 18:47 18.12.2020
4736 Clouds 5 1020 100 10000 1.74 147 18:28 18.12.2020
4737 Clouds 4 1020 93 10000 1.74 147 17:59 18.12.2020
4738 Clear 6 1021 87 10000 2.28 163 17:21 18.12.2020
4739 Clear 6 1021 87 10000 2.28 163 16:48 18.12.2020
4740 Clear 6 1021 81 10000 2.62 171 16:22 18.12.2020
4741 Clear 7 1021 81 10000 2.62 171 15:54 18.12.2020
4742 Clear 7 1021 81 10000 2.62 171 15:36 18.12.2020
4743 Fog 7 1021 100 800 2.6 130 15:18 18.12.2020
4744 Clear 7 1022 81 10000 2.82 171 14:51 18.12.2020
4745 Fog 6 1022 100 300 2.6 160 14:19 18.12.2020
4746 Clear 6 1022 81 10000 2.51 173 13:45 18.12.2020
4747 Fog 5 1022 100 300 2.6 150 13:23 18.12.2020
4748 Fog 5 1023 100 200 2.6 180 12:46 18.12.2020
4749 Fog 5 1023 100 200 2.6 180 12:46 18.12.2020
4750 Clear 5 1023 100 10000 1.93 169 11:38 18.12.2020
4751 Fog 4 1023 100 100 3.6 160 11:19 18.12.2020
4752 Clear 4 1023 100 10000 1.65 165 10:38 18.12.2020
4753 Fog 4 1023 100 100 3.6 170 10:20 18.12.2020
4754 Fog 4 1023 100 100 3.6 170 10:20 18.12.2020
4755 Clouds 4 1023 100 10000 1.67 156 09:38 18.12.2020
4756 Fog 4 1023 100 100 3.1 150 09:20 18.12.2020
4757 Clouds 4 1023 100 10000 1 240 08:53 18.12.2020
4758 Clouds 4 1023 100 10000 1 240 08:29 18.12.2020
4759 Clouds 4 1023 100 10000 1.56 170 07:39 18.12.2020
4760 Mist 4 1023 100 1200 1.62 177 07:18 18.12.2020
4761 Mist 4 1023 100 1200 1.91 172 06:46 18.12.2020
4762 Fog 4 1023 100 400 1.94 180 05:41 18.12.2020
4763 Mist 4 1023 100 5000 2.07 177 04:51 18.12.2020
4764 Clouds 5 1023 100 10000 2.32 190 01:58 18.12.2020
4765 Clouds 5 1023 93 10000 2.32 190 01:38 18.12.2020
4766 Clouds 6 1024 93 10000 1.5 240 23:58 17.12.2020
4767 Clouds 6 1024 100 10000 2.38 187 23:25 17.12.2020
4768 Clouds 6 1024 100 10000 2.38 187 22:58 17.12.2020
4769 Clouds 6 1024 93 10000 2.38 187 22:40 17.12.2020
4770 Clouds 6 1024 93 10000 2.38 187 22:40 17.12.2020
4771 Clouds 6 1024 100 10000 2.25 191 22:22 17.12.2020
4772 Clouds 5 1023 93 10000 2.25 191 21:42 17.12.2020
4773 Clouds 5 1023 93 10000 2.25 191 21:42 17.12.2020
4774 Clouds 6 1023 93 10000 2.47 206 21:19 17.12.2020
4775 Clouds 6 1023 93 10000 1.5 230 20:42 17.12.2020
4776 Clouds 5 1023 93 10000 3.01 215 20:19 17.12.2020
4777 Clouds 6 1023 93 10000 3.01 215 19:48 17.12.2020
4778 Clear 6 1023 93 10000 2.1 220 19:24 17.12.2020
4779 Clear 6 1023 93 10000 2.1 220 18:47 17.12.2020
4780 Clear 6 1023 93 10000 2.1 220 18:27 17.12.2020
4781 Clear 7 1022 81 10000 4.1 220 17:58 17.12.2020
4782 Clear 7 1022 81 10000 4.1 220 17:36 17.12.2020
4783 Clouds 7 1022 87 10000 4.6 220 17:18 17.12.2020
4784 Clouds 8 1022 87 10000 4.6 220 16:37 17.12.2020
4785 Clouds 8 1021 81 10000 3.1 220 16:18 17.12.2020
4786 Clouds 8 1021 81 10000 3.1 220 15:42 17.12.2020
4787 Clouds 8 1021 81 10000 3.6 220 15:23 17.12.2020
4788 Clouds 8 1021 81 10000 3.6 220 14:47 17.12.2020
4789 Clouds 8 1021 87 10000 5.1 220 14:20 17.12.2020
4790 Clouds 8 1021 87 10000 5.1 220 13:42 17.12.2020
4791 Clouds 8 1021 93 10000 4.6 200 13:20 17.12.2020
4792 Clouds 8 1021 93 10000 4.6 200 12:40 17.12.2020
4793 Clouds 8 1021 87 10000 3.1 220 12:21 17.12.2020
4794 Clouds 8 1021 87 10000 3.1 220 11:42 17.12.2020
4795 Clouds 8 1020 93 10000 2.6 230 11:21 17.12.2020
4796 Clouds 8 1020 93 10000 3.6 230 10:44 17.12.2020
4797 Clouds 8 1019 100 10000 3.6 220 09:37 17.12.2020
4798 Drizzle 8 1018 100 10000 4.6 220 08:57 17.12.2020
4799 Clouds 7 1017 93 10000 1.5 210 07:44 17.12.2020
4800 Clouds 7 1017 93 10000 1.5 210 07:25 17.12.2020
4801 Clouds 7 1016 87 10000 3.31 182 06:50 17.12.2020
4802 Clouds 6 1016 87 10000 3.31 182 06:32 17.12.2020
4803 Clouds 7 1016 87 10000 3.13 177 03:31 17.12.2020
4804 Clouds 8 1016 87 10000 3.03 166 00:28 17.12.2020
4805 Clear 7 1016 100 10000 3.03 166 23:50 16.12.2020
4806 Clear 8 1016 93 10000 3.6 170 23:19 16.12.2020
4807 Clouds 8 1016 93 10000 2.9 165 22:50 16.12.2020
4808 Clouds 8 1016 93 10000 2.9 165 22:31 16.12.2020
4809 Clouds 8 1016 93 10000 2.71 166 21:46 16.12.2020
4810 Clouds 8 1016 93 10000 2.73 164 21:26 16.12.2020
4811 Clouds 8 1016 100 10000 2.73 164 20:52 16.12.2020
4812 Clouds 8 1015 93 10000 2.6 170 20:21 16.12.2020
4813 Clouds 8 1015 100 10000 2.64 160 19:50 16.12.2020
4814 Clouds 8 1015 87 10000 4.1 170 19:19 16.12.2020
4815 Clouds 8 1015 100 10000 2.37 158 18:52 16.12.2020
4816 Clouds 8 1015 100 10000 2.4 155 18:27 16.12.2020
4817 Clouds 8 1015 93 10000 3.6 150 17:43 16.12.2020
4818 Clouds 9 1015 93 10000 3.1 150 17:18 16.12.2020
4819 Clouds 9 1015 93 10000 3.1 150 16:39 16.12.2020
4820 Clouds 9 1015 93 10000 3.6 150 16:20 16.12.2020
4821 Clouds 10 1015 100 10000 2.17 158 15:49 16.12.2020
4822 Clouds 10 1015 93 10000 3.6 150 15:26 16.12.2020
4823 Clouds 10 1015 100 10000 2.68 165 14:47 16.12.2020
4824 Clouds 10 1015 100 10000 3.64 171 14:28 16.12.2020
4825 Clouds 9 1016 100 10000 3.64 171 13:46 16.12.2020
4826 Clouds 9 1016 100 10000 3.96 160 13:27 16.12.2020
4827 Clouds 9 1016 100 10000 4.16 163 12:55 16.12.2020
4828 Mist 8 1016 100 3200 4.16 163 12:34 16.12.2020
4829 Mist 8 1016 100 1600 1.5 80 11:40 16.12.2020
4830 Mist 8 1016 100 1200 1.5 60 11:22 16.12.2020
4831 Mist 7 1016 100 1200 1.5 60 10:46 16.12.2020
4832 Mist 7 1016 100 1200 1.5 60 10:22 16.12.2020
4833 Mist 7 1016 100 1200 1.5 70 09:42 16.12.2020
4834 Mist 6 1016 100 2600 1.5 70 08:36 16.12.2020
4835 Mist 6 1016 100 9000 0.55 138 07:52 16.12.2020
4836 Rain 6 1016 100 9000 0.55 138 07:33 16.12.2020
4837 Mist 6 1016 100 1600 1.18 125 06:52 16.12.2020
4838 Clouds 5 1016 100 10000 0.71 169 02:26 16.12.2020
4839 Mist 6 1016 100 1600 1.1 163 01:20 16.12.2020
4840 Mist 6 1015 100 8000 0.73 183 23:45 15.12.2020
4841 Clouds 7 1015 100 10000 1.07 172 22:48 15.12.2020
4842 Clouds 7 1015 100 10000 1.4 191 22:25 15.12.2020
4843 Clouds 8 1015 100 10000 1.4 191 21:57 15.12.2020
4844 Clouds 8 1015 100 10000 1.5 190 21:38 15.12.2020
4845 Clouds 8 1015 100 10000 1.42 203 21:19 15.12.2020
4846 Clouds 8 1014 100 10000 1.42 203 20:44 15.12.2020
4847 Clouds 7 1014 100 10000 1.5 220 20:25 15.12.2020
4848 Clouds 7 1014 100 10000 1.5 220 19:52 15.12.2020
4849 Clouds 8 1014 100 10000 1.5 220 19:26 15.12.2020
4850 Clouds 8 1014 100 10000 1.5 200 18:39 15.12.2020
4851 Clouds 8 1013 100 10000 1.5 230 18:21 15.12.2020
4852 Rain 9 1013 100 10000 1.5 230 17:45 15.12.2020
4853 Clouds 9 1013 100 10000 1.5 230 17:27 15.12.2020
4854 Clouds 9 1012 100 10000 3.6 230 16:46 15.12.2020
4855 Clouds 9 1012 100 10000 3.6 230 16:27 15.12.2020
4856 Mist 9 1011 100 5000 5.7 210 15:43 15.12.2020
4857 Mist 9 1010 100 5000 3.6 190 15:25 15.12.2020
4858 Mist 9 1010 100 5000 3.6 190 14:43 15.12.2020
4859 Mist 9 1010 100 3200 2.6 190 14:21 15.12.2020
4860 Mist 8 1010 100 3200 2.6 190 13:51 15.12.2020
4861 Rain 8 1010 100 3200 2.6 190 13:32 15.12.2020
4862 Rain 8 1010 100 3200 3.6 190 12:47 15.12.2020
4863 Rain 8 1010 100 3200 3.6 180 12:20 15.12.2020
4864 Rain 7 1010 100 3200 3.6 180 11:55 15.12.2020
4865 Mist 7 1010 100 3200 3.6 180 11:26 15.12.2020
4866 Rain 7 1009 100 5000 3.62 173 10:53 15.12.2020
4867 Mist 7 1009 100 5000 3.62 173 10:32 15.12.2020
4868 Rain 7 1009 100 4000 3.4 177 09:51 15.12.2020
4869 Rain 7 1009 100 4000 3.4 177 09:32 15.12.2020
4870 Rain 7 1009 100 10000 3.78 173 08:54 15.12.2020
4871 Rain 6 1009 100 10000 3.3 167 08:29 15.12.2020
4872 Mist 6 1008 100 1200 3.3 167 07:50 15.12.2020
4873 Mist 6 1008 100 1200 2.86 156 07:26 15.12.2020
4874 Rain 6 1009 100 6000 2.32 152 06:37 15.12.2020
4875 Rain 6 1009 100 10000 2.41 155 04:18 15.12.2020
4876 Clouds 6 1009 70 10000 2.17 157 00:36 15.12.2020
4877 Clear 6 1009 76 10000 2.38 150 23:27 14.12.2020
4878 Clouds 6 1009 80 10000 2.38 150 22:58 14.12.2020
4879 Clouds 6 1009 80 10000 2.38 150 22:36 14.12.2020
4880 Clear 6 1009 75 10000 2.83 154 21:54 14.12.2020
4881 Clear 6 1009 75 10000 2.83 154 21:54 14.12.2020
4882 Clear 6 1009 75 10000 2.83 154 21:35 14.12.2020
4883 Clouds 6 1009 70 10000 2.64 157 20:52 14.12.2020
4884 Clouds 7 1009 70 10000 2.64 157 20:30 14.12.2020
4885 Clouds 7 1009 75 10000 2.29 162 19:59 14.12.2020
4886 Clouds 7 1009 75 10000 2.29 162 19:30 14.12.2020
4887 Clear 7 1009 70 10000 2.15 142 18:55 14.12.2020
4888 Clear 7 1009 70 10000 1.95 146 18:37 14.12.2020
4889 Clouds 7 1009 75 10000 1.97 139 17:53 14.12.2020
4890 Clouds 7 1009 75 10000 1.97 139 17:32 14.12.2020
4891 Clouds 7 1009 81 10000 1.65 145 16:53 14.12.2020
4892 Clouds 7 1009 75 10000 1.65 145 16:30 14.12.2020
4893 Clouds 8 1009 75 10000 1.84 146 15:53 14.12.2020
4894 Clouds 8 1009 75 10000 1.84 146 15:30 14.12.2020
4895 Clouds 8 1010 70 10000 1.5 230 14:45 14.12.2020
4896 Clouds 8 1010 70 10000 1.5 230 14:27 14.12.2020
4897 Clear 8 1010 70 10000 1.88 155 13:47 14.12.2020
4898 Clear 8 1010 70 10000 1.8 160 13:27 14.12.2020
4899 Clouds 8 1010 81 10000 1.8 160 12:54 14.12.2020
4900 Clouds 7 1010 81 10000 2.06 166 12:30 14.12.2020
4901 Clouds 6 1011 93 10000 1.77 162 11:39 14.12.2020
4902 Clouds 6 1011 100 10000 1.45 174 11:20 14.12.2020
4903 Clouds 5 1011 100 10000 1.92 150 10:27 14.12.2020
4904 Clouds 5 1010 100 10000 1.92 150 09:52 14.12.2020
4905 Clouds 4 1009 100 10000 2.3 159 08:56 14.12.2020
4906 Clouds 5 1009 100 10000 2.3 159 08:38 14.12.2020
4907 Clouds 4 1009 100 10000 2.39 158 07:53 14.12.2020
4908 Mist 4 1010 100 6000 2.25 156 07:19 14.12.2020
4909 Drizzle 4 1010 100 10000 1.5 190 06:33 14.12.2020
4910 Clouds 4 1010 86 10000 2.1 190 03:57 14.12.2020
4911 Clouds 4 1010 86 10000 2.1 190 03:57 14.12.2020
4912 Clouds 3 1011 93 10000 3.01 164 00:58 14.12.2020
4913 Clouds 4 1011 86 10000 3.01 164 00:39 14.12.2020
4914 Clouds 3 1011 93 10000 2.78 171 00:20 14.12.2020
4915 Clouds 3 1011 93 10000 2.78 171 23:44 13.12.2020
4916 Clouds 3 1011 93 10000 2.76 170 22:58 13.12.2020
4917 Clouds 3 1011 93 10000 2.76 170 22:39 13.12.2020
4918 Clouds 3 1011 93 10000 1.5 150 22:18 13.12.2020
4919 Clouds 3 1011 93 10000 1.5 150 21:41 13.12.2020
4920 Clouds 4 1011 86 10000 2.1 170 20:55 13.12.2020
4921 Clouds 4 1011 86 10000 2.1 170 20:28 13.12.2020
4922 Clouds 4 1011 86 10000 2.6 170 19:48 13.12.2020
4923 Clouds 4 1011 86 10000 2.6 170 19:24 13.12.2020
4924 Clouds 4 1012 86 10000 2.63 163 18:57 13.12.2020
4925 Clouds 4 1012 86 10000 1.5 160 18:38 13.12.2020
4926 Clouds 4 1012 86 10000 3.26 185 18:18 13.12.2020
4927 Clouds 4 1012 86 10000 3.6 210 17:45 13.12.2020
4928 Clouds 4 1012 86 10000 4.6 220 17:18 13.12.2020
4929 Clouds 4 1012 86 10000 4.6 220 16:50 13.12.2020
4930 Clouds 4 1012 86 10000 4.6 220 16:31 13.12.2020
4931 Clouds 5 1012 80 10000 5.1 210 15:48 13.12.2020
4932 Clouds 5 1012 80 10000 5.1 210 15:27 13.12.2020
4933 Clouds 6 1011 70 10000 5.1 200 14:50 13.12.2020
4934 Clouds 6 1011 70 10000 5.1 200 14:29 13.12.2020
4935 Clear 6 1012 80 10000 3.6 230 13:58 13.12.2020
4936 Clear 5 1012 80 10000 3.6 230 13:36 13.12.2020
4937 Clouds 5 1012 86 10000 4.1 230 13:18 13.12.2020
4938 Clouds 5 1012 86 10000 4.1 230 12:36 13.12.2020
4939 Clouds 6 1012 93 10000 4.6 220 12:18 13.12.2020
4940 Clouds 6 1012 93 10000 4.6 220 11:34 13.12.2020
4941 Clouds 6 1011 100 10000 1.5 230 10:47 13.12.2020
4942 Clouds 6 1011 100 10000 1.5 230 10:29 13.12.2020
4943 Clouds 5 1011 100 10000 3.41 235 09:51 13.12.2020
4944 Clouds 5 1010 100 10000 3.05 238 08:53 13.12.2020
4945 Clouds 5 1010 100 10000 3.05 238 08:32 13.12.2020
4946 Clouds 5 1009 100 10000 2.1 240 07:27 13.12.2020
4947 Clouds 6 1006 100 10000 2.6 230 03:31 13.12.2020
4948 Mist 6 1006 100 3600 1.5 230 02:40 13.12.2020
4949 Rain 6 1005 100 6000 2.6 230 01:37 13.12.2020
4950 Rain 6 1005 100 6000 2.6 230 01:37 13.12.2020
4951 Rain 6 1005 100 1800 1.97 238 00:47 13.12.2020
4952 Mist 6 1004 100 1000 1.55 235 23:51 12.12.2020
4953 Mist 6 1004 100 1000 1.55 235 23:31 12.12.2020
4954 Drizzle 6 1004 100 8000 1.44 229 22:46 12.12.2020
4955 Rain 6 1003 100 6000 1.37 229 21:56 12.12.2020
4956 Rain 6 1003 100 5000 1.37 229 21:34 12.12.2020
4957 Mist 6 1003 100 8000 1.39 241 20:55 12.12.2020
4958 Clouds 6 1002 100 10000 1.65 243 20:29 12.12.2020
4959 Mist 6 1002 100 8000 1.65 243 19:57 12.12.2020
4960 Mist 6 1002 100 8000 1.65 243 19:38 12.12.2020
4961 Mist 6 1002 100 8000 2.02 236 19:20 12.12.2020
4962 Mist 6 1001 100 4400 1.79 221 18:42 12.12.2020
4963 Mist 6 1001 100 3600 2.04 212 18:23 12.12.2020
4964 Clouds 5 1001 100 10000 2.04 212 17:47 12.12.2020
4965 Clouds 6 1000 100 10000 1.63 195 16:55 12.12.2020
4966 Clouds 6 999 100 10000 1.32 203 16:20 12.12.2020
4967 Rain 6 999 100 10000 1.32 203 15:45 12.12.2020
4968 Clouds 6 999 100 10000 1.04 224 15:27 12.12.2020
4969 Clouds 6 998 100 10000 1.5 220 14:45 12.12.2020
4970 Clouds 6 998 100 10000 1.1 241 13:55 12.12.2020
4971 Clouds 6 997 100 10000 1.1 241 13:36 12.12.2020
4972 Clouds 6 997 100 10000 0.9 243 12:53 12.12.2020
4973 Mist 5 996 100 5000 0.81 247 11:46 12.12.2020
4974 Mist 5 996 100 3000 0.84 236 10:53 12.12.2020
4975 Fog 4 995 100 800 0.92 213 09:32 12.12.2020
4976 Mist 4 994 100 1600 0.92 182 08:54 12.12.2020
4977 Mist 3 992 100 8000 1.44 145 02:56 12.12.2020
4978 Mist 3 992 100 2600 1.51 132 23:54 11.12.2020
4979 Mist 3 992 100 1800 1.64 148 22:30 11.12.2020
4980 Mist 3 992 100 3600 1.71 141 20:48 11.12.2020
4981 Mist 2 992 100 8000 2.23 134 18:26 11.12.2020
4982 Rain 3 992 100 10000 3.35 150 15:54 11.12.2020
4983 Rain 3 993 100 10000 3.96 150 14:18 11.12.2020
4984 Mist 3 993 100 2400 4.67 155 13:25 11.12.2020
4985 Rain 3 995 100 800 4.66 160 12:19 11.12.2020
4986 Mist 2 996 73 1200 1.5 70 11:51 11.12.2020
4987 Rain 1 996 76 1200 1.5 70 10:46 11.12.2020
4988 Mist 0 996 85 2200 2.57 137 08:53 11.12.2020
4989 Clouds -1 998 92 10000 2.1 90 05:59 11.12.2020
4990 Clouds -1 999 100 10000 1.5 80 05:18 11.12.2020
4991 Clouds -2 1002 92 10000 2.1 80 02:28 11.12.2020
4992 Clouds -1 1004 86 10000 1.89 117 00:31 11.12.2020
4993 Clouds -1 1004 92 10000 1.18 148 22:56 10.12.2020
4994 Clouds -1 1005 92 10000 1.15 147 21:37 10.12.2020
4995 Clouds -1 1005 92 10000 1.38 140 20:47 10.12.2020
4996 Clouds -1 1005 92 10000 1.14 140 19:46 10.12.2020
4997 Clouds -1 1005 92 10000 1.06 136 19:20 10.12.2020
4998 Clouds 0 1005 92 10000 1.06 136 18:44 10.12.2020
4999 Clouds 0 1005 80 10000 0.74 147 16:49 10.12.2020
5000 Clear 1 1005 80 10000 0.49 117 15:50 10.12.2020
5001 Clouds 1 1005 86 10000 0.79 135 14:58 10.12.2020
5002 Clouds 1 1005 86 10000 0.79 135 14:38 10.12.2020
5003 Mist 0 1005 75 8000 1.42 115 13:23 10.12.2020
5004 Mist 0 1006 100 5000 1.27 103 11:43 10.12.2020
5005 Fog -1 1005 92 200 0.64 145 09:33 10.12.2020
5006 Mist -2 1005 100 1200 1.1 129 08:19 10.12.2020
5007 Mist -1 1005 100 2400 0.95 135 06:51 10.12.2020
5008 Mist -1 1006 100 4400 0.83 138 04:45 10.12.2020
5009 Mist 0 1007 88 6000 1.18 186 02:27 10.12.2020
5010 Mist 0 1008 90 9000 1.17 184 00:48 10.12.2020
5011 Mist 0 1009 100 6000 1.54 180 23:23 09.12.2020
5012 Clouds 0 1010 92 10000 2.6 210 20:37 09.12.2020
5013 Clouds 0 1010 97 10000 3.1 220 19:38 09.12.2020
5014 Clouds 0 1009 95 10000 1.5 230 18:21 09.12.2020
5015 Clouds 0 1009 93 10000 1.5 260 16:54 09.12.2020
5016 Clouds 0 1009 84 10000 1.5 260 16:25 09.12.2020
5017 Clouds 1 1009 84 10000 1.47 226 15:41 09.12.2020
5018 Clouds 1 1009 76 10000 1.71 246 14:49 09.12.2020
5019 Clouds 1 1009 73 10000 1.54 246 14:25 09.12.2020
5020 Clouds 1 1009 74 10000 2.1 230 13:19 09.12.2020
5021 Clouds 1 1009 74 10000 2.1 230 12:57 09.12.2020
5022 Clouds 1 1009 77 10000 2.6 230 12:23 09.12.2020
5023 Clouds 1 1009 77 10000 2.6 230 11:33 09.12.2020
5024 Clouds 1 1008 85 10000 2.1 250 09:51 09.12.2020
5025 Clouds 1 1009 88 10000 0.85 260 08:34 09.12.2020
5026 Clouds 2 1007 89 10000 1.24 292 06:38 09.12.2020
5027 Clouds 1 1007 90 10000 2.1 280 05:27 09.12.2020
5028 Mist 2 1006 100 5000 0.76 344 02:31 09.12.2020
5029 Fog 1 1006 100 600 2.6 310 00:34 09.12.2020
5030 Clouds 2 1005 100 10000 0.54 349 23:33 08.12.2020
5031 Mist 2 1005 100 5000 0.34 328 21:56 08.12.2020
5032 Mist 2 1004 100 5000 0.17 103 20:39 08.12.2020
5033 Mist 2 1004 100 5000 0.54 65 19:30 08.12.2020
5034 Mist 2 1003 100 5000 1.46 9 18:35 08.12.2020
5035 Clouds 2 1002 100 5000 2.1 40 17:18 08.12.2020
5036 Clouds 3 1001 93 4000 1.5 70 15:22 08.12.2020
5037 Mist 3 1001 93 3200 2.6 60 13:49 08.12.2020
5038 Mist 3 1001 93 3200 4.1 60 12:41 08.12.2020
5039 Clouds 2 1001 93 3200 4.1 60 11:55 08.12.2020
5040 Clouds 1 1001 100 10000 3.6 60 10:57 08.12.2020
5041 Snow 1 1001 100 3200 3.6 60 10:39 08.12.2020
5042 Snow 1 1000 85 4400 2.6 60 09:38 08.12.2020
5043 Snow 1 1000 90 10000 3.1 70 07:40 08.12.2020
5044 Clouds 0 999 93 10000 3.1 70 05:35 08.12.2020
5045 Clouds 1 999 100 10000 1.5 60 02:29 08.12.2020
5046 Clouds 2 1000 100 10000 3.1 70 00:44 08.12.2020
5047 Clouds 2 1000 100 10000 2.1 60 23:36 07.12.2020
5048 Clouds 1 1000 88 10000 2.03 108 22:21 07.12.2020
5049 Clouds 1 1000 88 10000 2.03 108 21:38 07.12.2020
5050 Clouds 2 1000 93 10000 1.51 123 19:35 07.12.2020
5051 Clouds 2 1000 93 10000 1.31 126 17:59 07.12.2020
5052 Clouds 2 1000 93 10000 2.6 180 17:22 07.12.2020
5053 Clouds 3 1000 93 10000 1.42 147 16:43 07.12.2020
5054 Clouds 3 999 93 10000 2.35 187 15:25 07.12.2020
5055 Clouds 3 999 93 10000 2.35 187 14:36 07.12.2020
5056 Clouds 3 999 93 10000 4.1 200 13:37 07.12.2020
5057 Clouds 3 999 93 10000 4.1 200 12:34 07.12.2020
5058 Clouds 3 999 93 10000 3.1 220 11:43 07.12.2020
5059 Mist 3 999 100 10000 3.1 220 10:38 07.12.2020
5060 Mist 2 998 100 3200 3.1 210 09:24 07.12.2020
5061 Clouds 2 997 100 10000 2.6 240 07:49 07.12.2020
5062 Clouds 2 997 100 10000 3.6 240 05:34 07.12.2020
5063 Mist 2 996 100 8000 3.1 230 04:40 07.12.2020
5064 Mist 2 997 100 6000 3.1 250 01:23 07.12.2020
5065 Rain 3 997 100 6000 0.66 259 22:53 06.12.2020
5066 Mist 3 997 100 5000 1.15 221 22:19 06.12.2020
5067 Mist 3 998 100 6000 1.06 262 20:52 06.12.2020
5068 Mist 3 998 100 6000 1.5 250 20:34 06.12.2020
5069 Mist 3 998 100 8000 0.78 227 19:43 06.12.2020
5070 Clouds 3 998 100 10000 1.28 261 17:55 06.12.2020
5071 Clouds 3 998 100 10000 2.1 240 16:42 06.12.2020
5072 Clouds 3 998 100 10000 0.54 316 14:50 06.12.2020
5073 Clouds 3 999 100 6000 1.34 271 13:32 06.12.2020
5074 Clouds 3 999 100 3600 1.5 260 12:39 06.12.2020
5075 Clear 3 999 100 10000 1.27 336 11:55 06.12.2020
5076 Clouds 2 998 100 10000 1.27 336 11:30 06.12.2020
5077 Clear 2 998 100 10000 0.62 329 10:45 06.12.2020
5078 Rain 2 999 100 8000 0.67 57 09:45 06.12.2020
5079 Rain 2 999 100 10000 1.13 5 08:22 06.12.2020
5080 Clouds 2 999 100 10000 3.1 60 05:38 06.12.2020
5081 Clouds 1 999 100 10000 2.6 50 00:57 06.12.2020
5082 Clear 1 999 100 10000 4.1 60 00:38 06.12.2020
5083 Clear 1 999 100 10000 4.6 50 00:20 06.12.2020
5084 Clear 1 999 100 10000 2.6 60 22:41 05.12.2020
5085 Clear 1 999 92 10000 2.1 50 22:19 05.12.2020
5086 Clear 1 999 92 10000 2.1 50 21:47 05.12.2020
5087 Clear 1 999 89 10000 2.1 50 21:22 05.12.2020
5088 Clear 2 999 86 10000 2.1 80 19:21 05.12.2020
5089 Clear 2 999 86 10000 2.35 111 18:38 05.12.2020
5090 Clear 2 998 74 10000 2.59 119 16:51 05.12.2020
5091 Clear 2 998 74 10000 2.32 127 16:29 05.12.2020
5092 Clouds 3 998 69 10000 2.32 127 15:36 05.12.2020
5093 Clouds 4 998 77 10000 3.5 156 14:24 05.12.2020
5094 Clouds 3 997 80 10000 3.1 180 11:51 05.12.2020
5095 Clouds 2 997 100 10000 1.5 200 10:48 05.12.2020
5096 Clouds 2 997 100 10000 1.5 200 10:29 05.12.2020
5097 Clouds 2 995 100 10000 2.1 190 07:48 05.12.2020
5098 Clouds 2 993 100 10000 2.1 190 06:22 05.12.2020
5099 Clouds 2 992 100 10000 1.46 140 03:39 05.12.2020
5100 Clouds 2 990 100 10000 1.29 144 23:48 04.12.2020
5101 Clouds 3 990 100 10000 1.7 153 22:23 04.12.2020
5102 Clouds 4 989 100 10000 2.26 172 20:19 04.12.2020
5103 Clouds 4 988 100 10000 3.17 169 18:52 04.12.2020
5104 Clear 4 988 100 10000 3.38 167 18:18 04.12.2020
5105 Clouds 4 987 86 10000 2.6 180 17:26 04.12.2020
5106 Clouds 5 987 100 10000 2.1 170 15:37 04.12.2020
5107 Clouds 5 986 93 10000 4.6 180 13:40 04.12.2020
5108 Clouds 5 986 93 10000 4.6 180 13:21 04.12.2020
5109 Clouds 5 986 93 10000 5.1 180 12:49 04.12.2020
5110 Clouds 5 985 93 10000 3.1 160 10:40 04.12.2020
5111 Clouds 5 985 93 10000 3.1 160 09:46 04.12.2020
5112 Clouds 5 984 100 10000 6.7 180 07:20 04.12.2020
5113 Rain 5 983 100 10000 6.2 170 06:39 04.12.2020
5114 Rain 2 986 100 10000 2.6 120 01:57 04.12.2020
5115 Rain 2 989 100 10000 1.5 130 22:52 03.12.2020
5116 Rain 2 989 100 10000 1.5 130 22:30 03.12.2020
5117 Rain 2 992 100 3200 3.1 150 20:49 03.12.2020
5118 Rain 3 993 100 3200 4.6 150 19:37 03.12.2020
5119 Mist 2 994 100 3200 2.6 150 19:18 03.12.2020
5120 Mist 2 995 100 3200 3.1 150 18:18 03.12.2020
5121 Mist 2 996 100 3200 3.1 150 17:19 03.12.2020
5122 Mist 2 997 100 3200 2.6 160 15:56 03.12.2020
5123 Mist 3 997 100 3200 2.6 160 15:31 03.12.2020
5124 Mist 2 999 100 3200 2.1 170 14:48 03.12.2020
5125 Mist 2 1000 100 3200 2.1 170 13:49 03.12.2020
5126 Mist 2 1002 100 3200 3.1 180 12:33 03.12.2020
5127 Snow 1 1002 100 3200 3.6 190 11:49 03.12.2020
5128 Snow 1 1003 100 2000 4.1 180 10:27 03.12.2020
5129 Mist 1 1005 100 1800 3.1 180 08:21 03.12.2020
5130 Clouds 0 1009 92 10000 3.1 210 03:41 03.12.2020
5131 Snow 0 1011 92 6000 3.1 210 01:39 03.12.2020
5132 Mist 1 1011 100 9000 2.6 210 23:41 02.12.2020
5133 Snow 1 1012 100 3200 3.1 230 22:29 02.12.2020
5134 Rain 1 1012 100 5000 3.1 210 21:37 02.12.2020
5135 Mist 1 1013 100 5000 1.5 210 20:48 02.12.2020
5136 Rain 1 1013 100 3200 1.99 194 20:30 02.12.2020
5137 Mist 0 1013 100 3200 1.79 183 19:39 02.12.2020
5138 Drizzle 0 1013 100 1500 2.6 200 17:48 02.12.2020
5139 Drizzle 0 1013 100 1500 2.6 200 17:30 02.12.2020
5140 Mist 1 1014 100 3200 0.33 39 15:43 02.12.2020
5141 Mist 1 1015 100 4000 0.73 46 13:26 02.12.2020
5142 Mist 2 1017 100 3200 1.5 60 11:33 02.12.2020
5143 Clouds 2 1017 100 10000 1.52 43 10:25 02.12.2020
5144 Clouds 2 1017 100 10000 1.62 45 07:46 02.12.2020
5145 Clouds 2 1018 100 10000 1.64 53 23:40 01.12.2020
5146 Fog 2 1017 100 400 1.13 84 22:20 01.12.2020
5147 Fog 2 1015 100 600 1.05 85 19:43 01.12.2020
5148 Fog 2 1015 100 600 0.41 77 18:56 01.12.2020
5149 Fog 3 1015 100 600 0.85 170 17:26 01.12.2020
5150 Mist 3 1014 100 2000 1.2 216 14:53 01.12.2020
5151 Fog 2 1014 100 600 1.5 270 12:48 01.12.2020
5152 Clouds 2 1014 93 7000 4.6 270 11:41 01.12.2020
5153 Clouds 2 1014 100 7000 4.1 280 10:55 01.12.2020
5154 Mist 2 1014 100 5000 3.1 280 10:32 01.12.2020
5155 Mist 0 1013 94 1400 1.97 230 07:47 01.12.2020
5156 Rain 0 1013 94 800 2.78 204 06:26 01.12.2020
5157 Rain 0 1016 100 8000 3.6 220 01:44 01.12.2020
5158 Rain -1 1016 100 9000 3.6 220 00:52 01.12.2020
5159 Mist -1 1018 100 6000 4.6 220 23:21 30.11.2020
5160 Mist -1 1019 100 8000 5.1 230 22:42 30.11.2020
5161 Rain -1 1019 100 8000 5.1 230 22:22 30.11.2020
5162 Rain 0 1020 89 10000 4.1 220 20:47 30.11.2020
5163 Rain 0 1021 85 10000 4.6 210 19:41 30.11.2020
5164 Clouds -1 1022 78 10000 3.6 210 18:22 30.11.2020
5165 Clouds 0 1022 92 10000 2.6 230 17:46 30.11.2020
5166 Clouds 0 1023 77 10000 2.1 230 16:54 30.11.2020
5167 Clear 1 1023 80 10000 3.1 230 15:45 30.11.2020
5168 Clouds 2 1023 74 10000 3.6 230 14:24 30.11.2020
5169 Clouds 1 1024 74 10000 3.1 240 13:42 30.11.2020
5170 Clear 0 1025 86 10000 1.5 230 12:26 30.11.2020
5171 Clear -1 1026 86 10000 1.62 231 11:57 30.11.2020
5172 Clear -3 1026 92 10000 0.77 239 10:26 30.11.2020
5173 Clear -5 1026 92 10000 0.77 239 09:43 30.11.2020
5174 Clear -6 1025 85 8000 2.1 10 07:18 30.11.2020
5175 Clear -4 1025 85 10000 1.28 35 23:39 29.11.2020
5176 Clear -4 1025 86 10000 1.1 50 21:49 29.11.2020
5177 Clear -3 1025 86 10000 1.22 61 21:28 29.11.2020
5178 Clouds -3 1025 86 10000 1.37 60 19:54 29.11.2020
5179 Clouds -2 1024 80 10000 3.6 60 17:47 29.11.2020
5180 Clouds -1 1023 80 10000 3.6 90 15:25 29.11.2020
5181 Clouds 0 1023 71 10000 3.6 60 13:23 29.11.2020
5182 Clouds -1 1024 86 10000 2.1 80 11:41 29.11.2020
5183 Clouds -1 1024 92 10000 3.1 60 10:22 29.11.2020
5184 Clouds 0 1022 96 10000 5.1 80 08:38 29.11.2020
5185 Clouds 0 1022 96 10000 3.6 60 06:32 29.11.2020
5186 Mist 1 1021 100 2200 4.1 60 23:52 28.11.2020
5187 Mist 1 1021 87 1800 3.1 60 22:56 28.11.2020
5188 Clear 2 1020 93 10000 2.1 70 20:47 28.11.2020
5189 Clear 3 1019 86 10000 3.6 70 19:50 28.11.2020
5190 Clear 3 1019 86 10000 3.6 70 19:23 28.11.2020
5191 Clear 3 1019 93 10000 3.6 60 18:44 28.11.2020
5192 Clear 4 1019 86 10000 3.1 60 17:47 28.11.2020
5193 Clear 6 1018 70 10000 4.1 50 16:44 28.11.2020
5194 Clear 8 1018 65 10000 2.6 60 14:56 28.11.2020
5195 Fog 5 1018 93 10000 3.6 50 13:18 28.11.2020
5196 Clouds 3 1019 100 10000 2.1 90 10:46 28.11.2020
5197 Mist 0 1018 100 2200 1.5 80 06:42 28.11.2020
5198 Mist 1 1018 83 9000 1.53 49 03:33 28.11.2020
5199 Mist 1 1018 100 9000 1.5 70 01:50 28.11.2020
5200 Mist 2 1019 100 1000 3.1 60 23:18 27.11.2020
5201 Mist 1 1018 81 4000 3.1 70 21:51 27.11.2020
5202 Mist 2 1018 100 1000 2.6 70 20:37 27.11.2020
5203 Fog 2 1018 81 400 2.1 80 19:30 27.11.2020
5204 Fog 2 1018 100 600 0.97 78 18:51 27.11.2020
5205 Fog 5 1018 100 600 1.01 48 15:21 27.11.2020
5206 Fog 6 1019 100 200 0.91 47 13:57 27.11.2020
5207 Mist 5 1019 100 1800 0.69 61 12:48 27.11.2020
5208 Mist 4 1019 100 1400 0.49 70 11:57 27.11.2020
5209 Fog 2 1019 70 400 0.46 39 10:51 27.11.2020
5210 Mist 2 1019 76 1600 0.17 62 10:27 27.11.2020
5211 Clear 1 1017 93 10000 0.62 124 07:39 27.11.2020
5212 Clouds 2 1020 89 10000 0.71 160 22:47 26.11.2020
5213 Clouds 4 1020 89 10000 0.45 306 22:22 26.11.2020
5214 Fog 4 1020 100 400 0.27 139 21:39 26.11.2020
5215 Fog 3 1020 100 600 0.65 122 20:39 26.11.2020
5216 Clouds 3 1020 100 10000 0.78 117 18:36 26.11.2020
5217 Fog 3 1020 100 200 0.6 121 16:38 26.11.2020
5218 Fog 5 1021 100 200 0.58 200 13:44 26.11.2020
5219 Fog 4 1021 100 200 0.7 207 12:56 26.11.2020
5220 Fog 4 1021 100 10000 0.64 222 12:29 26.11.2020
5221 Fog 1 1022 100 10000 0.66 229 10:40 26.11.2020
5222 Fog 0 1022 100 10000 0.95 170 10:18 26.11.2020
5223 Fog 0 1022 100 200 0.95 170 09:34 26.11.2020
5224 Fog 0 1022 100 200 0.74 151 08:57 26.11.2020
5225 Fog 0 1021 100 200 0.74 151 08:33 26.11.2020
5226 Mist 1 1020 100 1600 0.97 161 02:18 26.11.2020
5227 Clear 3 1019 86 10000 1 150 22:18 25.11.2020
5228 Clear 4 1019 100 10000 1.39 162 20:32 25.11.2020
5229 Mist 3 1019 100 1600 1.56 161 19:18 25.11.2020
5230 Mist 4 1019 100 9000 1.72 165 17:29 25.11.2020
5231 Clear 7 1018 81 10000 1.76 177 15:46 25.11.2020
5232 Clouds 7 1018 75 10000 2.58 177 14:58 25.11.2020
5233 Clouds 5 1018 100 10000 1.5 240 13:46 25.11.2020
5234 Clouds 4 1018 100 10000 1.5 240 12:57 25.11.2020
5235 Mist 3 1019 100 5000 3.6 210 11:26 25.11.2020
5236 Mist 2 1019 100 3600 1.9 161 09:22 25.11.2020
5237 Fog 2 1018 100 600 2.1 220 08:50 25.11.2020
5238 Mist 2 1018 100 5000 1.86 161 07:45 25.11.2020
5239 Clouds 2 1018 100 10000 1.19 142 03:52 25.11.2020
5240 Clouds 2 1019 100 10000 1.15 136 01:49 25.11.2020
5241 Clouds 3 1020 100 10000 1.2 136 00:21 25.11.2020
5242 Clouds 3 1020 100 10000 1.2 136 23:36 24.11.2020
5243 Clouds 3 1020 100 10000 1.09 144 22:51 24.11.2020
5244 Clouds 3 1021 100 10000 1.13 146 21:50 24.11.2020
5245 Clouds 3 1021 100 10000 1.22 144 21:27 24.11.2020
5246 Mist 3 1021 100 1200 4.1 140 20:19 24.11.2020
5247 Fog 4 1021 100 600 1.22 135 17:54 24.11.2020
5248 Fog 4 1021 100 400 1.24 148 17:28 24.11.2020
5249 Fog 4 1022 100 400 1.24 148 16:38 24.11.2020
5250 Fog 4 1022 100 200 1.12 165 15:56 24.11.2020
5251 Fog 4 1022 100 200 1.12 165 15:36 24.11.2020
5252 Fog 4 1022 100 200 1.13 170 15:18 24.11.2020
5253 Fog 4 1022 100 200 1.13 170 14:31 24.11.2020
5254 Fog 5 1024 100 200 0.9 175 12:44 24.11.2020
5255 Fog 5 1024 100 200 0.61 128 12:21 24.11.2020
5256 Fog 4 1025 100 200 0.61 128 11:37 24.11.2020
5257 Fog 4 1025 100 200 0.52 89 10:30 24.11.2020
5258 Fog 3 1025 100 200 0.48 79 09:53 24.11.2020
5259 Fog 3 1025 100 200 0.48 79 09:35 24.11.2020
5260 Fog 2 1025 100 400 0.69 99 07:37 24.11.2020
5261 Fog 4 1027 100 600 0.37 19 04:19 24.11.2020
5262 Clouds 5 1029 100 10000 0.8 181 22:29 23.11.2020
5263 Clouds 5 1029 100 10000 0.8 181 21:37 23.11.2020
5264 Clouds 5 1029 100 10000 0.98 160 20:50 23.11.2020
5265 Mist 5 1029 100 8000 0.8 158 20:26 23.11.2020
5266 Mist 5 1029 100 1800 1.1 174 19:20 23.11.2020
5267 Clouds 7 1028 100 10000 1.01 192 17:26 23.11.2020
5268 Clouds 7 1028 100 10000 0.87 215 16:28 23.11.2020
5269 Clouds 8 1028 100 10000 0.86 229 14:49 23.11.2020
5270 Clouds 8 1028 100 10000 0.94 234 13:33 23.11.2020
5271 Clouds 7 1029 100 10000 0.83 196 12:38 23.11.2020
5272 Mist 7 1029 100 3200 0.76 179 11:49 23.11.2020
5273 Mist 6 1028 100 1200 2.1 230 11:25 23.11.2020
5274 Mist 6 1028 100 1200 0.88 209 09:42 23.11.2020
5275 Mist 6 1028 100 3600 1.07 214 08:49 23.11.2020
5276 Mist 6 1027 100 2800 1.45 218 07:34 23.11.2020
5277 Mist 6 1026 100 3000 2.1 230 02:39 23.11.2020
5278 Clouds 6 1026 100 10000 1.5 240 23:43 22.11.2020
5279 Clouds 6 1027 93 10000 2.6 240 22:19 22.11.2020
5280 Clouds 6 1027 93 10000 2.1 230 21:24 22.11.2020
5281 Clouds 6 1026 93 10000 2.6 230 20:19 22.11.2020
5282 Clouds 6 1027 93 10000 1.5 230 18:59 22.11.2020
5283 Clouds 6 1026 93 10000 1.89 210 18:19 22.11.2020
5284 Clouds 6 1026 81 10000 1.81 211 16:25 22.11.2020
5285 Clouds 6 1026 87 10000 2.6 220 15:25 22.11.2020
5286 Clouds 6 1027 87 10000 3.1 220 13:27 22.11.2020
5287 Clouds 6 1028 86 10000 2.6 230 12:43 22.11.2020
5288 Clouds 6 1028 86 10000 2.1 220 11:54 22.11.2020
5289 Clouds 5 1028 93 10000 2.6 220 10:51 22.11.2020
5290 Clouds 4 1028 86 10000 3.1 220 10:33 22.11.2020
5291 Clouds 3 1028 86 10000 2.42 200 04:39 22.11.2020
5292 Clouds 3 1029 86 10000 2.2 198 00:49 22.11.2020
5293 Clouds 3 1030 86 10000 2.6 220 22:42 21.11.2020
5294 Clouds 1 1030 80 10000 2.1 240 21:32 21.11.2020
5295 Clouds 1 1030 80 10000 2.1 240 21:32 21.11.2020
5296 Clouds 1 1030 75 10000 1.5 240 20:53 21.11.2020
5297 Clouds 1 1030 75 10000 2.43 199 20:21 21.11.2020
5298 Clouds 2 1030 75 10000 1.5 230 19:49 21.11.2020
5299 Clear 2 1030 80 10000 2.6 230 19:18 21.11.2020
5300 Clear 2 1030 82 10000 1.5 210 17:54 21.11.2020
5301 Clouds 3 1030 79 10000 2.6 220 16:47 21.11.2020
5302 Clear 5 1031 75 10000 3.6 210 15:43 21.11.2020
5303 Clouds 5 1031 75 10000 3.1 190 15:21 21.11.2020
5304 Clouds 5 1031 75 10000 3.1 190 14:42 21.11.2020
5305 Clear 4 1032 80 10000 2.6 230 13:27 21.11.2020
5306 Clear 3 1033 86 10000 3.21 202 12:24 21.11.2020
5307 Clear 1 1033 66 10000 3.21 202 11:50 21.11.2020
5308 Clear 0 1033 71 10000 2.95 195 10:37 21.11.2020
5309 Clear -1 1033 92 10000 1.84 185 09:22 21.11.2020
5310 Clouds -1 1034 92 10000 1.84 185 08:50 21.11.2020
5311 Clear -2 1033 92 10000 1.69 192 05:43 21.11.2020
5312 Clear -2 1034 100 10000 1.45 194 04:24 21.11.2020
5313 Clear -1 1035 92 10000 1.22 167 00:26 21.11.2020
5314 Clear -1 1035 100 10000 1.06 150 23:23 20.11.2020
5315 Clear 0 1035 91 10000 0.92 145 21:47 20.11.2020
5316 Clear 0 1035 90 10000 0.85 157 21:26 20.11.2020
5317 Clear 0 1035 90 10000 0.85 157 20:55 20.11.2020
5318 Clear 1 1035 86 10000 0.32 146 19:43 20.11.2020
5319 Clear 2 1034 87 10000 0.69 63 18:29 20.11.2020
5320 Clear 3 1034 87 10000 0.69 63 17:42 20.11.2020
5321 Clouds 4 1034 70 10000 1.05 339 17:23 20.11.2020
5322 Clouds 5 1034 70 10000 1.05 339 16:37 20.11.2020
5323 Clouds 6 1034 70 10000 0.88 339 15:51 20.11.2020
5324 Clouds 5 1034 75 10000 1.56 325 14:30 20.11.2020
5325 Clouds 5 1035 75 10000 2.1 240 13:43 20.11.2020
5326 Clouds 5 1035 86 10000 1.5 280 13:18 20.11.2020
5327 Clouds 5 1035 86 10000 1.5 280 12:31 20.11.2020
5328 Clouds 4 1034 93 10000 3.6 260 11:39 20.11.2020
5329 Clouds 3 1034 100 10000 1.5 230 10:45 20.11.2020
5330 Clouds 2 1034 100 10000 1.5 270 08:52 20.11.2020
5331 Clouds 2 1034 100 10000 1.5 270 08:23 20.11.2020
5332 Clouds 2 1031 93 10000 1.5 260 05:43 20.11.2020
5333 Clouds 1 1031 100 10000 0.79 316 03:43 20.11.2020
5334 Clouds 5 1029 86 10000 1.82 338 22:35 19.11.2020
5335 Clouds 5 1029 86 10000 2.34 8 21:55 19.11.2020
5336 Clouds 6 1028 81 10000 2.71 11 21:19 19.11.2020
5337 Clouds 6 1028 93 10000 1.5 290 20:31 19.11.2020
5338 Clouds 6 1027 93 10000 2.6 250 19:45 19.11.2020
5339 Clouds 7 1027 93 10000 2.6 250 19:22 19.11.2020
5340 Clouds 6 1025 87 10000 3.1 250 17:39 19.11.2020
5341 Rain 7 1024 81 10000 3.6 250 16:48 19.11.2020
5342 Rain 7 1024 81 10000 4.6 260 15:32 19.11.2020
5343 Clouds 8 1023 81 10000 4.6 240 14:39 19.11.2020
5344 Clouds 8 1023 93 10000 5.1 260 13:45 19.11.2020
5345 Clouds 8 1022 93 10000 5.7 240 12:58 19.11.2020
5346 Clouds 7 1022 100 10000 4.6 240 12:34 19.11.2020
5347 Clouds 8 1022 81 10000 5.1 230 11:44 19.11.2020
5348 Clouds 8 1022 81 10000 5.1 230 11:25 19.11.2020
5349 Clouds 8 1022 81 10000 7.2 230 10:52 19.11.2020
5350 Clouds 7 1022 87 10000 4.1 230 09:58 19.11.2020
5351 Clouds 7 1022 93 10000 3.6 230 09:37 19.11.2020
5352 Clouds 7 1022 87 10000 4.1 240 09:18 19.11.2020
5353 Clouds 7 1020 81 10000 3.1 250 08:19 19.11.2020
5354 Clouds 8 1019 93 10000 3.6 220 02:44 19.11.2020
5355 Clouds 7 1020 81 10000 3.6 220 01:30 19.11.2020
5356 Clear 7 1020 87 10000 3.1 220 23:52 18.11.2020
5357 Clear 7 1020 87 10000 3.1 220 23:24 18.11.2020
5358 Clear 8 1021 81 10000 2.6 240 22:36 18.11.2020
5359 Clear 8 1021 87 10000 4.1 190 22:18 18.11.2020
5360 Clear 7 1021 81 10000 3.1 240 21:38 18.11.2020
5361 Clear 7 1021 81 10000 3.3 188 21:19 18.11.2020
5362 Clear 8 1021 81 10000 2.73 190 19:47 18.11.2020
5363 Clear 8 1021 81 10000 2.72 176 19:27 18.11.2020
5364 Clear 8 1022 81 10000 3.1 230 18:55 18.11.2020
5365 Clear 8 1022 81 10000 3.1 230 18:36 18.11.2020
5366 Clear 9 1022 76 10000 2.44 176 17:37 18.11.2020
5367 Clear 11 1022 58 10000 1.5 190 16:24 18.11.2020
5368 Clear 11 1023 76 10000 3.6 170 15:36 18.11.2020
5369 Clear 12 1023 76 10000 3.1 160 14:41 18.11.2020
5370 Clear 12 1024 81 10000 3.1 170 13:43 18.11.2020
5371 Clear 12 1025 71 10000 2.1 230 13:20 18.11.2020
5372 Clear 12 1025 71 10000 2.1 230 12:30 18.11.2020
5373 Clear 9 1025 76 10000 2.35 181 11:35 18.11.2020
5374 Clear 8 1026 87 10000 2 176 10:32 18.11.2020
5375 Clear 7 1026 93 10000 1.6 177 09:57 18.11.2020
5376 Clouds 7 1026 87 10000 2.1 210 07:58 18.11.2020
5377 Clouds 7 1026 87 10000 2.1 200 06:35 18.11.2020
5378 Clouds 9 1027 93 10000 2.08 185 00:33 18.11.2020
5379 Clouds 9 1027 93 10000 1.5 230 23:47 17.11.2020
5380 Clouds 9 1028 93 10000 2.1 220 22:53 17.11.2020
5381 Clouds 10 1028 93 10000 2.1 220 22:29 17.11.2020
5382 Clouds 10 1027 93 10000 2.6 220 21:52 17.11.2020
5383 Clouds 10 1027 93 10000 2.6 220 21:30 17.11.2020
5384 Clouds 9 1028 93 10000 2.6 230 20:50 17.11.2020
5385 Clouds 10 1027 81 10000 1.5 230 20:27 17.11.2020
5386 Clouds 10 1027 81 10000 4.1 230 19:56 17.11.2020
5387 Clouds 10 1027 81 10000 4.1 230 18:35 17.11.2020
5388 Clouds 10 1027 81 10000 5.1 230 17:44 17.11.2020
5389 Clouds 10 1027 81 10000 4.1 230 16:55 17.11.2020
5390 Clouds 10 1027 87 10000 4.1 210 16:20 17.11.2020
5391 Clouds 10 1027 87 10000 4.6 230 15:42 17.11.2020
5392 Clouds 10 1027 87 10000 5.1 200 15:23 17.11.2020
5393 Clouds 10 1027 87 10000 5.1 200 14:56 17.11.2020
5394 Clouds 10 1027 87 10000 5.1 200 14:28 17.11.2020
5395 Clouds 11 1026 87 10000 3.6 190 13:38 17.11.2020
5396 Clouds 10 1026 87 10000 3.6 190 13:18 17.11.2020
5397 Clouds 10 1027 93 10000 4.6 200 12:40 17.11.2020
5398 Clouds 9 1027 100 10000 4.6 200 11:44 17.11.2020
5399 Clouds 9 1027 100 10000 4.1 210 10:49 17.11.2020
5400 Clouds 9 1027 100 10000 4.1 210 10:23 17.11.2020
5401 Clouds 9 1026 93 10000 4.6 210 09:51 17.11.2020
5402 Clouds 8 1026 93 10000 4.6 210 09:29 17.11.2020
5403 Clouds 8 1025 93 10000 3.6 200 08:23 17.11.2020
5404 Clouds 8 1025 93 10000 4.1 210 07:44 17.11.2020
5405 Clouds 8 1024 93 10000 5.1 220 06:40 17.11.2020
5406 Clouds 8 1024 93 10000 4.1 230 03:48 17.11.2020
5407 Clouds 8 1024 100 10000 4.6 240 02:53 17.11.2020
5408 Clouds 8 1024 100 10000 3.1 220 01:25 17.11.2020
5409 Clouds 8 1024 100 10000 2.6 220 00:55 17.11.2020
5410 Clouds 8 1023 100 10000 3.6 220 23:49 16.11.2020
5411 Clouds 8 1023 100 10000 3.1 220 23:29 16.11.2020
5412 Clouds 8 1023 100 10000 5.1 220 22:48 16.11.2020
5413 Clouds 8 1023 100 10000 5.1 220 22:21 16.11.2020
5414 Clouds 8 1022 93 10000 3.6 230 21:47 16.11.2020
5415 Clouds 8 1022 93 10000 3.6 230 21:25 16.11.2020
5416 Clouds 8 1022 93 10000 5.1 220 20:50 16.11.2020
5417 Clouds 8 1022 93 10000 5.7 230 20:24 16.11.2020
5418 Clouds 8 1021 100 10000 5.1 230 19:39 16.11.2020
5419 Clouds 8 1021 100 10000 5.1 230 19:21 16.11.2020
5420 Clouds 9 1020 100 10000 5.1 230 18:41 16.11.2020
5421 Clouds 9 1020 100 10000 6.2 220 17:53 16.11.2020
5422 Clouds 9 1020 93 10000 5.1 220 17:25 16.11.2020
5423 Clouds 9 1019 93 10000 4.6 220 16:56 16.11.2020
5424 Clouds 9 1019 100 10000 5.7 220 16:36 16.11.2020
5425 Clouds 9 1018 100 10000 6.7 220 16:18 16.11.2020
5426 Clouds 9 1018 100 10000 6.7 220 15:41 16.11.2020
5427 Clouds 9 1018 100 10000 6.7 220 15:21 16.11.2020
5428 Drizzle 9 1017 100 10000 7.7 220 14:39 16.11.2020
5429 Clouds 9 1017 100 10000 6.7 220 13:34 16.11.2020
5430 Clouds 9 1016 100 10000 5.7 220 12:34 16.11.2020
5431 Clouds 9 1016 93 10000 7.2 220 11:54 16.11.2020
5432 Clouds 9 1016 87 10000 6.7 220 11:36 16.11.2020
5433 Clouds 9 1016 87 10000 4.6 220 11:18 16.11.2020
5434 Clouds 9 1015 87 10000 5.7 230 10:39 16.11.2020
5435 Clouds 8 1014 100 10000 4.6 220 10:20 16.11.2020
5436 Clouds 8 1014 100 10000 4.6 220 09:41 16.11.2020
5437 Clouds 8 1014 100 10000 7.2 230 08:59 16.11.2020
5438 Rain 8 1013 93 10000 7.2 220 08:38 16.11.2020
5439 Clouds 8 1012 93 10000 5.1 220 07:44 16.11.2020
5440 Drizzle 8 1012 93 10000 5.7 220 06:47 16.11.2020
5441 Clouds 8 1012 93 10000 6.7 210 05:55 16.11.2020
5442 Clouds 8 1010 93 10000 6.7 220 04:37 16.11.2020
5443 Clouds 9 1008 76 10000 4.6 230 01:57 16.11.2020
5444 Clouds 9 1008 76 10000 4.6 230 01:39 16.11.2020
5445 Clouds 10 1007 76 10000 5.7 230 23:53 15.11.2020
5446 Clouds 10 1007 87 10000 4.1 230 23:22 15.11.2020
5447 Clouds 10 1006 87 10000 4.6 220 22:45 15.11.2020
5448 Clouds 10 1006 87 10000 4.6 220 22:20 15.11.2020
5449 Clouds 11 1006 87 10000 6.2 220 21:44 15.11.2020
5450 Clouds 11 1006 87 10000 6.2 220 21:24 15.11.2020
5451 Clouds 11 1006 87 10000 8.7 230 20:41 15.11.2020
5452 Clouds 12 1005 93 10000 7.2 200 20:21 15.11.2020
5453 Rain 13 1005 93 10000 7.2 200 19:48 15.11.2020
5454 Clouds 13 1005 93 10000 7.2 200 19:22 15.11.2020
5455 Clouds 12 1005 100 10000 7.7 180 18:57 15.11.2020
5456 Rain 12 1005 100 10000 6.2 170 18:39 15.11.2020
5457 Rain 13 1005 87 10000 5.7 170 18:19 15.11.2020
5458 Rain 13 1006 82 10000 5.1 180 17:45 15.11.2020
5459 Rain 14 1006 82 10000 5.1 180 17:24 15.11.2020
5460 Rain 14 1006 76 10000 6.2 190 16:50 15.11.2020
5461 Rain 15 1006 62 10000 6.2 180 16:21 15.11.2020
5462 Clear 15 1006 62 10000 6.2 160 15:56 15.11.2020
5463 Clear 15 1006 62 10000 6.2 160 15:29 15.11.2020
5464 Clear 16 1007 63 10000 4.6 160 14:59 15.11.2020
5465 Clear 16 1007 63 10000 4.6 160 14:35 15.11.2020
5466 Clouds 16 1007 63 10000 4.6 180 13:57 15.11.2020
5467 Clouds 16 1008 67 10000 6.2 180 13:37 15.11.2020
5468 Clouds 15 1009 67 10000 5.7 180 12:52 15.11.2020
5469 Clear 14 1010 71 10000 3.6 150 12:26 15.11.2020
5470 Clear 14 1012 71 10000 3.1 190 11:55 15.11.2020
5471 Clear 14 1012 71 10000 3.1 190 11:37 15.11.2020
5472 Clear 12 1011 81 10000 2.6 160 11:18 15.11.2020
5473 Clear 11 1011 81 10000 2.6 160 10:43 15.11.2020
5474 Clear 11 1011 81 10000 2.6 160 10:24 15.11.2020
5475 Clear 10 1012 93 10000 5.65 177 09:41 15.11.2020
5476 Clouds 9 1013 87 10000 4.25 170 09:20 15.11.2020
5477 Clouds 9 1013 87 10000 4.25 170 08:53 15.11.2020
5478 Clouds 9 1013 93 10000 4.25 170 08:30 15.11.2020
5479 Clouds 9 1013 93 10000 5.1 190 07:43 15.11.2020
5480 Clouds 9 1014 87 10000 5.1 180 05:18 15.11.2020
5481 Clouds 9 1014 93 10000 2.6 200 04:49 15.11.2020
5482 Clear 10 1015 93 10000 1.5 230 00:49 15.11.2020
5483 Clear 9 1015 93 10000 1.5 230 00:29 15.11.2020
5484 Clouds 10 1015 100 10000 2.6 200 23:39 14.11.2020
5485 Clear 9 1016 100 10000 2.1 190 22:50 14.11.2020
5486 Clear 9 1016 100 10000 2.1 190 22:31 14.11.2020
5487 Clear 10 1016 93 10000 3.11 176 21:44 14.11.2020
5488 Clear 10 1016 93 10000 3.17 174 21:23 14.11.2020
5489 Clear 9 1016 100 10000 3.17 174 20:59 14.11.2020
5490 Clear 9 1016 100 10000 3.17 174 20:30 14.11.2020
5491 Clear 9 1016 100 10000 3.17 174 20:30 14.11.2020
5492 Clear 10 1016 93 10000 3.05 171 19:55 14.11.2020
5493 Clear 10 1016 93 10000 3.05 171 19:35 14.11.2020
5494 Clouds 10 1016 87 10000 2.87 163 18:55 14.11.2020
5495 Clouds 10 1016 87 10000 2.63 162 18:36 14.11.2020
5496 Clear 11 1016 81 10000 2.72 167 18:18 14.11.2020
5497 Clear 11 1016 81 10000 2.72 167 17:42 14.11.2020
5498 Clear 11 1016 81 10000 2.83 173 17:23 14.11.2020
5499 Clear 12 1017 76 10000 2.6 200 16:45 14.11.2020
5500 Clear 12 1017 76 10000 2.6 200 16:26 14.11.2020
5501 Clear 14 1017 76 10000 3.6 190 15:53 14.11.2020
5502 Clear 14 1017 76 10000 3.6 190 15:30 14.11.2020
5503 Clouds 14 1017 76 10000 3.6 210 14:50 14.11.2020
5504 Clouds 14 1017 76 10000 3.6 210 14:26 14.11.2020
5505 Clear 13 1018 76 10000 3.6 200 13:49 14.11.2020
5506 Clear 13 1018 76 10000 3.6 200 13:27 14.11.2020
5507 Clouds 12 1018 76 10000 3.1 220 12:49 14.11.2020
5508 Clouds 12 1018 82 10000 2.6 200 12:30 14.11.2020
5509 Clear 11 1019 87 10000 1.5 220 11:49 14.11.2020
5510 Clear 11 1019 87 10000 1.5 220 11:30 14.11.2020
5511 Clouds 10 1019 100 10000 3.2 184 10:51 14.11.2020
5512 Clouds 10 1019 100 10000 3.07 178 10:27 14.11.2020
5513 Clouds 10 1019 100 10000 3.07 178 10:27 14.11.2020
5514 Clear 9 1019 100 10000 3.07 178 09:58 14.11.2020
5515 Clear 8 1019 100 10000 3.07 178 09:40 14.11.2020
5516 Clear 8 1019 100 10000 2.43 172 09:22 14.11.2020
5517 Mist 8 1019 100 8000 2.43 172 08:40 14.11.2020
5518 Mist 7 1019 100 6000 2.28 172 08:20 14.11.2020
5519 Clear 8 1019 100 10000 2.28 172 07:41 14.11.2020
5520 Clouds 8 1018 100 10000 2.17 178 06:43 14.11.2020
5521 Clouds 8 1019 100 10000 1.5 200 06:20 14.11.2020
5522 Clouds 8 1019 100 10000 2.83 185 04:45 14.11.2020
5523 Clear 8 1019 100 10000 2.1 210 01:42 14.11.2020
5524 Clouds 9 1019 100 10000 2.75 209 00:25 14.11.2020
5525 Clouds 9 1019 100 10000 1.5 230 23:33 13.11.2020
5526 Clouds 9 1019 100 10000 1.5 220 22:58 13.11.2020
5527 Clouds 10 1019 100 10000 3.18 209 22:40 13.11.2020
5528 Clouds 10 1019 100 10000 4.15 209 22:21 13.11.2020
5529 Clouds 10 1019 100 10000 4.15 209 21:49 13.11.2020
5530 Clouds 10 1019 100 10000 3.49 196 21:25 13.11.2020
5531 Clouds 10 1019 100 10000 3.49 196 20:51 13.11.2020
5532 Clouds 10 1019 100 10000 3.49 196 20:32 13.11.2020
5533 Clouds 10 1019 100 10000 2.1 210 19:56 13.11.2020
5534 Clouds 10 1018 100 10000 3.19 188 19:37 13.11.2020
5535 Clouds 10 1018 100 10000 2.95 203 19:19 13.11.2020
5536 Clouds 10 1018 100 10000 3.86 216 18:32 13.11.2020
5537 Clouds 10 1018 100 10000 3.1 210 17:47 13.11.2020
5538 Clouds 10 1018 100 10000 3.1 210 17:23 13.11.2020
5539 Clouds 10 1018 100 10000 3.1 210 16:58 13.11.2020
5540 Clouds 10 1018 87 10000 4.1 210 16:40 13.11.2020
5541 Rain 10 1018 87 10000 4.1 210 16:20 13.11.2020
5542 Clouds 10 1017 87 10000 4.6 210 15:41 13.11.2020
5543 Clouds 11 1018 81 10000 5.1 200 15:21 13.11.2020
5544 Clouds 11 1017 100 10000 3.6 210 14:38 13.11.2020
5545 Clouds 10 1018 87 10000 2.6 180 14:18 13.11.2020
5546 Mist 10 1018 100 9000 1.5 210 13:32 13.11.2020
5547 Mist 9 1018 100 9000 1.5 240 12:59 13.11.2020
5548 Mist 9 1018 100 9000 1.5 240 12:41 13.11.2020
5549 Mist 9 1018 100 9000 1.5 240 12:23 13.11.2020
5550 Mist 8 1019 100 2400 3.01 170 11:47 13.11.2020
5551 Mist 8 1019 100 2400 3.23 179 11:24 13.11.2020
5552 Fog 7 1019 100 200 3.23 179 10:54 13.11.2020
5553 Fog 7 1019 100 200 3.23 179 10:33 13.11.2020
5554 Fog 7 1019 100 10000 2.74 181 09:53 13.11.2020
5555 Fog 7 1019 100 200 2.74 181 09:32 13.11.2020
5556 Fog 7 1019 100 200 2.74 181 09:32 13.11.2020
5557 Fog 7 1019 100 10000 2.34 168 08:55 13.11.2020
5558 Fog 6 1019 100 200 2.34 168 08:32 13.11.2020
5559 Fog 6 1019 100 200 2.38 161 07:55 13.11.2020
5560 Clouds 6 1019 100 10000 2.38 161 07:37 13.11.2020
5561 Clouds 6 1019 100 10000 2.15 158 07:18 13.11.2020
5562 Clouds 5 1019 100 10000 2.15 158 06:41 13.11.2020
5563 Clouds 5 1019 100 10000 2.05 162 05:42 13.11.2020
5564 Clouds 4 1019 100 10000 1.78 168 04:39 13.11.2020
5565 Clear 3 1021 100 10000 1.26 158 01:43 13.11.2020
5566 Clear 3 1021 100 10000 1.42 166 00:37 13.11.2020
5567 Clear 3 1021 100 10000 1.44 162 00:37 13.11.2020
5568 Clear 3 1021 100 10000 1.86 171 00:18 13.11.2020
5569 Clear 3 1021 100 10000 1.86 171 23:37 12.11.2020
5570 Clear 4 1021 100 10000 1.68 175 23:18 12.11.2020
5571 Clear 4 1021 100 10000 1.68 175 22:48 12.11.2020
5572 Clear 4 1021 100 10000 1.68 175 22:30 12.11.2020
5573 Clear 4 1021 93 10000 1.58 177 21:43 12.11.2020
5574 Clear 4 1021 93 10000 1.58 186 21:24 12.11.2020
5575 Clear 5 1021 87 10000 1.58 186 20:58 12.11.2020
5576 Clear 5 1021 87 10000 1.58 186 20:39 12.11.2020
5577 Clear 6 1021 81 10000 1.5 230 20:20 12.11.2020
5578 Clear 6 1021 81 10000 1.5 230 20:20 12.11.2020
5579 Clear 6 1021 81 10000 1.5 230 19:45 12.11.2020
5580 Clear 6 1021 81 10000 1.5 230 19:27 12.11.2020
5581 Clear 7 1020 87 10000 2.6 220 18:49 12.11.2020
5582 Clear 7 1020 87 10000 2.6 220 18:24 12.11.2020
5583 Clouds 9 1020 71 10000 2.6 220 17:46 12.11.2020
5584 Clouds 9 1020 71 10000 2.6 220 17:27 12.11.2020
5585 Clouds 10 1020 62 10000 1.5 240 16:47 12.11.2020
5586 Clouds 11 1020 62 10000 1.5 240 16:27 12.11.2020
5587 Clouds 11 1019 62 10000 3.1 250 15:59 12.11.2020
5588 Clouds 11 1019 62 10000 3.1 250 15:41 12.11.2020
5589 Clouds 11 1019 62 10000 3.1 250 15:21 12.11.2020
5590 Clouds 12 1019 66 10000 4.6 230 14:46 12.11.2020
5591 Clouds 11 1019 66 10000 4.6 230 14:25 12.11.2020
5592 Clear 11 1019 71 10000 6.2 230 13:55 12.11.2020
5593 Clear 11 1019 71 10000 6.2 230 13:36 12.11.2020
5594 Clouds 11 1019 87 10000 3.1 210 13:18 12.11.2020
5595 Clouds 11 1019 93 10000 3.1 220 12:42 12.11.2020
5596 Clouds 10 1019 100 10000 4.1 210 12:19 12.11.2020
5597 Clouds 9 1019 100 10000 3.6 220 11:46 12.11.2020
5598 Clouds 9 1019 100 10000 3.6 220 11:27 12.11.2020
5599 Clouds 9 1018 100 10000 5.1 200 10:43 12.11.2020
5600 Clouds 9 1018 100 10000 5.1 200 10:24 12.11.2020
5601 Clouds 9 1018 100 10000 5.1 210 09:48 12.11.2020
5602 Clouds 8 1018 100 10000 5.7 200 09:23 12.11.2020
5603 Clouds 9 1018 100 10000 4.1 200 08:57 12.11.2020
5604 Clouds 9 1018 100 10000 3.1 190 08:39 12.11.2020
5605 Clouds 8 1018 100 10000 3.1 200 08:19 12.11.2020
5606 Clouds 8 1018 100 10000 3.1 200 07:50 12.11.2020
5607 Clouds 8 1018 100 10000 3.1 200 07:22 12.11.2020
5608 Clouds 8 1018 100 10000 2.1 170 06:50 12.11.2020
5609 Clouds 8 1018 100 10000 2.77 161 05:37 12.11.2020
5610 Clouds 7 1019 100 10000 1.74 147 03:24 12.11.2020
5611 Clouds 7 1019 100 10000 1.74 147 02:53 12.11.2020
5612 Mist 8 1021 100 8000 1.39 165 00:22 12.11.2020
5613 Mist 7 1021 100 6000 1.5 120 23:26 11.11.2020
5614 Mist 7 1021 100 6000 1.5 120 23:26 11.11.2020
5615 Fog 8 1021 100 800 1.52 137 22:59 11.11.2020
5616 Mist 8 1021 100 1200 1.52 137 22:41 11.11.2020
5617 Mist 8 1021 100 1200 1.34 142 22:21 11.11.2020
5618 Mist 8 1021 100 3200 1.34 142 21:56 11.11.2020
5619 Clouds 8 1022 100 10000 1.34 142 21:38 11.11.2020
5620 Clouds 8 1022 100 10000 1.36 146 21:18 11.11.2020
5621 Clouds 8 1022 100 10000 1.36 146 20:42 11.11.2020
5622 Clouds 8 1022 100 10000 1.29 148 20:21 11.11.2020
5623 Mist 8 1022 100 8000 1.29 148 19:54 11.11.2020
5624 Mist 8 1022 100 6000 1.29 148 19:36 11.11.2020
5625 Mist 8 1022 100 6000 1.31 158 19:18 11.11.2020
5626 Mist 9 1022 100 5000 1.4 153 18:41 11.11.2020
5627 Mist 9 1022 100 6000 1.42 156 18:19 11.11.2020
5628 Mist 10 1022 100 8000 1.42 156 17:37 11.11.2020
5629 Mist 10 1023 100 6000 1.28 161 17:19 11.11.2020
5630 Clouds 10 1023 100 10000 1.28 161 16:39 11.11.2020
5631 Clouds 10 1023 100 10000 0.98 179 16:21 11.11.2020
5632 Clouds 10 1023 100 10000 0.98 179 15:41 11.11.2020
5633 Clouds 10 1023 100 10000 1.36 206 15:23 11.11.2020
5634 Clouds 10 1023 100 10000 1.36 206 14:49 11.11.2020
5635 Mist 9 1023 100 8000 1.36 206 14:30 11.11.2020
5636 Mist 9 1023 100 8000 1.59 204 13:50 11.11.2020
5637 Clouds 10 1024 100 10000 1.49 197 13:24 11.11.2020
5638 Clouds 9 1024 100 10000 1.17 168 12:38 11.11.2020
5639 Fog 9 1025 100 400 0.9 206 12:20 11.11.2020
5640 Fog 10 1025 100 400 0.9 206 11:47 11.11.2020
5641 Fog 9 1025 100 400 1.02 231 11:25 11.11.2020
5642 Fog 9 1025 100 200 1.02 231 10:39 11.11.2020
5643 Fog 9 1025 100 200 0.86 212 10:20 11.11.2020
5644 Fog 9 1026 100 200 0.86 212 09:44 11.11.2020
5645 Fog 9 1026 100 200 0.73 149 09:24 11.11.2020
5646 Fog 9 1026 100 200 0.73 149 08:46 11.11.2020
5647 Fog 9 1026 100 200 0.65 180 08:27 11.11.2020
5648 Fog 8 1026 100 400 0.65 180 07:49 11.11.2020
5649 Fog 8 1026 100 800 0.81 213 06:33 11.11.2020
5650 Fog 8 1026 100 600 0.86 209 05:59 11.11.2020
5651 Fog 8 1027 100 400 0.47 191 02:48 11.11.2020
5652 Fog 8 1027 100 400 0.99 221 00:59 11.11.2020
5653 Fog 8 1027 100 400 1.11 174 00:26 11.11.2020
5654 Fog 8 1027 100 400 1.11 174 23:43 10.11.2020
5655 Fog 8 1027 100 400 1.24 176 23:24 10.11.2020
5656 Fog 8 1027 100 400 1.5 260 22:56 10.11.2020
5657 Fog 8 1027 100 400 1.26 175 22:27 10.11.2020
5658 Fog 8 1027 100 400 1.26 175 21:44 10.11.2020
5659 Fog 8 1027 100 400 1.24 167 21:25 10.11.2020
5660 Fog 8 1026 100 400 1.24 167 20:59 10.11.2020
5661 Fog 8 1026 100 600 1.24 167 20:41 10.11.2020
5662 Fog 8 1026 100 600 1.21 168 20:22 10.11.2020
5663 Mist 8 1026 100 2600 1.21 168 19:49 10.11.2020
5664 Mist 9 1026 100 2000 1.21 168 19:30 10.11.2020
5665 Mist 9 1026 100 1000 1.5 260 18:59 10.11.2020
5666 Fog 9 1026 100 600 1.5 260 18:40 10.11.2020
5667 Mist 9 1026 100 800 0.44 224 18:19 10.11.2020
5668 Mist 9 1026 100 1600 0.44 224 17:44 10.11.2020
5669 Mist 10 1026 100 1600 0.78 253 17:26 10.11.2020
5670 Clouds 10 1026 100 10000 0.78 253 16:57 10.11.2020
5671 Clouds 10 1026 100 10000 0.78 253 16:37 10.11.2020
5672 Fog 10 1026 100 100 1 0 16:19 10.11.2020
5673 Mist 11 1025 100 1200 1.36 255 15:45 10.11.2020
5674 Mist 11 1025 100 1200 1.68 246 15:23 10.11.2020
5675 Fog 11 1025 100 400 1.68 246 14:42 10.11.2020
5676 Fog 11 1025 100 400 1.67 247 14:23 10.11.2020
5677 Fog 11 1026 100 400 1.67 247 13:57 10.11.2020
5678 Fog 11 1026 100 400 1.67 247 13:36 10.11.2020
5679 Mist 11 1026 93 2500 1 0 13:18 10.11.2020
5680 Fog 10 1026 100 800 1.53 240 12:44 10.11.2020
5681 Fog 10 1026 100 800 1.18 242 12:24 10.11.2020
5682 Mist 10 1026 100 8000 1.18 242 11:40 10.11.2020
5683 Mist 10 1026 100 8000 0.82 221 11:21 10.11.2020
5684 Fog 9 1026 100 600 0.82 221 10:46 10.11.2020
5685 Fog 8 1026 100 600 0.41 192 10:27 10.11.2020
5686 Fog 8 1026 100 600 0.41 192 09:57 10.11.2020
5687 Fog 7 1025 100 200 0.41 192 09:39 10.11.2020
5688 Fog 7 1025 100 200 0.52 193 09:19 10.11.2020
5689 Fog 6 1025 100 200 0.52 193 08:48 10.11.2020
5690 Fog 6 1025 100 400 0.54 181 08:25 10.11.2020
5691 Fog 6 1025 100 600 0.54 181 07:43 10.11.2020
5692 Fog 6 1025 100 600 0.52 150 07:20 10.11.2020
5693 Fog 6 1024 100 800 0.67 190 06:39 10.11.2020
5694 Mist 6 1024 100 1400 0.74 159 05:41 10.11.2020
5695 Fog 6 1024 100 800 0.71 163 04:39 10.11.2020
5696 Mist 8 1024 100 1000 0.84 171 02:18 10.11.2020
5697 Mist 8 1024 100 1600 0.78 153 01:25 10.11.2020
5698 Clouds 8 1024 100 10000 1.5 70 23:54 09.11.2020
5699 Clouds 9 1024 100 10000 1.5 70 23:24 09.11.2020
5700 Clouds 9 1024 100 10000 1.5 80 22:44 09.11.2020
5701 Clouds 9 1024 100 10000 1.5 80 22:24 09.11.2020
5702 Mist 9 1024 100 6000 1.02 137 21:46 09.11.2020
5703 Mist 9 1024 100 6000 0.95 132 21:27 09.11.2020
5704 Mist 9 1024 100 6000 0.95 132 20:58 09.11.2020
5705 Mist 10 1024 100 6000 0.95 132 20:36 09.11.2020
5706 Clear 10 1023 93 10000 1.09 129 20:18 09.11.2020
5707 Clear 10 1023 93 10000 1.09 129 19:40 09.11.2020
5708 Clear 10 1023 93 10000 1.11 137 19:21 09.11.2020
5709 Mist 11 1023 93 9000 1.2 135 18:41 09.11.2020
5710 Clear 11 1023 87 10000 1.25 162 18:20 09.11.2020
5711 Clear 11 1023 87 10000 1.25 162 17:52 09.11.2020
5712 Clear 12 1023 87 10000 1.25 162 17:31 09.11.2020
5713 Clear 14 1023 77 10000 1.31 177 16:46 09.11.2020
5714 Clear 14 1023 77 10000 1.2 177 16:28 09.11.2020
5715 Clear 15 1023 72 10000 1.2 177 15:58 09.11.2020
5716 Clear 16 1023 72 10000 1.2 177 15:40 09.11.2020
5717 Clear 16 1023 72 10000 1.33 174 15:20 09.11.2020
5718 Clear 15 1023 72 10000 1.33 174 14:44 09.11.2020
5719 Clear 15 1023 72 10000 1.51 189 14:25 09.11.2020
5720 Clouds 14 1023 100 10000 1.51 189 13:46 09.11.2020
5721 Clouds 14 1023 100 10000 1.76 213 13:20 09.11.2020
5722 Clouds 14 1023 100 10000 1.76 213 12:47 09.11.2020
5723 Clouds 13 1023 100 10000 0.79 158 12:25 09.11.2020
5724 Clouds 13 1024 100 10000 0.79 158 11:57 09.11.2020
5725 Clouds 12 1024 100 10000 0.79 158 11:38 09.11.2020
5726 Clouds 12 1023 100 10000 1.04 104 11:19 09.11.2020
5727 Clouds 12 1023 100 10000 1.04 104 10:42 09.11.2020
5728 Clouds 12 1023 100 10000 0.99 126 10:23 09.11.2020
5729 Mist 11 1023 100 1800 0.99 126 09:45 09.11.2020
5730 Mist 11 1023 100 1800 0.95 130 09:23 09.11.2020
5731 Fog 10 1023 100 800 0.95 130 08:41 09.11.2020
5732 Fog 9 1023 100 400 2.1 80 08:20 09.11.2020
5733 Mist 9 1023 100 9000 2.1 60 07:40 09.11.2020
5734 Mist 9 1023 100 1800 1.5 80 07:19 09.11.2020
5735 Mist 9 1023 100 5000 1.01 91 06:37 09.11.2020
5736 Mist 9 1023 100 1000 0.77 91 03:31 09.11.2020
5737 Clouds 10 1023 100 10000 0.6 103 01:44 09.11.2020
5738 Clouds 10 1023 100 10000 0.66 76 00:59 09.11.2020
5739 Rain 10 1024 100 8000 2.1 80 23:53 08.11.2020
5740 Rain 10 1024 100 8000 2.1 80 23:53 08.11.2020
5741 Clouds 10 1024 100 10000 2.1 90 23:30 08.11.2020
5742 Clouds 9 1024 100 10000 0.84 104 22:58 08.11.2020
5743 Clouds 10 1024 100 10000 1.5 90 22:40 08.11.2020
5744 Clouds 10 1023 93 10000 1.1 94 22:19 08.11.2020
5745 Rain 10 1023 93 10000 1.1 94 21:39 08.11.2020
5746 Clouds 10 1023 100 10000 1.05 102 21:19 08.11.2020
5747 Clouds 9 1023 100 10000 1.05 102 20:55 08.11.2020
5748 Clouds 10 1023 93 10000 1.05 102 20:36 08.11.2020
5749 Clouds 10 1023 93 10000 1.03 72 20:18 08.11.2020
5750 Clouds 10 1023 93 10000 1.03 72 19:42 08.11.2020
5751 Clouds 10 1023 93 10000 0.88 107 19:21 08.11.2020
5752 Rain 10 1023 93 10000 1.01 82 18:48 08.11.2020
5753 Rain 10 1023 93 10000 1.35 89 18:22 08.11.2020
5754 Clouds 10 1023 93 10000 1.35 89 17:58 08.11.2020
5755 Clouds 10 1023 93 10000 1.35 89 17:39 08.11.2020
5756 Clear 11 1023 76 10000 0.6 136 17:20 08.11.2020
5757 Clear 11 1023 76 10000 0.6 136 16:56 08.11.2020
5758 Clear 12 1023 76 10000 0.6 136 16:37 08.11.2020
5759 Clear 13 1023 71 10000 2.1 150 16:18 08.11.2020
5760 Clear 12 1023 76 10000 1.07 197 15:43 08.11.2020
5761 Clear 12 1023 76 10000 1.3 188 15:23 08.11.2020
5762 Clouds 12 1023 76 10000 1.3 188 14:42 08.11.2020
5763 Clouds 12 1023 76 10000 1.39 197 14:23 08.11.2020
5764 Clear 12 1023 71 10000 1.39 197 13:47 08.11.2020
5765 Clear 13 1023 71 10000 0.81 188 13:24 08.11.2020
5766 Clear 12 1024 81 10000 0.81 188 12:47 08.11.2020
5767 Rain 11 1024 81 10000 0.97 168 12:29 08.11.2020
5768 Clear 11 1024 87 10000 0.97 168 11:58 08.11.2020
5769 Clear 11 1024 87 10000 0.97 168 11:40 08.11.2020
5770 Clear 11 1024 87 10000 0.16 191 11:22 08.11.2020
5771 Clouds 10 1024 93 10000 0.16 191 10:51 08.11.2020
5772 Clear 9 1024 81 10000 1.5 120 10:20 08.11.2020
5773 Clouds 9 1024 93 10000 0.66 155 09:59 08.11.2020
5774 Rain 9 1024 93 10000 0.66 155 09:41 08.11.2020
5775 Clear 7 1023 81 10000 1.5 100 09:18 08.11.2020
5776 Clouds 7 1023 100 10000 1.19 164 08:42 08.11.2020
5777 Clouds 7 1023 100 10000 1.41 171 08:22 08.11.2020
5778 Clear 7 1023 93 10000 1.41 171 07:53 08.11.2020
5779 Clear 7 1023 93 10000 1.41 171 07:31 08.11.2020
5780 Clear 7 1023 100 10000 1.12 154 06:27 08.11.2020
5781 Clear 7 1023 93 10000 1.12 154 05:54 08.11.2020
5782 Clear 6 1023 93 10000 1.23 154 04:50 08.11.2020
5783 Clouds 6 1023 87 10000 1 140 02:20 08.11.2020
5784 Clear 6 1023 87 10000 0.5 0 01:19 08.11.2020
5785 Clear 6 1023 87 10000 0.5 0 01:19 08.11.2020
5786 Clear 6 1023 87 10000 0.5 0 01:19 08.11.2020
5787 Clear 6 1023 93 10000 1.1 156 00:31 08.11.2020
5788 Clear 6 1023 93 10000 1.1 156 00:31 08.11.2020
5789 Clear 7 1023 93 10000 1.5 70 23:51 07.11.2020
5790 Clear 7 1023 93 10000 1.5 70 23:31 07.11.2020
5791 Clear 7 1023 93 10000 1.5 70 22:48 07.11.2020
5792 Clear 6 1023 93 10000 1.5 70 22:28 07.11.2020
5793 Clear 6 1023 87 10000 1.2 140 21:58 07.11.2020
5794 Clear 7 1023 87 10000 1.2 140 21:40 07.11.2020
5795 Clear 8 1023 76 10000 0.91 128 21:19 07.11.2020
5796 Clear 8 1023 76 10000 0.91 128 20:46 07.11.2020
5797 Clear 8 1023 76 10000 0.76 136 20:28 07.11.2020
5798 Clear 8 1023 87 10000 0.76 136 19:48 07.11.2020
5799 Clear 8 1023 87 10000 0.88 151 19:27 07.11.2020
5800 Clear 9 1022 81 10000 0.74 127 18:45 07.11.2020
5801 Clear 9 1022 81 10000 1.03 104 18:27 07.11.2020
5802 Clear 10 1023 71 10000 1.03 104 17:57 07.11.2020
5803 Clear 10 1023 71 10000 1.03 104 17:37 07.11.2020
5804 Clear 12 1023 66 10000 0.76 101 16:57 07.11.2020
5805 Clear 12 1023 66 10000 0.76 101 16:39 07.11.2020
5806 Clear 13 1023 62 10000 2.1 140 16:20 07.11.2020
5807 Clear 13 1023 62 10000 0.47 87 15:42 07.11.2020
5808 Clear 14 1023 62 10000 0.91 77 15:22 07.11.2020
5809 Clear 13 1023 62 10000 0.91 77 14:48 07.11.2020
5810 Clear 13 1023 62 10000 0.83 101 14:29 07.11.2020
5811 Clear 12 1024 62 10000 0.83 101 13:56 07.11.2020
5812 Clear 12 1024 62 10000 0.83 101 13:31 07.11.2020
5813 Clear 11 1024 71 10000 2.6 90 12:55 07.11.2020
5814 Clear 10 1024 71 10000 2.6 90 12:30 07.11.2020
5815 Clear 10 1025 71 10000 0.87 74 11:45 07.11.2020
5816 Clear 9 1025 71 10000 0.78 76 11:24 07.11.2020
5817 Clear 7 1025 81 10000 2.1 70 10:46 07.11.2020
5818 Clear 7 1025 81 10000 2.1 70 10:27 07.11.2020
5819 Clear 5 1025 93 10000 2.1 70 09:57 07.11.2020
5820 Clear 4 1025 93 10000 2.1 70 09:37 07.11.2020
5821 Clear 3 1025 93 10000 0.82 72 08:56 07.11.2020
5822 Clear 3 1025 93 10000 0.82 72 08:37 07.11.2020
5823 Clear 4 1025 86 10000 1.5 90 08:18 07.11.2020
5824 Clear 3 1025 84 10000 0.68 69 07:37 07.11.2020
5825 Clear 4 1025 85 10000 0.86 81 06:48 07.11.2020
5826 Clear 4 1025 84 10000 0.87 81 05:37 07.11.2020
5827 Clear 4 1026 84 10000 1.02 83 03:25 07.11.2020
5828 Clear 5 1026 84 10000 1.03 89 01:45 07.11.2020
5829 Clear 5 1026 84 10000 1.02 88 01:25 07.11.2020
5830 Clear 3 1027 83 10000 2.1 60 00:28 07.11.2020
5831 Clear 3 1027 83 10000 1.3 92 23:30 06.11.2020
5832 Clear 4 1027 74 10000 1.24 95 22:45 06.11.2020
5833 Clear 4 1027 75 10000 3.1 100 22:20 06.11.2020
5834 Clear 4 1027 75 10000 3.1 100 22:20 06.11.2020
5835 Clear 4 1028 69 10000 1.2 93 21:58 06.11.2020
5836 Clear 4 1028 69 10000 1.2 93 21:40 06.11.2020
5837 Clear 5 1027 75 10000 4.1 110 21:18 06.11.2020
5838 Clear 5 1027 65 10000 2.1 60 20:43 06.11.2020
5839 Clear 5 1027 70 10000 3.6 100 20:19 06.11.2020
5840 Clear 5 1028 60 10000 2.1 70 19:45 06.11.2020
5841 Clear 5 1028 60 10000 2.1 70 19:26 06.11.2020
5842 Clear 6 1028 56 10000 2.6 80 18:47 06.11.2020
5843 Clear 6 1028 56 10000 2.6 80 18:28 06.11.2020
5844 Clear 7 1028 49 10000 3.1 70 17:52 06.11.2020
5845 Clear 7 1028 49 10000 3.1 70 17:34 06.11.2020
5846 Clear 8 1029 39 10000 3.6 70 16:59 06.11.2020
5847 Clear 9 1029 39 10000 3.6 70 16:37 06.11.2020
5848 Clear 9 1029 34 10000 3.1 70 16:19 06.11.2020
5849 Clear 10 1029 34 10000 3.1 70 15:41 06.11.2020
5850 Clear 10 1030 37 10000 4.1 70 15:22 06.11.2020
5851 Clear 10 1030 37 10000 4.1 70 14:41 06.11.2020
5852 Clear 10 1031 43 10000 3.6 70 14:18 06.11.2020
5853 Clear 10 1031 43 10000 3.6 70 14:18 06.11.2020
5854 Clear 10 1031 43 10000 3.6 70 13:42 06.11.2020
5855 Clear 9 1032 57 10000 4.6 70 13:19 06.11.2020
5856 Clear 9 1032 57 10000 4.6 70 12:42 06.11.2020
5857 Clear 9 1032 57 10000 4.6 70 12:22 06.11.2020
5858 Clear 7 1033 65 10000 3.1 60 11:39 06.11.2020
5859 Clear 6 1032 75 10000 6.2 60 11:20 06.11.2020
5860 Clear 6 1033 70 10000 3.6 60 10:36 06.11.2020
5861 Clear 5 1032 80 10000 6.2 60 10:18 06.11.2020
5862 Clear 4 1033 80 10000 3.6 60 09:44 06.11.2020
5863 Clear 3 1032 80 10000 6.2 50 09:21 06.11.2020
5864 Clear 3 1032 80 10000 6.2 50 09:21 06.11.2020
5865 Clouds 3 1033 73 10000 2.1 60 08:48 06.11.2020
5866 Clouds 2 1033 82 10000 2.1 60 08:28 06.11.2020
5867 Clouds 2 1033 82 10000 2.1 60 07:46 06.11.2020
5868 Clouds 2 1033 83 10000 2.1 60 07:27 06.11.2020
5869 Clouds 2 1034 80 10000 5.1 70 06:48 06.11.2020
5870 Clouds 3 1033 80 10000 4.6 40 05:42 06.11.2020
5871 Clouds 3 1035 86 10000 2.1 60 03:18 06.11.2020
5872 Clouds 2 1035 78 10000 1.5 70 00:46 06.11.2020
5873 Clear 2 1036 79 10000 2.1 50 00:19 06.11.2020
5874 Clear 2 1036 79 10000 2.1 50 23:30 05.11.2020
5875 Clear 2 1036 80 10000 2.1 50 22:57 05.11.2020
5876 Clear 2 1036 80 10000 2.1 50 22:37 05.11.2020
5877 Clear 2 1036 80 10000 2.09 56 22:18 05.11.2020
5878 Clear 2 1036 80 10000 2.09 56 21:43 05.11.2020
5879 Clear 2 1036 82 10000 1.95 61 21:21 05.11.2020
5880 Clear 3 1036 82 10000 1.5 50 20:48 05.11.2020
5881 Clear 3 1036 83 10000 1.5 50 20:29 05.11.2020
5882 Clear 3 1036 74 10000 1.5 40 20:00 05.11.2020
5883 Clear 3 1036 74 10000 1.5 40 19:41 05.11.2020
5884 Clear 3 1036 74 10000 1.5 40 19:22 05.11.2020
5885 Clear 4 1036 81 10000 1.5 60 18:45 05.11.2020
5886 Clear 4 1036 79 10000 1.5 60 18:26 05.11.2020
5887 Clear 6 1036 79 10000 2.1 50 17:52 05.11.2020
5888 Clear 6 1036 74 10000 2.1 50 17:29 05.11.2020
5889 Clear 8 1036 74 10000 4.6 50 16:59 05.11.2020
5890 Clear 8 1036 74 10000 4.6 50 16:41 05.11.2020
5891 Clear 8 1036 65 10000 2.6 60 16:20 05.11.2020
5892 Clear 10 1036 65 10000 2.6 60 15:46 05.11.2020
5893 Clear 9 1036 58 10000 2.6 60 15:22 05.11.2020
5894 Clear 9 1037 57 10000 4.1 40 14:46 05.11.2020
5895 Clear 9 1037 57 10000 4.1 40 14:27 05.11.2020
5896 Clear 9 1037 61 10000 4.6 50 13:49 05.11.2020
5897 Clear 9 1037 61 10000 4.6 50 13:30 05.11.2020
5898 Clear 7 1038 81 10000 3.25 48 12:53 05.11.2020
5899 Clear 7 1038 81 10000 3.09 50 12:29 05.11.2020
5900 Clear 6 1038 87 10000 3.09 50 11:55 05.11.2020
5901 Clear 6 1038 87 10000 3.09 50 11:37 05.11.2020
5902 Mist 5 1038 100 2600 2.84 44 11:19 05.11.2020
5903 Mist 4 1038 100 1600 2.84 44 10:43 05.11.2020
5904 Mist 4 1038 100 1600 2.36 46 10:25 05.11.2020
5905 Fog 3 1038 77 400 2.36 46 09:47 05.11.2020
5906 Fog 2 1038 85 400 2.24 38 09:22 05.11.2020
5907 Mist 1 1038 100 3600 2.24 38 08:44 05.11.2020
5908 Mist 1 1038 100 3600 1.77 47 08:26 05.11.2020
5909 Clear 1 1037 100 10000 1.77 47 07:41 05.11.2020
5910 Mist 1 1037 90 8000 1.83 51 07:20 05.11.2020
5911 Mist 1 1037 91 8000 1.83 50 06:42 05.11.2020
5912 Clear 1 1037 90 10000 1.99 47 05:53 05.11.2020
5913 Clear 2 1036 93 10000 1.88 42 01:38 05.11.2020
5914 Clear 3 1036 93 10000 1.97 43 00:33 05.11.2020
5915 Clear 2 1036 93 10000 1.93 36 23:45 04.11.2020
5916 Clear 2 1036 93 10000 1.93 36 23:45 04.11.2020
5917 Clear 2 1036 93 10000 1.85 41 23:26 04.11.2020
5918 Clear 4 1036 86 10000 1.85 41 22:54 04.11.2020
5919 Clear 4 1036 86 10000 1.85 41 22:36 04.11.2020
5920 Clear 3 1035 86 10000 1.5 360 22:18 04.11.2020
5921 Clear 3 1035 86 10000 1.5 360 21:42 04.11.2020
5922 Clear 3 1035 86 10000 1.5 360 21:24 04.11.2020
5923 Clear 4 1034 80 10000 1.9 41 20:45 04.11.2020
5924 Clear 4 1034 80 10000 2.17 34 20:27 04.11.2020
5925 Clear 4 1034 75 10000 2.17 34 19:50 04.11.2020
5926 Clear 4 1034 75 10000 2.17 34 19:30 04.11.2020
5927 Clear 4 1034 75 10000 2.17 34 19:30 04.11.2020
5928 Clear 5 1033 75 10000 2.09 39 18:56 04.11.2020
5929 Clear 5 1033 75 10000 2.09 39 18:38 04.11.2020
5930 Clouds 6 1032 65 10000 1.95 55 18:20 04.11.2020
5931 Clouds 6 1032 65 10000 1.95 55 17:41 04.11.2020
5932 Clouds 7 1032 65 10000 1.66 62 17:23 04.11.2020
5933 Clear 8 1031 57 10000 1.66 62 16:42 04.11.2020
5934 Clear 9 1031 57 10000 1.69 59 16:24 04.11.2020
5935 Clear 9 1031 57 10000 2.6 40 15:55 04.11.2020
5936 Clear 10 1031 57 10000 2.6 40 15:36 04.11.2020
5937 Clouds 9 1031 70 10000 2.46 46 15:18 04.11.2020
5938 Clouds 9 1031 70 10000 2.46 46 14:41 04.11.2020
5939 Clouds 9 1031 70 10000 2.59 31 14:23 04.11.2020
5940 Clouds 9 1031 70 10000 2.59 31 13:48 04.11.2020
5941 Clear 8 1031 75 10000 2.53 17 13:21 04.11.2020
5942 Clear 8 1031 81 10000 2.53 17 12:55 04.11.2020
5943 Clear 8 1031 81 10000 2.62 21 12:37 04.11.2020
5944 Clouds 7 1031 93 10000 2.09 18 12:18 04.11.2020
5945 Clouds 6 1031 93 10000 2.09 18 11:42 04.11.2020
5946 Clouds 6 1031 93 10000 1.45 17 11:20 04.11.2020
5947 Clouds 4 1031 93 10000 1.45 17 10:47 04.11.2020
5948 Clouds 4 1031 93 10000 0.84 42 10:23 04.11.2020
5949 Mist 3 1030 100 3200 0.84 42 09:54 04.11.2020
5950 Mist 3 1030 100 3200 0.63 70 09:26 04.11.2020
5951 Fog 3 1030 86 200 0.63 70 08:47 04.11.2020
5952 Fog 2 1030 91 200 0.31 347 08:22 04.11.2020
5953 Clear 3 1029 100 10000 0.31 347 07:57 04.11.2020
5954 Clear 3 1029 100 10000 0.31 347 07:31 04.11.2020
5955 Clouds 3 1028 100 10000 0.43 213 06:57 04.11.2020
5956 Clouds 4 1028 100 10000 0.36 221 06:38 04.11.2020
5957 Clouds 4 1028 93 10000 0.83 202 04:46 04.11.2020
5958 Clear 3 1027 93 10000 1.41 234 02:31 04.11.2020
5959 Clear 4 1027 93 10000 2.1 250 01:32 04.11.2020
5960 Clear 4 1026 93 10000 2.62 227 23:53 03.11.2020
5961 Clear 4 1026 93 10000 2.86 230 23:25 03.11.2020
5962 Clear 5 1026 93 10000 3.1 210 22:54 03.11.2020
5963 Clear 5 1026 93 10000 3.1 210 22:36 03.11.2020
5964 Clouds 6 1026 93 10000 2.1 240 22:18 03.11.2020
5965 Clouds 6 1026 93 10000 2.1 240 21:41 03.11.2020
5966 Clouds 6 1026 93 10000 2.1 240 21:23 03.11.2020
5967 Clouds 7 1025 93 10000 2.1 220 20:48 03.11.2020
5968 Clear 6 1025 93 10000 2.1 240 20:26 03.11.2020
5969 Clear 7 1024 93 10000 3.1 230 19:55 03.11.2020
5970 Clear 7 1024 93 10000 3.1 230 19:37 03.11.2020
5971 Clouds 7 1024 93 10000 3.6 240 19:18 03.11.2020
5972 Clouds 8 1024 93 10000 3.6 240 18:40 03.11.2020
5973 Clouds 8 1023 93 10000 4.1 240 18:19 03.11.2020
5974 Clouds 9 1023 93 10000 3.6 240 17:46 03.11.2020
5975 Rain 9 1023 93 10000 3.6 240 17:27 03.11.2020
5976 Clouds 10 1022 71 10000 3.6 200 16:51 03.11.2020
5977 Clouds 10 1022 66 10000 5.1 200 16:30 03.11.2020
5978 Clouds 11 1022 66 10000 7.2 210 15:55 03.11.2020
5979 Clouds 11 1023 66 10000 4.6 230 15:37 03.11.2020
5980 Clouds 11 1023 76 10000 4.1 210 15:18 03.11.2020
5981 Clouds 11 1023 76 10000 4.1 210 14:41 03.11.2020
5982 Clouds 10 1023 76 10000 4.1 210 14:23 03.11.2020
5983 Clouds 11 1023 76 10000 4.6 210 13:41 03.11.2020
5984 Clouds 10 1023 76 10000 4.6 210 13:21 03.11.2020
5985 Clouds 10 1023 81 10000 4.6 210 12:45 03.11.2020
5986 Clouds 10 1023 81 10000 4.6 210 12:24 03.11.2020
5987 Clear 10 1024 87 10000 4.1 210 11:47 03.11.2020
5988 Clear 10 1024 87 10000 4.1 210 11:26 03.11.2020
5989 Clouds 10 1024 81 10000 4.1 220 10:59 03.11.2020
5990 Clouds 9 1024 81 10000 3.1 220 10:38 03.11.2020
5991 Clouds 9 1023 87 10000 3.6 240 10:18 03.11.2020
5992 Clouds 9 1023 87 10000 3.6 240 09:45 03.11.2020
5993 Clouds 8 1023 87 10000 3.6 240 09:24 03.11.2020
5994 Clouds 8 1023 93 10000 2.6 200 08:49 03.11.2020
5995 Clouds 8 1023 93 10000 2.6 200 08:30 03.11.2020
5996 Clouds 8 1023 93 10000 1.5 220 07:41 03.11.2020
5997 Clouds 9 1022 93 10000 2.1 220 07:19 03.11.2020
5998 Clouds 9 1022 93 10000 2.1 220 06:34 03.11.2020
5999 Clouds 9 1022 87 10000 3.1 220 04:37 03.11.2020
6000 Clouds 10 1020 81 10000 4.6 260 00:46 03.11.2020
6001 Clouds 10 1020 81 10000 4.6 260 00:25 03.11.2020
6002 Clouds 11 1019 87 10000 3.1 240 23:47 02.11.2020
6003 Clouds 11 1019 87 10000 3.1 240 23:28 02.11.2020
6004 Clouds 11 1018 87 10000 3.6 250 22:45 02.11.2020
6005 Clouds 11 1018 87 10000 3.6 250 22:27 02.11.2020
6006 Clouds 12 1018 87 10000 3.1 260 21:58 02.11.2020
6007 Drizzle 12 1017 93 10000 5.1 280 21:37 02.11.2020
6008 Clouds 13 1016 87 10000 6.2 290 21:18 02.11.2020
6009 Rain 16 1015 100 10000 6.2 290 20:39 02.11.2020
6010 Clouds 16 1014 93 10000 7.7 200 20:19 02.11.2020
6011 Rain 16 1014 93 10000 8.7 210 19:44 02.11.2020
6012 Clouds 17 1014 93 10000 8.7 210 19:26 02.11.2020
6013 Rain 18 1014 82 10000 8.7 210 18:55 02.11.2020
6014 Rain 18 1013 72 10000 6.7 220 18:37 02.11.2020
6015 Rain 18 1013 72 10000 6.2 230 18:19 02.11.2020
6016 Drizzle 18 1013 72 10000 4.1 210 17:41 02.11.2020
6017 Drizzle 18 1013 72 10000 4.1 210 17:23 02.11.2020
6018 Clouds 18 1013 72 10000 7.7 220 16:49 02.11.2020
6019 Clouds 19 1013 72 10000 7.7 220 16:31 02.11.2020
6020 Clouds 19 1013 72 10000 8.2 210 15:57 02.11.2020
6021 Clouds 19 1013 72 10000 8.2 210 15:38 02.11.2020
6022 Clouds 19 1013 72 10000 8.2 210 15:38 02.11.2020
6023 Clouds 19 1013 72 10000 7.2 210 15:19 02.11.2020
6024 Clouds 19 1013 72 10000 8.2 210 14:48 02.11.2020
6025 Clouds 18 1013 72 10000 7.2 220 14:19 02.11.2020
6026 Clouds 18 1013 72 10000 7.2 220 13:48 02.11.2020
6027 Clouds 18 1013 72 10000 7.7 220 13:22 02.11.2020
6028 Clouds 18 1013 72 10000 7.2 220 12:51 02.11.2020
6029 Clouds 17 1013 82 10000 7.7 220 12:28 02.11.2020
6030 Clouds 18 1013 77 10000 9.3 210 11:46 02.11.2020
6031 Clouds 16 1013 77 10000 9.3 210 11:22 02.11.2020
6032 Clouds 17 1013 82 10000 10.3 220 10:59 02.11.2020
6033 Clouds 17 1013 82 10000 10.3 220 10:39 02.11.2020
6034 Clouds 17 1013 87 10000 10.3 220 10:18 02.11.2020
6035 Clouds 17 1013 87 10000 10.3 220 09:42 02.11.2020
6036 Clouds 17 1013 87 10000 10.3 220 09:21 02.11.2020
6037 Clouds 16 1013 87 10000 8.2 210 08:39 02.11.2020
6038 Clouds 16 1012 87 10000 7.7 210 08:19 02.11.2020
6039 Clouds 16 1012 93 10000 9.3 220 07:43 02.11.2020
6040 Clouds 16 1013 100 10000 7.7 220 06:48 02.11.2020
6041 Clouds 16 1013 100 10000 7.7 220 06:23 02.11.2020
6042 Clouds 15 1013 100 10000 7.7 210 01:40 02.11.2020
6043 Clouds 15 1013 100 10000 6.7 220 00:44 02.11.2020
6044 Clouds 15 1013 100 10000 6.7 220 00:25 02.11.2020
6045 Clouds 15 1013 100 10000 5.7 210 23:41 01.11.2020
6046 Clouds 15 1013 100 10000 5.7 210 23:23 01.11.2020
6047 Clouds 14 1013 100 10000 5.7 210 22:45 01.11.2020
6048 Clouds 15 1013 100 10000 5.7 210 22:25 01.11.2020
6049 Clouds 15 1013 100 10000 5.7 220 21:46 01.11.2020
6050 Clouds 15 1013 100 10000 5.7 220 21:27 01.11.2020
6051 Clouds 15 1013 100 10000 7.7 210 20:59 01.11.2020
6052 Clouds 15 1013 100 10000 7.2 210 20:40 01.11.2020
6053 Clouds 14 1014 100 10000 5.1 210 20:20 01.11.2020
6054 Clouds 15 1014 100 10000 5.1 210 19:41 01.11.2020
6055 Clouds 15 1014 100 10000 5.1 210 19:22 01.11.2020
6056 Clouds 15 1013 100 10000 6.7 210 18:42 01.11.2020
6057 Clouds 15 1013 100 10000 6.7 210 18:42 01.11.2020
6058 Clouds 14 1013 100 10000 6.2 220 18:20 01.11.2020
6059 Clouds 14 1013 100 10000 6.2 220 18:20 01.11.2020
6060 Clouds 15 1013 100 10000 6.2 220 17:58 01.11.2020
6061 Clouds 15 1013 100 10000 6.2 220 17:40 01.11.2020
6062 Clouds 14 1013 100 10000 7.2 220 17:21 01.11.2020
6063 Clouds 15 1013 100 10000 6.7 210 16:40 01.11.2020
6064 Clouds 14 1013 100 10000 7.2 220 16:19 01.11.2020
6065 Mist 15 1013 100 4000 7.7 210 15:41 01.11.2020
6066 Rain 14 1013 100 4000 7.7 210 15:22 01.11.2020
6067 Clouds 14 1013 100 10000 6.2 210 14:58 01.11.2020
6068 Clouds 14 1014 100 3200 6.7 210 14:39 01.11.2020
6069 Clouds 14 1014 100 3200 6.7 210 14:21 01.11.2020
6070 Mist 14 1014 100 3200 6.7 210 13:48 01.11.2020
6071 Mist 14 1014 100 3200 6.7 210 13:30 01.11.2020
6072 Clouds 15 1014 100 10000 5.7 200 12:44 01.11.2020
6073 Rain 14 1014 100 10000 5.7 200 12:23 01.11.2020
6074 Clouds 14 1015 100 10000 6.2 190 11:52 01.11.2020
6075 Clouds 14 1015 100 10000 6.2 200 11:19 01.11.2020
6076 Clouds 14 1015 100 10000 6.2 200 10:59 01.11.2020
6077 Rain 14 1015 100 10000 5.1 200 10:40 01.11.2020
6078 Rain 14 1015 100 10000 5.1 200 10:21 01.11.2020
6079 Clouds 13 1016 100 10000 4.1 210 09:46 01.11.2020
6080 Clouds 13 1016 100 10000 5.1 220 08:49 01.11.2020
6081 Clouds 13 1015 100 10000 2.1 200 08:24 01.11.2020
6082 Clouds 13 1015 100 10000 3.1 210 07:43 01.11.2020
6083 Clouds 13 1016 100 10000 4.1 200 05:30 01.11.2020
6084 Clouds 12 1017 100 10000 3.6 220 01:52 01.11.2020
6085 Clouds 12 1017 100 10000 4.1 210 00:53 01.11.2020
6086 Clouds 12 1017 93 10000 4.6 220 23:39 31.10.2020
6087 Rain 12 1017 93 10000 4.1 220 23:18 31.10.2020
6088 Rain 12 1017 93 10000 4.1 220 22:43 31.10.2020
6089 Rain 11 1017 93 10000 4.1 220 22:23 31.10.2020
6090 Rain 11 1017 87 10000 3.6 220 21:46 31.10.2020
6091 Clouds 11 1017 87 10000 3.6 220 21:20 31.10.2020
6092 Clouds 11 1017 81 10000 4.97 214 20:39 31.10.2020
6093 Clear 11 1018 81 10000 4.11 213 20:19 31.10.2020
6094 Clear 11 1018 81 10000 4.11 213 19:43 31.10.2020
6095 Clear 11 1018 81 10000 3.63 182 19:24 31.10.2020
6096 Clear 11 1018 81 10000 1.5 200 18:56 31.10.2020
6097 Clear 11 1018 81 10000 1.5 200 18:38 31.10.2020
6098 Clear 12 1018 71 10000 3.1 190 17:44 31.10.2020
6099 Clear 12 1018 71 10000 3.1 190 17:25 31.10.2020
6100 Clear 14 1018 62 10000 2.6 210 16:55 31.10.2020
6101 Clear 14 1018 62 10000 2.6 210 16:33 31.10.2020
6102 Clear 15 1018 62 10000 4.6 180 15:55 31.10.2020
6103 Clear 15 1018 62 10000 4.6 180 15:26 31.10.2020
6104 Clear 15 1019 62 10000 3.6 190 14:55 31.10.2020
6105 Clear 16 1019 62 10000 3.6 190 14:32 31.10.2020
6106 Clear 15 1020 67 10000 1.5 170 13:57 31.10.2020
6107 Clear 14 1020 67 10000 1.5 170 13:39 31.10.2020
6108 Clear 14 1021 62 10000 2.6 180 13:19 31.10.2020
6109 Clear 14 1021 62 10000 2.6 180 12:27 31.10.2020
6110 Clear 13 1022 66 10000 2.1 170 11:42 31.10.2020
6111 Clear 12 1022 66 10000 2.1 170 11:24 31.10.2020
6112 Clear 11 1022 71 10000 3.1 160 10:54 31.10.2020
6113 Clear 11 1022 71 10000 3.1 160 10:33 31.10.2020
6114 Clouds 10 1023 81 10000 2.35 166 09:41 31.10.2020
6115 Clouds 10 1023 81 10000 1.43 152 09:20 31.10.2020
6116 Clouds 9 1023 93 10000 1.05 149 08:28 31.10.2020
6117 Clouds 9 1023 93 10000 1.05 149 07:49 31.10.2020
6118 Clouds 10 1023 93 10000 1.06 140 07:26 31.10.2020
6119 Mist 10 1024 93 4400 1.06 140 06:38 31.10.2020
6120 Clouds 11 1024 93 10000 1.45 178 04:51 31.10.2020
6121 Clouds 11 1024 93 10000 1.64 195 03:45 31.10.2020
6122 Clouds 10 1025 93 10000 2.1 230 01:29 31.10.2020
6123 Clouds 10 1025 93 10000 2.6 230 00:46 31.10.2020
6124 Clouds 11 1025 93 10000 3.1 230 23:51 30.10.2020
6125 Clouds 11 1025 93 10000 3.1 230 23:24 30.10.2020
6126 Clouds 11 1025 93 10000 2.6 240 22:46 30.10.2020
6127 Clouds 11 1025 93 10000 2.6 240 22:24 30.10.2020
6128 Clouds 11 1024 100 10000 3.6 220 21:56 30.10.2020
6129 Clouds 11 1024 100 10000 3.6 220 21:37 30.10.2020
6130 Clouds 12 1024 100 10000 2.6 230 21:18 30.10.2020
6131 Clouds 12 1024 100 10000 2.6 230 20:39 30.10.2020
6132 Clouds 12 1024 100 10000 2.6 230 20:20 30.10.2020
6133 Clouds 12 1024 100 10000 4.1 230 19:46 30.10.2020
6134 Clouds 12 1024 100 10000 4.1 230 19:19 30.10.2020
6135 Clouds 12 1024 100 10000 4.6 230 18:50 30.10.2020
6136 Clouds 12 1024 100 10000 5.7 230 18:28 30.10.2020
6137 Clouds 12 1023 100 10000 4.1 230 17:49 30.10.2020
6138 Clouds 12 1023 100 10000 6.2 230 17:24 30.10.2020
6139 Clouds 12 1023 100 10000 6.2 230 16:58 30.10.2020
6140 Clouds 12 1023 100 10000 4.1 230 16:38 30.10.2020
6141 Clouds 12 1023 100 10000 5.1 230 16:19 30.10.2020
6142 Clouds 13 1023 93 10000 5.7 230 15:40 30.10.2020
6143 Clouds 13 1022 93 10000 5.1 230 15:20 30.10.2020
6144 Clouds 13 1022 93 10000 6.7 230 14:45 30.10.2020
6145 Clouds 13 1022 93 10000 6.7 230 14:25 30.10.2020
6146 Clouds 13 1022 93 10000 5.1 220 13:47 30.10.2020
6147 Clouds 13 1022 93 10000 5.1 220 13:23 30.10.2020
6148 Clouds 12 1022 100 10000 4.6 230 12:56 30.10.2020
6149 Clouds 12 1022 100 10000 5.7 230 12:23 30.10.2020
6150 Clouds 12 1022 100 10000 6.2 230 11:57 30.10.2020
6151 Clouds 12 1022 100 10000 6.2 230 11:57 30.10.2020
6152 Clouds 12 1022 100 10000 6.2 230 11:57 30.10.2020
6153 Clouds 12 1022 93 10000 6.2 220 11:38 30.10.2020
6154 Clouds 13 1022 93 10000 5.1 220 11:18 30.10.2020
6155 Clouds 13 1022 93 10000 6.7 220 10:40 30.10.2020
6156 Clouds 12 1022 93 10000 6.7 220 10:21 30.10.2020
6157 Clouds 12 1021 93 10000 6.7 230 09:44 30.10.2020
6158 Clouds 12 1021 93 10000 6.7 230 09:22 30.10.2020
6159 Rain 12 1021 93 10000 6.2 230 08:41 30.10.2020
6160 Clouds 12 1021 93 10000 6.2 230 08:23 30.10.2020
6161 Clouds 12 1020 93 10000 6.2 220 07:49 30.10.2020
6162 Clouds 12 1020 93 10000 6.2 220 07:31 30.10.2020
6163 Clouds 12 1020 93 10000 5.7 230 06:38 30.10.2020
6164 Clouds 12 1019 100 10000 5.7 230 04:47 30.10.2020
6165 Clouds 12 1019 100 10000 7.2 220 02:27 30.10.2020
6166 Clouds 11 1019 100 10000 5.1 230 00:40 30.10.2020
6167 Clouds 11 1019 100 10000 5.1 230 23:49 29.10.2020
6168 Clouds 11 1019 100 10000 5.7 220 23:31 29.10.2020
6169 Clouds 11 1019 100 10000 4.6 220 22:59 29.10.2020
6170 Clouds 10 1019 100 10000 4.6 220 22:40 29.10.2020
6171 Clouds 10 1019 100 10000 4.6 220 22:22 29.10.2020
6172 Clouds 10 1020 100 10000 4.1 230 21:39 29.10.2020
6173 Clouds 10 1020 93 10000 4.1 210 21:20 29.10.2020
6174 Clouds 10 1020 93 10000 4.1 210 20:42 29.10.2020
6175 Clouds 10 1019 93 10000 3.6 220 20:19 29.10.2020
6176 Rain 10 1020 93 10000 5.1 220 19:43 29.10.2020
6177 Rain 10 1020 93 10000 5.1 220 19:22 29.10.2020
6178 Rain 9 1020 100 10000 3.6 200 18:56 29.10.2020
6179 Rain 9 1020 100 10000 3.1 210 18:36 29.10.2020
6180 Rain 9 1020 100 10000 2.1 210 18:18 29.10.2020
6181 Rain 10 1020 93 10000 2.1 230 17:41 29.10.2020
6182 Rain 10 1020 93 10000 2.6 230 17:21 29.10.2020
6183 Rain 10 1020 93 10000 4.6 230 16:46 29.10.2020
6184 Rain 10 1019 93 10000 4.1 240 16:20 29.10.2020
6185 Rain 10 1019 93 10000 4.1 240 15:56 29.10.2020
6186 Rain 10 1019 93 10000 4.6 240 15:38 29.10.2020
6187 Rain 10 1019 87 10000 5.1 230 15:19 29.10.2020
6188 Clouds 10 1019 87 10000 4.6 240 14:45 29.10.2020
6189 Clouds 10 1019 93 10000 5.1 230 14:23 29.10.2020
6190 Clouds 10 1019 93 10000 5.1 230 14:23 29.10.2020
6191 Clouds 10 1019 93 10000 5.1 230 13:48 29.10.2020
6192 Clouds 10 1019 93 10000 5.1 230 13:28 29.10.2020
6193 Clouds 10 1019 87 10000 7.7 230 12:44 29.10.2020
6194 Clouds 10 1019 81 10000 6.7 230 12:21 29.10.2020
6195 Clouds 10 1019 81 10000 6.7 230 11:58 29.10.2020
6196 Clouds 10 1018 93 10000 6.2 230 11:40 29.10.2020
6197 Clouds 10 1018 93 10000 6.2 230 11:40 29.10.2020
6198 Clouds 9 1018 93 10000 5.1 230 11:21 29.10.2020
6199 Clouds 9 1017 93 10000 6.2 230 10:37 29.10.2020
6200 Clouds 9 1017 93 10000 4.1 230 10:19 29.10.2020
6201 Clouds 9 1017 93 10000 4.1 230 09:50 29.10.2020
6202 Clouds 9 1017 93 10000 4.1 230 09:27 29.10.2020
6203 Clouds 8 1016 93 10000 3.6 240 08:52 29.10.2020
6204 Mist 8 1016 93 9000 4.6 240 08:26 29.10.2020
6205 Clouds 8 1015 93 10000 3.6 240 07:53 29.10.2020
6206 Clouds 8 1014 93 10000 3.6 230 07:35 29.10.2020
6207 Clouds 8 1014 87 10000 4.6 240 06:55 29.10.2020
6208 Clouds 9 1013 93 10000 4.6 230 04:51 29.10.2020
6209 Rain 9 1012 87 10000 6.7 230 02:51 29.10.2020
6210 Rain 10 1012 90 10000 0.45 355 00:57 29.10.2020
6211 Rain 10 1010 96 10000 1.34 292 00:31 29.10.2020
6212 Clouds 10 1007 80 10000 0.45 0 23:45 28.10.2020
6213 Rain 10 1010 94 10000 0.89 279 23:21 28.10.2020
6214 Rain 11 1010 87 10000 9.8 200 22:44 28.10.2020
6215 Rain 11 1010 87 10000 9.8 200 22:26 28.10.2020
6216 Rain 11 1010 87 10000 9.8 200 22:26 28.10.2020
6217 Rain 11 1010 87 10000 9.8 200 21:58 28.10.2020
6218 Clouds 10 1010 87 10000 9.3 200 21:40 28.10.2020
6219 Clouds 10 1011 87 10000 6.7 200 21:19 28.10.2020
6220 Clouds 10 1011 87 10000 6.2 210 20:41 28.10.2020
6221 Rain 10 1011 87 10000 6.2 210 20:22 28.10.2020
6222 Clouds 11 1011 76 10000 8.2 210 19:50 28.10.2020
6223 Rain 11 1011 71 10000 8.2 210 19:28 28.10.2020
6224 Clouds 11 1011 71 10000 6.2 200 18:47 28.10.2020
6225 Clouds 11 1011 71 10000 6.2 200 18:21 28.10.2020
6226 Clouds 11 1011 71 10000 8.2 210 17:45 28.10.2020
6227 Clouds 11 1011 71 10000 8.2 210 17:25 28.10.2020
6228 Clouds 11 1011 71 10000 7.2 210 16:57 28.10.2020
6229 Clouds 11 1011 71 10000 8.7 220 16:39 28.10.2020
6230 Clouds 11 1011 66 10000 6.2 220 16:20 28.10.2020
6231 Clouds 11 1011 66 10000 6.2 220 15:38 28.10.2020
6232 Clouds 12 1011 81 10000 0.89 328 15:19 28.10.2020
6233 Clouds 12 1012 66 10000 7.7 220 14:43 28.10.2020
6234 Clouds 12 1012 66 10000 7.7 220 14:23 28.10.2020
6235 Clouds 12 1011 88 10000 0.89 338 12:48 28.10.2020
6236 Clouds 12 1008 70 10000 1.34 0 12:27 28.10.2020
6237 Clouds 12 1008 69 10000 1.34 0 11:58 28.10.2020
6238 Clouds 12 1008 75 10000 7.34 239 11:39 28.10.2020
6239 Rain 11 1011 96 10000 0.45 268 11:19 28.10.2020
6240 Clouds 10 1010 100 10000 5.1 210 10:48 28.10.2020
6241 Clouds 10 1010 100 10000 5.1 210 10:29 28.10.2020
6242 Rain 10 1009 100 10000 3.1 200 09:45 28.10.2020
6243 Rain 10 1009 100 10000 3.1 200 09:23 28.10.2020
6244 Clouds 10 1009 100 10000 3.6 220 08:51 28.10.2020
6245 Clouds 10 1009 100 10000 4.1 220 08:31 28.10.2020
6246 Clouds 10 1008 100 10000 3.6 210 07:54 28.10.2020
6247 Clouds 10 1008 100 10000 3.1 200 07:31 28.10.2020
6248 Rain 10 1008 100 10000 2.1 220 06:57 28.10.2020
6249 Rain 10 1008 100 10000 2.6 220 06:38 28.10.2020
6250 Clouds 10 1007 100 10000 4.6 200 05:44 28.10.2020
6251 Clouds 10 1007 100 10000 5.7 200 04:50 28.10.2020
6252 Rain 10 1006 100 10000 6.7 210 04:20 28.10.2020
6253 Clouds 10 1006 100 10000 5.1 200 01:56 28.10.2020
6254 Rain 9 1006 93 10000 6.2 200 00:33 28.10.2020
6255 Clouds 9 1006 93 10000 4.1 190 23:50 27.10.2020
6256 Clouds 9 1006 93 10000 4.1 190 23:22 27.10.2020
6257 Clouds 9 1006 81 10000 8.2 190 22:45 27.10.2020
6258 Clouds 9 1006 81 10000 8.2 190 22:22 27.10.2020
6259 Clouds 9 1006 81 10000 8.2 190 21:57 27.10.2020
6260 Clouds 9 1006 81 10000 8.2 190 21:38 27.10.2020
6261 Clouds 9 1007 81 10000 4.6 190 21:20 27.10.2020
6262 Clouds 9 1007 81 10000 4.6 190 20:54 27.10.2020
6263 Clouds 9 1007 81 10000 4.6 190 20:36 27.10.2020
6264 Clouds 9 1007 81 10000 5.1 190 20:18 27.10.2020
6265 Clouds 9 1007 81 10000 5.1 190 20:18 27.10.2020
6266 Clouds 9 1007 76 10000 5.1 180 19:39 27.10.2020
6267 Clouds 8 1007 76 10000 5.1 180 19:20 27.10.2020
6268 Clouds 9 1007 76 10000 4.1 170 18:55 27.10.2020
6269 Clouds 9 1007 76 10000 4.1 170 18:37 27.10.2020
6270 Clouds 9 1007 76 10000 3.6 180 18:18 27.10.2020
6271 Clouds 9 1007 76 10000 3.6 180 17:40 27.10.2020
6272 Clouds 9 1007 71 10000 4.1 180 17:20 27.10.2020
6273 Clouds 10 1007 71 10000 5.1 180 16:48 27.10.2020
6274 Clouds 10 1007 71 10000 5.1 180 16:25 27.10.2020
6275 Clouds 10 1007 71 10000 6.2 200 15:48 27.10.2020
6276 Clouds 10 1007 71 10000 6.2 200 15:30 27.10.2020
6277 Clouds 10 1008 71 10000 6.2 200 14:55 27.10.2020
6278 Clouds 10 1008 76 10000 5.7 200 14:37 27.10.2020
6279 Clouds 9 1008 81 10000 7.7 210 14:19 27.10.2020
6280 Clouds 10 1008 76 10000 7.2 200 13:33 27.10.2020
6281 Clouds 9 1008 87 10000 7.2 210 12:59 27.10.2020
6282 Clouds 9 1008 87 10000 6.2 200 12:39 27.10.2020
6283 Clouds 9 1008 93 10000 6.2 210 12:20 27.10.2020
6284 Clouds 9 1008 87 10000 7.2 210 11:42 27.10.2020
6285 Clouds 9 1008 87 10000 7.2 210 11:22 27.10.2020
6286 Clouds 8 1008 100 10000 5.1 210 10:47 27.10.2020
6287 Clouds 8 1008 100 10000 5.1 210 10:26 27.10.2020
6288 Clouds 8 1008 93 10000 5.7 200 09:46 27.10.2020
6289 Clouds 8 1008 93 10000 5.7 200 09:25 27.10.2020
6290 Clouds 8 1007 100 8000 5.1 200 08:39 27.10.2020
6291 Clouds 8 1007 100 10000 5.1 200 08:20 27.10.2020
6292 Clouds 8 1007 100 10000 5.1 200 07:45 27.10.2020
6293 Clouds 8 1007 100 10000 5.1 200 07:45 27.10.2020
6294 Clouds 7 1007 100 10000 5.1 200 07:26 27.10.2020
6295 Clouds 7 1006 93 10000 3.1 180 06:22 27.10.2020
6296 Clouds 7 1006 93 10000 3.1 180 06:22 27.10.2020
6297 Clouds 7 1006 93 10000 3.1 180 05:53 27.10.2020
6298 Clouds 7 1006 93 10000 3.1 180 05:53 27.10.2020
6299 Clouds 7 1006 93 10000 4.6 200 05:34 27.10.2020
6300 Clouds 7 1006 93 10000 5.1 200 04:50 27.10.2020
6301 Clouds 6 1006 93 10000 2.6 190 02:34 27.10.2020
6302 Clouds 7 1006 93 10000 4.1 220 00:58 27.10.2020
6303 Clouds 7 1006 87 10000 3.6 220 23:47 26.10.2020
6304 Clouds 7 1006 87 10000 3.6 220 23:29 26.10.2020
6305 Clouds 7 1006 93 10000 4.1 200 22:51 26.10.2020
6306 Clouds 7 1006 87 10000 2.6 200 22:27 26.10.2020
6307 Clouds 8 1006 87 10000 4.1 210 21:50 26.10.2020
6308 Clouds 8 1006 81 10000 4.1 200 21:21 26.10.2020
6309 Clouds 8 1005 81 10000 7.2 200 20:58 26.10.2020
6310 Clouds 8 1005 81 10000 3.1 190 20:40 26.10.2020
6311 Rain 8 1005 81 10000 3.1 180 20:22 26.10.2020
6312 Clouds 8 1005 75 10000 3.1 180 19:48 26.10.2020
6313 Clouds 8 1005 75 10000 3.1 180 19:26 26.10.2020
6314 Clouds 8 1004 75 10000 3.6 200 18:55 26.10.2020
6315 Clouds 8 1004 75 10000 3.6 200 18:36 26.10.2020
6316 Clouds 8 1004 70 10000 5.7 200 18:18 26.10.2020
6317 Clouds 9 1004 70 10000 3.6 190 17:40 26.10.2020
6318 Clouds 9 1004 61 10000 5.1 220 17:22 26.10.2020
6319 Clouds 10 1004 61 10000 5.1 220 16:44 26.10.2020
6320 Rain 11 1004 61 10000 5.1 220 16:22 26.10.2020
6321 Clouds 11 1004 58 10000 6.7 220 15:45 26.10.2020
6322 Clouds 11 1004 58 10000 6.7 220 15:26 26.10.2020
6323 Clouds 10 1004 66 10000 5.1 220 14:56 26.10.2020
6324 Clouds 10 1004 66 10000 5.1 220 14:56 26.10.2020
6325 Clouds 10 1004 66 10000 5.1 220 14:38 26.10.2020
6326 Clouds 10 1004 66 10000 4.6 230 13:58 26.10.2020
6327 Clouds 9 1004 70 10000 5.1 220 13:36 26.10.2020
6328 Clouds 9 1004 70 10000 5.1 220 13:18 26.10.2020
6329 Clouds 9 1004 76 10000 5.1 230 12:42 26.10.2020
6330 Clouds 9 1004 76 10000 5.1 230 12:42 26.10.2020
6331 Clouds 9 1004 76 10000 5.1 230 12:23 26.10.2020
6332 Clouds 9 1004 81 10000 4.6 220 11:47 26.10.2020
6333 Clouds 9 1004 81 10000 4.6 220 11:47 26.10.2020
6334 Clouds 9 1004 81 10000 4.6 220 11:25 26.10.2020
6335 Clouds 8 1004 93 10000 5.1 230 10:58 26.10.2020
6336 Clouds 8 1004 93 10000 5.1 230 10:40 26.10.2020
6337 Clouds 8 1004 93 10000 4.1 210 10:19 26.10.2020
6338 Clouds 8 1004 93 10000 4.6 210 09:42 26.10.2020
6339 Clouds 8 1003 93 10000 2.6 210 09:19 26.10.2020
6340 Clouds 8 1003 93 10000 4.1 210 08:29 26.10.2020
6341 Clouds 8 1003 100 10000 4.1 210 07:53 26.10.2020
6342 Clouds 8 1003 100 10000 4.1 210 07:34 26.10.2020
6343 Clouds 9 1002 93 10000 3.6 210 06:37 26.10.2020
6344 Clouds 9 1002 100 10000 3.6 210 04:22 26.10.2020
6345 Clouds 9 1002 100 10000 3.6 200 03:42 26.10.2020
6346 Clouds 9 1002 100 10000 2.1 180 01:40 26.10.2020
6347 Clouds 9 1003 100 10000 2.1 180 00:57 26.10.2020
6348 Clouds 9 1003 100 10000 2.6 190 00:32 26.10.2020
6349 Rain 9 1003 100 10000 3.1 200 23:41 25.10.2020
6350 Clouds 9 1004 100 10000 2.1 200 23:21 25.10.2020
6351 Clouds 9 1004 100 10000 2.1 190 22:41 25.10.2020
6352 Clouds 9 1004 100 10000 2.1 190 22:21 25.10.2020
6353 Clouds 9 1004 100 10000 2.1 190 22:21 25.10.2020
6354 Clouds 9 1004 100 10000 3.1 200 21:43 25.10.2020
6355 Clouds 9 1004 100 10000 3.1 200 21:24 25.10.2020
6356 Clouds 9 1004 93 10000 2.6 200 20:56 25.10.2020
6357 Clouds 9 1004 93 10000 4.6 200 20:38 25.10.2020
6358 Clouds 10 1004 100 10000 4.1 190 20:19 25.10.2020
6359 Clouds 10 1004 100 10000 4.1 190 19:48 25.10.2020
6360 Clouds 10 1004 100 10000 5.1 210 19:24 25.10.2020
6361 Clouds 10 1004 100 10000 3.6 180 18:55 25.10.2020
6362 Rain 10 1004 100 10000 3.6 180 18:37 25.10.2020
6363 Rain 10 1004 100 10000 4.1 200 18:19 25.10.2020
6364 Rain 10 1004 100 10000 4.6 190 17:39 25.10.2020
6365 Rain 10 1004 100 10000 4.6 190 17:21 25.10.2020
6366 Rain 10 1004 100 10000 5.1 200 16:58 25.10.2020
6367 Rain 11 1004 93 10000 3.1 180 16:38 25.10.2020
6368 Rain 11 1004 93 10000 3.1 180 16:18 25.10.2020
6369 Rain 11 1004 93 10000 6.7 200 15:46 25.10.2020
6370 Rain 11 1004 93 10000 6.7 200 15:25 25.10.2020
6371 Rain 11 1004 93 10000 5.7 200 14:47 25.10.2020
6372 Rain 11 1004 93 10000 5.7 200 14:28 25.10.2020
6373 Rain 12 1005 93 10000 3.6 180 13:44 25.10.2020
6374 Rain 12 1005 93 10000 3.6 180 13:22 25.10.2020
6375 Clouds 12 1006 87 10000 5.1 180 12:49 25.10.2020
6376 Rain 12 1006 87 10000 5.1 180 12:27 25.10.2020
6377 Rain 12 1006 87 10000 6.2 180 11:58 25.10.2020
6378 Rain 12 1006 71 10000 5.7 200 11:39 25.10.2020
6379 Clouds 13 1006 76 10000 5.1 190 11:19 25.10.2020
6380 Clouds 12 1006 76 10000 4.1 180 10:44 25.10.2020
6381 Clouds 12 1006 76 10000 4.1 180 10:25 25.10.2020
6382 Clouds 12 1006 81 10000 4.6 190 09:48 25.10.2020
6383 Clouds 11 1006 81 10000 3.6 180 09:20 25.10.2020
6384 Clouds 11 1006 81 10000 3.1 180 08:56 25.10.2020
6385 Clouds 11 1006 81 10000 3.1 180 08:37 25.10.2020
6386 Clouds 11 1007 81 10000 1.5 210 08:19 25.10.2020
6387 Clouds 11 1007 81 10000 1.5 210 07:42 25.10.2020
6388 Clouds 11 1007 81 10000 3.1 180 06:52 25.10.2020
6389 Clouds 11 1007 81 10000 3.1 180 06:26 25.10.2020
6390 Clouds 11 1008 87 10000 3.6 190 05:19 25.10.2020
6391 Clear 10 1008 87 10000 4.1 180 04:48 25.10.2020
6392 Clouds 11 1010 87 10000 4.1 180 02:24 25.10.2020
6393 Clouds 12 1011 100 10000 5.7 210 00:54 25.10.2020
6394 Clouds 12 1011 100 10000 5.1 190 00:28 25.10.2020
6395 Clouds 12 1012 100 10000 5.7 190 23:55 24.10.2020
6396 Clouds 12 1012 100 10000 5.7 190 23:35 24.10.2020
6397 Clouds 12 1012 100 10000 5.7 190 22:59 24.10.2020
6398 Clouds 12 1012 100 10000 6.7 190 22:40 24.10.2020
6399 Clouds 12 1012 100 10000 6.7 190 22:21 24.10.2020
6400 Clouds 12 1012 100 10000 6.7 200 21:55 24.10.2020
6401 Clouds 12 1013 100 10000 6.2 200 21:36 24.10.2020
6402 Clouds 12 1013 100 10000 5.7 190 21:18 24.10.2020
6403 Clouds 12 1013 100 10000 5.7 190 20:42 24.10.2020
6404 Clouds 12 1013 100 10000 5.7 190 20:20 24.10.2020
6405 Clouds 12 1014 93 10000 5.1 190 19:41 24.10.2020
6406 Clouds 12 1014 93 10000 5.1 190 19:23 24.10.2020
6407 Rain 12 1014 93 10000 5.7 190 18:51 24.10.2020
6408 Clouds 12 1013 82 10000 4.6 190 18:31 24.10.2020
6409 Clouds 12 1014 93 10000 4.6 190 17:54 24.10.2020
6410 Clouds 12 1014 93 10000 4.6 190 17:27 24.10.2020
6411 Clouds 12 1014 87 10000 4.6 200 16:57 24.10.2020
6412 Clouds 12 1015 87 10000 5.1 190 16:39 24.10.2020
6413 Clouds 13 1015 87 10000 6.7 200 15:58 24.10.2020
6414 Clouds 13 1015 81 10000 6.2 200 15:38 24.10.2020
6415 Clouds 13 1015 81 10000 6.2 200 15:18 24.10.2020
6416 Clouds 13 1015 87 10000 7.7 200 14:40 24.10.2020
6417 Clouds 12 1015 87 10000 7.7 200 14:22 24.10.2020
6418 Clouds 12 1016 93 10000 6.7 200 13:44 24.10.2020
6419 Clouds 12 1016 93 10000 6.7 200 13:20 24.10.2020
6420 Clouds 12 1016 81 10000 6.7 200 12:41 24.10.2020
6421 Clouds 12 1016 81 10000 6.7 200 12:20 24.10.2020
6422 Clouds 12 1016 81 10000 4.6 190 11:51 24.10.2020
6423 Clouds 12 1016 81 10000 4.6 190 11:24 24.10.2020
6424 Clouds 11 1016 81 10000 5.7 210 10:51 24.10.2020
6425 Clouds 11 1016 87 10000 6.7 220 10:32 24.10.2020
6426 Clouds 11 1016 93 10000 3.6 220 09:50 24.10.2020
6427 Clouds 10 1016 93 10000 4.1 220 09:27 24.10.2020
6428 Clouds 11 1015 100 10000 5.1 230 08:58 24.10.2020
6429 Clouds 11 1015 100 10000 5.1 230 08:19 24.10.2020
6430 Clouds 11 1015 100 10000 3.6 210 07:53 24.10.2020
6431 Clouds 11 1015 100 10000 3.6 210 07:53 24.10.2020
6432 Clouds 11 1015 100 10000 3.6 210 07:24 24.10.2020
6433 Clouds 11 1015 100 10000 2.1 210 06:53 24.10.2020
6434 Clouds 11 1015 100 10000 3.1 200 06:22 24.10.2020
6435 Mist 11 1015 100 9000 2.76 214 02:30 24.10.2020
6436 Clouds 12 1015 100 10000 2.6 230 01:20 24.10.2020
6437 Rain 12 1015 100 10000 2.6 220 00:40 24.10.2020
6438 Clouds 12 1015 100 10000 2.6 220 00:21 24.10.2020
6439 Clouds 12 1015 100 10000 3.1 220 23:49 23.10.2020
6440 Clouds 12 1014 100 10000 2.6 230 23:25 23.10.2020
6441 Clouds 13 1014 100 10000 1.5 220 22:57 23.10.2020
6442 Clouds 12 1014 100 10000 1.5 220 22:37 23.10.2020
6443 Clouds 12 1014 100 10000 1.5 220 22:18 23.10.2020
6444 Clouds 13 1013 100 10000 1.5 230 21:45 23.10.2020
6445 Clouds 13 1013 100 10000 1.5 230 21:24 23.10.2020
6446 Clouds 13 1013 100 10000 2.06 209 20:41 23.10.2020
6447 Clouds 13 1013 100 10000 2.39 197 20:23 23.10.2020
6448 Clouds 13 1013 100 10000 2.39 197 19:52 23.10.2020
6449 Clouds 13 1013 100 10000 2.77 205 19:32 23.10.2020
6450 Clouds 13 1012 100 10000 2.6 240 18:57 23.10.2020
6451 Clouds 13 1012 100 10000 2.6 240 18:37 23.10.2020
6452 Clouds 14 1012 100 10000 2.6 230 18:19 23.10.2020
6453 Clouds 14 1012 100 10000 2.1 220 17:42 23.10.2020
6454 Clouds 14 1012 100 10000 2.1 220 17:20 23.10.2020
6455 Clouds 14 1011 93 10000 4.1 210 16:39 23.10.2020
6456 Clouds 14 1012 100 10000 2.6 200 16:21 23.10.2020
6457 Rain 14 1012 100 10000 2.6 200 15:43 23.10.2020
6458 Rain 14 1012 100 10000 2.6 200 15:24 23.10.2020
6459 Clouds 14 1012 100 10000 2.6 200 14:53 23.10.2020
6460 Clouds 14 1012 100 10000 3.6 210 14:35 23.10.2020
6461 Clouds 14 1012 100 10000 3.1 210 13:56 23.10.2020
6462 Clouds 14 1012 100 10000 5.11 223 13:37 23.10.2020
6463 Clouds 14 1012 100 10000 2.1 240 13:19 23.10.2020
6464 Clouds 14 1012 100 10000 1.5 230 12:47 23.10.2020
6465 Clouds 14 1012 100 10000 1.5 230 12:24 23.10.2020
6466 Clouds 13 1012 100 10000 2.95 201 11:47 23.10.2020
6467 Rain 13 1012 100 10000 2.95 210 11:22 23.10.2020
6468 Clouds 13 1013 100 10000 2.95 210 10:45 23.10.2020
6469 Rain 13 1013 100 10000 2.72 196 10:25 23.10.2020
6470 Mist 13 1012 100 5000 2.6 230 09:46 23.10.2020
6471 Mist 13 1012 100 5000 2.6 230 09:27 23.10.2020
6472 Clouds 13 1012 100 10000 2.93 196 08:52 23.10.2020
6473 Clouds 13 1012 100 10000 2.93 196 08:32 23.10.2020
6474 Rain 13 1012 100 10000 3.33 200 07:38 23.10.2020
6475 Rain 13 1012 100 10000 2.97 194 07:19 23.10.2020
6476 Rain 13 1013 100 10000 3.1 210 06:20 23.10.2020
6477 Rain 14 1013 93 10000 3.1 200 05:35 23.10.2020
6478 Clouds 14 1014 93 10000 3.1 210 02:32 23.10.2020
6479 Clouds 14 1014 93 10000 4.6 200 01:30 23.10.2020
6480 Clouds 14 1014 93 10000 3.1 200 00:47 23.10.2020
6481 Clouds 14 1014 87 10000 1.5 200 23:48 22.10.2020
6482 Clouds 15 1014 87 10000 1.5 200 23:30 22.10.2020
6483 Clouds 15 1014 87 10000 5.7 210 22:50 22.10.2020
6484 Clouds 15 1014 87 10000 5.7 210 22:28 22.10.2020
6485 Clouds 15 1014 87 10000 5.1 200 21:59 22.10.2020
6486 Clouds 15 1014 87 10000 5.1 200 21:59 22.10.2020
6487 Clouds 15 1014 87 10000 5.1 200 21:41 22.10.2020
6488 Clouds 15 1014 87 10000 5.1 200 21:23 22.10.2020
6489 Clouds 15 1014 82 10000 4.1 200 20:56 22.10.2020
6490 Clouds 15 1014 82 10000 4.1 200 20:37 22.10.2020
6491 Clouds 15 1014 72 10000 4.6 210 20:18 22.10.2020
6492 Clouds 16 1014 77 10000 2.6 200 19:40 22.10.2020
6493 Clouds 16 1013 72 10000 2.6 190 19:19 22.10.2020
6494 Clouds 17 1013 72 10000 2.6 190 18:43 22.10.2020
6495 Clouds 17 1013 72 10000 3.1 200 18:20 22.10.2020
6496 Clouds 17 1013 72 10000 3.1 200 17:46 22.10.2020
6497 Clouds 18 1013 72 10000 3.1 200 17:22 22.10.2020
6498 Clouds 18 1013 72 10000 1.5 220 16:56 22.10.2020
6499 Clouds 18 1013 72 10000 2.1 220 16:37 22.10.2020
6500 Clouds 19 1014 68 10000 3.6 220 16:19 22.10.2020
6501 Clouds 19 1014 68 10000 3.6 220 15:43 22.10.2020
6502 Clouds 19 1014 68 10000 3.6 220 15:22 22.10.2020
6503 Clouds 18 1014 68 10000 5.1 210 14:47 22.10.2020
6504 Clouds 18 1014 68 10000 5.1 210 14:24 22.10.2020
6505 Clouds 18 1014 68 10000 4.6 220 13:48 22.10.2020
6506 Clouds 18 1015 72 10000 5.1 220 13:24 22.10.2020
6507 Clouds 17 1015 72 10000 6.2 200 12:47 22.10.2020
6508 Clouds 17 1015 72 10000 6.2 200 12:23 22.10.2020
6509 Clouds 15 1015 82 10000 4.1 220 11:50 22.10.2020
6510 Clouds 15 1015 93 10000 4.6 220 11:20 22.10.2020
6511 Clouds 15 1015 93 10000 4.6 220 10:51 22.10.2020
6512 Clouds 14 1015 93 10000 4.6 220 10:29 22.10.2020
6513 Clouds 13 1014 93 10000 3.1 200 09:52 22.10.2020
6514 Clouds 13 1014 93 10000 3.1 200 09:33 22.10.2020
6515 Clouds 13 1013 93 10000 3.6 190 08:51 22.10.2020
6516 Clouds 13 1013 93 10000 1.5 180 08:31 22.10.2020
6517 Rain 14 1013 93 10000 2.6 220 07:58 22.10.2020
6518 Rain 14 1013 87 10000 2.1 260 07:40 22.10.2020
6519 Rain 14 1013 87 10000 2.1 250 06:59 22.10.2020
6520 Clouds 14 1013 82 10000 2.6 230 06:36 22.10.2020
6521 Clouds 14 1013 87 10000 3.6 230 05:42 22.10.2020
6522 Clouds 13 1013 87 10000 3.6 240 05:19 22.10.2020
6523 Rain 15 1011 82 10000 4.6 200 01:53 22.10.2020
6524 Clouds 16 1011 82 10000 4.6 200 00:27 22.10.2020
6525 Clouds 16 1010 77 10000 3.6 230 23:57 21.10.2020
6526 Clouds 16 1010 77 10000 3.6 230 23:35 21.10.2020
6527 Clouds 16 1010 82 10000 5.7 210 22:54 21.10.2020
6528 Clouds 16 1010 82 10000 5.7 210 22:36 21.10.2020
6529 Clouds 16 1009 82 10000 3.6 220 22:18 21.10.2020
6530 Clouds 16 1009 82 10000 3.1 220 21:42 21.10.2020
6531 Clouds 16 1008 87 10000 2.1 230 21:19 21.10.2020
6532 Clouds 16 1008 87 10000 2.1 230 20:48 21.10.2020
6533 Clouds 16 1008 87 10000 2.1 240 20:19 21.10.2020
6534 Clouds 15 1008 87 10000 2.1 240 19:59 21.10.2020
6535 Rain 16 1007 77 10000 3.1 230 19:38 21.10.2020
6536 Clouds 17 1007 59 10000 7.7 200 19:19 21.10.2020
6537 Clouds 18 1006 55 10000 8.2 200 18:47 21.10.2020
6538 Clouds 19 1006 55 10000 8.2 200 18:26 21.10.2020
6539 Clouds 19 1006 55 10000 7.2 200 17:47 21.10.2020
6540 Clouds 20 1006 52 10000 7.7 200 17:21 21.10.2020
6541 Clouds 19 1006 52 10000 7.7 200 16:57 21.10.2020
6542 Clear 20 1006 52 10000 8.7 200 16:36 21.10.2020
6543 Clear 20 1006 52 10000 8.7 200 16:18 21.10.2020
6544 Clear 20 1006 49 10000 7.2 200 15:44 21.10.2020
6545 Clear 19 1006 49 10000 7.2 200 15:21 21.10.2020
6546 Clouds 19 1006 52 10000 9.3 180 14:46 21.10.2020
6547 Clouds 19 1006 52 10000 9.3 180 14:28 21.10.2020
6548 Clear 18 1007 55 10000 7.7 190 13:46 21.10.2020
6549 Clear 16 1007 55 10000 7.7 190 13:27 21.10.2020
6550 Clear 16 1007 55 10000 7.7 190 13:27 21.10.2020
6551 Clouds 15 1007 55 10000 3.1 180 12:57 21.10.2020
6552 Clouds 15 1007 55 10000 3.1 180 12:37 21.10.2020
6553 Rain 16 1007 55 10000 3.1 180 12:19 21.10.2020
6554 Clouds 15 1007 66 10000 2.1 190 11:41 21.10.2020
6555 Clouds 13 1007 66 10000 2.1 190 11:20 21.10.2020
6556 Rain 13 1007 71 10000 4.57 170 10:46 21.10.2020
6557 Rain 12 1007 71 10000 5.09 180 10:25 21.10.2020
6558 Clouds 11 1007 93 10000 5.09 180 09:54 21.10.2020
6559 Clouds 11 1007 93 10000 5.09 180 09:34 21.10.2020
6560 Clouds 11 1007 81 10000 4.38 164 08:56 21.10.2020
6561 Clouds 10 1007 87 10000 4.38 164 08:38 21.10.2020
6562 Clouds 10 1007 87 10000 2.1 156 08:19 21.10.2020
6563 Rain 10 1007 93 10000 3.4 165 07:37 21.10.2020
6564 Rain 10 1007 87 10000 2.9 160 06:55 21.10.2020
6565 Rain 10 1007 87 10000 2.9 160 06:30 21.10.2020
6566 Rain 12 1008 71 10000 4.22 167 04:47 21.10.2020
6567 Rain 12 1009 76 10000 3.45 182 02:26 21.10.2020
6568 Clouds 11 1010 87 10000 2.77 176 23:51 20.10.2020
6569 Clouds 11 1010 87 10000 2.82 162 23:20 20.10.2020
6570 Clouds 11 1011 81 10000 2.82 162 22:36 20.10.2020
6571 Clouds 11 1011 81 10000 3.13 174 22:18 20.10.2020
6572 Clouds 11 1011 81 10000 3.13 174 21:45 20.10.2020
6573 Clouds 12 1011 81 10000 4.77 189 21:18 20.10.2020
6574 Clouds 12 1012 76 10000 4.77 189 20:42 20.10.2020
6575 Clouds 12 1012 81 10000 3.52 181 20:23 20.10.2020
6576 Clouds 12 1012 76 10000 3.29 180 19:44 20.10.2020
6577 Clouds 12 1012 76 10000 2.34 167 19:22 20.10.2020
6578 Rain 12 1012 76 10000 2.34 167 18:57 20.10.2020
6579 Rain 12 1011 76 10000 2.34 167 18:37 20.10.2020
6580 Clouds 13 1012 71 10000 3.31 173 17:51 20.10.2020
6581 Clouds 13 1012 71 10000 3.31 173 17:32 20.10.2020
6582 Clouds 13 1012 71 10000 3.37 204 16:59 20.10.2020
6583 Clouds 13 1012 76 10000 3.1 170 16:40 20.10.2020
6584 Clouds 13 1012 71 10000 4.48 212 16:22 20.10.2020
6585 Clouds 13 1013 76 10000 4.48 212 15:46 20.10.2020
6586 Clouds 13 1013 71 10000 3.6 180 15:27 20.10.2020
6587 Clouds 13 1013 71 10000 3.05 202 14:45 20.10.2020
6588 Clouds 13 1013 71 10000 4.36 205 14:25 20.10.2020
6589 Clouds 12 1013 76 10000 4.43 200 13:59 20.10.2020
6590 Clouds 12 1013 76 10000 4.6 180 13:40 20.10.2020
6591 Clouds 11 1013 76 10000 4.48 194 13:20 20.10.2020
6592 Clear 10 1013 81 10000 4.48 194 12:50 20.10.2020
6593 Clear 11 1013 81 10000 4.48 194 12:30 20.10.2020
6594 Clear 10 1013 76 10000 2.1 260 11:48 20.10.2020
6595 Clear 10 1013 76 10000 2.1 260 11:29 20.10.2020
6596 Clouds 9 1013 87 10000 4.77 193 10:53 20.10.2020
6597 Clouds 8 1013 87 10000 4.09 176 10:28 20.10.2020
6598 Clouds 8 1013 87 10000 4.09 176 09:47 20.10.2020
6599 Clouds 7 1013 87 10000 3.1 163 09:20 20.10.2020
6600 Clouds 7 1013 93 10000 3.1 163 08:53 20.10.2020
6601 Clouds 7 1013 93 10000 3.01 165 08:27 20.10.2020
6602 Clouds 6 1013 87 10000 3.2 165 07:49 20.10.2020
6603 Clouds 6 1013 87 10000 2.93 158 07:24 20.10.2020
6604 Clouds 6 1013 86 10000 2.93 165 06:24 20.10.2020
6605 Clouds 6 1014 80 10000 2.61 163 04:58 20.10.2020
6606 Clear 5 1015 80 10000 1.5 70 02:33 20.10.2020
6607 Clear 5 1016 80 10000 2.18 139 01:43 20.10.2020
6608 Clouds 5 1016 86 10000 2.1 80 00:57 20.10.2020
6609 Clouds 5 1016 86 10000 2.1 80 00:39 20.10.2020
6610 Clouds 6 1016 86 10000 2.1 80 00:18 20.10.2020
6611 Clouds 6 1016 86 10000 2.1 80 00:18 20.10.2020
6612 Clear 5 1017 86 10000 2.8 124 23:40 19.10.2020
6613 Clear 5 1017 86 10000 2.85 126 23:19 19.10.2020
6614 Clear 6 1018 87 10000 2.85 126 22:42 19.10.2020
6615 Clear 6 1018 87 10000 2.59 131 22:20 19.10.2020
6616 Clear 6 1018 87 10000 2.59 131 21:42 19.10.2020
6617 Clear 6 1018 87 10000 2.1 116 21:20 19.10.2020
6618 Clear 7 1019 81 10000 2.1 116 20:45 19.10.2020
6619 Clear 7 1019 81 10000 2.39 118 20:27 19.10.2020
6620 Clear 7 1019 81 10000 2.2 129 19:47 19.10.2020
6621 Clear 8 1019 81 10000 1.92 132 19:22 19.10.2020
6622 Clouds 9 1019 66 10000 1.92 132 18:53 19.10.2020
6623 Clouds 9 1019 66 10000 1.92 132 18:33 19.10.2020
6624 Clouds 11 1019 66 10000 2.03 141 17:58 19.10.2020
6625 Clouds 11 1019 66 10000 2.03 141 17:40 19.10.2020
6626 Clouds 11 1019 66 10000 2.17 145 17:21 19.10.2020
6627 Clouds 11 1020 66 10000 2.17 145 16:43 19.10.2020
6628 Clouds 11 1020 62 10000 2.22 170 16:22 19.10.2020
6629 Clouds 11 1018 67 10000 2.22 170 15:41 19.10.2020
6630 Clouds 11 1020 71 10000 0.45 61 15:23 19.10.2020
6631 Clouds 12 1020 66 10000 1.94 177 14:51 19.10.2020
6632 Clouds 11 1020 70 10000 0.45 248 14:24 19.10.2020
6633 Clouds 10 1021 77 10000 1.84 187 13:52 19.10.2020
6634 Clouds 10 1021 74 10000 2.49 193 13:31 19.10.2020
6635 Clouds 9 1022 79 10000 0.45 283 12:50 19.10.2020
6636 Clouds 10 1022 80 10000 2.43 198 12:32 19.10.2020
6637 Fog 8 1023 100 500 2.1 170 11:51 19.10.2020
6638 Mist 8 1023 100 2400 1.46 188 11:26 19.10.2020
6639 Mist 8 1023 100 2400 1.46 188 10:56 19.10.2020
6640 Mist 7 1023 100 2400 1.46 188 10:38 19.10.2020
6641 Mist 7 1023 100 2000 1.37 172 10:19 19.10.2020
6642 Fog 6 1022 100 400 1.37 172 09:42 19.10.2020
6643 Fog 6 1022 100 800 1.31 189 09:19 19.10.2020
6644 Mist 6 1022 93 4000 1.31 189 08:48 19.10.2020
6645 Mist 6 1022 93 4000 1.47 180 08:23 19.10.2020
6646 Mist 6 1022 100 6000 1.38 185 07:43 19.10.2020
6647 Mist 6 1022 100 6000 1.56 175 07:19 19.10.2020
6648 Mist 6 1022 100 6000 1.56 175 06:19 19.10.2020
6649 Mist 6 1022 100 6000 1.56 175 06:19 19.10.2020
6650 Clouds 7 1023 93 10000 2.6 290 03:50 19.10.2020
6651 Clouds 7 1023 93 10000 1.43 196 03:32 19.10.2020
6652 Clouds 7 1023 93 10000 1.93 209 00:57 19.10.2020
6653 Clouds 7 1023 93 10000 1.91 200 00:25 19.10.2020
6654 Clouds 7 1023 93 10000 1.91 200 23:48 18.10.2020
6655 Clouds 7 1023 93 10000 1.9 204 23:25 18.10.2020
6656 Clouds 7 1023 93 10000 1.9 204 22:52 18.10.2020
6657 Clouds 7 1023 93 10000 1.81 215 22:22 18.10.2020
6658 Clouds 7 1023 87 10000 1.81 215 21:56 18.10.2020
6659 Clouds 7 1023 87 10000 1.81 215 21:37 18.10.2020
6660 Clouds 7 1023 87 10000 1.87 210 21:18 18.10.2020
6661 Clouds 7 1023 87 10000 1.87 210 20:40 18.10.2020
6662 Clouds 7 1023 87 10000 1.86 212 20:21 18.10.2020
6663 Clouds 8 1022 87 10000 1.86 212 19:44 18.10.2020
6664 Clouds 8 1022 87 10000 1.86 212 19:44 18.10.2020
6665 Clouds 8 1022 87 10000 1.86 212 19:44 18.10.2020
6666 Clouds 8 1022 87 10000 2.26 224 19:26 18.10.2020
6667 Clouds 8 1022 76 10000 2.26 224 18:49 18.10.2020
6668 Clouds 9 1022 76 10000 2.15 228 18:28 18.10.2020
6669 Clouds 9 1022 76 10000 2.15 228 17:45 18.10.2020
6670 Clouds 9 1022 76 10000 2.56 240 17:25 18.10.2020
6671 Clouds 9 1022 76 10000 2.56 240 16:58 18.10.2020
6672 Clouds 9 1022 76 10000 2.56 240 16:39 18.10.2020
6673 Clouds 9 1022 76 10000 2.59 244 16:21 18.10.2020
6674 Clouds 9 1022 76 10000 2.59 244 15:42 18.10.2020
6675 Clouds 9 1023 81 10000 2.49 252 15:19 18.10.2020